<?xml version="1.0" encoding="UTF-8" standalone="no" ?>
<gpx xmlns="http://www.topografix.com/GPX/1/1" xmlns:xsi="http://www.w3.org/2001/XMLSchema-instance" xsi:schemaLocation="http://www.topografix.com/GPX/1/1 http://www.topografix.com/GPX/1/1/gpx.xsd" version="1.1" creator="VisuGPX - https://www.visugpx.com">
  <metadata>
    <name>Lozere - Margeride jour 3</name>
    <desc><![CDATA[Départ St Sauveur de Ginestoux
Retour à Rocles - Ecuries de Palheres]]></desc>
  </metadata>
  <trk>
    <name><![CDATA[Lozere - Margeride jour 3_1]]></name>
    <trkseg>
      <trkpt lat="44.70441" lon="3.60629">
        <ele>1304.7</ele>
        <time>2015-04-23T09:36:45Z</time>
      </trkpt>
      <trkpt lat="44.70449" lon="3.60637">
        <ele>1299.2183212262</ele>
        <time>2015-04-23T09:36:50Z</time>
      </trkpt>
      <trkpt lat="44.70453" lon="3.60638">
        <ele>1299.2183212262</ele>
        <time>2015-04-23T09:36:55Z</time>
      </trkpt>
      <trkpt lat="44.70452" lon="3.60639">
        <ele>1299.2183212262</ele>
        <time>2015-04-23T09:37:00Z</time>
      </trkpt>
      <trkpt lat="44.70453" lon="3.60639">
        <ele>1299.2183212262</ele>
        <time>2015-04-23T09:37:05Z</time>
      </trkpt>
      <trkpt lat="44.70454" lon="3.60647">
        <ele>1301.7244158979</ele>
        <time>2015-04-23T09:37:10Z</time>
      </trkpt>
      <trkpt lat="44.70457" lon="3.60655">
        <ele>1301.7244158979</ele>
        <time>2015-04-23T09:37:15Z</time>
      </trkpt>
      <trkpt lat="44.70458" lon="3.60669">
        <ele>1306.9477037662</ele>
        <time>2015-04-23T09:37:20Z</time>
      </trkpt>
      <trkpt lat="44.70463" lon="3.60677">
        <ele>1306.9477037662</ele>
        <time>2015-04-23T09:37:25Z</time>
      </trkpt>
      <trkpt lat="44.70468" lon="3.60675">
        <ele>1312.1487822009</ele>
        <time>2015-04-23T09:37:30Z</time>
      </trkpt>
      <trkpt lat="44.70474" lon="3.6067">
        <ele>1312.1487822009</ele>
        <time>2015-04-23T09:37:35Z</time>
      </trkpt>
      <trkpt lat="44.70478" lon="3.60663">
        <ele>1317.4062261364</ele>
        <time>2015-04-23T09:37:40Z</time>
      </trkpt>
      <trkpt lat="44.70481" lon="3.6066">
        <ele>1317.4062261364</ele>
        <time>2015-04-23T09:37:45Z</time>
      </trkpt>
      <trkpt lat="44.70482" lon="3.60661">
        <ele>1317.4062261364</ele>
        <time>2015-04-23T09:37:50Z</time>
      </trkpt>
      <trkpt lat="44.70482" lon="3.60662">
        <ele>1317.4062261364</ele>
        <time>2015-04-23T09:37:55Z</time>
      </trkpt>
      <trkpt lat="44.70483" lon="3.60661">
        <ele>1317.4062261364</ele>
        <time>2015-04-23T09:38:00Z</time>
      </trkpt>
      <trkpt lat="44.70485" lon="3.60657">
        <ele>1324.8006379374</ele>
        <time>2015-04-23T09:38:05Z</time>
      </trkpt>
      <trkpt lat="44.70486" lon="3.60652">
        <ele>1324.8006379374</ele>
        <time>2015-04-23T09:38:10Z</time>
      </trkpt>
      <trkpt lat="44.70487" lon="3.60651">
        <ele>1324.8006379374</ele>
        <time>2015-04-23T09:38:15Z</time>
      </trkpt>
      <trkpt lat="44.70488" lon="3.60651">
        <ele>1324.8006379374</ele>
        <time>2015-04-23T09:38:20Z</time>
      </trkpt>
      <trkpt lat="44.7049" lon="3.6065">
        <ele>1324.8006379374</ele>
        <time>2015-04-23T09:38:25Z</time>
      </trkpt>
      <trkpt lat="44.7049" lon="3.60651">
        <ele>1330.6906567332</ele>
        <time>2015-04-23T09:38:30Z</time>
      </trkpt>
      <trkpt lat="44.70491" lon="3.60658">
        <ele>1330.6906567332</ele>
        <time>2015-04-23T09:38:35Z</time>
      </trkpt>
      <trkpt lat="44.70493" lon="3.6067">
        <ele>1336.3820552711</ele>
        <time>2015-04-23T09:38:40Z</time>
      </trkpt>
      <trkpt lat="44.70495" lon="3.60681">
        <ele>1336.3820552711</ele>
        <time>2015-04-23T09:38:45Z</time>
      </trkpt>
      <trkpt lat="44.70497" lon="3.60687">
        <ele>1341.3389795451</ele>
        <time>2015-04-23T09:38:50Z</time>
      </trkpt>
      <trkpt lat="44.705" lon="3.60683">
        <ele>1341.3389795451</ele>
        <time>2015-04-23T09:38:55Z</time>
      </trkpt>
      <trkpt lat="44.70501" lon="3.60681">
        <ele>1341.3389795451</ele>
        <time>2015-04-23T09:39:00Z</time>
      </trkpt>
      <trkpt lat="44.705" lon="3.60682">
        <ele>1341.3389795451</ele>
        <time>2015-04-23T09:39:05Z</time>
      </trkpt>
      <trkpt lat="44.705" lon="3.60682">
        <ele>1341.3389795451</ele>
        <time>2015-04-23T09:39:10Z</time>
      </trkpt>
      <trkpt lat="44.70499" lon="3.60683">
        <ele>1341.3389795451</ele>
        <time>2015-04-23T09:39:15Z</time>
      </trkpt>
      <trkpt lat="44.705" lon="3.60685">
        <ele>1341.3389795451</ele>
        <time>2015-04-23T09:39:20Z</time>
      </trkpt>
      <trkpt lat="44.70501" lon="3.60684">
        <ele>1344.7510060793</ele>
        <time>2015-04-23T09:39:25Z</time>
      </trkpt>
      <trkpt lat="44.70501" lon="3.60684">
        <ele>1344.7510060793</ele>
        <time>2015-04-23T09:39:30Z</time>
      </trkpt>
      <trkpt lat="44.70501" lon="3.60684">
        <ele>1344.7510060793</ele>
        <time>2015-04-23T09:39:35Z</time>
      </trkpt>
      <trkpt lat="44.705" lon="3.60685">
        <ele>1344.7510060793</ele>
        <time>2015-04-23T09:39:40Z</time>
      </trkpt>
      <trkpt lat="44.705" lon="3.60685">
        <ele>1344.7510060793</ele>
        <time>2015-04-23T09:39:45Z</time>
      </trkpt>
      <trkpt lat="44.70499" lon="3.60686">
        <ele>1344.7510060793</ele>
        <time>2015-04-23T09:39:50Z</time>
      </trkpt>
      <trkpt lat="44.70499" lon="3.60686">
        <ele>1344.7510060793</ele>
        <time>2015-04-23T09:39:55Z</time>
      </trkpt>
      <trkpt lat="44.70499" lon="3.60686">
        <ele>1344.7510060793</ele>
        <time>2015-04-23T09:40:00Z</time>
      </trkpt>
      <trkpt lat="44.70499" lon="3.60686">
        <ele>1344.7510060793</ele>
        <time>2015-04-23T09:40:05Z</time>
      </trkpt>
      <trkpt lat="44.70499" lon="3.60686">
        <ele>1344.7510060793</ele>
        <time>2015-04-23T09:40:10Z</time>
      </trkpt>
      <trkpt lat="44.70499" lon="3.60686">
        <ele>1344.7510060793</ele>
        <time>2015-04-23T09:40:15Z</time>
      </trkpt>
      <trkpt lat="44.70499" lon="3.60686">
        <ele>1344.7510060793</ele>
        <time>2015-04-23T09:40:20Z</time>
      </trkpt>
      <trkpt lat="44.70499" lon="3.60686">
        <ele>1344.7510060793</ele>
        <time>2015-04-23T09:40:25Z</time>
      </trkpt>
      <trkpt lat="44.70499" lon="3.60686">
        <ele>1344.7510060793</ele>
        <time>2015-04-23T09:40:30Z</time>
      </trkpt>
      <trkpt lat="44.70499" lon="3.60686">
        <ele>1344.7510060793</ele>
        <time>2015-04-23T09:40:35Z</time>
      </trkpt>
      <trkpt lat="44.705" lon="3.60686">
        <ele>1344.7510060793</ele>
        <time>2015-04-23T09:40:40Z</time>
      </trkpt>
      <trkpt lat="44.70503" lon="3.60691">
        <ele>1344.7510060793</ele>
        <time>2015-04-23T09:40:45Z</time>
      </trkpt>
      <trkpt lat="44.70504" lon="3.60698">
        <ele>1347.2369795883</ele>
        <time>2015-04-23T09:40:50Z</time>
      </trkpt>
      <trkpt lat="44.70505" lon="3.60704">
        <ele>1347.2369795883</ele>
        <time>2015-04-23T09:40:55Z</time>
      </trkpt>
      <trkpt lat="44.70505" lon="3.60712">
        <ele>1348.708926496</ele>
        <time>2015-04-23T09:41:00Z</time>
      </trkpt>
      <trkpt lat="44.70505" lon="3.6072">
        <ele>1348.708926496</ele>
        <time>2015-04-23T09:41:05Z</time>
      </trkpt>
      <trkpt lat="44.70504" lon="3.60729">
        <ele>1349.3428775465</ele>
        <time>2015-04-23T09:41:10Z</time>
      </trkpt>
      <trkpt lat="44.70503" lon="3.60739">
        <ele>1349.3428775465</ele>
        <time>2015-04-23T09:41:15Z</time>
      </trkpt>
      <trkpt lat="44.70502" lon="3.60747">
        <ele>1348.8917522845</ele>
        <time>2015-04-23T09:41:20Z</time>
      </trkpt>
      <trkpt lat="44.705" lon="3.60754">
        <ele>1348.8917522845</ele>
        <time>2015-04-23T09:41:25Z</time>
      </trkpt>
      <trkpt lat="44.70499" lon="3.6076">
        <ele>1347.7282035079</ele>
        <time>2015-04-23T09:41:30Z</time>
      </trkpt>
      <trkpt lat="44.70496" lon="3.60767">
        <ele>1347.7282035079</ele>
        <time>2015-04-23T09:41:35Z</time>
      </trkpt>
      <trkpt lat="44.70494" lon="3.60775">
        <ele>1345.7307753588</ele>
        <time>2015-04-23T09:41:40Z</time>
      </trkpt>
      <trkpt lat="44.70491" lon="3.60783">
        <ele>1345.7307753588</ele>
        <time>2015-04-23T09:41:45Z</time>
      </trkpt>
      <trkpt lat="44.70487" lon="3.60791">
        <ele>1343.0847249597</ele>
        <time>2015-04-23T09:41:50Z</time>
      </trkpt>
      <trkpt lat="44.70484" lon="3.60798">
        <ele>1343.0847249597</ele>
        <time>2015-04-23T09:41:55Z</time>
      </trkpt>
      <trkpt lat="44.70482" lon="3.60803">
        <ele>1340.1588283996</ele>
        <time>2015-04-23T09:42:00Z</time>
      </trkpt>
      <trkpt lat="44.70477" lon="3.60811">
        <ele>1340.1588283996</ele>
        <time>2015-04-23T09:42:05Z</time>
      </trkpt>
      <trkpt lat="44.70474" lon="3.60819">
        <ele>1336.6460253472</ele>
        <time>2015-04-23T09:42:10Z</time>
      </trkpt>
      <trkpt lat="44.70471" lon="3.60826">
        <ele>1336.6460253472</ele>
        <time>2015-04-23T09:42:15Z</time>
      </trkpt>
      <trkpt lat="44.70468" lon="3.60837">
        <ele>1333.3055241466</ele>
        <time>2015-04-23T09:42:20Z</time>
      </trkpt>
      <trkpt lat="44.70466" lon="3.60847">
        <ele>1333.3055241466</ele>
        <time>2015-04-23T09:42:25Z</time>
      </trkpt>
      <trkpt lat="44.70463" lon="3.60857">
        <ele>1330.2774887626</ele>
        <time>2015-04-23T09:42:30Z</time>
      </trkpt>
      <trkpt lat="44.7046" lon="3.60865">
        <ele>1330.2774887626</ele>
        <time>2015-04-23T09:42:35Z</time>
      </trkpt>
      <trkpt lat="44.70458" lon="3.60872">
        <ele>1327.3383258233</ele>
        <time>2015-04-23T09:42:40Z</time>
      </trkpt>
      <trkpt lat="44.70456" lon="3.6088">
        <ele>1327.3383258233</ele>
        <time>2015-04-23T09:42:45Z</time>
      </trkpt>
      <trkpt lat="44.70454" lon="3.60889">
        <ele>1324.0756618302</ele>
        <time>2015-04-23T09:42:50Z</time>
      </trkpt>
      <trkpt lat="44.70453" lon="3.60895">
        <ele>1324.0756618302</ele>
        <time>2015-04-23T09:42:55Z</time>
      </trkpt>
      <trkpt lat="44.70453" lon="3.60906">
        <ele>1320.9215669006</ele>
        <time>2015-04-23T09:43:00Z</time>
      </trkpt>
      <trkpt lat="44.70453" lon="3.60913">
        <ele>1320.9215669006</ele>
        <time>2015-04-23T09:43:05Z</time>
      </trkpt>
      <trkpt lat="44.70454" lon="3.6092">
        <ele>1317.9294681292</ele>
        <time>2015-04-23T09:43:10Z</time>
      </trkpt>
      <trkpt lat="44.70453" lon="3.60928">
        <ele>1317.9294681292</ele>
        <time>2015-04-23T09:43:15Z</time>
      </trkpt>
      <trkpt lat="44.70449" lon="3.60937">
        <ele>1315.0855139025</ele>
        <time>2015-04-23T09:43:20Z</time>
      </trkpt>
      <trkpt lat="44.70444" lon="3.60945">
        <ele>1315.0855139025</ele>
        <time>2015-04-23T09:43:25Z</time>
      </trkpt>
      <trkpt lat="44.70439" lon="3.60949">
        <ele>1312.3896113762</ele>
        <time>2015-04-23T09:43:30Z</time>
      </trkpt>
      <trkpt lat="44.70433" lon="3.60956">
        <ele>1312.3896113762</ele>
        <time>2015-04-23T09:43:35Z</time>
      </trkpt>
      <trkpt lat="44.70423" lon="3.60964">
        <ele>1309.7842108534</ele>
        <time>2015-04-23T09:43:40Z</time>
      </trkpt>
      <trkpt lat="44.70417" lon="3.6097">
        <ele>1309.7842108534</ele>
        <time>2015-04-23T09:43:45Z</time>
      </trkpt>
      <trkpt lat="44.7041" lon="3.60978">
        <ele>1307.6939194773</ele>
        <time>2015-04-23T09:43:50Z</time>
      </trkpt>
      <trkpt lat="44.70407" lon="3.60983">
        <ele>1307.6939194773</ele>
        <time>2015-04-23T09:43:55Z</time>
      </trkpt>
      <trkpt lat="44.70403" lon="3.60989">
        <ele>1305.458866205</ele>
        <time>2015-04-23T09:44:00Z</time>
      </trkpt>
      <trkpt lat="44.70402" lon="3.60993">
        <ele>1305.458866205</ele>
        <time>2015-04-23T09:44:05Z</time>
      </trkpt>
      <trkpt lat="44.70401" lon="3.60995">
        <ele>1305.458866205</ele>
        <time>2015-04-23T09:44:10Z</time>
      </trkpt>
      <trkpt lat="44.704" lon="3.60999">
        <ele>1305.458866205</ele>
        <time>2015-04-23T09:44:15Z</time>
      </trkpt>
      <trkpt lat="44.70401" lon="3.60999">
        <ele>1305.458866205</ele>
        <time>2015-04-23T09:44:20Z</time>
      </trkpt>
      <trkpt lat="44.70401" lon="3.60999">
        <ele>1305.458866205</ele>
        <time>2015-04-23T09:44:25Z</time>
      </trkpt>
      <trkpt lat="44.70401" lon="3.60999">
        <ele>1305.458866205</ele>
        <time>2015-04-23T09:44:30Z</time>
      </trkpt>
      <trkpt lat="44.70401" lon="3.60999">
        <ele>1305.458866205</ele>
        <time>2015-04-23T09:44:35Z</time>
      </trkpt>
      <trkpt lat="44.70401" lon="3.60999">
        <ele>1305.458866205</ele>
        <time>2015-04-23T09:44:40Z</time>
      </trkpt>
      <trkpt lat="44.70401" lon="3.60999">
        <ele>1305.458866205</ele>
        <time>2015-04-23T09:44:45Z</time>
      </trkpt>
      <trkpt lat="44.70401" lon="3.60999">
        <ele>1305.458866205</ele>
        <time>2015-04-23T09:44:50Z</time>
      </trkpt>
      <trkpt lat="44.70401" lon="3.61">
        <ele>1303.4790023344</ele>
        <time>2015-04-23T09:44:55Z</time>
      </trkpt>
      <trkpt lat="44.70401" lon="3.61">
        <ele>1303.4790023344</ele>
        <time>2015-04-23T09:45:00Z</time>
      </trkpt>
      <trkpt lat="44.70399" lon="3.61">
        <ele>1303.4790023344</ele>
        <time>2015-04-23T09:45:05Z</time>
      </trkpt>
      <trkpt lat="44.70398" lon="3.61001">
        <ele>1303.4790023344</ele>
        <time>2015-04-23T09:45:10Z</time>
      </trkpt>
      <trkpt lat="44.70395" lon="3.61005">
        <ele>1303.4790023344</ele>
        <time>2015-04-23T09:45:15Z</time>
      </trkpt>
      <trkpt lat="44.70393" lon="3.61007">
        <ele>1301.5817543356</ele>
        <time>2015-04-23T09:45:20Z</time>
      </trkpt>
      <trkpt lat="44.70391" lon="3.6101">
        <ele>1301.5817543356</ele>
        <time>2015-04-23T09:45:25Z</time>
      </trkpt>
      <trkpt lat="44.70391" lon="3.61012">
        <ele>1301.5817543356</ele>
        <time>2015-04-23T09:45:30Z</time>
      </trkpt>
      <trkpt lat="44.7039" lon="3.61013">
        <ele>1301.5817543356</ele>
        <time>2015-04-23T09:45:35Z</time>
      </trkpt>
      <trkpt lat="44.7039" lon="3.61012">
        <ele>1301.5817543356</ele>
        <time>2015-04-23T09:45:40Z</time>
      </trkpt>
      <trkpt lat="44.70389" lon="3.61012">
        <ele>1301.5817543356</ele>
        <time>2015-04-23T09:45:45Z</time>
      </trkpt>
      <trkpt lat="44.7039" lon="3.61012">
        <ele>1301.5817543356</ele>
        <time>2015-04-23T09:45:50Z</time>
      </trkpt>
      <trkpt lat="44.7039" lon="3.61013">
        <ele>1301.5817543356</ele>
        <time>2015-04-23T09:45:55Z</time>
      </trkpt>
      <trkpt lat="44.7039" lon="3.61011">
        <ele>1301.5817543356</ele>
        <time>2015-04-23T09:46:00Z</time>
      </trkpt>
      <trkpt lat="44.7039" lon="3.6101">
        <ele>1301.5817543356</ele>
        <time>2015-04-23T09:46:05Z</time>
      </trkpt>
      <trkpt lat="44.7039" lon="3.6101">
        <ele>1301.5817543356</ele>
        <time>2015-04-23T09:46:10Z</time>
      </trkpt>
      <trkpt lat="44.7039" lon="3.6101">
        <ele>1301.5817543356</ele>
        <time>2015-04-23T09:46:15Z</time>
      </trkpt>
      <trkpt lat="44.7039" lon="3.6101">
        <ele>1301.5817543356</ele>
        <time>2015-04-23T09:46:20Z</time>
      </trkpt>
      <trkpt lat="44.7039" lon="3.6101">
        <ele>1301.5817543356</ele>
        <time>2015-04-23T09:46:25Z</time>
      </trkpt>
      <trkpt lat="44.7039" lon="3.6101">
        <ele>1301.5817543356</ele>
        <time>2015-04-23T09:46:30Z</time>
      </trkpt>
      <trkpt lat="44.7039" lon="3.6101">
        <ele>1301.5817543356</ele>
        <time>2015-04-23T09:46:35Z</time>
      </trkpt>
      <trkpt lat="44.7039" lon="3.6101">
        <ele>1301.5817543356</ele>
        <time>2015-04-23T09:46:40Z</time>
      </trkpt>
      <trkpt lat="44.7039" lon="3.61009">
        <ele>1299.8036541211</ele>
        <time>2015-04-23T09:46:45Z</time>
      </trkpt>
      <trkpt lat="44.70391" lon="3.61008">
        <ele>1299.8036541211</ele>
        <time>2015-04-23T09:46:50Z</time>
      </trkpt>
      <trkpt lat="44.70391" lon="3.61008">
        <ele>1299.8036541211</ele>
        <time>2015-04-23T09:46:55Z</time>
      </trkpt>
      <trkpt lat="44.70391" lon="3.61008">
        <ele>1299.8036541211</ele>
        <time>2015-04-23T09:47:00Z</time>
      </trkpt>
      <trkpt lat="44.70391" lon="3.61008">
        <ele>1299.8036541211</ele>
        <time>2015-04-23T09:47:05Z</time>
      </trkpt>
      <trkpt lat="44.70391" lon="3.61008">
        <ele>1299.8036541211</ele>
        <time>2015-04-23T09:47:10Z</time>
      </trkpt>
      <trkpt lat="44.70391" lon="3.61008">
        <ele>1299.8036541211</ele>
        <time>2015-04-23T09:47:15Z</time>
      </trkpt>
      <trkpt lat="44.70391" lon="3.61008">
        <ele>1299.8036541211</ele>
        <time>2015-04-23T09:47:20Z</time>
      </trkpt>
      <trkpt lat="44.70391" lon="3.61008">
        <ele>1299.8036541211</ele>
        <time>2015-04-23T09:47:25Z</time>
      </trkpt>
      <trkpt lat="44.70391" lon="3.61008">
        <ele>1299.8036541211</ele>
        <time>2015-04-23T09:47:30Z</time>
      </trkpt>
      <trkpt lat="44.70391" lon="3.61008">
        <ele>1299.8036541211</ele>
        <time>2015-04-23T09:47:35Z</time>
      </trkpt>
      <trkpt lat="44.70391" lon="3.61008">
        <ele>1299.8036541211</ele>
        <time>2015-04-23T09:47:40Z</time>
      </trkpt>
      <trkpt lat="44.70391" lon="3.61008">
        <ele>1299.8036541211</ele>
        <time>2015-04-23T09:47:45Z</time>
      </trkpt>
      <trkpt lat="44.70391" lon="3.61008">
        <ele>1299.8036541211</ele>
        <time>2015-04-23T09:47:50Z</time>
      </trkpt>
      <trkpt lat="44.70391" lon="3.61009">
        <ele>1299.8036541211</ele>
        <time>2015-04-23T09:47:55Z</time>
      </trkpt>
      <trkpt lat="44.70391" lon="3.61009">
        <ele>1299.8036541211</ele>
        <time>2015-04-23T09:48:00Z</time>
      </trkpt>
      <trkpt lat="44.7039" lon="3.61011">
        <ele>1299.8036541211</ele>
        <time>2015-04-23T09:48:05Z</time>
      </trkpt>
      <trkpt lat="44.70389" lon="3.61013">
        <ele>1299.8036541211</ele>
        <time>2015-04-23T09:48:10Z</time>
      </trkpt>
      <trkpt lat="44.70384" lon="3.61015">
        <ele>1298.2915607971</ele>
        <time>2015-04-23T09:48:15Z</time>
      </trkpt>
      <trkpt lat="44.70382" lon="3.61017">
        <ele>1298.2915607971</ele>
        <time>2015-04-23T09:48:20Z</time>
      </trkpt>
      <trkpt lat="44.70382" lon="3.61017">
        <ele>1298.2915607971</ele>
        <time>2015-04-23T09:48:25Z</time>
      </trkpt>
      <trkpt lat="44.7038" lon="3.61015">
        <ele>1298.2915607971</ele>
        <time>2015-04-23T09:48:30Z</time>
      </trkpt>
      <trkpt lat="44.7038" lon="3.61015">
        <ele>1298.2915607971</ele>
        <time>2015-04-23T09:48:35Z</time>
      </trkpt>
      <trkpt lat="44.70379" lon="3.61015">
        <ele>1298.2915607971</ele>
        <time>2015-04-23T09:48:40Z</time>
      </trkpt>
      <trkpt lat="44.70374" lon="3.61015">
        <ele>1296.9614595576</ele>
        <time>2015-04-23T09:48:45Z</time>
      </trkpt>
      <trkpt lat="44.70367" lon="3.61015">
        <ele>1296.9614595576</ele>
        <time>2015-04-23T09:48:50Z</time>
      </trkpt>
      <trkpt lat="44.70361" lon="3.61017">
        <ele>1295.9461008252</ele>
        <time>2015-04-23T09:48:55Z</time>
      </trkpt>
      <trkpt lat="44.70355" lon="3.61018">
        <ele>1295.9461008252</ele>
        <time>2015-04-23T09:49:00Z</time>
      </trkpt>
      <trkpt lat="44.70349" lon="3.61018">
        <ele>1294.9772307732</ele>
        <time>2015-04-23T09:49:05Z</time>
      </trkpt>
      <trkpt lat="44.70342" lon="3.61019">
        <ele>1294.9772307732</ele>
        <time>2015-04-23T09:49:10Z</time>
      </trkpt>
      <trkpt lat="44.70336" lon="3.61017">
        <ele>1294.4396324816</ele>
        <time>2015-04-23T09:49:15Z</time>
      </trkpt>
      <trkpt lat="44.70329" lon="3.61017">
        <ele>1294.4396324816</ele>
        <time>2015-04-23T09:49:20Z</time>
      </trkpt>
      <trkpt lat="44.70322" lon="3.61016">
        <ele>1294.3697509586</ele>
        <time>2015-04-23T09:49:25Z</time>
      </trkpt>
      <trkpt lat="44.70315" lon="3.61015">
        <ele>1294.3697509586</ele>
        <time>2015-04-23T09:49:30Z</time>
      </trkpt>
      <trkpt lat="44.70309" lon="3.61017">
        <ele>1294.4849134266</ele>
        <time>2015-04-23T09:49:35Z</time>
      </trkpt>
      <trkpt lat="44.70302" lon="3.61019">
        <ele>1294.4849134266</ele>
        <time>2015-04-23T09:49:40Z</time>
      </trkpt>
      <trkpt lat="44.70296" lon="3.61021">
        <ele>1294.920872531</ele>
        <time>2015-04-23T09:49:45Z</time>
      </trkpt>
      <trkpt lat="44.70289" lon="3.61024">
        <ele>1294.920872531</ele>
        <time>2015-04-23T09:49:50Z</time>
      </trkpt>
      <trkpt lat="44.70282" lon="3.61025">
        <ele>1295.5572801562</ele>
        <time>2015-04-23T09:49:55Z</time>
      </trkpt>
      <trkpt lat="44.70275" lon="3.61025">
        <ele>1295.5572801562</ele>
        <time>2015-04-23T09:50:00Z</time>
      </trkpt>
      <trkpt lat="44.70269" lon="3.61026">
        <ele>1296.2199463666</ele>
        <time>2015-04-23T09:50:05Z</time>
      </trkpt>
      <trkpt lat="44.70263" lon="3.61031">
        <ele>1296.2199463666</ele>
        <time>2015-04-23T09:50:10Z</time>
      </trkpt>
      <trkpt lat="44.70257" lon="3.61036">
        <ele>1296.7286475759</ele>
        <time>2015-04-23T09:50:15Z</time>
      </trkpt>
      <trkpt lat="44.70251" lon="3.6104">
        <ele>1296.7286475759</ele>
        <time>2015-04-23T09:50:20Z</time>
      </trkpt>
      <trkpt lat="44.70245" lon="3.61042">
        <ele>1297.3734049879</ele>
        <time>2015-04-23T09:50:25Z</time>
      </trkpt>
      <trkpt lat="44.70239" lon="3.61045">
        <ele>1297.3734049879</ele>
        <time>2015-04-23T09:50:30Z</time>
      </trkpt>
      <trkpt lat="44.70233" lon="3.61048">
        <ele>1297.8607031247</ele>
        <time>2015-04-23T09:50:35Z</time>
      </trkpt>
      <trkpt lat="44.70226" lon="3.61049">
        <ele>1297.8607031247</ele>
        <time>2015-04-23T09:50:40Z</time>
      </trkpt>
      <trkpt lat="44.70222" lon="3.61052">
        <ele>1298.8726600689</ele>
        <time>2015-04-23T09:50:45Z</time>
      </trkpt>
      <trkpt lat="44.70218" lon="3.61056">
        <ele>1298.8726600689</ele>
        <time>2015-04-23T09:50:50Z</time>
      </trkpt>
      <trkpt lat="44.70214" lon="3.6106">
        <ele>1300.0403141597</ele>
        <time>2015-04-23T09:50:55Z</time>
      </trkpt>
      <trkpt lat="44.70208" lon="3.61065">
        <ele>1300.0403141597</ele>
        <time>2015-04-23T09:51:00Z</time>
      </trkpt>
      <trkpt lat="44.70202" lon="3.61072">
        <ele>1301.0928742703</ele>
        <time>2015-04-23T09:51:05Z</time>
      </trkpt>
      <trkpt lat="44.70195" lon="3.61076">
        <ele>1301.0928742703</ele>
        <time>2015-04-23T09:51:10Z</time>
      </trkpt>
      <trkpt lat="44.7019" lon="3.6108">
        <ele>1302.0198302151</ele>
        <time>2015-04-23T09:51:15Z</time>
      </trkpt>
      <trkpt lat="44.70182" lon="3.61087">
        <ele>1302.8727093119</ele>
        <time>2015-04-23T09:51:20Z</time>
      </trkpt>
      <trkpt lat="44.70174" lon="3.6109">
        <ele>1302.8727093119</ele>
        <time>2015-04-23T09:51:25Z</time>
      </trkpt>
      <trkpt lat="44.70167" lon="3.61094">
        <ele>1303.926359138</ele>
        <time>2015-04-23T09:51:30Z</time>
      </trkpt>
      <trkpt lat="44.70162" lon="3.61099">
        <ele>1303.926359138</ele>
        <time>2015-04-23T09:51:35Z</time>
      </trkpt>
      <trkpt lat="44.70156" lon="3.61103">
        <ele>1305.6002160097</ele>
        <time>2015-04-23T09:51:40Z</time>
      </trkpt>
      <trkpt lat="44.70152" lon="3.61106">
        <ele>1305.6002160097</ele>
        <time>2015-04-23T09:51:45Z</time>
      </trkpt>
      <trkpt lat="44.70143" lon="3.61113">
        <ele>1307.4184713974</ele>
        <time>2015-04-23T09:51:50Z</time>
      </trkpt>
      <trkpt lat="44.70138" lon="3.61118">
        <ele>1307.4184713974</ele>
        <time>2015-04-23T09:51:55Z</time>
      </trkpt>
      <trkpt lat="44.70131" lon="3.61123">
        <ele>1309.12304073</ele>
        <time>2015-04-23T09:52:00Z</time>
      </trkpt>
      <trkpt lat="44.70125" lon="3.61128">
        <ele>1309.12304073</ele>
        <time>2015-04-23T09:52:05Z</time>
      </trkpt>
      <trkpt lat="44.70119" lon="3.61133">
        <ele>1310.6127739675</ele>
        <time>2015-04-23T09:52:10Z</time>
      </trkpt>
      <trkpt lat="44.70112" lon="3.61138">
        <ele>1310.6127739675</ele>
        <time>2015-04-23T09:52:15Z</time>
      </trkpt>
      <trkpt lat="44.70105" lon="3.61143">
        <ele>1312.2016768105</ele>
        <time>2015-04-23T09:52:20Z</time>
      </trkpt>
      <trkpt lat="44.70098" lon="3.61147">
        <ele>1312.2016768105</ele>
        <time>2015-04-23T09:52:25Z</time>
      </trkpt>
      <trkpt lat="44.70092" lon="3.61151">
        <ele>1313.8028372053</ele>
        <time>2015-04-23T09:52:30Z</time>
      </trkpt>
      <trkpt lat="44.70086" lon="3.61155">
        <ele>1313.8028372053</ele>
        <time>2015-04-23T09:52:35Z</time>
      </trkpt>
      <trkpt lat="44.7008" lon="3.61159">
        <ele>1315.2169902318</ele>
        <time>2015-04-23T09:52:40Z</time>
      </trkpt>
      <trkpt lat="44.70074" lon="3.61165">
        <ele>1315.2169902318</ele>
        <time>2015-04-23T09:52:45Z</time>
      </trkpt>
      <trkpt lat="44.70068" lon="3.6117">
        <ele>1316.5758999198</ele>
        <time>2015-04-23T09:52:50Z</time>
      </trkpt>
      <trkpt lat="44.70062" lon="3.61175">
        <ele>1316.5758999198</ele>
        <time>2015-04-23T09:52:55Z</time>
      </trkpt>
      <trkpt lat="44.70056" lon="3.61179">
        <ele>1317.7176128384</ele>
        <time>2015-04-23T09:53:00Z</time>
      </trkpt>
      <trkpt lat="44.70049" lon="3.61183">
        <ele>1317.7176128384</ele>
        <time>2015-04-23T09:53:05Z</time>
      </trkpt>
      <trkpt lat="44.70042" lon="3.61187">
        <ele>1318.8214434324</ele>
        <time>2015-04-23T09:53:10Z</time>
      </trkpt>
      <trkpt lat="44.70036" lon="3.61191">
        <ele>1318.8214434324</ele>
        <time>2015-04-23T09:53:15Z</time>
      </trkpt>
      <trkpt lat="44.7003" lon="3.61195">
        <ele>1319.8295076149</ele>
        <time>2015-04-23T09:53:20Z</time>
      </trkpt>
      <trkpt lat="44.70024" lon="3.61199">
        <ele>1319.8295076149</ele>
        <time>2015-04-23T09:53:25Z</time>
      </trkpt>
      <trkpt lat="44.70017" lon="3.61202">
        <ele>1320.6891218086</ele>
        <time>2015-04-23T09:53:30Z</time>
      </trkpt>
      <trkpt lat="44.70011" lon="3.61206">
        <ele>1320.6891218086</ele>
        <time>2015-04-23T09:53:35Z</time>
      </trkpt>
      <trkpt lat="44.70004" lon="3.6121">
        <ele>1321.3082238273</ele>
        <time>2015-04-23T09:53:40Z</time>
      </trkpt>
      <trkpt lat="44.69997" lon="3.61214">
        <ele>1321.3082238273</ele>
        <time>2015-04-23T09:53:45Z</time>
      </trkpt>
      <trkpt lat="44.69991" lon="3.6122">
        <ele>1321.8384710321</ele>
        <time>2015-04-23T09:53:50Z</time>
      </trkpt>
      <trkpt lat="44.69986" lon="3.61226">
        <ele>1321.8384710321</ele>
        <time>2015-04-23T09:53:55Z</time>
      </trkpt>
      <trkpt lat="44.6998" lon="3.61233">
        <ele>1322.3897960945</ele>
        <time>2015-04-23T09:54:00Z</time>
      </trkpt>
      <trkpt lat="44.69974" lon="3.6124">
        <ele>1322.3897960945</ele>
        <time>2015-04-23T09:54:05Z</time>
      </trkpt>
      <trkpt lat="44.69968" lon="3.61248">
        <ele>1322.8579687499</ele>
        <time>2015-04-23T09:54:10Z</time>
      </trkpt>
      <trkpt lat="44.69963" lon="3.61256">
        <ele>1322.8579687499</ele>
        <time>2015-04-23T09:54:15Z</time>
      </trkpt>
      <trkpt lat="44.69957" lon="3.61263">
        <ele>1323.2206219963</ele>
        <time>2015-04-23T09:54:20Z</time>
      </trkpt>
      <trkpt lat="44.69952" lon="3.6127">
        <ele>1323.2206219963</ele>
        <time>2015-04-23T09:54:25Z</time>
      </trkpt>
      <trkpt lat="44.69943" lon="3.61282">
        <ele>1323.5450143498</ele>
        <time>2015-04-23T09:54:30Z</time>
      </trkpt>
      <trkpt lat="44.69937" lon="3.61291">
        <ele>1323.5450143498</ele>
        <time>2015-04-23T09:54:35Z</time>
      </trkpt>
      <trkpt lat="44.69932" lon="3.61298">
        <ele>1323.7619897154</ele>
        <time>2015-04-23T09:54:40Z</time>
      </trkpt>
      <trkpt lat="44.69926" lon="3.61305">
        <ele>1323.7619897154</ele>
        <time>2015-04-23T09:54:45Z</time>
      </trkpt>
      <trkpt lat="44.6992" lon="3.61313">
        <ele>1323.9972552344</ele>
        <time>2015-04-23T09:54:50Z</time>
      </trkpt>
      <trkpt lat="44.69914" lon="3.61321">
        <ele>1323.9972552344</ele>
        <time>2015-04-23T09:54:55Z</time>
      </trkpt>
      <trkpt lat="44.69909" lon="3.61328">
        <ele>1324.3665031682</ele>
        <time>2015-04-23T09:55:00Z</time>
      </trkpt>
      <trkpt lat="44.69904" lon="3.61335">
        <ele>1324.3665031682</ele>
        <time>2015-04-23T09:55:05Z</time>
      </trkpt>
      <trkpt lat="44.69899" lon="3.61341">
        <ele>1324.9325263845</ele>
        <time>2015-04-23T09:55:10Z</time>
      </trkpt>
      <trkpt lat="44.69893" lon="3.61349">
        <ele>1324.9325263845</ele>
        <time>2015-04-23T09:55:15Z</time>
      </trkpt>
      <trkpt lat="44.69887" lon="3.61355">
        <ele>1325.6224200915</ele>
        <time>2015-04-23T09:55:20Z</time>
      </trkpt>
      <trkpt lat="44.69881" lon="3.61361">
        <ele>1325.6224200915</ele>
        <time>2015-04-23T09:55:25Z</time>
      </trkpt>
      <trkpt lat="44.69875" lon="3.61365">
        <ele>1326.4266025022</ele>
        <time>2015-04-23T09:55:30Z</time>
      </trkpt>
      <trkpt lat="44.6987" lon="3.61371">
        <ele>1326.4266025022</ele>
        <time>2015-04-23T09:55:35Z</time>
      </trkpt>
      <trkpt lat="44.69865" lon="3.61378">
        <ele>1327.2492318102</ele>
        <time>2015-04-23T09:55:40Z</time>
      </trkpt>
      <trkpt lat="44.69858" lon="3.61382">
        <ele>1327.2492318102</ele>
        <time>2015-04-23T09:55:45Z</time>
      </trkpt>
      <trkpt lat="44.69851" lon="3.61388">
        <ele>1327.9006317757</ele>
        <time>2015-04-23T09:55:50Z</time>
      </trkpt>
      <trkpt lat="44.69845" lon="3.61394">
        <ele>1327.9006317757</ele>
        <time>2015-04-23T09:55:55Z</time>
      </trkpt>
      <trkpt lat="44.69839" lon="3.61401">
        <ele>1328.5670487403</ele>
        <time>2015-04-23T09:56:00Z</time>
      </trkpt>
      <trkpt lat="44.69833" lon="3.61407">
        <ele>1328.5670487403</ele>
        <time>2015-04-23T09:56:05Z</time>
      </trkpt>
      <trkpt lat="44.69826" lon="3.61414">
        <ele>1329.2618090153</ele>
        <time>2015-04-23T09:56:10Z</time>
      </trkpt>
      <trkpt lat="44.6982" lon="3.6142">
        <ele>1329.2618090153</ele>
        <time>2015-04-23T09:56:15Z</time>
      </trkpt>
      <trkpt lat="44.69815" lon="3.61425">
        <ele>1329.852882831</ele>
        <time>2015-04-23T09:56:20Z</time>
      </trkpt>
      <trkpt lat="44.6981" lon="3.61431">
        <ele>1329.852882831</ele>
        <time>2015-04-23T09:56:25Z</time>
      </trkpt>
      <trkpt lat="44.69805" lon="3.61439">
        <ele>1330.607900916</ele>
        <time>2015-04-23T09:56:30Z</time>
      </trkpt>
      <trkpt lat="44.698" lon="3.61449">
        <ele>1330.607900916</ele>
        <time>2015-04-23T09:56:35Z</time>
      </trkpt>
      <trkpt lat="44.69795" lon="3.61458">
        <ele>1331.1251121251</ele>
        <time>2015-04-23T09:56:40Z</time>
      </trkpt>
      <trkpt lat="44.6979" lon="3.61468">
        <ele>1331.1251121251</ele>
        <time>2015-04-23T09:56:45Z</time>
      </trkpt>
      <trkpt lat="44.69788" lon="3.61479">
        <ele>1331.4946966763</ele>
        <time>2015-04-23T09:56:50Z</time>
      </trkpt>
      <trkpt lat="44.69786" lon="3.61488">
        <ele>1331.4946966763</ele>
        <time>2015-04-23T09:56:55Z</time>
      </trkpt>
      <trkpt lat="44.69784" lon="3.615">
        <ele>1331.8582159535</ele>
        <time>2015-04-23T09:57:00Z</time>
      </trkpt>
      <trkpt lat="44.69783" lon="3.61511">
        <ele>1331.8582159535</ele>
        <time>2015-04-23T09:57:05Z</time>
      </trkpt>
      <trkpt lat="44.69782" lon="3.61521">
        <ele>1332.2747078118</ele>
        <time>2015-04-23T09:57:10Z</time>
      </trkpt>
      <trkpt lat="44.6978" lon="3.61533">
        <ele>1332.2747078118</ele>
        <time>2015-04-23T09:57:15Z</time>
      </trkpt>
      <trkpt lat="44.69779" lon="3.61543">
        <ele>1332.5968804398</ele>
        <time>2015-04-23T09:57:20Z</time>
      </trkpt>
      <trkpt lat="44.69777" lon="3.61554">
        <ele>1332.5968804398</ele>
        <time>2015-04-23T09:57:25Z</time>
      </trkpt>
      <trkpt lat="44.69776" lon="3.61566">
        <ele>1332.7029583499</ele>
        <time>2015-04-23T09:57:30Z</time>
      </trkpt>
      <trkpt lat="44.69776" lon="3.61575">
        <ele>1332.7029583499</ele>
        <time>2015-04-23T09:57:35Z</time>
      </trkpt>
      <trkpt lat="44.69775" lon="3.61585">
        <ele>1333.0574255528</ele>
        <time>2015-04-23T09:57:40Z</time>
      </trkpt>
      <trkpt lat="44.69775" lon="3.61594">
        <ele>1333.0574255528</ele>
        <time>2015-04-23T09:57:45Z</time>
      </trkpt>
      <trkpt lat="44.69774" lon="3.616">
        <ele>1333.7583522545</ele>
        <time>2015-04-23T09:57:50Z</time>
      </trkpt>
      <trkpt lat="44.69771" lon="3.61614">
        <ele>1334.2900334202</ele>
        <time>2015-04-23T09:57:55Z</time>
      </trkpt>
      <trkpt lat="44.69767" lon="3.61627">
        <ele>1334.9537363819</ele>
        <time>2015-04-23T09:58:00Z</time>
      </trkpt>
      <trkpt lat="44.69763" lon="3.61635">
        <ele>1334.9537363819</ele>
        <time>2015-04-23T09:58:05Z</time>
      </trkpt>
      <trkpt lat="44.6976" lon="3.61643">
        <ele>1335.5667854036</ele>
        <time>2015-04-23T09:58:10Z</time>
      </trkpt>
      <trkpt lat="44.69755" lon="3.61652">
        <ele>1335.5667854036</ele>
        <time>2015-04-23T09:58:15Z</time>
      </trkpt>
      <trkpt lat="44.69752" lon="3.61661">
        <ele>1335.844654213</ele>
        <time>2015-04-23T09:58:20Z</time>
      </trkpt>
      <trkpt lat="44.69749" lon="3.61671">
        <ele>1335.844654213</ele>
        <time>2015-04-23T09:58:25Z</time>
      </trkpt>
      <trkpt lat="44.69746" lon="3.6168">
        <ele>1336.1303661861</ele>
        <time>2015-04-23T09:58:30Z</time>
      </trkpt>
      <trkpt lat="44.69743" lon="3.61689">
        <ele>1336.1303661861</ele>
        <time>2015-04-23T09:58:35Z</time>
      </trkpt>
      <trkpt lat="44.69739" lon="3.61699">
        <ele>1336.3667478158</ele>
        <time>2015-04-23T09:58:40Z</time>
      </trkpt>
      <trkpt lat="44.69733" lon="3.61715">
        <ele>1336.4720979226</ele>
        <time>2015-04-23T09:58:45Z</time>
      </trkpt>
      <trkpt lat="44.6973" lon="3.61724">
        <ele>1336.4720979226</ele>
        <time>2015-04-23T09:58:50Z</time>
      </trkpt>
      <trkpt lat="44.69728" lon="3.61735">
        <ele>1336.4576115027</ele>
        <time>2015-04-23T09:58:55Z</time>
      </trkpt>
      <trkpt lat="44.69726" lon="3.61746">
        <ele>1336.4576115027</ele>
        <time>2015-04-23T09:59:00Z</time>
      </trkpt>
      <trkpt lat="44.6972" lon="3.61763">
        <ele>1336.2185861708</ele>
        <time>2015-04-23T09:59:05Z</time>
      </trkpt>
      <trkpt lat="44.69715" lon="3.61781">
        <ele>1335.9759613971</ele>
        <time>2015-04-23T09:59:10Z</time>
      </trkpt>
      <trkpt lat="44.69713" lon="3.61791">
        <ele>1335.9759613971</ele>
        <time>2015-04-23T09:59:15Z</time>
      </trkpt>
      <trkpt lat="44.69709" lon="3.61802">
        <ele>1335.7613231736</ele>
        <time>2015-04-23T09:59:20Z</time>
      </trkpt>
      <trkpt lat="44.69705" lon="3.61811">
        <ele>1335.7613231736</ele>
        <time>2015-04-23T09:59:25Z</time>
      </trkpt>
      <trkpt lat="44.697" lon="3.6182">
        <ele>1335.4307273973</ele>
        <time>2015-04-23T09:59:30Z</time>
      </trkpt>
      <trkpt lat="44.69696" lon="3.61828">
        <ele>1335.4307273973</ele>
        <time>2015-04-23T09:59:35Z</time>
      </trkpt>
      <trkpt lat="44.69693" lon="3.61838">
        <ele>1335.0386159635</ele>
        <time>2015-04-23T09:59:40Z</time>
      </trkpt>
      <trkpt lat="44.69689" lon="3.61846">
        <ele>1335.0386159635</ele>
        <time>2015-04-23T09:59:45Z</time>
      </trkpt>
      <trkpt lat="44.69685" lon="3.61855">
        <ele>1334.6643983925</ele>
        <time>2015-04-23T09:59:50Z</time>
      </trkpt>
      <trkpt lat="44.69682" lon="3.61864">
        <ele>1334.6643983925</ele>
        <time>2015-04-23T09:59:55Z</time>
      </trkpt>
      <trkpt lat="44.69678" lon="3.61873">
        <ele>1334.0786537857</ele>
        <time>2015-04-23T10:00:00Z</time>
      </trkpt>
      <trkpt lat="44.69674" lon="3.61882">
        <ele>1334.0786537857</ele>
        <time>2015-04-23T10:00:05Z</time>
      </trkpt>
      <trkpt lat="44.6967" lon="3.61891">
        <ele>1333.61744569</ele>
        <time>2015-04-23T10:00:10Z</time>
      </trkpt>
      <trkpt lat="44.69664" lon="3.61903">
        <ele>1333.144600179</ele>
        <time>2015-04-23T10:00:15Z</time>
      </trkpt>
      <trkpt lat="44.69658" lon="3.61913">
        <ele>1332.8079416716</ele>
        <time>2015-04-23T10:00:20Z</time>
      </trkpt>
      <trkpt lat="44.69654" lon="3.61921">
        <ele>1332.8079416716</ele>
        <time>2015-04-23T10:00:25Z</time>
      </trkpt>
      <trkpt lat="44.6965" lon="3.61929">
        <ele>1332.8016348761</ele>
        <time>2015-04-23T10:00:30Z</time>
      </trkpt>
      <trkpt lat="44.69646" lon="3.61938">
        <ele>1332.8016348761</ele>
        <time>2015-04-23T10:00:35Z</time>
      </trkpt>
      <trkpt lat="44.69644" lon="3.61947">
        <ele>1332.8142779548</ele>
        <time>2015-04-23T10:00:40Z</time>
      </trkpt>
      <trkpt lat="44.69642" lon="3.61956">
        <ele>1332.8142779548</ele>
        <time>2015-04-23T10:00:45Z</time>
      </trkpt>
      <trkpt lat="44.69642" lon="3.61966">
        <ele>1332.7014801169</ele>
        <time>2015-04-23T10:00:50Z</time>
      </trkpt>
      <trkpt lat="44.69642" lon="3.61965">
        <ele>1332.7014801169</ele>
        <time>2015-04-23T10:00:55Z</time>
      </trkpt>
      <trkpt lat="44.69642" lon="3.61966">
        <ele>1332.7014801169</ele>
        <time>2015-04-23T10:01:00Z</time>
      </trkpt>
      <trkpt lat="44.69642" lon="3.61966">
        <ele>1332.7014801169</ele>
        <time>2015-04-23T10:01:05Z</time>
      </trkpt>
      <trkpt lat="44.69643" lon="3.61969">
        <ele>1332.7014801169</ele>
        <time>2015-04-23T10:01:10Z</time>
      </trkpt>
      <trkpt lat="44.69644" lon="3.61978">
        <ele>1332.6325535286</ele>
        <time>2015-04-23T10:01:15Z</time>
      </trkpt>
      <trkpt lat="44.69645" lon="3.61988">
        <ele>1332.6325535286</ele>
        <time>2015-04-23T10:01:20Z</time>
      </trkpt>
      <trkpt lat="44.69647" lon="3.61998">
        <ele>1332.2451238098</ele>
        <time>2015-04-23T10:01:25Z</time>
      </trkpt>
      <trkpt lat="44.69648" lon="3.62008">
        <ele>1332.2451238098</ele>
        <time>2015-04-23T10:01:30Z</time>
      </trkpt>
      <trkpt lat="44.6965" lon="3.62019">
        <ele>1331.7089184743</ele>
        <time>2015-04-23T10:01:35Z</time>
      </trkpt>
      <trkpt lat="44.69653" lon="3.6203">
        <ele>1331.7089184743</ele>
        <time>2015-04-23T10:01:40Z</time>
      </trkpt>
      <trkpt lat="44.69655" lon="3.6204">
        <ele>1330.9941045981</ele>
        <time>2015-04-23T10:01:45Z</time>
      </trkpt>
      <trkpt lat="44.69656" lon="3.62051">
        <ele>1330.9941045981</ele>
        <time>2015-04-23T10:01:50Z</time>
      </trkpt>
      <trkpt lat="44.69657" lon="3.62061">
        <ele>1330.3185373206</ele>
        <time>2015-04-23T10:01:55Z</time>
      </trkpt>
      <trkpt lat="44.69658" lon="3.6207">
        <ele>1330.3185373206</ele>
        <time>2015-04-23T10:02:00Z</time>
      </trkpt>
      <trkpt lat="44.69659" lon="3.6208">
        <ele>1329.609968673</ele>
        <time>2015-04-23T10:02:05Z</time>
      </trkpt>
      <trkpt lat="44.69659" lon="3.62091">
        <ele>1329.609968673</ele>
        <time>2015-04-23T10:02:10Z</time>
      </trkpt>
      <trkpt lat="44.6966" lon="3.62101">
        <ele>1328.8014873202</ele>
        <time>2015-04-23T10:02:15Z</time>
      </trkpt>
      <trkpt lat="44.6966" lon="3.62112">
        <ele>1328.8014873202</ele>
        <time>2015-04-23T10:02:20Z</time>
      </trkpt>
      <trkpt lat="44.6966" lon="3.62123">
        <ele>1328.0907565517</ele>
        <time>2015-04-23T10:02:25Z</time>
      </trkpt>
      <trkpt lat="44.69661" lon="3.62134">
        <ele>1328.0907565517</ele>
        <time>2015-04-23T10:02:30Z</time>
      </trkpt>
      <trkpt lat="44.69661" lon="3.62145">
        <ele>1327.6605419578</ele>
        <time>2015-04-23T10:02:35Z</time>
      </trkpt>
      <trkpt lat="44.69661" lon="3.62156">
        <ele>1327.6605419578</ele>
        <time>2015-04-23T10:02:40Z</time>
      </trkpt>
      <trkpt lat="44.69661" lon="3.62169">
        <ele>1327.1748464706</ele>
        <time>2015-04-23T10:02:45Z</time>
      </trkpt>
      <trkpt lat="44.6966" lon="3.62187">
        <ele>1326.9133817543</ele>
        <time>2015-04-23T10:02:50Z</time>
      </trkpt>
      <trkpt lat="44.69657" lon="3.62202">
        <ele>1326.6733882152</ele>
        <time>2015-04-23T10:02:55Z</time>
      </trkpt>
      <trkpt lat="44.69656" lon="3.6221">
        <ele>1326.6733882152</ele>
        <time>2015-04-23T10:03:00Z</time>
      </trkpt>
      <trkpt lat="44.69655" lon="3.6222">
        <ele>1326.1227590666</ele>
        <time>2015-04-23T10:03:05Z</time>
      </trkpt>
      <trkpt lat="44.69653" lon="3.62229">
        <ele>1326.1227590666</ele>
        <time>2015-04-23T10:03:10Z</time>
      </trkpt>
      <trkpt lat="44.69652" lon="3.6224">
        <ele>1325.6031309622</ele>
        <time>2015-04-23T10:03:15Z</time>
      </trkpt>
      <trkpt lat="44.6965" lon="3.62251">
        <ele>1325.6031309622</ele>
        <time>2015-04-23T10:03:20Z</time>
      </trkpt>
      <trkpt lat="44.69647" lon="3.62263">
        <ele>1325.200277887</ele>
        <time>2015-04-23T10:03:25Z</time>
      </trkpt>
      <trkpt lat="44.69645" lon="3.62274">
        <ele>1325.200277887</ele>
        <time>2015-04-23T10:03:30Z</time>
      </trkpt>
      <trkpt lat="44.69644" lon="3.62285">
        <ele>1324.6041585426</ele>
        <time>2015-04-23T10:03:35Z</time>
      </trkpt>
      <trkpt lat="44.69643" lon="3.62296">
        <ele>1324.6041585426</ele>
        <time>2015-04-23T10:03:40Z</time>
      </trkpt>
      <trkpt lat="44.69642" lon="3.62306">
        <ele>1324.017975898</ele>
        <time>2015-04-23T10:03:45Z</time>
      </trkpt>
      <trkpt lat="44.69641" lon="3.62316">
        <ele>1324.017975898</ele>
        <time>2015-04-23T10:03:50Z</time>
      </trkpt>
      <trkpt lat="44.69639" lon="3.62326">
        <ele>1323.5146107846</ele>
        <time>2015-04-23T10:03:55Z</time>
      </trkpt>
      <trkpt lat="44.69638" lon="3.62336">
        <ele>1323.5146107846</ele>
        <time>2015-04-23T10:04:00Z</time>
      </trkpt>
      <trkpt lat="44.69637" lon="3.62346">
        <ele>1322.844238625</ele>
        <time>2015-04-23T10:04:05Z</time>
      </trkpt>
      <trkpt lat="44.69635" lon="3.62355">
        <ele>1322.844238625</ele>
        <time>2015-04-23T10:04:10Z</time>
      </trkpt>
      <trkpt lat="44.69634" lon="3.62366">
        <ele>1322.2225386032</ele>
        <time>2015-04-23T10:04:15Z</time>
      </trkpt>
      <trkpt lat="44.69634" lon="3.62376">
        <ele>1322.2225386032</ele>
        <time>2015-04-23T10:04:20Z</time>
      </trkpt>
      <trkpt lat="44.69633" lon="3.62387">
        <ele>1321.791495065</ele>
        <time>2015-04-23T10:04:25Z</time>
      </trkpt>
      <trkpt lat="44.69632" lon="3.62398">
        <ele>1321.791495065</ele>
        <time>2015-04-23T10:04:30Z</time>
      </trkpt>
      <trkpt lat="44.69631" lon="3.62409">
        <ele>1321.1632557154</ele>
        <time>2015-04-23T10:04:35Z</time>
      </trkpt>
      <trkpt lat="44.69631" lon="3.62418">
        <ele>1321.1632557154</ele>
        <time>2015-04-23T10:04:40Z</time>
      </trkpt>
      <trkpt lat="44.69631" lon="3.62429">
        <ele>1320.8148011267</ele>
        <time>2015-04-23T10:04:45Z</time>
      </trkpt>
      <trkpt lat="44.69631" lon="3.62439">
        <ele>1320.8148011267</ele>
        <time>2015-04-23T10:04:50Z</time>
      </trkpt>
      <trkpt lat="44.6963" lon="3.6245">
        <ele>1320.5098964727</ele>
        <time>2015-04-23T10:04:55Z</time>
      </trkpt>
      <trkpt lat="44.69629" lon="3.6246">
        <ele>1320.5098964727</ele>
        <time>2015-04-23T10:05:00Z</time>
      </trkpt>
      <trkpt lat="44.69624" lon="3.62476">
        <ele>1320.2456474198</ele>
        <time>2015-04-23T10:05:05Z</time>
      </trkpt>
      <trkpt lat="44.69621" lon="3.62486">
        <ele>1320.2456474198</ele>
        <time>2015-04-23T10:05:10Z</time>
      </trkpt>
      <trkpt lat="44.69617" lon="3.62495">
        <ele>1320.0624355927</ele>
        <time>2015-04-23T10:05:15Z</time>
      </trkpt>
      <trkpt lat="44.69613" lon="3.62504">
        <ele>1320.0624355927</ele>
        <time>2015-04-23T10:05:20Z</time>
      </trkpt>
      <trkpt lat="44.69611" lon="3.62512">
        <ele>1319.4785872973</ele>
        <time>2015-04-23T10:05:25Z</time>
      </trkpt>
      <trkpt lat="44.69607" lon="3.62519">
        <ele>1319.4785872973</ele>
        <time>2015-04-23T10:05:30Z</time>
      </trkpt>
      <trkpt lat="44.69603" lon="3.62525">
        <ele>1318.0056478545</ele>
        <time>2015-04-23T10:05:35Z</time>
      </trkpt>
      <trkpt lat="44.69598" lon="3.62531">
        <ele>1318.0056478545</ele>
        <time>2015-04-23T10:05:40Z</time>
      </trkpt>
      <trkpt lat="44.69592" lon="3.62538">
        <ele>1316.7643269421</ele>
        <time>2015-04-23T10:05:45Z</time>
      </trkpt>
      <trkpt lat="44.69584" lon="3.62548">
        <ele>1316.3023220635</ele>
        <time>2015-04-23T10:05:50Z</time>
      </trkpt>
      <trkpt lat="44.69577" lon="3.62557">
        <ele>1315.9719436396</ele>
        <time>2015-04-23T10:05:55Z</time>
      </trkpt>
      <trkpt lat="44.69572" lon="3.62565">
        <ele>1315.9719436396</ele>
        <time>2015-04-23T10:06:00Z</time>
      </trkpt>
      <trkpt lat="44.69567" lon="3.62574">
        <ele>1315.5473539656</ele>
        <time>2015-04-23T10:06:05Z</time>
      </trkpt>
      <trkpt lat="44.69562" lon="3.62582">
        <ele>1315.5473539656</ele>
        <time>2015-04-23T10:06:10Z</time>
      </trkpt>
      <trkpt lat="44.69558" lon="3.6259">
        <ele>1315.1509818868</ele>
        <time>2015-04-23T10:06:15Z</time>
      </trkpt>
      <trkpt lat="44.69554" lon="3.62598">
        <ele>1315.1509818868</ele>
        <time>2015-04-23T10:06:20Z</time>
      </trkpt>
      <trkpt lat="44.69552" lon="3.62606">
        <ele>1314.4637912395</ele>
        <time>2015-04-23T10:06:25Z</time>
      </trkpt>
      <trkpt lat="44.69548" lon="3.62616">
        <ele>1314.4637912395</ele>
        <time>2015-04-23T10:06:30Z</time>
      </trkpt>
      <trkpt lat="44.69538" lon="3.62635">
        <ele>1314.444752831</ele>
        <time>2015-04-23T10:06:35Z</time>
      </trkpt>
      <trkpt lat="44.69533" lon="3.62646">
        <ele>1314.323154821</ele>
        <time>2015-04-23T10:06:40Z</time>
      </trkpt>
      <trkpt lat="44.69529" lon="3.62654">
        <ele>1314.323154821</ele>
        <time>2015-04-23T10:06:45Z</time>
      </trkpt>
      <trkpt lat="44.69524" lon="3.62664">
        <ele>1314.2354312154</ele>
        <time>2015-04-23T10:06:50Z</time>
      </trkpt>
      <trkpt lat="44.69518" lon="3.62674">
        <ele>1314.3222782678</ele>
        <time>2015-04-23T10:06:55Z</time>
      </trkpt>
      <trkpt lat="44.69514" lon="3.62684">
        <ele>1314.3222782678</ele>
        <time>2015-04-23T10:07:00Z</time>
      </trkpt>
      <trkpt lat="44.69508" lon="3.62694">
        <ele>1314.3388425321</ele>
        <time>2015-04-23T10:07:05Z</time>
      </trkpt>
      <trkpt lat="44.69503" lon="3.62703">
        <ele>1314.3388425321</ele>
        <time>2015-04-23T10:07:10Z</time>
      </trkpt>
      <trkpt lat="44.69498" lon="3.62712">
        <ele>1314.548424933</ele>
        <time>2015-04-23T10:07:15Z</time>
      </trkpt>
      <trkpt lat="44.69495" lon="3.62721">
        <ele>1314.548424933</ele>
        <time>2015-04-23T10:07:20Z</time>
      </trkpt>
      <trkpt lat="44.6949" lon="3.62729">
        <ele>1314.805318927</ele>
        <time>2015-04-23T10:07:25Z</time>
      </trkpt>
      <trkpt lat="44.69486" lon="3.62736">
        <ele>1314.805318927</ele>
        <time>2015-04-23T10:07:30Z</time>
      </trkpt>
      <trkpt lat="44.69481" lon="3.62745">
        <ele>1314.772621352</ele>
        <time>2015-04-23T10:07:35Z</time>
      </trkpt>
      <trkpt lat="44.69476" lon="3.62754">
        <ele>1314.772621352</ele>
        <time>2015-04-23T10:07:40Z</time>
      </trkpt>
      <trkpt lat="44.69471" lon="3.62763">
        <ele>1314.7010337283</ele>
        <time>2015-04-23T10:07:45Z</time>
      </trkpt>
      <trkpt lat="44.69466" lon="3.62771">
        <ele>1314.7010337283</ele>
        <time>2015-04-23T10:07:50Z</time>
      </trkpt>
      <trkpt lat="44.69461" lon="3.6278">
        <ele>1314.4770768804</ele>
        <time>2015-04-23T10:07:55Z</time>
      </trkpt>
      <trkpt lat="44.69457" lon="3.62786">
        <ele>1314.4770768804</ele>
        <time>2015-04-23T10:08:00Z</time>
      </trkpt>
      <trkpt lat="44.69449" lon="3.62795">
        <ele>1314.3707357984</ele>
        <time>2015-04-23T10:08:05Z</time>
      </trkpt>
      <trkpt lat="44.69444" lon="3.62802">
        <ele>1314.3707357984</ele>
        <time>2015-04-23T10:08:10Z</time>
      </trkpt>
      <trkpt lat="44.69439" lon="3.6281">
        <ele>1314.3436111965</ele>
        <time>2015-04-23T10:08:15Z</time>
      </trkpt>
      <trkpt lat="44.69434" lon="3.62819">
        <ele>1314.3436111965</ele>
        <time>2015-04-23T10:08:20Z</time>
      </trkpt>
      <trkpt lat="44.69429" lon="3.62826">
        <ele>1314.2302099681</ele>
        <time>2015-04-23T10:08:25Z</time>
      </trkpt>
      <trkpt lat="44.69423" lon="3.62833">
        <ele>1314.2302099681</ele>
        <time>2015-04-23T10:08:30Z</time>
      </trkpt>
      <trkpt lat="44.69418" lon="3.6284">
        <ele>1313.762159367</ele>
        <time>2015-04-23T10:08:35Z</time>
      </trkpt>
      <trkpt lat="44.69413" lon="3.62847">
        <ele>1313.762159367</ele>
        <time>2015-04-23T10:08:40Z</time>
      </trkpt>
      <trkpt lat="44.69406" lon="3.62855">
        <ele>1313.6573656833</ele>
        <time>2015-04-23T10:08:45Z</time>
      </trkpt>
      <trkpt lat="44.69401" lon="3.62862">
        <ele>1313.6573656833</ele>
        <time>2015-04-23T10:08:50Z</time>
      </trkpt>
      <trkpt lat="44.69394" lon="3.62872">
        <ele>1313.787369783</ele>
        <time>2015-04-23T10:08:55Z</time>
      </trkpt>
      <trkpt lat="44.69387" lon="3.62883">
        <ele>1313.7298702144</ele>
        <time>2015-04-23T10:09:00Z</time>
      </trkpt>
      <trkpt lat="44.69382" lon="3.62892">
        <ele>1313.7298702144</ele>
        <time>2015-04-23T10:09:05Z</time>
      </trkpt>
      <trkpt lat="44.69377" lon="3.62901">
        <ele>1313.4544127175</ele>
        <time>2015-04-23T10:09:10Z</time>
      </trkpt>
      <trkpt lat="44.69372" lon="3.62909">
        <ele>1313.4544127175</ele>
        <time>2015-04-23T10:09:15Z</time>
      </trkpt>
      <trkpt lat="44.69368" lon="3.62918">
        <ele>1313.2648675508</ele>
        <time>2015-04-23T10:09:20Z</time>
      </trkpt>
      <trkpt lat="44.69364" lon="3.62925">
        <ele>1313.2648675508</ele>
        <time>2015-04-23T10:09:25Z</time>
      </trkpt>
      <trkpt lat="44.69359" lon="3.62932">
        <ele>1313.1543357413</ele>
        <time>2015-04-23T10:09:30Z</time>
      </trkpt>
      <trkpt lat="44.69354" lon="3.62941">
        <ele>1313.1543357413</ele>
        <time>2015-04-23T10:09:35Z</time>
      </trkpt>
      <trkpt lat="44.69349" lon="3.6295">
        <ele>1313.0729897033</ele>
        <time>2015-04-23T10:09:40Z</time>
      </trkpt>
      <trkpt lat="44.69343" lon="3.62956">
        <ele>1313.0729897033</ele>
        <time>2015-04-23T10:09:45Z</time>
      </trkpt>
      <trkpt lat="44.69338" lon="3.62963">
        <ele>1312.8304887864</ele>
        <time>2015-04-23T10:09:50Z</time>
      </trkpt>
      <trkpt lat="44.69333" lon="3.62971">
        <ele>1312.8304887864</ele>
        <time>2015-04-23T10:09:55Z</time>
      </trkpt>
      <trkpt lat="44.69328" lon="3.62978">
        <ele>1312.4382925247</ele>
        <time>2015-04-23T10:10:00Z</time>
      </trkpt>
      <trkpt lat="44.69322" lon="3.62984">
        <ele>1312.4382925247</ele>
        <time>2015-04-23T10:10:05Z</time>
      </trkpt>
      <trkpt lat="44.69316" lon="3.62991">
        <ele>1312.4262605043</ele>
        <time>2015-04-23T10:10:10Z</time>
      </trkpt>
      <trkpt lat="44.69309" lon="3.62998">
        <ele>1312.4262605043</ele>
        <time>2015-04-23T10:10:15Z</time>
      </trkpt>
      <trkpt lat="44.69303" lon="3.63005">
        <ele>1312.5349027219</ele>
        <time>2015-04-23T10:10:20Z</time>
      </trkpt>
      <trkpt lat="44.69296" lon="3.63014">
        <ele>1313.0278652925</ele>
        <time>2015-04-23T10:10:25Z</time>
      </trkpt>
      <trkpt lat="44.6929" lon="3.63023">
        <ele>1313.0278652925</ele>
        <time>2015-04-23T10:10:30Z</time>
      </trkpt>
      <trkpt lat="44.69285" lon="3.6303">
        <ele>1313.2548824142</ele>
        <time>2015-04-23T10:10:35Z</time>
      </trkpt>
      <trkpt lat="44.69281" lon="3.63038">
        <ele>1313.2548824142</ele>
        <time>2015-04-23T10:10:40Z</time>
      </trkpt>
      <trkpt lat="44.69275" lon="3.63045">
        <ele>1313.6085987963</ele>
        <time>2015-04-23T10:10:45Z</time>
      </trkpt>
      <trkpt lat="44.6927" lon="3.63054">
        <ele>1313.6085987963</ele>
        <time>2015-04-23T10:10:50Z</time>
      </trkpt>
      <trkpt lat="44.69266" lon="3.63062">
        <ele>1313.9625124</ele>
        <time>2015-04-23T10:10:55Z</time>
      </trkpt>
      <trkpt lat="44.69262" lon="3.6307">
        <ele>1313.9625124</ele>
        <time>2015-04-23T10:11:00Z</time>
      </trkpt>
      <trkpt lat="44.69256" lon="3.63081">
        <ele>1314.5741374459</ele>
        <time>2015-04-23T10:11:05Z</time>
      </trkpt>
      <trkpt lat="44.69253" lon="3.6309">
        <ele>1314.5741374459</ele>
        <time>2015-04-23T10:11:10Z</time>
      </trkpt>
      <trkpt lat="44.69248" lon="3.63098">
        <ele>1315.3355198605</ele>
        <time>2015-04-23T10:11:15Z</time>
      </trkpt>
      <trkpt lat="44.69244" lon="3.63107">
        <ele>1315.3355198605</ele>
        <time>2015-04-23T10:11:20Z</time>
      </trkpt>
      <trkpt lat="44.69239" lon="3.63121">
        <ele>1315.9300916414</ele>
        <time>2015-04-23T10:11:25Z</time>
      </trkpt>
      <trkpt lat="44.69233" lon="3.63134">
        <ele>1316.5262105361</ele>
        <time>2015-04-23T10:11:30Z</time>
      </trkpt>
      <trkpt lat="44.69227" lon="3.63146">
        <ele>1316.9340462718</ele>
        <time>2015-04-23T10:11:35Z</time>
      </trkpt>
      <trkpt lat="44.69221" lon="3.63158">
        <ele>1317.223284101</ele>
        <time>2015-04-23T10:11:40Z</time>
      </trkpt>
      <trkpt lat="44.69217" lon="3.63165">
        <ele>1317.223284101</ele>
        <time>2015-04-23T10:11:45Z</time>
      </trkpt>
      <trkpt lat="44.69213" lon="3.63171">
        <ele>1317.5021113414</ele>
        <time>2015-04-23T10:11:50Z</time>
      </trkpt>
      <trkpt lat="44.69209" lon="3.63177">
        <ele>1317.5021113414</ele>
        <time>2015-04-23T10:11:55Z</time>
      </trkpt>
      <trkpt lat="44.69204" lon="3.63187">
        <ele>1317.7555638489</ele>
        <time>2015-04-23T10:12:00Z</time>
      </trkpt>
      <trkpt lat="44.69199" lon="3.63195">
        <ele>1317.7555638489</ele>
        <time>2015-04-23T10:12:05Z</time>
      </trkpt>
      <trkpt lat="44.69194" lon="3.63203">
        <ele>1317.9843145356</ele>
        <time>2015-04-23T10:12:10Z</time>
      </trkpt>
      <trkpt lat="44.69189" lon="3.63213">
        <ele>1317.9843145356</ele>
        <time>2015-04-23T10:12:15Z</time>
      </trkpt>
      <trkpt lat="44.69185" lon="3.6322">
        <ele>1318.0449995532</ele>
        <time>2015-04-23T10:12:20Z</time>
      </trkpt>
      <trkpt lat="44.69181" lon="3.63227">
        <ele>1318.0449995532</ele>
        <time>2015-04-23T10:12:25Z</time>
      </trkpt>
      <trkpt lat="44.69178" lon="3.63235">
        <ele>1317.8341329731</ele>
        <time>2015-04-23T10:12:30Z</time>
      </trkpt>
      <trkpt lat="44.69173" lon="3.63242">
        <ele>1317.8341329731</ele>
        <time>2015-04-23T10:12:35Z</time>
      </trkpt>
      <trkpt lat="44.69169" lon="3.6325">
        <ele>1317.6745655023</ele>
        <time>2015-04-23T10:12:40Z</time>
      </trkpt>
      <trkpt lat="44.69164" lon="3.63259">
        <ele>1317.6745655023</ele>
        <time>2015-04-23T10:12:45Z</time>
      </trkpt>
      <trkpt lat="44.6916" lon="3.63268">
        <ele>1317.4618228919</ele>
        <time>2015-04-23T10:12:50Z</time>
      </trkpt>
      <trkpt lat="44.69156" lon="3.63276">
        <ele>1317.4618228919</ele>
        <time>2015-04-23T10:12:55Z</time>
      </trkpt>
      <trkpt lat="44.69152" lon="3.63285">
        <ele>1316.8687187721</ele>
        <time>2015-04-23T10:13:00Z</time>
      </trkpt>
      <trkpt lat="44.69149" lon="3.63292">
        <ele>1316.8687187721</ele>
        <time>2015-04-23T10:13:05Z</time>
      </trkpt>
      <trkpt lat="44.69145" lon="3.63301">
        <ele>1316.4002286645</ele>
        <time>2015-04-23T10:13:10Z</time>
      </trkpt>
      <trkpt lat="44.69142" lon="3.63311">
        <ele>1316.4002286645</ele>
        <time>2015-04-23T10:13:15Z</time>
      </trkpt>
      <trkpt lat="44.69138" lon="3.63322">
        <ele>1315.8754139978</ele>
        <time>2015-04-23T10:13:20Z</time>
      </trkpt>
      <trkpt lat="44.69133" lon="3.63332">
        <ele>1315.8754139978</ele>
        <time>2015-04-23T10:13:25Z</time>
      </trkpt>
      <trkpt lat="44.69129" lon="3.63341">
        <ele>1315.2853334936</ele>
        <time>2015-04-23T10:13:30Z</time>
      </trkpt>
      <trkpt lat="44.69125" lon="3.63351">
        <ele>1315.2853334936</ele>
        <time>2015-04-23T10:13:35Z</time>
      </trkpt>
      <trkpt lat="44.69121" lon="3.63361">
        <ele>1315.3136400494</ele>
        <time>2015-04-23T10:13:40Z</time>
      </trkpt>
      <trkpt lat="44.69116" lon="3.6337">
        <ele>1315.3136400494</ele>
        <time>2015-04-23T10:13:45Z</time>
      </trkpt>
      <trkpt lat="44.69113" lon="3.63379">
        <ele>1315.10770083</ele>
        <time>2015-04-23T10:13:50Z</time>
      </trkpt>
      <trkpt lat="44.69109" lon="3.63387">
        <ele>1315.10770083</ele>
        <time>2015-04-23T10:13:55Z</time>
      </trkpt>
      <trkpt lat="44.69104" lon="3.63396">
        <ele>1314.7716761232</ele>
        <time>2015-04-23T10:14:00Z</time>
      </trkpt>
      <trkpt lat="44.69099" lon="3.63404">
        <ele>1314.7716761232</ele>
        <time>2015-04-23T10:14:05Z</time>
      </trkpt>
      <trkpt lat="44.69095" lon="3.63414">
        <ele>1314.2439262335</ele>
        <time>2015-04-23T10:14:10Z</time>
      </trkpt>
      <trkpt lat="44.69092" lon="3.63423">
        <ele>1314.2439262335</ele>
        <time>2015-04-23T10:14:15Z</time>
      </trkpt>
      <trkpt lat="44.69088" lon="3.63432">
        <ele>1313.6984612273</ele>
        <time>2015-04-23T10:14:20Z</time>
      </trkpt>
      <trkpt lat="44.69084" lon="3.63441">
        <ele>1313.6984612273</ele>
        <time>2015-04-23T10:14:25Z</time>
      </trkpt>
      <trkpt lat="44.6908" lon="3.6345">
        <ele>1313.4118495722</ele>
        <time>2015-04-23T10:14:30Z</time>
      </trkpt>
      <trkpt lat="44.69075" lon="3.63461">
        <ele>1313.4118495722</ele>
        <time>2015-04-23T10:14:35Z</time>
      </trkpt>
      <trkpt lat="44.69071" lon="3.63472">
        <ele>1313.2649268866</ele>
        <time>2015-04-23T10:14:40Z</time>
      </trkpt>
      <trkpt lat="44.69068" lon="3.63482">
        <ele>1313.2649268866</ele>
        <time>2015-04-23T10:14:45Z</time>
      </trkpt>
      <trkpt lat="44.69065" lon="3.63493">
        <ele>1313.0027758376</ele>
        <time>2015-04-23T10:14:50Z</time>
      </trkpt>
      <trkpt lat="44.69062" lon="3.63505">
        <ele>1313.0027758376</ele>
        <time>2015-04-23T10:14:55Z</time>
      </trkpt>
      <trkpt lat="44.69059" lon="3.63515">
        <ele>1312.6056895898</ele>
        <time>2015-04-23T10:15:00Z</time>
      </trkpt>
      <trkpt lat="44.69055" lon="3.63525">
        <ele>1312.6056895898</ele>
        <time>2015-04-23T10:15:05Z</time>
      </trkpt>
      <trkpt lat="44.69051" lon="3.63536">
        <ele>1312.6178145602</ele>
        <time>2015-04-23T10:15:10Z</time>
      </trkpt>
      <trkpt lat="44.69048" lon="3.63546">
        <ele>1312.6178145602</ele>
        <time>2015-04-23T10:15:15Z</time>
      </trkpt>
      <trkpt lat="44.69045" lon="3.63556">
        <ele>1312.3460452188</ele>
        <time>2015-04-23T10:15:20Z</time>
      </trkpt>
      <trkpt lat="44.69041" lon="3.63565">
        <ele>1312.3460452188</ele>
        <time>2015-04-23T10:15:25Z</time>
      </trkpt>
      <trkpt lat="44.69037" lon="3.63574">
        <ele>1312.1001128111</ele>
        <time>2015-04-23T10:15:30Z</time>
      </trkpt>
      <trkpt lat="44.69033" lon="3.63583">
        <ele>1312.1001128111</ele>
        <time>2015-04-23T10:15:35Z</time>
      </trkpt>
      <trkpt lat="44.69029" lon="3.63592">
        <ele>1311.8066354338</ele>
        <time>2015-04-23T10:15:40Z</time>
      </trkpt>
      <trkpt lat="44.69025" lon="3.63601">
        <ele>1311.8066354338</ele>
        <time>2015-04-23T10:15:45Z</time>
      </trkpt>
      <trkpt lat="44.69021" lon="3.63611">
        <ele>1311.1959881995</ele>
        <time>2015-04-23T10:15:50Z</time>
      </trkpt>
      <trkpt lat="44.69017" lon="3.6362">
        <ele>1311.1959881995</ele>
        <time>2015-04-23T10:15:55Z</time>
      </trkpt>
      <trkpt lat="44.69013" lon="3.63628">
        <ele>1310.5668517278</ele>
        <time>2015-04-23T10:16:00Z</time>
      </trkpt>
      <trkpt lat="44.6901" lon="3.63637">
        <ele>1310.5668517278</ele>
        <time>2015-04-23T10:16:05Z</time>
      </trkpt>
      <trkpt lat="44.69006" lon="3.63646">
        <ele>1309.9077790445</ele>
        <time>2015-04-23T10:16:10Z</time>
      </trkpt>
      <trkpt lat="44.69002" lon="3.63654">
        <ele>1309.9077790445</ele>
        <time>2015-04-23T10:16:15Z</time>
      </trkpt>
      <trkpt lat="44.68998" lon="3.63663">
        <ele>1308.934416883</ele>
        <time>2015-04-23T10:16:20Z</time>
      </trkpt>
      <trkpt lat="44.68995" lon="3.63672">
        <ele>1308.934416883</ele>
        <time>2015-04-23T10:16:25Z</time>
      </trkpt>
      <trkpt lat="44.68991" lon="3.63681">
        <ele>1307.9894249386</ele>
        <time>2015-04-23T10:16:30Z</time>
      </trkpt>
      <trkpt lat="44.68987" lon="3.6369">
        <ele>1307.9894249386</ele>
        <time>2015-04-23T10:16:35Z</time>
      </trkpt>
      <trkpt lat="44.68983" lon="3.637">
        <ele>1306.9578491344</ele>
        <time>2015-04-23T10:16:40Z</time>
      </trkpt>
      <trkpt lat="44.6898" lon="3.6371">
        <ele>1306.9578491344</ele>
        <time>2015-04-23T10:16:45Z</time>
      </trkpt>
      <trkpt lat="44.68976" lon="3.63719">
        <ele>1305.7766218314</ele>
        <time>2015-04-23T10:16:50Z</time>
      </trkpt>
      <trkpt lat="44.68972" lon="3.63728">
        <ele>1305.7766218314</ele>
        <time>2015-04-23T10:16:55Z</time>
      </trkpt>
      <trkpt lat="44.68969" lon="3.63738">
        <ele>1304.6470885194</ele>
        <time>2015-04-23T10:17:00Z</time>
      </trkpt>
      <trkpt lat="44.68967" lon="3.63748">
        <ele>1304.6470885194</ele>
        <time>2015-04-23T10:17:05Z</time>
      </trkpt>
      <trkpt lat="44.68962" lon="3.63755">
        <ele>1303.2944577224</ele>
        <time>2015-04-23T10:17:10Z</time>
      </trkpt>
      <trkpt lat="44.68958" lon="3.63765">
        <ele>1303.2944577224</ele>
        <time>2015-04-23T10:17:15Z</time>
      </trkpt>
      <trkpt lat="44.68955" lon="3.63775">
        <ele>1301.6376316083</ele>
        <time>2015-04-23T10:17:20Z</time>
      </trkpt>
      <trkpt lat="44.68952" lon="3.63785">
        <ele>1301.6376316083</ele>
        <time>2015-04-23T10:17:25Z</time>
      </trkpt>
      <trkpt lat="44.68949" lon="3.63794">
        <ele>1299.8040201954</ele>
        <time>2015-04-23T10:17:30Z</time>
      </trkpt>
      <trkpt lat="44.68945" lon="3.63803">
        <ele>1299.8040201954</ele>
        <time>2015-04-23T10:17:35Z</time>
      </trkpt>
      <trkpt lat="44.68942" lon="3.63812">
        <ele>1297.9553373039</ele>
        <time>2015-04-23T10:17:40Z</time>
      </trkpt>
      <trkpt lat="44.68939" lon="3.63822">
        <ele>1297.9553373039</ele>
        <time>2015-04-23T10:17:45Z</time>
      </trkpt>
      <trkpt lat="44.68935" lon="3.63831">
        <ele>1296.0684521619</ele>
        <time>2015-04-23T10:17:50Z</time>
      </trkpt>
      <trkpt lat="44.6893" lon="3.63839">
        <ele>1296.0684521619</ele>
        <time>2015-04-23T10:17:55Z</time>
      </trkpt>
      <trkpt lat="44.68926" lon="3.63848">
        <ele>1294.2228361265</ele>
        <time>2015-04-23T10:18:00Z</time>
      </trkpt>
      <trkpt lat="44.68923" lon="3.63858">
        <ele>1294.2228361265</ele>
        <time>2015-04-23T10:18:05Z</time>
      </trkpt>
      <trkpt lat="44.68919" lon="3.63867">
        <ele>1292.3478061871</ele>
        <time>2015-04-23T10:18:10Z</time>
      </trkpt>
      <trkpt lat="44.68914" lon="3.63876">
        <ele>1292.3478061871</ele>
        <time>2015-04-23T10:18:15Z</time>
      </trkpt>
      <trkpt lat="44.6891" lon="3.63885">
        <ele>1290.6949029596</ele>
        <time>2015-04-23T10:18:20Z</time>
      </trkpt>
      <trkpt lat="44.68906" lon="3.63895">
        <ele>1290.6949029596</ele>
        <time>2015-04-23T10:18:25Z</time>
      </trkpt>
      <trkpt lat="44.68902" lon="3.63907">
        <ele>1289.0353090926</ele>
        <time>2015-04-23T10:18:30Z</time>
      </trkpt>
      <trkpt lat="44.68897" lon="3.63916">
        <ele>1289.0353090926</ele>
        <time>2015-04-23T10:18:35Z</time>
      </trkpt>
      <trkpt lat="44.6889" lon="3.63925">
        <ele>1287.6036746362</ele>
        <time>2015-04-23T10:18:40Z</time>
      </trkpt>
      <trkpt lat="44.68878" lon="3.63937">
        <ele>1286.0834542086</ele>
        <time>2015-04-23T10:18:45Z</time>
      </trkpt>
      <trkpt lat="44.68865" lon="3.63949">
        <ele>1284.5129510001</ele>
        <time>2015-04-23T10:18:50Z</time>
      </trkpt>
      <trkpt lat="44.68856" lon="3.63963">
        <ele>1283.2735531778</ele>
        <time>2015-04-23T10:18:55Z</time>
      </trkpt>
      <trkpt lat="44.68853" lon="3.63982">
        <ele>1282.1987949759</ele>
        <time>2015-04-23T10:19:00Z</time>
      </trkpt>
      <trkpt lat="44.68853" lon="3.63999">
        <ele>1281.0185815672</ele>
        <time>2015-04-23T10:19:05Z</time>
      </trkpt>
      <trkpt lat="44.68855" lon="3.64007">
        <ele>1281.0185815672</ele>
        <time>2015-04-23T10:19:10Z</time>
      </trkpt>
      <trkpt lat="44.68855" lon="3.64016">
        <ele>1279.9728290022</ele>
        <time>2015-04-23T10:19:15Z</time>
      </trkpt>
      <trkpt lat="44.68854" lon="3.64026">
        <ele>1279.9728290022</ele>
        <time>2015-04-23T10:19:20Z</time>
      </trkpt>
      <trkpt lat="44.68853" lon="3.64036">
        <ele>1278.908662691</ele>
        <time>2015-04-23T10:19:25Z</time>
      </trkpt>
      <trkpt lat="44.68849" lon="3.64047">
        <ele>1278.908662691</ele>
        <time>2015-04-23T10:19:30Z</time>
      </trkpt>
      <trkpt lat="44.6885" lon="3.64058">
        <ele>1277.9726159378</ele>
        <time>2015-04-23T10:19:35Z</time>
      </trkpt>
      <trkpt lat="44.68851" lon="3.64068">
        <ele>1277.9726159378</ele>
        <time>2015-04-23T10:19:40Z</time>
      </trkpt>
      <trkpt lat="44.68851" lon="3.64078">
        <ele>1277.040606485</ele>
        <time>2015-04-23T10:19:45Z</time>
      </trkpt>
      <trkpt lat="44.68852" lon="3.64088">
        <ele>1277.040606485</ele>
        <time>2015-04-23T10:19:50Z</time>
      </trkpt>
      <trkpt lat="44.6885" lon="3.64098">
        <ele>1276.1993244923</ele>
        <time>2015-04-23T10:19:55Z</time>
      </trkpt>
      <trkpt lat="44.68851" lon="3.64109">
        <ele>1276.1993244923</ele>
        <time>2015-04-23T10:20:00Z</time>
      </trkpt>
      <trkpt lat="44.68851" lon="3.6412">
        <ele>1275.4134667986</ele>
        <time>2015-04-23T10:20:05Z</time>
      </trkpt>
      <trkpt lat="44.68853" lon="3.64132">
        <ele>1275.4134667986</ele>
        <time>2015-04-23T10:20:10Z</time>
      </trkpt>
      <trkpt lat="44.68854" lon="3.64142">
        <ele>1274.5924474531</ele>
        <time>2015-04-23T10:20:15Z</time>
      </trkpt>
      <trkpt lat="44.68856" lon="3.64153">
        <ele>1274.5924474531</ele>
        <time>2015-04-23T10:20:20Z</time>
      </trkpt>
      <trkpt lat="44.68857" lon="3.64164">
        <ele>1274.0702857905</ele>
        <time>2015-04-23T10:20:25Z</time>
      </trkpt>
      <trkpt lat="44.68858" lon="3.64175">
        <ele>1274.0702857905</ele>
        <time>2015-04-23T10:20:30Z</time>
      </trkpt>
      <trkpt lat="44.68859" lon="3.64185">
        <ele>1273.6079397961</ele>
        <time>2015-04-23T10:20:35Z</time>
      </trkpt>
      <trkpt lat="44.68859" lon="3.64195">
        <ele>1273.6079397961</ele>
        <time>2015-04-23T10:20:40Z</time>
      </trkpt>
      <trkpt lat="44.6886" lon="3.64205">
        <ele>1273.1566361753</ele>
        <time>2015-04-23T10:20:45Z</time>
      </trkpt>
      <trkpt lat="44.68861" lon="3.64219">
        <ele>1272.7431596201</ele>
        <time>2015-04-23T10:20:50Z</time>
      </trkpt>
      <trkpt lat="44.68861" lon="3.64236">
        <ele>1272.3777680901</ele>
        <time>2015-04-23T10:20:55Z</time>
      </trkpt>
      <trkpt lat="44.68861" lon="3.64246">
        <ele>1272.3777680901</ele>
        <time>2015-04-23T10:21:00Z</time>
      </trkpt>
      <trkpt lat="44.6886" lon="3.64257">
        <ele>1272.3868417809</ele>
        <time>2015-04-23T10:21:05Z</time>
      </trkpt>
      <trkpt lat="44.6886" lon="3.64268">
        <ele>1272.3868417809</ele>
        <time>2015-04-23T10:21:10Z</time>
      </trkpt>
      <trkpt lat="44.68861" lon="3.64277">
        <ele>1272.4808533555</ele>
        <time>2015-04-23T10:21:15Z</time>
      </trkpt>
      <trkpt lat="44.68861" lon="3.64287">
        <ele>1272.4808533555</ele>
        <time>2015-04-23T10:21:20Z</time>
      </trkpt>
      <trkpt lat="44.68863" lon="3.64296">
        <ele>1272.4345220768</ele>
        <time>2015-04-23T10:21:25Z</time>
      </trkpt>
      <trkpt lat="44.68864" lon="3.64304">
        <ele>1272.4345220768</ele>
        <time>2015-04-23T10:21:30Z</time>
      </trkpt>
      <trkpt lat="44.68865" lon="3.64315">
        <ele>1272.5583021902</ele>
        <time>2015-04-23T10:21:35Z</time>
      </trkpt>
      <trkpt lat="44.68864" lon="3.64328">
        <ele>1272.8511439922</ele>
        <time>2015-04-23T10:21:40Z</time>
      </trkpt>
      <trkpt lat="44.68863" lon="3.6434">
        <ele>1272.8511439922</ele>
        <time>2015-04-23T10:21:45Z</time>
      </trkpt>
      <trkpt lat="44.68863" lon="3.64352">
        <ele>1273.354844734</ele>
        <time>2015-04-23T10:21:50Z</time>
      </trkpt>
      <trkpt lat="44.68863" lon="3.64363">
        <ele>1273.354844734</ele>
        <time>2015-04-23T10:21:55Z</time>
      </trkpt>
      <trkpt lat="44.68864" lon="3.64373">
        <ele>1273.55993695</ele>
        <time>2015-04-23T10:22:00Z</time>
      </trkpt>
      <trkpt lat="44.68864" lon="3.64384">
        <ele>1273.55993695</ele>
        <time>2015-04-23T10:22:05Z</time>
      </trkpt>
      <trkpt lat="44.68863" lon="3.64394">
        <ele>1273.7013890554</ele>
        <time>2015-04-23T10:22:10Z</time>
      </trkpt>
      <trkpt lat="44.68862" lon="3.64405">
        <ele>1273.7013890554</ele>
        <time>2015-04-23T10:22:15Z</time>
      </trkpt>
      <trkpt lat="44.6886" lon="3.64417">
        <ele>1274.040357178</ele>
        <time>2015-04-23T10:22:20Z</time>
      </trkpt>
      <trkpt lat="44.6886" lon="3.64428">
        <ele>1274.040357178</ele>
        <time>2015-04-23T10:22:25Z</time>
      </trkpt>
      <trkpt lat="44.6886" lon="3.64439">
        <ele>1274.2418578211</ele>
        <time>2015-04-23T10:22:30Z</time>
      </trkpt>
      <trkpt lat="44.68861" lon="3.64451">
        <ele>1274.4859284397</ele>
        <time>2015-04-23T10:22:35Z</time>
      </trkpt>
      <trkpt lat="44.68859" lon="3.64467">
        <ele>1274.6366832554</ele>
        <time>2015-04-23T10:22:40Z</time>
      </trkpt>
      <trkpt lat="44.68857" lon="3.64485">
        <ele>1274.7991181464</ele>
        <time>2015-04-23T10:22:45Z</time>
      </trkpt>
      <trkpt lat="44.68855" lon="3.645">
        <ele>1275.0993696852</ele>
        <time>2015-04-23T10:22:50Z</time>
      </trkpt>
      <trkpt lat="44.68853" lon="3.64509">
        <ele>1275.0993696852</ele>
        <time>2015-04-23T10:22:55Z</time>
      </trkpt>
      <trkpt lat="44.68852" lon="3.64518">
        <ele>1275.4378231942</ele>
        <time>2015-04-23T10:23:00Z</time>
      </trkpt>
      <trkpt lat="44.68851" lon="3.64529">
        <ele>1275.4378231942</ele>
        <time>2015-04-23T10:23:05Z</time>
      </trkpt>
      <trkpt lat="44.68849" lon="3.64539">
        <ele>1275.8662574271</ele>
        <time>2015-04-23T10:23:10Z</time>
      </trkpt>
      <trkpt lat="44.68848" lon="3.64551">
        <ele>1275.8662574271</ele>
        <time>2015-04-23T10:23:15Z</time>
      </trkpt>
      <trkpt lat="44.68846" lon="3.64562">
        <ele>1276.3027705833</ele>
        <time>2015-04-23T10:23:20Z</time>
      </trkpt>
      <trkpt lat="44.68843" lon="3.6457">
        <ele>1276.3027705833</ele>
        <time>2015-04-23T10:23:25Z</time>
      </trkpt>
      <trkpt lat="44.68842" lon="3.6458">
        <ele>1277.046223484</ele>
        <time>2015-04-23T10:23:30Z</time>
      </trkpt>
      <trkpt lat="44.68839" lon="3.64589">
        <ele>1277.046223484</ele>
        <time>2015-04-23T10:23:35Z</time>
      </trkpt>
      <trkpt lat="44.68837" lon="3.64598">
        <ele>1277.9980572062</ele>
        <time>2015-04-23T10:23:40Z</time>
      </trkpt>
      <trkpt lat="44.68837" lon="3.64597">
        <ele>1277.9980572062</ele>
        <time>2015-04-23T10:23:45Z</time>
      </trkpt>
      <trkpt lat="44.68837" lon="3.64598">
        <ele>1277.9980572062</ele>
        <time>2015-04-23T10:23:50Z</time>
      </trkpt>
      <trkpt lat="44.68838" lon="3.64599">
        <ele>1277.9980572062</ele>
        <time>2015-04-23T10:23:55Z</time>
      </trkpt>
      <trkpt lat="44.68838" lon="3.646">
        <ele>1277.9980572062</ele>
        <time>2015-04-23T10:24:00Z</time>
      </trkpt>
      <trkpt lat="44.68838" lon="3.64603">
        <ele>1277.9980572062</ele>
        <time>2015-04-23T10:24:05Z</time>
      </trkpt>
      <trkpt lat="44.68842" lon="3.64609">
        <ele>1278.4179567791</ele>
        <time>2015-04-23T10:24:10Z</time>
      </trkpt>
      <trkpt lat="44.68847" lon="3.64617">
        <ele>1278.4179567791</ele>
        <time>2015-04-23T10:24:15Z</time>
      </trkpt>
      <trkpt lat="44.68853" lon="3.64625">
        <ele>1279.0770984179</ele>
        <time>2015-04-23T10:24:20Z</time>
      </trkpt>
      <trkpt lat="44.68859" lon="3.64632">
        <ele>1279.0770984179</ele>
        <time>2015-04-23T10:24:25Z</time>
      </trkpt>
      <trkpt lat="44.68863" lon="3.64641">
        <ele>1279.6950667947</ele>
        <time>2015-04-23T10:24:30Z</time>
      </trkpt>
      <trkpt lat="44.68865" lon="3.6465">
        <ele>1279.6950667947</ele>
        <time>2015-04-23T10:24:35Z</time>
      </trkpt>
      <trkpt lat="44.68868" lon="3.64659">
        <ele>1279.8393266367</ele>
        <time>2015-04-23T10:24:40Z</time>
      </trkpt>
      <trkpt lat="44.68871" lon="3.64668">
        <ele>1279.8393266367</ele>
        <time>2015-04-23T10:24:45Z</time>
      </trkpt>
      <trkpt lat="44.68874" lon="3.64678">
        <ele>1280.0184451513</ele>
        <time>2015-04-23T10:24:50Z</time>
      </trkpt>
      <trkpt lat="44.68877" lon="3.64688">
        <ele>1280.0184451513</ele>
        <time>2015-04-23T10:24:55Z</time>
      </trkpt>
      <trkpt lat="44.6888" lon="3.64698">
        <ele>1280.2712983952</ele>
        <time>2015-04-23T10:25:00Z</time>
      </trkpt>
      <trkpt lat="44.68884" lon="3.64707">
        <ele>1280.2712983952</ele>
        <time>2015-04-23T10:25:05Z</time>
      </trkpt>
      <trkpt lat="44.68888" lon="3.64717">
        <ele>1280.3888083604</ele>
        <time>2015-04-23T10:25:10Z</time>
      </trkpt>
      <trkpt lat="44.68893" lon="3.64726">
        <ele>1280.3888083604</ele>
        <time>2015-04-23T10:25:15Z</time>
      </trkpt>
      <trkpt lat="44.68896" lon="3.64736">
        <ele>1280.4371306386</ele>
        <time>2015-04-23T10:25:20Z</time>
      </trkpt>
      <trkpt lat="44.68898" lon="3.64746">
        <ele>1280.4371306386</ele>
        <time>2015-04-23T10:25:25Z</time>
      </trkpt>
      <trkpt lat="44.68898" lon="3.64757">
        <ele>1280.5354920112</ele>
        <time>2015-04-23T10:25:30Z</time>
      </trkpt>
      <trkpt lat="44.68898" lon="3.64767">
        <ele>1280.5354920112</ele>
        <time>2015-04-23T10:25:35Z</time>
      </trkpt>
      <trkpt lat="44.689" lon="3.64777">
        <ele>1280.4628539471</ele>
        <time>2015-04-23T10:25:40Z</time>
      </trkpt>
      <trkpt lat="44.68902" lon="3.64786">
        <ele>1280.4628539471</ele>
        <time>2015-04-23T10:25:45Z</time>
      </trkpt>
      <trkpt lat="44.68903" lon="3.64798">
        <ele>1280.6634810052</ele>
        <time>2015-04-23T10:25:50Z</time>
      </trkpt>
      <trkpt lat="44.68903" lon="3.64809">
        <ele>1280.6634810052</ele>
        <time>2015-04-23T10:25:55Z</time>
      </trkpt>
      <trkpt lat="44.68902" lon="3.64819">
        <ele>1280.7412954854</ele>
        <time>2015-04-23T10:26:00Z</time>
      </trkpt>
      <trkpt lat="44.68901" lon="3.6483">
        <ele>1280.7412954854</ele>
        <time>2015-04-23T10:26:05Z</time>
      </trkpt>
      <trkpt lat="44.68899" lon="3.64839">
        <ele>1280.8629501598</ele>
        <time>2015-04-23T10:26:10Z</time>
      </trkpt>
      <trkpt lat="44.68896" lon="3.64848">
        <ele>1280.8629501598</ele>
        <time>2015-04-23T10:26:15Z</time>
      </trkpt>
      <trkpt lat="44.68892" lon="3.6485">
        <ele>1281.0819307984</ele>
        <time>2015-04-23T10:26:20Z</time>
      </trkpt>
      <trkpt lat="44.68886" lon="3.64851">
        <ele>1281.0819307984</ele>
        <time>2015-04-23T10:26:25Z</time>
      </trkpt>
      <trkpt lat="44.6888" lon="3.64851">
        <ele>1281.2746610406</ele>
        <time>2015-04-23T10:26:30Z</time>
      </trkpt>
      <trkpt lat="44.68872" lon="3.64851">
        <ele>1281.2746610406</ele>
        <time>2015-04-23T10:26:35Z</time>
      </trkpt>
      <trkpt lat="44.68865" lon="3.64854">
        <ele>1281.5717758931</ele>
        <time>2015-04-23T10:26:40Z</time>
      </trkpt>
      <trkpt lat="44.68862" lon="3.64862">
        <ele>1281.5717758931</ele>
        <time>2015-04-23T10:26:45Z</time>
      </trkpt>
      <trkpt lat="44.68863" lon="3.64873">
        <ele>1281.6617560771</ele>
        <time>2015-04-23T10:26:50Z</time>
      </trkpt>
      <trkpt lat="44.68864" lon="3.64884">
        <ele>1281.6617560771</ele>
        <time>2015-04-23T10:26:55Z</time>
      </trkpt>
      <trkpt lat="44.68867" lon="3.64895">
        <ele>1281.7033578733</ele>
        <time>2015-04-23T10:27:00Z</time>
      </trkpt>
      <trkpt lat="44.68869" lon="3.64904">
        <ele>1281.7033578733</ele>
        <time>2015-04-23T10:27:05Z</time>
      </trkpt>
      <trkpt lat="44.68872" lon="3.64929">
        <ele>1281.5988848547</ele>
        <time>2015-04-23T10:27:10Z</time>
      </trkpt>
      <trkpt lat="44.68873" lon="3.64964">
        <ele>1281.6185642733</ele>
        <time>2015-04-23T10:27:15Z</time>
      </trkpt>
      <trkpt lat="44.68876" lon="3.64993">
        <ele>1281.6954352794</ele>
        <time>2015-04-23T10:27:20Z</time>
      </trkpt>
      <trkpt lat="44.68875" lon="3.64999">
        <ele>1281.6954352794</ele>
        <time>2015-04-23T10:27:25Z</time>
      </trkpt>
      <trkpt lat="44.68873" lon="3.65008">
        <ele>1281.6664692937</ele>
        <time>2015-04-23T10:27:30Z</time>
      </trkpt>
      <trkpt lat="44.68874" lon="3.65016">
        <ele>1281.6664692937</ele>
        <time>2015-04-23T10:27:35Z</time>
      </trkpt>
      <trkpt lat="44.6888" lon="3.65025">
        <ele>1281.9718149104</ele>
        <time>2015-04-23T10:27:40Z</time>
      </trkpt>
      <trkpt lat="44.68884" lon="3.65035">
        <ele>1281.9718149104</ele>
        <time>2015-04-23T10:27:45Z</time>
      </trkpt>
      <trkpt lat="44.68886" lon="3.65047">
        <ele>1282.1537285995</ele>
        <time>2015-04-23T10:27:50Z</time>
      </trkpt>
      <trkpt lat="44.68887" lon="3.65058">
        <ele>1282.1537285995</ele>
        <time>2015-04-23T10:27:55Z</time>
      </trkpt>
      <trkpt lat="44.6889" lon="3.65069">
        <ele>1282.5522717282</ele>
        <time>2015-04-23T10:28:00Z</time>
      </trkpt>
      <trkpt lat="44.68893" lon="3.65078">
        <ele>1282.5522717282</ele>
        <time>2015-04-23T10:28:05Z</time>
      </trkpt>
      <trkpt lat="44.68897" lon="3.65088">
        <ele>1282.9343373436</ele>
        <time>2015-04-23T10:28:10Z</time>
      </trkpt>
      <trkpt lat="44.68899" lon="3.65098">
        <ele>1282.9343373436</ele>
        <time>2015-04-23T10:28:15Z</time>
      </trkpt>
      <trkpt lat="44.68902" lon="3.65108">
        <ele>1283.0984411393</ele>
        <time>2015-04-23T10:28:20Z</time>
      </trkpt>
      <trkpt lat="44.68904" lon="3.65118">
        <ele>1283.0984411393</ele>
        <time>2015-04-23T10:28:25Z</time>
      </trkpt>
      <trkpt lat="44.68906" lon="3.65128">
        <ele>1283.478229746</ele>
        <time>2015-04-23T10:28:30Z</time>
      </trkpt>
      <trkpt lat="44.68909" lon="3.65137">
        <ele>1283.478229746</ele>
        <time>2015-04-23T10:28:35Z</time>
      </trkpt>
      <trkpt lat="44.68911" lon="3.65143">
        <ele>1283.0338159583</ele>
        <time>2015-04-23T10:28:40Z</time>
      </trkpt>
      <trkpt lat="44.68916" lon="3.65149">
        <ele>1283.0338159583</ele>
        <time>2015-04-23T10:28:45Z</time>
      </trkpt>
      <trkpt lat="44.68919" lon="3.65159">
        <ele>1282.9080728028</ele>
        <time>2015-04-23T10:28:50Z</time>
      </trkpt>
      <trkpt lat="44.68922" lon="3.65169">
        <ele>1282.9080728028</ele>
        <time>2015-04-23T10:28:55Z</time>
      </trkpt>
      <trkpt lat="44.68923" lon="3.65178">
        <ele>1282.9773451182</ele>
        <time>2015-04-23T10:29:00Z</time>
      </trkpt>
      <trkpt lat="44.68922" lon="3.65189">
        <ele>1282.9773451182</ele>
        <time>2015-04-23T10:29:05Z</time>
      </trkpt>
      <trkpt lat="44.68924" lon="3.65201">
        <ele>1282.9103757297</ele>
        <time>2015-04-23T10:29:10Z</time>
      </trkpt>
      <trkpt lat="44.68926" lon="3.65213">
        <ele>1282.9103757297</ele>
        <time>2015-04-23T10:29:15Z</time>
      </trkpt>
      <trkpt lat="44.6893" lon="3.65224">
        <ele>1283.1932598223</ele>
        <time>2015-04-23T10:29:20Z</time>
      </trkpt>
      <trkpt lat="44.68932" lon="3.65234">
        <ele>1283.1932598223</ele>
        <time>2015-04-23T10:29:25Z</time>
      </trkpt>
      <trkpt lat="44.68934" lon="3.65245">
        <ele>1283.5692809114</ele>
        <time>2015-04-23T10:29:30Z</time>
      </trkpt>
      <trkpt lat="44.68936" lon="3.65255">
        <ele>1283.5692809114</ele>
        <time>2015-04-23T10:29:35Z</time>
      </trkpt>
      <trkpt lat="44.68937" lon="3.65266">
        <ele>1283.8003408725</ele>
        <time>2015-04-23T10:29:40Z</time>
      </trkpt>
      <trkpt lat="44.68941" lon="3.65274">
        <ele>1283.8003408725</ele>
        <time>2015-04-23T10:29:45Z</time>
      </trkpt>
      <trkpt lat="44.68944" lon="3.65286">
        <ele>1284.098592987</ele>
        <time>2015-04-23T10:29:50Z</time>
      </trkpt>
      <trkpt lat="44.68949" lon="3.65292">
        <ele>1284.098592987</ele>
        <time>2015-04-23T10:29:55Z</time>
      </trkpt>
      <trkpt lat="44.68952" lon="3.65303">
        <ele>1284.2425151831</ele>
        <time>2015-04-23T10:30:00Z</time>
      </trkpt>
      <trkpt lat="44.68954" lon="3.65313">
        <ele>1284.2425151831</ele>
        <time>2015-04-23T10:30:05Z</time>
      </trkpt>
      <trkpt lat="44.68956" lon="3.65323">
        <ele>1284.099365701</ele>
        <time>2015-04-23T10:30:10Z</time>
      </trkpt>
      <trkpt lat="44.68956" lon="3.65334">
        <ele>1284.099365701</ele>
        <time>2015-04-23T10:30:15Z</time>
      </trkpt>
      <trkpt lat="44.68957" lon="3.65346">
        <ele>1284.2387102323</ele>
        <time>2015-04-23T10:30:20Z</time>
      </trkpt>
      <trkpt lat="44.6896" lon="3.65357">
        <ele>1284.2387102323</ele>
        <time>2015-04-23T10:30:25Z</time>
      </trkpt>
      <trkpt lat="44.68964" lon="3.65366">
        <ele>1284.3228304606</ele>
        <time>2015-04-23T10:30:30Z</time>
      </trkpt>
      <trkpt lat="44.68969" lon="3.65374">
        <ele>1284.3228304606</ele>
        <time>2015-04-23T10:30:35Z</time>
      </trkpt>
      <trkpt lat="44.68975" lon="3.6538">
        <ele>1284.0678065136</ele>
        <time>2015-04-23T10:30:40Z</time>
      </trkpt>
      <trkpt lat="44.68981" lon="3.65385">
        <ele>1284.0678065136</ele>
        <time>2015-04-23T10:30:45Z</time>
      </trkpt>
      <trkpt lat="44.68987" lon="3.6539">
        <ele>1284.0906148503</ele>
        <time>2015-04-23T10:30:50Z</time>
      </trkpt>
      <trkpt lat="44.68994" lon="3.65398">
        <ele>1284.0906148503</ele>
        <time>2015-04-23T10:30:55Z</time>
      </trkpt>
      <trkpt lat="44.69" lon="3.65407">
        <ele>1284.457749179</ele>
        <time>2015-04-23T10:31:00Z</time>
      </trkpt>
      <trkpt lat="44.69004" lon="3.65416">
        <ele>1284.457749179</ele>
        <time>2015-04-23T10:31:05Z</time>
      </trkpt>
      <trkpt lat="44.69004" lon="3.65421">
        <ele>1285.244271615</ele>
        <time>2015-04-23T10:31:10Z</time>
      </trkpt>
      <trkpt lat="44.69005" lon="3.65428">
        <ele>1285.244271615</ele>
        <time>2015-04-23T10:31:15Z</time>
      </trkpt>
      <trkpt lat="44.69006" lon="3.65436">
        <ele>1285.697128076</ele>
        <time>2015-04-23T10:31:20Z</time>
      </trkpt>
      <trkpt lat="44.69007" lon="3.65442">
        <ele>1285.697128076</ele>
        <time>2015-04-23T10:31:25Z</time>
      </trkpt>
      <trkpt lat="44.6901" lon="3.65451">
        <ele>1285.7824397322</ele>
        <time>2015-04-23T10:31:30Z</time>
      </trkpt>
      <trkpt lat="44.69011" lon="3.65462">
        <ele>1285.7824397322</ele>
        <time>2015-04-23T10:31:35Z</time>
      </trkpt>
      <trkpt lat="44.69011" lon="3.65472">
        <ele>1285.8877798963</ele>
        <time>2015-04-23T10:31:40Z</time>
      </trkpt>
      <trkpt lat="44.69011" lon="3.65477">
        <ele>1285.8877798963</ele>
        <time>2015-04-23T10:31:45Z</time>
      </trkpt>
      <trkpt lat="44.6901" lon="3.65478">
        <ele>1285.8877798963</ele>
        <time>2015-04-23T10:31:50Z</time>
      </trkpt>
      <trkpt lat="44.6901" lon="3.6548">
        <ele>1285.8877798963</ele>
        <time>2015-04-23T10:31:55Z</time>
      </trkpt>
      <trkpt lat="44.6901" lon="3.6548">
        <ele>1285.8877798963</ele>
        <time>2015-04-23T10:32:00Z</time>
      </trkpt>
      <trkpt lat="44.69011" lon="3.65485">
        <ele>1285.9686935394</ele>
        <time>2015-04-23T10:32:05Z</time>
      </trkpt>
      <trkpt lat="44.69014" lon="3.65492">
        <ele>1285.9686935394</ele>
        <time>2015-04-23T10:32:10Z</time>
      </trkpt>
      <trkpt lat="44.69018" lon="3.65499">
        <ele>1285.7390791293</ele>
        <time>2015-04-23T10:32:15Z</time>
      </trkpt>
      <trkpt lat="44.69023" lon="3.65507">
        <ele>1285.7390791293</ele>
        <time>2015-04-23T10:32:20Z</time>
      </trkpt>
      <trkpt lat="44.69028" lon="3.6551">
        <ele>1285.972330103</ele>
        <time>2015-04-23T10:32:25Z</time>
      </trkpt>
      <trkpt lat="44.6903" lon="3.65515">
        <ele>1285.972330103</ele>
        <time>2015-04-23T10:32:30Z</time>
      </trkpt>
      <trkpt lat="44.69035" lon="3.65518">
        <ele>1286.4181888996</ele>
        <time>2015-04-23T10:32:35Z</time>
      </trkpt>
      <trkpt lat="44.69043" lon="3.65524">
        <ele>1286.4181888996</ele>
        <time>2015-04-23T10:32:40Z</time>
      </trkpt>
      <trkpt lat="44.69046" lon="3.65527">
        <ele>1286.8297788362</ele>
        <time>2015-04-23T10:32:45Z</time>
      </trkpt>
      <trkpt lat="44.69049" lon="3.65528">
        <ele>1286.8297788362</ele>
        <time>2015-04-23T10:32:50Z</time>
      </trkpt>
      <trkpt lat="44.69052" lon="3.65533">
        <ele>1286.8297788362</ele>
        <time>2015-04-23T10:32:55Z</time>
      </trkpt>
      <trkpt lat="44.69054" lon="3.65539">
        <ele>1286.5749472624</ele>
        <time>2015-04-23T10:33:00Z</time>
      </trkpt>
      <trkpt lat="44.69054" lon="3.65548">
        <ele>1286.5749472624</ele>
        <time>2015-04-23T10:33:05Z</time>
      </trkpt>
      <trkpt lat="44.69053" lon="3.65555">
        <ele>1286.5830192985</ele>
        <time>2015-04-23T10:33:10Z</time>
      </trkpt>
      <trkpt lat="44.69051" lon="3.65563">
        <ele>1286.5830192985</ele>
        <time>2015-04-23T10:33:15Z</time>
      </trkpt>
      <trkpt lat="44.69052" lon="3.65573">
        <ele>1286.8208284006</ele>
        <time>2015-04-23T10:33:20Z</time>
      </trkpt>
      <trkpt lat="44.69049" lon="3.65578">
        <ele>1286.8208284006</ele>
        <time>2015-04-23T10:33:25Z</time>
      </trkpt>
      <trkpt lat="44.69046" lon="3.65578">
        <ele>1286.8208284006</ele>
        <time>2015-04-23T10:33:30Z</time>
      </trkpt>
      <trkpt lat="44.69038" lon="3.6558">
        <ele>1286.8102564926</ele>
        <time>2015-04-23T10:33:35Z</time>
      </trkpt>
      <trkpt lat="44.69034" lon="3.65584">
        <ele>1286.8102564926</ele>
        <time>2015-04-23T10:33:40Z</time>
      </trkpt>
      <trkpt lat="44.69035" lon="3.65586">
        <ele>1286.8102564926</ele>
        <time>2015-04-23T10:33:45Z</time>
      </trkpt>
      <trkpt lat="44.69041" lon="3.65587">
        <ele>1285.3019788657</ele>
        <time>2015-04-23T10:33:50Z</time>
      </trkpt>
      <trkpt lat="44.69046" lon="3.65589">
        <ele>1285.3019788657</ele>
        <time>2015-04-23T10:33:55Z</time>
      </trkpt>
      <trkpt lat="44.6905" lon="3.65595">
        <ele>1284.4571961125</ele>
        <time>2015-04-23T10:34:00Z</time>
      </trkpt>
      <trkpt lat="44.69053" lon="3.656">
        <ele>1284.4571961125</ele>
        <time>2015-04-23T10:34:05Z</time>
      </trkpt>
      <trkpt lat="44.69056" lon="3.65602">
        <ele>1284.4571961125</ele>
        <time>2015-04-23T10:34:10Z</time>
      </trkpt>
      <trkpt lat="44.6906" lon="3.65606">
        <ele>1284.4462624016</ele>
        <time>2015-04-23T10:34:15Z</time>
      </trkpt>
      <trkpt lat="44.69066" lon="3.65612">
        <ele>1284.4462624016</ele>
        <time>2015-04-23T10:34:20Z</time>
      </trkpt>
      <trkpt lat="44.69072" lon="3.65615">
        <ele>1284.0123701344</ele>
        <time>2015-04-23T10:34:25Z</time>
      </trkpt>
      <trkpt lat="44.69078" lon="3.65622">
        <ele>1284.0123701344</ele>
        <time>2015-04-23T10:34:30Z</time>
      </trkpt>
      <trkpt lat="44.69083" lon="3.65627">
        <ele>1284.2259224938</ele>
        <time>2015-04-23T10:34:35Z</time>
      </trkpt>
      <trkpt lat="44.69093" lon="3.65634">
        <ele>1285.1257183279</ele>
        <time>2015-04-23T10:34:40Z</time>
      </trkpt>
      <trkpt lat="44.69098" lon="3.65639">
        <ele>1285.1257183279</ele>
        <time>2015-04-23T10:34:45Z</time>
      </trkpt>
      <trkpt lat="44.69105" lon="3.65644">
        <ele>1285.8666822717</ele>
        <time>2015-04-23T10:34:50Z</time>
      </trkpt>
      <trkpt lat="44.6911" lon="3.65649">
        <ele>1285.8666822717</ele>
        <time>2015-04-23T10:34:55Z</time>
      </trkpt>
      <trkpt lat="44.69114" lon="3.65655">
        <ele>1286.3723908688</ele>
        <time>2015-04-23T10:35:00Z</time>
      </trkpt>
      <trkpt lat="44.69118" lon="3.65658">
        <ele>1286.3723908688</ele>
        <time>2015-04-23T10:35:05Z</time>
      </trkpt>
      <trkpt lat="44.69122" lon="3.65659">
        <ele>1286.3723908688</ele>
        <time>2015-04-23T10:35:10Z</time>
      </trkpt>
      <trkpt lat="44.69125" lon="3.65661">
        <ele>1286.4429818184</ele>
        <time>2015-04-23T10:35:15Z</time>
      </trkpt>
      <trkpt lat="44.69129" lon="3.65661">
        <ele>1286.4429818184</ele>
        <time>2015-04-23T10:35:20Z</time>
      </trkpt>
      <trkpt lat="44.69132" lon="3.6566">
        <ele>1286.4429818184</ele>
        <time>2015-04-23T10:35:25Z</time>
      </trkpt>
      <trkpt lat="44.69133" lon="3.65662">
        <ele>1286.4429818184</ele>
        <time>2015-04-23T10:35:30Z</time>
      </trkpt>
      <trkpt lat="44.69132" lon="3.65665">
        <ele>1286.355641497</ele>
        <time>2015-04-23T10:35:35Z</time>
      </trkpt>
      <trkpt lat="44.69133" lon="3.65665">
        <ele>1286.355641497</ele>
        <time>2015-04-23T10:35:40Z</time>
      </trkpt>
      <trkpt lat="44.69131" lon="3.65663">
        <ele>1286.355641497</ele>
        <time>2015-04-23T10:35:45Z</time>
      </trkpt>
      <trkpt lat="44.69128" lon="3.65663">
        <ele>1286.355641497</ele>
        <time>2015-04-23T10:35:50Z</time>
      </trkpt>
      <trkpt lat="44.69124" lon="3.6566">
        <ele>1286.2667514059</ele>
        <time>2015-04-23T10:35:55Z</time>
      </trkpt>
      <trkpt lat="44.69119" lon="3.65656">
        <ele>1286.2667514059</ele>
        <time>2015-04-23T10:36:00Z</time>
      </trkpt>
      <trkpt lat="44.69116" lon="3.65654">
        <ele>1285.5718221407</ele>
        <time>2015-04-23T10:36:05Z</time>
      </trkpt>
      <trkpt lat="44.69112" lon="3.65651">
        <ele>1285.5718221407</ele>
        <time>2015-04-23T10:36:10Z</time>
      </trkpt>
      <trkpt lat="44.69107" lon="3.65648">
        <ele>1284.5915350456</ele>
        <time>2015-04-23T10:36:15Z</time>
      </trkpt>
      <trkpt lat="44.691" lon="3.65646">
        <ele>1284.5915350456</ele>
        <time>2015-04-23T10:36:20Z</time>
      </trkpt>
      <trkpt lat="44.69092" lon="3.65643">
        <ele>1284.8631552276</ele>
        <time>2015-04-23T10:36:25Z</time>
      </trkpt>
      <trkpt lat="44.69085" lon="3.65639">
        <ele>1284.8631552276</ele>
        <time>2015-04-23T10:36:30Z</time>
      </trkpt>
      <trkpt lat="44.6908" lon="3.65635">
        <ele>1284.4352883466</ele>
        <time>2015-04-23T10:36:35Z</time>
      </trkpt>
      <trkpt lat="44.69073" lon="3.65629">
        <ele>1284.4352883466</ele>
        <time>2015-04-23T10:36:40Z</time>
      </trkpt>
      <trkpt lat="44.69067" lon="3.65625">
        <ele>1285.0037308284</ele>
        <time>2015-04-23T10:36:45Z</time>
      </trkpt>
      <trkpt lat="44.69062" lon="3.6562">
        <ele>1285.0037308284</ele>
        <time>2015-04-23T10:36:50Z</time>
      </trkpt>
      <trkpt lat="44.69057" lon="3.65617">
        <ele>1285.2979010104</ele>
        <time>2015-04-23T10:36:55Z</time>
      </trkpt>
      <trkpt lat="44.69052" lon="3.65615">
        <ele>1285.2979010104</ele>
        <time>2015-04-23T10:37:00Z</time>
      </trkpt>
      <trkpt lat="44.69047" lon="3.6561">
        <ele>1285.2221371838</ele>
        <time>2015-04-23T10:37:05Z</time>
      </trkpt>
      <trkpt lat="44.69043" lon="3.65607">
        <ele>1285.2221371838</ele>
        <time>2015-04-23T10:37:10Z</time>
      </trkpt>
      <trkpt lat="44.6904" lon="3.65605">
        <ele>1285.2221371838</ele>
        <time>2015-04-23T10:37:15Z</time>
      </trkpt>
      <trkpt lat="44.69034" lon="3.65602">
        <ele>1284.5735348263</ele>
        <time>2015-04-23T10:37:20Z</time>
      </trkpt>
      <trkpt lat="44.69031" lon="3.65596">
        <ele>1284.5735348263</ele>
        <time>2015-04-23T10:37:25Z</time>
      </trkpt>
      <trkpt lat="44.69029" lon="3.65591">
        <ele>1283.7853602921</ele>
        <time>2015-04-23T10:37:30Z</time>
      </trkpt>
      <trkpt lat="44.69028" lon="3.65585">
        <ele>1283.7853602921</ele>
        <time>2015-04-23T10:37:35Z</time>
      </trkpt>
      <trkpt lat="44.69027" lon="3.65579">
        <ele>1283.7853602921</ele>
        <time>2015-04-23T10:37:40Z</time>
      </trkpt>
      <trkpt lat="44.69026" lon="3.65571">
        <ele>1282.639743137</ele>
        <time>2015-04-23T10:37:45Z</time>
      </trkpt>
      <trkpt lat="44.69025" lon="3.65561">
        <ele>1282.639743137</ele>
        <time>2015-04-23T10:37:50Z</time>
      </trkpt>
      <trkpt lat="44.69022" lon="3.65552">
        <ele>1281.2960694815</ele>
        <time>2015-04-23T10:37:55Z</time>
      </trkpt>
      <trkpt lat="44.69021" lon="3.65544">
        <ele>1281.2960694815</ele>
        <time>2015-04-23T10:38:00Z</time>
      </trkpt>
      <trkpt lat="44.69017" lon="3.65538">
        <ele>1279.8593030048</ele>
        <time>2015-04-23T10:38:05Z</time>
      </trkpt>
      <trkpt lat="44.69012" lon="3.65534">
        <ele>1279.8593030048</ele>
        <time>2015-04-23T10:38:10Z</time>
      </trkpt>
      <trkpt lat="44.69004" lon="3.65531">
        <ele>1279.4501044324</ele>
        <time>2015-04-23T10:38:15Z</time>
      </trkpt>
      <trkpt lat="44.68996" lon="3.65527">
        <ele>1279.4501044324</ele>
        <time>2015-04-23T10:38:20Z</time>
      </trkpt>
      <trkpt lat="44.68988" lon="3.65526">
        <ele>1279.9509926157</ele>
        <time>2015-04-23T10:38:25Z</time>
      </trkpt>
      <trkpt lat="44.68981" lon="3.65524">
        <ele>1279.9509926157</ele>
        <time>2015-04-23T10:38:30Z</time>
      </trkpt>
      <trkpt lat="44.68973" lon="3.65524">
        <ele>1280.1120371162</ele>
        <time>2015-04-23T10:38:35Z</time>
      </trkpt>
      <trkpt lat="44.68965" lon="3.65525">
        <ele>1280.1120371162</ele>
        <time>2015-04-23T10:38:40Z</time>
      </trkpt>
      <trkpt lat="44.68956" lon="3.65524">
        <ele>1280.7359468765</ele>
        <time>2015-04-23T10:38:45Z</time>
      </trkpt>
      <trkpt lat="44.68949" lon="3.65523">
        <ele>1280.7359468765</ele>
        <time>2015-04-23T10:38:50Z</time>
      </trkpt>
      <trkpt lat="44.68943" lon="3.65523">
        <ele>1282.1616171071</ele>
        <time>2015-04-23T10:38:55Z</time>
      </trkpt>
      <trkpt lat="44.68936" lon="3.65522">
        <ele>1282.1616171071</ele>
        <time>2015-04-23T10:39:00Z</time>
      </trkpt>
      <trkpt lat="44.6893" lon="3.6552">
        <ele>1283.1731919094</ele>
        <time>2015-04-23T10:39:05Z</time>
      </trkpt>
      <trkpt lat="44.68923" lon="3.6552">
        <ele>1283.1731919094</ele>
        <time>2015-04-23T10:39:10Z</time>
      </trkpt>
      <trkpt lat="44.68916" lon="3.6552">
        <ele>1283.7693408542</ele>
        <time>2015-04-23T10:39:15Z</time>
      </trkpt>
      <trkpt lat="44.68909" lon="3.65518">
        <ele>1283.7693408542</ele>
        <time>2015-04-23T10:39:20Z</time>
      </trkpt>
      <trkpt lat="44.68907" lon="3.65511">
        <ele>1284.1661530446</ele>
        <time>2015-04-23T10:39:25Z</time>
      </trkpt>
      <trkpt lat="44.68903" lon="3.65507">
        <ele>1284.1661530446</ele>
        <time>2015-04-23T10:39:30Z</time>
      </trkpt>
      <trkpt lat="44.68895" lon="3.65507">
        <ele>1285.0832012584</ele>
        <time>2015-04-23T10:39:35Z</time>
      </trkpt>
      <trkpt lat="44.6889" lon="3.6551">
        <ele>1285.0832012584</ele>
        <time>2015-04-23T10:39:40Z</time>
      </trkpt>
      <trkpt lat="44.68885" lon="3.65516">
        <ele>1286.335488881</ele>
        <time>2015-04-23T10:39:45Z</time>
      </trkpt>
      <trkpt lat="44.6888" lon="3.65521">
        <ele>1286.335488881</ele>
        <time>2015-04-23T10:39:50Z</time>
      </trkpt>
      <trkpt lat="44.68873" lon="3.65521">
        <ele>1287.3759917255</ele>
        <time>2015-04-23T10:39:55Z</time>
      </trkpt>
      <trkpt lat="44.68867" lon="3.65521">
        <ele>1287.3759917255</ele>
        <time>2015-04-23T10:40:00Z</time>
      </trkpt>
      <trkpt lat="44.68859" lon="3.65521">
        <ele>1288.7504955353</ele>
        <time>2015-04-23T10:40:05Z</time>
      </trkpt>
      <trkpt lat="44.68853" lon="3.65523">
        <ele>1288.7504955353</ele>
        <time>2015-04-23T10:40:10Z</time>
      </trkpt>
      <trkpt lat="44.6885" lon="3.65526">
        <ele>1289.9550065113</ele>
        <time>2015-04-23T10:40:15Z</time>
      </trkpt>
      <trkpt lat="44.6885" lon="3.65526">
        <ele>1289.9550065113</ele>
        <time>2015-04-23T10:40:20Z</time>
      </trkpt>
      <trkpt lat="44.68849" lon="3.65525">
        <ele>1289.9550065113</ele>
        <time>2015-04-23T10:40:25Z</time>
      </trkpt>
      <trkpt lat="44.68849" lon="3.65526">
        <ele>1289.9550065113</ele>
        <time>2015-04-23T10:40:30Z</time>
      </trkpt>
      <trkpt lat="44.6885" lon="3.65528">
        <ele>1289.9550065113</ele>
        <time>2015-04-23T10:40:35Z</time>
      </trkpt>
      <trkpt lat="44.6885" lon="3.65529">
        <ele>1289.9550065113</ele>
        <time>2015-04-23T10:40:40Z</time>
      </trkpt>
      <trkpt lat="44.6885" lon="3.65529">
        <ele>1289.9550065113</ele>
        <time>2015-04-23T10:40:45Z</time>
      </trkpt>
      <trkpt lat="44.6885" lon="3.65529">
        <ele>1289.9550065113</ele>
        <time>2015-04-23T10:40:50Z</time>
      </trkpt>
      <trkpt lat="44.6885" lon="3.65529">
        <ele>1289.9550065113</ele>
        <time>2015-04-23T10:40:55Z</time>
      </trkpt>
      <trkpt lat="44.6885" lon="3.65531">
        <ele>1289.9550065113</ele>
        <time>2015-04-23T10:41:00Z</time>
      </trkpt>
      <trkpt lat="44.68851" lon="3.65533">
        <ele>1289.9550065113</ele>
        <time>2015-04-23T10:41:05Z</time>
      </trkpt>
      <trkpt lat="44.68851" lon="3.65534">
        <ele>1289.9550065113</ele>
        <time>2015-04-23T10:41:10Z</time>
      </trkpt>
      <trkpt lat="44.68851" lon="3.65534">
        <ele>1289.9550065113</ele>
        <time>2015-04-23T10:41:15Z</time>
      </trkpt>
      <trkpt lat="44.68852" lon="3.65534">
        <ele>1289.9550065113</ele>
        <time>2015-04-23T10:41:20Z</time>
      </trkpt>
      <trkpt lat="44.68854" lon="3.6553">
        <ele>1291.070690028</ele>
        <time>2015-04-23T10:41:25Z</time>
      </trkpt>
      <trkpt lat="44.68851" lon="3.65522">
        <ele>1291.070690028</ele>
        <time>2015-04-23T10:41:30Z</time>
      </trkpt>
      <trkpt lat="44.68849" lon="3.65514">
        <ele>1291.8415860365</ele>
        <time>2015-04-23T10:41:35Z</time>
      </trkpt>
      <trkpt lat="44.68849" lon="3.65505">
        <ele>1291.8415860365</ele>
        <time>2015-04-23T10:41:40Z</time>
      </trkpt>
      <trkpt lat="44.68848" lon="3.65495">
        <ele>1292.3918308504</ele>
        <time>2015-04-23T10:41:45Z</time>
      </trkpt>
      <trkpt lat="44.68848" lon="3.65486">
        <ele>1292.3918308504</ele>
        <time>2015-04-23T10:41:50Z</time>
      </trkpt>
      <trkpt lat="44.68847" lon="3.65477">
        <ele>1292.9524014432</ele>
        <time>2015-04-23T10:41:55Z</time>
      </trkpt>
      <trkpt lat="44.68846" lon="3.65467">
        <ele>1292.9524014432</ele>
        <time>2015-04-23T10:42:00Z</time>
      </trkpt>
      <trkpt lat="44.68844" lon="3.65459">
        <ele>1293.160886356</ele>
        <time>2015-04-23T10:42:05Z</time>
      </trkpt>
      <trkpt lat="44.68842" lon="3.6545">
        <ele>1293.160886356</ele>
        <time>2015-04-23T10:42:10Z</time>
      </trkpt>
      <trkpt lat="44.6884" lon="3.65442">
        <ele>1292.6248905664</ele>
        <time>2015-04-23T10:42:15Z</time>
      </trkpt>
      <trkpt lat="44.68836" lon="3.65431">
        <ele>1292.6248905664</ele>
        <time>2015-04-23T10:42:20Z</time>
      </trkpt>
      <trkpt lat="44.68833" lon="3.6542">
        <ele>1292.3232135986</ele>
        <time>2015-04-23T10:42:25Z</time>
      </trkpt>
      <trkpt lat="44.6883" lon="3.65409">
        <ele>1292.3232135986</ele>
        <time>2015-04-23T10:42:30Z</time>
      </trkpt>
      <trkpt lat="44.68829" lon="3.65399">
        <ele>1291.7642586049</ele>
        <time>2015-04-23T10:42:35Z</time>
      </trkpt>
      <trkpt lat="44.68826" lon="3.65391">
        <ele>1291.7642586049</ele>
        <time>2015-04-23T10:42:40Z</time>
      </trkpt>
      <trkpt lat="44.68822" lon="3.65382">
        <ele>1291.0985636252</ele>
        <time>2015-04-23T10:42:45Z</time>
      </trkpt>
      <trkpt lat="44.68818" lon="3.65372">
        <ele>1291.0985636252</ele>
        <time>2015-04-23T10:42:50Z</time>
      </trkpt>
      <trkpt lat="44.68814" lon="3.65364">
        <ele>1290.8550341858</ele>
        <time>2015-04-23T10:42:55Z</time>
      </trkpt>
      <trkpt lat="44.68809" lon="3.65355">
        <ele>1290.8550341858</ele>
        <time>2015-04-23T10:43:00Z</time>
      </trkpt>
      <trkpt lat="44.68805" lon="3.65345">
        <ele>1291.2487477992</ele>
        <time>2015-04-23T10:43:05Z</time>
      </trkpt>
      <trkpt lat="44.68803" lon="3.65334">
        <ele>1291.2487477992</ele>
        <time>2015-04-23T10:43:10Z</time>
      </trkpt>
      <trkpt lat="44.68804" lon="3.65325">
        <ele>1291.5260773375</ele>
        <time>2015-04-23T10:43:15Z</time>
      </trkpt>
      <trkpt lat="44.68805" lon="3.65316">
        <ele>1291.5260773375</ele>
        <time>2015-04-23T10:43:20Z</time>
      </trkpt>
      <trkpt lat="44.68805" lon="3.65314">
        <ele>1291.5260773375</ele>
        <time>2015-04-23T10:43:25Z</time>
      </trkpt>
      <trkpt lat="44.68805" lon="3.65313">
        <ele>1291.5260773375</ele>
        <time>2015-04-23T10:43:30Z</time>
      </trkpt>
      <trkpt lat="44.68804" lon="3.6531">
        <ele>1291.450252198</ele>
        <time>2015-04-23T10:43:35Z</time>
      </trkpt>
      <trkpt lat="44.68803" lon="3.65305">
        <ele>1291.450252198</ele>
        <time>2015-04-23T10:43:40Z</time>
      </trkpt>
      <trkpt lat="44.68802" lon="3.65304">
        <ele>1291.450252198</ele>
        <time>2015-04-23T10:43:45Z</time>
      </trkpt>
      <trkpt lat="44.68798" lon="3.65307">
        <ele>1291.2208193463</ele>
        <time>2015-04-23T10:43:50Z</time>
      </trkpt>
      <trkpt lat="44.68799" lon="3.65313">
        <ele>1291.2208193463</ele>
        <time>2015-04-23T10:43:55Z</time>
      </trkpt>
      <trkpt lat="44.68801" lon="3.65313">
        <ele>1291.2208193463</ele>
        <time>2015-04-23T10:44:00Z</time>
      </trkpt>
      <trkpt lat="44.68803" lon="3.6531">
        <ele>1290.6628289903</ele>
        <time>2015-04-23T10:44:05Z</time>
      </trkpt>
      <trkpt lat="44.68804" lon="3.65309">
        <ele>1290.6628289903</ele>
        <time>2015-04-23T10:44:10Z</time>
      </trkpt>
      <trkpt lat="44.68802" lon="3.65308">
        <ele>1290.6628289903</ele>
        <time>2015-04-23T10:44:15Z</time>
      </trkpt>
      <trkpt lat="44.68801" lon="3.6531">
        <ele>1290.6628289903</ele>
        <time>2015-04-23T10:44:20Z</time>
      </trkpt>
      <trkpt lat="44.68801" lon="3.6531">
        <ele>1290.6628289903</ele>
        <time>2015-04-23T10:44:25Z</time>
      </trkpt>
      <trkpt lat="44.688" lon="3.6531">
        <ele>1290.6628289903</ele>
        <time>2015-04-23T10:44:30Z</time>
      </trkpt>
      <trkpt lat="44.68801" lon="3.65312">
        <ele>1290.6628289903</ele>
        <time>2015-04-23T10:44:35Z</time>
      </trkpt>
      <trkpt lat="44.68801" lon="3.65305">
        <ele>1290.205965499</ele>
        <time>2015-04-23T10:44:40Z</time>
      </trkpt>
      <trkpt lat="44.68803" lon="3.65302">
        <ele>1290.205965499</ele>
        <time>2015-04-23T10:44:45Z</time>
      </trkpt>
      <trkpt lat="44.68803" lon="3.65302">
        <ele>1290.205965499</ele>
        <time>2015-04-23T10:44:50Z</time>
      </trkpt>
      <trkpt lat="44.68799" lon="3.65308">
        <ele>1290.205965499</ele>
        <time>2015-04-23T10:44:55Z</time>
      </trkpt>
      <trkpt lat="44.68795" lon="3.65313">
        <ele>1289.7869095677</ele>
        <time>2015-04-23T10:45:00Z</time>
      </trkpt>
      <trkpt lat="44.68795" lon="3.65314">
        <ele>1289.7869095677</ele>
        <time>2015-04-23T10:45:05Z</time>
      </trkpt>
      <trkpt lat="44.68795" lon="3.65314">
        <ele>1289.7869095677</ele>
        <time>2015-04-23T10:45:10Z</time>
      </trkpt>
      <trkpt lat="44.68795" lon="3.65315">
        <ele>1289.7869095677</ele>
        <time>2015-04-23T10:45:15Z</time>
      </trkpt>
      <trkpt lat="44.68795" lon="3.65314">
        <ele>1289.7869095677</ele>
        <time>2015-04-23T10:45:20Z</time>
      </trkpt>
      <trkpt lat="44.68797" lon="3.65314">
        <ele>1289.7869095677</ele>
        <time>2015-04-23T10:45:25Z</time>
      </trkpt>
      <trkpt lat="44.68798" lon="3.65315">
        <ele>1289.7869095677</ele>
        <time>2015-04-23T10:45:30Z</time>
      </trkpt>
      <trkpt lat="44.68798" lon="3.65315">
        <ele>1289.7869095677</ele>
        <time>2015-04-23T10:45:35Z</time>
      </trkpt>
      <trkpt lat="44.68798" lon="3.65315">
        <ele>1289.7869095677</ele>
        <time>2015-04-23T10:45:40Z</time>
      </trkpt>
      <trkpt lat="44.68797" lon="3.65314">
        <ele>1289.7869095677</ele>
        <time>2015-04-23T10:45:45Z</time>
      </trkpt>
      <trkpt lat="44.68797" lon="3.65315">
        <ele>1289.7869095677</ele>
        <time>2015-04-23T10:45:50Z</time>
      </trkpt>
      <trkpt lat="44.68796" lon="3.65318">
        <ele>1289.5054047709</ele>
        <time>2015-04-23T10:45:55Z</time>
      </trkpt>
      <trkpt lat="44.68796" lon="3.6532">
        <ele>1289.5054047709</ele>
        <time>2015-04-23T10:46:00Z</time>
      </trkpt>
      <trkpt lat="44.68797" lon="3.65321">
        <ele>1289.5054047709</ele>
        <time>2015-04-23T10:46:05Z</time>
      </trkpt>
      <trkpt lat="44.68798" lon="3.65327">
        <ele>1289.5054047709</ele>
        <time>2015-04-23T10:46:10Z</time>
      </trkpt>
      <trkpt lat="44.68799" lon="3.65337">
        <ele>1289.3237726378</ele>
        <time>2015-04-23T10:46:15Z</time>
      </trkpt>
      <trkpt lat="44.68801" lon="3.65347">
        <ele>1289.3237726378</ele>
        <time>2015-04-23T10:46:20Z</time>
      </trkpt>
      <trkpt lat="44.68804" lon="3.65357">
        <ele>1289.4085661468</ele>
        <time>2015-04-23T10:46:25Z</time>
      </trkpt>
      <trkpt lat="44.68808" lon="3.65369">
        <ele>1289.9277543204</ele>
        <time>2015-04-23T10:46:30Z</time>
      </trkpt>
      <trkpt lat="44.68816" lon="3.65382">
        <ele>1289.9981353967</ele>
        <time>2015-04-23T10:46:35Z</time>
      </trkpt>
      <trkpt lat="44.68824" lon="3.65397">
        <ele>1289.8402341744</ele>
        <time>2015-04-23T10:46:40Z</time>
      </trkpt>
      <trkpt lat="44.68829" lon="3.65414">
        <ele>1290.1778054477</ele>
        <time>2015-04-23T10:46:45Z</time>
      </trkpt>
      <trkpt lat="44.68831" lon="3.65426">
        <ele>1290.1778054477</ele>
        <time>2015-04-23T10:46:50Z</time>
      </trkpt>
      <trkpt lat="44.68833" lon="3.65434">
        <ele>1290.5271483643</ele>
        <time>2015-04-23T10:46:55Z</time>
      </trkpt>
      <trkpt lat="44.68835" lon="3.65444">
        <ele>1290.5271483643</ele>
        <time>2015-04-23T10:47:00Z</time>
      </trkpt>
      <trkpt lat="44.68837" lon="3.65455">
        <ele>1290.7715082861</ele>
        <time>2015-04-23T10:47:05Z</time>
      </trkpt>
      <trkpt lat="44.68838" lon="3.65467">
        <ele>1290.7715082861</ele>
        <time>2015-04-23T10:47:10Z</time>
      </trkpt>
      <trkpt lat="44.68839" lon="3.65477">
        <ele>1290.8606386367</ele>
        <time>2015-04-23T10:47:15Z</time>
      </trkpt>
      <trkpt lat="44.68841" lon="3.65488">
        <ele>1290.8606386367</ele>
        <time>2015-04-23T10:47:20Z</time>
      </trkpt>
      <trkpt lat="44.68842" lon="3.65499">
        <ele>1290.9934021978</ele>
        <time>2015-04-23T10:47:25Z</time>
      </trkpt>
      <trkpt lat="44.68842" lon="3.65511">
        <ele>1290.9934021978</ele>
        <time>2015-04-23T10:47:30Z</time>
      </trkpt>
      <trkpt lat="44.68841" lon="3.6552">
        <ele>1291.3106927205</ele>
        <time>2015-04-23T10:47:35Z</time>
      </trkpt>
      <trkpt lat="44.68841" lon="3.6553">
        <ele>1291.3106927205</ele>
        <time>2015-04-23T10:47:40Z</time>
      </trkpt>
      <trkpt lat="44.68842" lon="3.65538">
        <ele>1291.3228538978</ele>
        <time>2015-04-23T10:47:45Z</time>
      </trkpt>
      <trkpt lat="44.68842" lon="3.65548">
        <ele>1291.3228538978</ele>
        <time>2015-04-23T10:47:50Z</time>
      </trkpt>
      <trkpt lat="44.68841" lon="3.6556">
        <ele>1291.7731746265</ele>
        <time>2015-04-23T10:47:55Z</time>
      </trkpt>
      <trkpt lat="44.68841" lon="3.6557">
        <ele>1291.7731746265</ele>
        <time>2015-04-23T10:48:00Z</time>
      </trkpt>
      <trkpt lat="44.6884" lon="3.65581">
        <ele>1292.2250440662</ele>
        <time>2015-04-23T10:48:05Z</time>
      </trkpt>
      <trkpt lat="44.6884" lon="3.65601">
        <ele>1292.4612643007</ele>
        <time>2015-04-23T10:48:10Z</time>
      </trkpt>
      <trkpt lat="44.68839" lon="3.65614">
        <ele>1293.03057737</ele>
        <time>2015-04-23T10:48:15Z</time>
      </trkpt>
      <trkpt lat="44.6884" lon="3.65627">
        <ele>1293.5758178391</ele>
        <time>2015-04-23T10:48:20Z</time>
      </trkpt>
      <trkpt lat="44.68838" lon="3.65639">
        <ele>1293.5758178391</ele>
        <time>2015-04-23T10:48:25Z</time>
      </trkpt>
      <trkpt lat="44.68837" lon="3.65651">
        <ele>1294.1119985019</ele>
        <time>2015-04-23T10:48:30Z</time>
      </trkpt>
      <trkpt lat="44.68836" lon="3.65662">
        <ele>1294.1119985019</ele>
        <time>2015-04-23T10:48:35Z</time>
      </trkpt>
      <trkpt lat="44.68835" lon="3.65671">
        <ele>1294.4224858307</ele>
        <time>2015-04-23T10:48:40Z</time>
      </trkpt>
      <trkpt lat="44.68835" lon="3.65684">
        <ele>1294.4224858307</ele>
        <time>2015-04-23T10:48:45Z</time>
      </trkpt>
      <trkpt lat="44.68835" lon="3.65697">
        <ele>1295.114227473</ele>
        <time>2015-04-23T10:48:50Z</time>
      </trkpt>
      <trkpt lat="44.68835" lon="3.65709">
        <ele>1295.114227473</ele>
        <time>2015-04-23T10:48:55Z</time>
      </trkpt>
      <trkpt lat="44.68835" lon="3.65721">
        <ele>1296.0423854814</ele>
        <time>2015-04-23T10:49:00Z</time>
      </trkpt>
      <trkpt lat="44.68835" lon="3.65733">
        <ele>1296.0423854814</ele>
        <time>2015-04-23T10:49:05Z</time>
      </trkpt>
      <trkpt lat="44.68836" lon="3.6574">
        <ele>1295.962458641</ele>
        <time>2015-04-23T10:49:10Z</time>
      </trkpt>
      <trkpt lat="44.68838" lon="3.65749">
        <ele>1295.962458641</ele>
        <time>2015-04-23T10:49:15Z</time>
      </trkpt>
      <trkpt lat="44.68838" lon="3.65757">
        <ele>1295.4679556285</ele>
        <time>2015-04-23T10:49:20Z</time>
      </trkpt>
      <trkpt lat="44.68838" lon="3.65771">
        <ele>1295.4990654101</ele>
        <time>2015-04-23T10:49:25Z</time>
      </trkpt>
      <trkpt lat="44.68838" lon="3.65784">
        <ele>1295.4990654101</ele>
        <time>2015-04-23T10:49:30Z</time>
      </trkpt>
      <trkpt lat="44.68839" lon="3.65795">
        <ele>1295.3546382464</ele>
        <time>2015-04-23T10:49:35Z</time>
      </trkpt>
      <trkpt lat="44.68841" lon="3.65805">
        <ele>1295.3546382464</ele>
        <time>2015-04-23T10:49:40Z</time>
      </trkpt>
      <trkpt lat="44.68841" lon="3.65816">
        <ele>1295.3078438746</ele>
        <time>2015-04-23T10:49:45Z</time>
      </trkpt>
      <trkpt lat="44.68841" lon="3.65828">
        <ele>1295.3078438746</ele>
        <time>2015-04-23T10:49:50Z</time>
      </trkpt>
      <trkpt lat="44.68841" lon="3.65839">
        <ele>1295.4241733535</ele>
        <time>2015-04-23T10:49:55Z</time>
      </trkpt>
      <trkpt lat="44.68842" lon="3.6585">
        <ele>1295.4241733535</ele>
        <time>2015-04-23T10:50:00Z</time>
      </trkpt>
      <trkpt lat="44.68844" lon="3.65859">
        <ele>1294.942419193</ele>
        <time>2015-04-23T10:50:05Z</time>
      </trkpt>
      <trkpt lat="44.68845" lon="3.65871">
        <ele>1294.942419193</ele>
        <time>2015-04-23T10:50:10Z</time>
      </trkpt>
      <trkpt lat="44.68847" lon="3.65882">
        <ele>1294.1821587386</ele>
        <time>2015-04-23T10:50:15Z</time>
      </trkpt>
      <trkpt lat="44.68849" lon="3.65891">
        <ele>1294.1821587386</ele>
        <time>2015-04-23T10:50:20Z</time>
      </trkpt>
      <trkpt lat="44.68852" lon="3.65899">
        <ele>1292.6188349072</ele>
        <time>2015-04-23T10:50:25Z</time>
      </trkpt>
      <trkpt lat="44.68854" lon="3.65907">
        <ele>1292.6188349072</ele>
        <time>2015-04-23T10:50:30Z</time>
      </trkpt>
      <trkpt lat="44.6886" lon="3.65923">
        <ele>1290.0568834396</ele>
        <time>2015-04-23T10:50:35Z</time>
      </trkpt>
      <trkpt lat="44.68863" lon="3.65937">
        <ele>1287.7878125284</ele>
        <time>2015-04-23T10:50:40Z</time>
      </trkpt>
      <trkpt lat="44.68864" lon="3.65948">
        <ele>1287.7878125284</ele>
        <time>2015-04-23T10:50:45Z</time>
      </trkpt>
      <trkpt lat="44.68864" lon="3.6596">
        <ele>1285.6959795814</ele>
        <time>2015-04-23T10:50:50Z</time>
      </trkpt>
      <trkpt lat="44.68866" lon="3.65972">
        <ele>1285.6959795814</ele>
        <time>2015-04-23T10:50:55Z</time>
      </trkpt>
      <trkpt lat="44.68868" lon="3.65982">
        <ele>1283.6736796979</ele>
        <time>2015-04-23T10:51:00Z</time>
      </trkpt>
      <trkpt lat="44.68869" lon="3.65993">
        <ele>1283.6736796979</ele>
        <time>2015-04-23T10:51:05Z</time>
      </trkpt>
      <trkpt lat="44.68871" lon="3.66003">
        <ele>1281.9234837045</ele>
        <time>2015-04-23T10:51:10Z</time>
      </trkpt>
      <trkpt lat="44.68873" lon="3.66012">
        <ele>1281.9234837045</ele>
        <time>2015-04-23T10:51:15Z</time>
      </trkpt>
      <trkpt lat="44.68874" lon="3.6602">
        <ele>1279.8684421785</ele>
        <time>2015-04-23T10:51:20Z</time>
      </trkpt>
      <trkpt lat="44.68875" lon="3.66031">
        <ele>1279.8684421785</ele>
        <time>2015-04-23T10:51:25Z</time>
      </trkpt>
      <trkpt lat="44.68876" lon="3.66042">
        <ele>1278.2573357344</ele>
        <time>2015-04-23T10:51:30Z</time>
      </trkpt>
      <trkpt lat="44.68878" lon="3.66054">
        <ele>1278.2573357344</ele>
        <time>2015-04-23T10:51:35Z</time>
      </trkpt>
      <trkpt lat="44.68879" lon="3.66066">
        <ele>1277.0764455366</ele>
        <time>2015-04-23T10:51:40Z</time>
      </trkpt>
      <trkpt lat="44.68881" lon="3.66076">
        <ele>1277.0764455366</ele>
        <time>2015-04-23T10:51:45Z</time>
      </trkpt>
      <trkpt lat="44.68884" lon="3.66086">
        <ele>1276.081166368</ele>
        <time>2015-04-23T10:51:50Z</time>
      </trkpt>
      <trkpt lat="44.68885" lon="3.66095">
        <ele>1276.081166368</ele>
        <time>2015-04-23T10:51:55Z</time>
      </trkpt>
      <trkpt lat="44.68887" lon="3.66105">
        <ele>1274.6839501408</ele>
        <time>2015-04-23T10:52:00Z</time>
      </trkpt>
      <trkpt lat="44.6889" lon="3.66114">
        <ele>1274.6839501408</ele>
        <time>2015-04-23T10:52:05Z</time>
      </trkpt>
      <trkpt lat="44.68892" lon="3.66125">
        <ele>1273.0475672376</ele>
        <time>2015-04-23T10:52:10Z</time>
      </trkpt>
      <trkpt lat="44.68899" lon="3.66145">
        <ele>1271.0063403343</ele>
        <time>2015-04-23T10:52:15Z</time>
      </trkpt>
      <trkpt lat="44.68905" lon="3.66156">
        <ele>1269.0418672064</ele>
        <time>2015-04-23T10:52:20Z</time>
      </trkpt>
      <trkpt lat="44.68909" lon="3.66163">
        <ele>1269.0418672064</ele>
        <time>2015-04-23T10:52:25Z</time>
      </trkpt>
      <trkpt lat="44.68914" lon="3.66171">
        <ele>1266.821826998</ele>
        <time>2015-04-23T10:52:30Z</time>
      </trkpt>
      <trkpt lat="44.68918" lon="3.66179">
        <ele>1266.821826998</ele>
        <time>2015-04-23T10:52:35Z</time>
      </trkpt>
      <trkpt lat="44.68921" lon="3.66188">
        <ele>1264.8747426054</ele>
        <time>2015-04-23T10:52:40Z</time>
      </trkpt>
      <trkpt lat="44.68924" lon="3.66196">
        <ele>1264.8747426054</ele>
        <time>2015-04-23T10:52:45Z</time>
      </trkpt>
      <trkpt lat="44.6893" lon="3.66203">
        <ele>1263.0265002687</ele>
        <time>2015-04-23T10:52:50Z</time>
      </trkpt>
      <trkpt lat="44.68934" lon="3.66212">
        <ele>1263.0265002687</ele>
        <time>2015-04-23T10:52:55Z</time>
      </trkpt>
      <trkpt lat="44.68938" lon="3.66219">
        <ele>1261.4179950237</ele>
        <time>2015-04-23T10:53:00Z</time>
      </trkpt>
      <trkpt lat="44.68941" lon="3.66227">
        <ele>1261.4179950237</ele>
        <time>2015-04-23T10:53:05Z</time>
      </trkpt>
      <trkpt lat="44.68946" lon="3.66236">
        <ele>1259.9195600248</ele>
        <time>2015-04-23T10:53:10Z</time>
      </trkpt>
      <trkpt lat="44.68952" lon="3.66246">
        <ele>1259.9195600248</ele>
        <time>2015-04-23T10:53:15Z</time>
      </trkpt>
      <trkpt lat="44.68958" lon="3.66253">
        <ele>1258.237672227</ele>
        <time>2015-04-23T10:53:20Z</time>
      </trkpt>
      <trkpt lat="44.68969" lon="3.66265">
        <ele>1257.3977488796</ele>
        <time>2015-04-23T10:53:25Z</time>
      </trkpt>
      <trkpt lat="44.6898" lon="3.66276">
        <ele>1256.5604073152</ele>
        <time>2015-04-23T10:53:30Z</time>
      </trkpt>
      <trkpt lat="44.68986" lon="3.66282">
        <ele>1256.5604073152</ele>
        <time>2015-04-23T10:53:35Z</time>
      </trkpt>
      <trkpt lat="44.68992" lon="3.66286">
        <ele>1255.1783677078</ele>
        <time>2015-04-23T10:53:40Z</time>
      </trkpt>
      <trkpt lat="44.68999" lon="3.66291">
        <ele>1255.1783677078</ele>
        <time>2015-04-23T10:53:45Z</time>
      </trkpt>
      <trkpt lat="44.69005" lon="3.66295">
        <ele>1253.9276699232</ele>
        <time>2015-04-23T10:53:50Z</time>
      </trkpt>
      <trkpt lat="44.69011" lon="3.66301">
        <ele>1253.9276699232</ele>
        <time>2015-04-23T10:53:55Z</time>
      </trkpt>
      <trkpt lat="44.69018" lon="3.66304">
        <ele>1252.2380833972</ele>
        <time>2015-04-23T10:54:00Z</time>
      </trkpt>
      <trkpt lat="44.69023" lon="3.66307">
        <ele>1252.2380833972</ele>
        <time>2015-04-23T10:54:05Z</time>
      </trkpt>
      <trkpt lat="44.69029" lon="3.66311">
        <ele>1251.0955515136</ele>
        <time>2015-04-23T10:54:10Z</time>
      </trkpt>
      <trkpt lat="44.69031" lon="3.66317">
        <ele>1251.0955515136</ele>
        <time>2015-04-23T10:54:15Z</time>
      </trkpt>
      <trkpt lat="44.69034" lon="3.66321">
        <ele>1251.0955515136</ele>
        <time>2015-04-23T10:54:20Z</time>
      </trkpt>
      <trkpt lat="44.6904" lon="3.66327">
        <ele>1249.8987793722</ele>
        <time>2015-04-23T10:54:25Z</time>
      </trkpt>
      <trkpt lat="44.69048" lon="3.66332">
        <ele>1249.8987793722</ele>
        <time>2015-04-23T10:54:30Z</time>
      </trkpt>
      <trkpt lat="44.69055" lon="3.66339">
        <ele>1248.9553570277</ele>
        <time>2015-04-23T10:54:35Z</time>
      </trkpt>
      <trkpt lat="44.6906" lon="3.66344">
        <ele>1248.9553570277</ele>
        <time>2015-04-23T10:54:40Z</time>
      </trkpt>
      <trkpt lat="44.69068" lon="3.66348">
        <ele>1248.27565798</ele>
        <time>2015-04-23T10:54:45Z</time>
      </trkpt>
      <trkpt lat="44.69075" lon="3.66352">
        <ele>1248.27565798</ele>
        <time>2015-04-23T10:54:50Z</time>
      </trkpt>
      <trkpt lat="44.69083" lon="3.66357">
        <ele>1247.8108176629</ele>
        <time>2015-04-23T10:54:55Z</time>
      </trkpt>
      <trkpt lat="44.69091" lon="3.66361">
        <ele>1247.8108176629</ele>
        <time>2015-04-23T10:55:00Z</time>
      </trkpt>
      <trkpt lat="44.69098" lon="3.66365">
        <ele>1247.6733978914</ele>
        <time>2015-04-23T10:55:05Z</time>
      </trkpt>
      <trkpt lat="44.69103" lon="3.66368">
        <ele>1247.6733978914</ele>
        <time>2015-04-23T10:55:10Z</time>
      </trkpt>
      <trkpt lat="44.69109" lon="3.66373">
        <ele>1247.5055450749</ele>
        <time>2015-04-23T10:55:15Z</time>
      </trkpt>
      <trkpt lat="44.69117" lon="3.66375">
        <ele>1247.5055450749</ele>
        <time>2015-04-23T10:55:20Z</time>
      </trkpt>
      <trkpt lat="44.69123" lon="3.66376">
        <ele>1246.9324833589</ele>
        <time>2015-04-23T10:55:25Z</time>
      </trkpt>
      <trkpt lat="44.69129" lon="3.66381">
        <ele>1246.9324833589</ele>
        <time>2015-04-23T10:55:30Z</time>
      </trkpt>
      <trkpt lat="44.69135" lon="3.66387">
        <ele>1246.4583086504</ele>
        <time>2015-04-23T10:55:35Z</time>
      </trkpt>
      <trkpt lat="44.69143" lon="3.6639">
        <ele>1246.4583086504</ele>
        <time>2015-04-23T10:55:40Z</time>
      </trkpt>
      <trkpt lat="44.6915" lon="3.66395">
        <ele>1246.4200672916</ele>
        <time>2015-04-23T10:55:45Z</time>
      </trkpt>
      <trkpt lat="44.69159" lon="3.66399">
        <ele>1246.4200672916</ele>
        <time>2015-04-23T10:55:50Z</time>
      </trkpt>
      <trkpt lat="44.69166" lon="3.664">
        <ele>1246.5379358837</ele>
        <time>2015-04-23T10:55:55Z</time>
      </trkpt>
      <trkpt lat="44.69174" lon="3.66402">
        <ele>1246.5379358837</ele>
        <time>2015-04-23T10:56:00Z</time>
      </trkpt>
      <trkpt lat="44.69182" lon="3.66402">
        <ele>1246.4657197332</ele>
        <time>2015-04-23T10:56:05Z</time>
      </trkpt>
      <trkpt lat="44.69188" lon="3.66405">
        <ele>1246.4657197332</ele>
        <time>2015-04-23T10:56:10Z</time>
      </trkpt>
      <trkpt lat="44.69195" lon="3.66408">
        <ele>1246.2002204568</ele>
        <time>2015-04-23T10:56:15Z</time>
      </trkpt>
      <trkpt lat="44.69202" lon="3.66411">
        <ele>1246.2002204568</ele>
        <time>2015-04-23T10:56:20Z</time>
      </trkpt>
      <trkpt lat="44.6921" lon="3.66413">
        <ele>1245.7534240087</ele>
        <time>2015-04-23T10:56:25Z</time>
      </trkpt>
      <trkpt lat="44.69217" lon="3.66415">
        <ele>1245.7534240087</ele>
        <time>2015-04-23T10:56:30Z</time>
      </trkpt>
      <trkpt lat="44.69225" lon="3.66415">
        <ele>1245.7422155082</ele>
        <time>2015-04-23T10:56:35Z</time>
      </trkpt>
      <trkpt lat="44.69234" lon="3.66416">
        <ele>1245.7422155082</ele>
        <time>2015-04-23T10:56:40Z</time>
      </trkpt>
      <trkpt lat="44.69243" lon="3.66417">
        <ele>1245.0940848916</ele>
        <time>2015-04-23T10:56:45Z</time>
      </trkpt>
      <trkpt lat="44.6925" lon="3.66419">
        <ele>1245.0940848916</ele>
        <time>2015-04-23T10:56:50Z</time>
      </trkpt>
      <trkpt lat="44.69256" lon="3.6642">
        <ele>1244.8634890516</ele>
        <time>2015-04-23T10:56:55Z</time>
      </trkpt>
      <trkpt lat="44.69263" lon="3.66421">
        <ele>1244.8634890516</ele>
        <time>2015-04-23T10:57:00Z</time>
      </trkpt>
      <trkpt lat="44.69271" lon="3.66421">
        <ele>1245.2192529451</ele>
        <time>2015-04-23T10:57:05Z</time>
      </trkpt>
      <trkpt lat="44.69279" lon="3.66421">
        <ele>1245.2192529451</ele>
        <time>2015-04-23T10:57:10Z</time>
      </trkpt>
      <trkpt lat="44.69287" lon="3.66419">
        <ele>1245.4371046215</ele>
        <time>2015-04-23T10:57:15Z</time>
      </trkpt>
      <trkpt lat="44.69301" lon="3.66411">
        <ele>1244.78875218</ele>
        <time>2015-04-23T10:57:20Z</time>
      </trkpt>
      <trkpt lat="44.69312" lon="3.66407">
        <ele>1243.5097708019</ele>
        <time>2015-04-23T10:57:25Z</time>
      </trkpt>
      <trkpt lat="44.69318" lon="3.66404">
        <ele>1243.5097708019</ele>
        <time>2015-04-23T10:57:30Z</time>
      </trkpt>
      <trkpt lat="44.69325" lon="3.66402">
        <ele>1242.2237490172</ele>
        <time>2015-04-23T10:57:35Z</time>
      </trkpt>
      <trkpt lat="44.69332" lon="3.66402">
        <ele>1242.2237490172</ele>
        <time>2015-04-23T10:57:40Z</time>
      </trkpt>
      <trkpt lat="44.69341" lon="3.66404">
        <ele>1241.364412312</ele>
        <time>2015-04-23T10:57:45Z</time>
      </trkpt>
      <trkpt lat="44.6935" lon="3.66405">
        <ele>1241.364412312</ele>
        <time>2015-04-23T10:57:50Z</time>
      </trkpt>
      <trkpt lat="44.69353" lon="3.66407">
        <ele>1241.0442401381</ele>
        <time>2015-04-23T10:57:55Z</time>
      </trkpt>
      <trkpt lat="44.69356" lon="3.6641">
        <ele>1241.0442401381</ele>
        <time>2015-04-23T10:58:00Z</time>
      </trkpt>
      <trkpt lat="44.69356" lon="3.66418">
        <ele>1240.1410238042</ele>
        <time>2015-04-23T10:58:05Z</time>
      </trkpt>
      <trkpt lat="44.69355" lon="3.66427">
        <ele>1240.1410238042</ele>
        <time>2015-04-23T10:58:10Z</time>
      </trkpt>
      <trkpt lat="44.69354" lon="3.6645">
        <ele>1238.5677902484</ele>
        <time>2015-04-23T10:58:15Z</time>
      </trkpt>
      <trkpt lat="44.6935" lon="3.66476">
        <ele>1237.3411072093</ele>
        <time>2015-04-23T10:58:20Z</time>
      </trkpt>
      <trkpt lat="44.69343" lon="3.66506">
        <ele>1236.8687076862</ele>
        <time>2015-04-23T10:58:25Z</time>
      </trkpt>
      <trkpt lat="44.69339" lon="3.66537">
        <ele>1235.7825334597</ele>
        <time>2015-04-23T10:58:30Z</time>
      </trkpt>
      <trkpt lat="44.69335" lon="3.66567">
        <ele>1235.2954768973</ele>
        <time>2015-04-23T10:58:35Z</time>
      </trkpt>
      <trkpt lat="44.69333" lon="3.66592">
        <ele>1234.9156262078</ele>
        <time>2015-04-23T10:58:40Z</time>
      </trkpt>
      <trkpt lat="44.69331" lon="3.66619">
        <ele>1234.6624925772</ele>
        <time>2015-04-23T10:58:45Z</time>
      </trkpt>
      <trkpt lat="44.69325" lon="3.66646">
        <ele>1235.3320235931</ele>
        <time>2015-04-23T10:58:50Z</time>
      </trkpt>
      <trkpt lat="44.69323" lon="3.66666">
        <ele>1236.3909616493</ele>
        <time>2015-04-23T10:58:55Z</time>
      </trkpt>
      <trkpt lat="44.69324" lon="3.66675">
        <ele>1236.3909616493</ele>
        <time>2015-04-23T10:59:00Z</time>
      </trkpt>
      <trkpt lat="44.69323" lon="3.66684">
        <ele>1237.055946405</ele>
        <time>2015-04-23T10:59:05Z</time>
      </trkpt>
      <trkpt lat="44.6932" lon="3.66695">
        <ele>1237.055946405</ele>
        <time>2015-04-23T10:59:10Z</time>
      </trkpt>
      <trkpt lat="44.69318" lon="3.66706">
        <ele>1238.2163625093</ele>
        <time>2015-04-23T10:59:15Z</time>
      </trkpt>
      <trkpt lat="44.69319" lon="3.66715">
        <ele>1238.2163625093</ele>
        <time>2015-04-23T10:59:20Z</time>
      </trkpt>
      <trkpt lat="44.69319" lon="3.66725">
        <ele>1239.0088307121</ele>
        <time>2015-04-23T10:59:25Z</time>
      </trkpt>
      <trkpt lat="44.69322" lon="3.66734">
        <ele>1239.0088307121</ele>
        <time>2015-04-23T10:59:30Z</time>
      </trkpt>
      <trkpt lat="44.69329" lon="3.66757">
        <ele>1239.0956520037</ele>
        <time>2015-04-23T10:59:35Z</time>
      </trkpt>
      <trkpt lat="44.69335" lon="3.66786">
        <ele>1238.9441895454</ele>
        <time>2015-04-23T10:59:40Z</time>
      </trkpt>
      <trkpt lat="44.69342" lon="3.66829">
        <ele>1239.1467444338</ele>
        <time>2015-04-23T10:59:45Z</time>
      </trkpt>
      <trkpt lat="44.6935" lon="3.6688">
        <ele>1240.1359081832</ele>
        <time>2015-04-23T10:59:50Z</time>
      </trkpt>
      <trkpt lat="44.69363" lon="3.66921">
        <ele>1241.3304177157</ele>
        <time>2015-04-23T10:59:55Z</time>
      </trkpt>
      <trkpt lat="44.69372" lon="3.66945">
        <ele>1242.2632793201</ele>
        <time>2015-04-23T11:00:00Z</time>
      </trkpt>
      <trkpt lat="44.69375" lon="3.66959">
        <ele>1243.4825915521</ele>
        <time>2015-04-23T11:00:05Z</time>
      </trkpt>
      <trkpt lat="44.69378" lon="3.66968">
        <ele>1243.4825915521</ele>
        <time>2015-04-23T11:00:10Z</time>
      </trkpt>
      <trkpt lat="44.69382" lon="3.66978">
        <ele>1244.8181685397</ele>
        <time>2015-04-23T11:00:15Z</time>
      </trkpt>
      <trkpt lat="44.69384" lon="3.66988">
        <ele>1244.8181685397</ele>
        <time>2015-04-23T11:00:20Z</time>
      </trkpt>
      <trkpt lat="44.69387" lon="3.66997">
        <ele>1246.6309126718</ele>
        <time>2015-04-23T11:00:25Z</time>
      </trkpt>
      <trkpt lat="44.69391" lon="3.67005">
        <ele>1246.6309126718</ele>
        <time>2015-04-23T11:00:30Z</time>
      </trkpt>
      <trkpt lat="44.69394" lon="3.67012">
        <ele>1248.7640191109</ele>
        <time>2015-04-23T11:00:35Z</time>
      </trkpt>
      <trkpt lat="44.69397" lon="3.67024">
        <ele>1248.7640191109</ele>
        <time>2015-04-23T11:00:40Z</time>
      </trkpt>
      <trkpt lat="44.69401" lon="3.67033">
        <ele>1251.2011342511</ele>
        <time>2015-04-23T11:00:45Z</time>
      </trkpt>
      <trkpt lat="44.69404" lon="3.67041">
        <ele>1251.2011342511</ele>
        <time>2015-04-23T11:00:50Z</time>
      </trkpt>
      <trkpt lat="44.69408" lon="3.67047">
        <ele>1253.9408068237</ele>
        <time>2015-04-23T11:00:55Z</time>
      </trkpt>
      <trkpt lat="44.69412" lon="3.67055">
        <ele>1253.9408068237</ele>
        <time>2015-04-23T11:01:00Z</time>
      </trkpt>
      <trkpt lat="44.69416" lon="3.67063">
        <ele>1256.7936544402</ele>
        <time>2015-04-23T11:01:05Z</time>
      </trkpt>
      <trkpt lat="44.69421" lon="3.6707">
        <ele>1256.7936544402</ele>
        <time>2015-04-23T11:01:10Z</time>
      </trkpt>
      <trkpt lat="44.69422" lon="3.67089">
        <ele>1260.3766705673</ele>
        <time>2015-04-23T11:01:15Z</time>
      </trkpt>
      <trkpt lat="44.69425" lon="3.67101">
        <ele>1260.3766705673</ele>
        <time>2015-04-23T11:01:20Z</time>
      </trkpt>
      <trkpt lat="44.69427" lon="3.67108">
        <ele>1263.7753161008</ele>
        <time>2015-04-23T11:01:25Z</time>
      </trkpt>
      <trkpt lat="44.69429" lon="3.67112">
        <ele>1263.7753161008</ele>
        <time>2015-04-23T11:01:30Z</time>
      </trkpt>
      <trkpt lat="44.69431" lon="3.67117">
        <ele>1263.7753161008</ele>
        <time>2015-04-23T11:01:35Z</time>
      </trkpt>
      <trkpt lat="44.69433" lon="3.67121">
        <ele>1265.1629909437</ele>
        <time>2015-04-23T11:01:40Z</time>
      </trkpt>
      <trkpt lat="44.69435" lon="3.67127">
        <ele>1265.1629909437</ele>
        <time>2015-04-23T11:01:45Z</time>
      </trkpt>
      <trkpt lat="44.69435" lon="3.67134">
        <ele>1266.4126676535</ele>
        <time>2015-04-23T11:01:50Z</time>
      </trkpt>
      <trkpt lat="44.69434" lon="3.67151">
        <ele>1268.4388939942</ele>
        <time>2015-04-23T11:01:55Z</time>
      </trkpt>
      <trkpt lat="44.69434" lon="3.67166">
        <ele>1270.7900665926</ele>
        <time>2015-04-23T11:02:00Z</time>
      </trkpt>
      <trkpt lat="44.69435" lon="3.67178">
        <ele>1270.7900665926</ele>
        <time>2015-04-23T11:02:05Z</time>
      </trkpt>
      <trkpt lat="44.69438" lon="3.67188">
        <ele>1273.6523218594</ele>
        <time>2015-04-23T11:02:10Z</time>
      </trkpt>
      <trkpt lat="44.69441" lon="3.67195">
        <ele>1273.6523218594</ele>
        <time>2015-04-23T11:02:15Z</time>
      </trkpt>
      <trkpt lat="44.69442" lon="3.67207">
        <ele>1277.1536687564</ele>
        <time>2015-04-23T11:02:20Z</time>
      </trkpt>
      <trkpt lat="44.69445" lon="3.67214">
        <ele>1277.1536687564</ele>
        <time>2015-04-23T11:02:25Z</time>
      </trkpt>
      <trkpt lat="44.69449" lon="3.67222">
        <ele>1280.7194054636</ele>
        <time>2015-04-23T11:02:30Z</time>
      </trkpt>
      <trkpt lat="44.69452" lon="3.67231">
        <ele>1280.7194054636</ele>
        <time>2015-04-23T11:02:35Z</time>
      </trkpt>
      <trkpt lat="44.69454" lon="3.67243">
        <ele>1283.8026817024</ele>
        <time>2015-04-23T11:02:40Z</time>
      </trkpt>
      <trkpt lat="44.69457" lon="3.67253">
        <ele>1283.8026817024</ele>
        <time>2015-04-23T11:02:45Z</time>
      </trkpt>
      <trkpt lat="44.69459" lon="3.67261">
        <ele>1286.6477827773</ele>
        <time>2015-04-23T11:02:50Z</time>
      </trkpt>
      <trkpt lat="44.69462" lon="3.67272">
        <ele>1286.6477827773</ele>
        <time>2015-04-23T11:02:55Z</time>
      </trkpt>
      <trkpt lat="44.69465" lon="3.67281">
        <ele>1289.3234324901</ele>
        <time>2015-04-23T11:03:00Z</time>
      </trkpt>
      <trkpt lat="44.69469" lon="3.67292">
        <ele>1289.3234324901</ele>
        <time>2015-04-23T11:03:05Z</time>
      </trkpt>
      <trkpt lat="44.69473" lon="3.67307">
        <ele>1291.4616870703</ele>
        <time>2015-04-23T11:03:10Z</time>
      </trkpt>
      <trkpt lat="44.69475" lon="3.67326">
        <ele>1294.0203777083</ele>
        <time>2015-04-23T11:03:15Z</time>
      </trkpt>
      <trkpt lat="44.69476" lon="3.67341">
        <ele>1297.2231193165</ele>
        <time>2015-04-23T11:03:20Z</time>
      </trkpt>
      <trkpt lat="44.69477" lon="3.67351">
        <ele>1297.2231193165</ele>
        <time>2015-04-23T11:03:25Z</time>
      </trkpt>
      <trkpt lat="44.69479" lon="3.67359">
        <ele>1299.445314285</ele>
        <time>2015-04-23T11:03:30Z</time>
      </trkpt>
      <trkpt lat="44.69483" lon="3.67363">
        <ele>1299.445314285</ele>
        <time>2015-04-23T11:03:35Z</time>
      </trkpt>
      <trkpt lat="44.69486" lon="3.67368">
        <ele>1301.2598865667</ele>
        <time>2015-04-23T11:03:40Z</time>
      </trkpt>
      <trkpt lat="44.6949" lon="3.67374">
        <ele>1301.2598865667</ele>
        <time>2015-04-23T11:03:45Z</time>
      </trkpt>
      <trkpt lat="44.69495" lon="3.67377">
        <ele>1301.916447965</ele>
        <time>2015-04-23T11:03:50Z</time>
      </trkpt>
      <trkpt lat="44.69499" lon="3.67383">
        <ele>1301.916447965</ele>
        <time>2015-04-23T11:03:55Z</time>
      </trkpt>
      <trkpt lat="44.69503" lon="3.67388">
        <ele>1301.9337237729</ele>
        <time>2015-04-23T11:04:00Z</time>
      </trkpt>
      <trkpt lat="44.69506" lon="3.67393">
        <ele>1301.9337237729</ele>
        <time>2015-04-23T11:04:05Z</time>
      </trkpt>
      <trkpt lat="44.69508" lon="3.67407">
        <ele>1302.60134172</ele>
        <time>2015-04-23T11:04:10Z</time>
      </trkpt>
      <trkpt lat="44.69511" lon="3.67421">
        <ele>1303.051752634</ele>
        <time>2015-04-23T11:04:15Z</time>
      </trkpt>
      <trkpt lat="44.69515" lon="3.67436">
        <ele>1303.6780216374</ele>
        <time>2015-04-23T11:04:20Z</time>
      </trkpt>
      <trkpt lat="44.6952" lon="3.67443">
        <ele>1303.6780216374</ele>
        <time>2015-04-23T11:04:25Z</time>
      </trkpt>
      <trkpt lat="44.69524" lon="3.67452">
        <ele>1302.9272993317</ele>
        <time>2015-04-23T11:04:30Z</time>
      </trkpt>
      <trkpt lat="44.69528" lon="3.67462">
        <ele>1302.9819731245</ele>
        <time>2015-04-23T11:04:35Z</time>
      </trkpt>
      <trkpt lat="44.69534" lon="3.67476">
        <ele>1302.9076673102</ele>
        <time>2015-04-23T11:04:40Z</time>
      </trkpt>
      <trkpt lat="44.69537" lon="3.67492">
        <ele>1303.7701700819</ele>
        <time>2015-04-23T11:04:45Z</time>
      </trkpt>
      <trkpt lat="44.69538" lon="3.67504">
        <ele>1303.7701700819</ele>
        <time>2015-04-23T11:04:50Z</time>
      </trkpt>
      <trkpt lat="44.6954" lon="3.67514">
        <ele>1304.3495054275</ele>
        <time>2015-04-23T11:04:55Z</time>
      </trkpt>
      <trkpt lat="44.6954" lon="3.67528">
        <ele>1304.380819902</ele>
        <time>2015-04-23T11:05:00Z</time>
      </trkpt>
      <trkpt lat="44.69539" lon="3.67541">
        <ele>1304.380819902</ele>
        <time>2015-04-23T11:05:05Z</time>
      </trkpt>
      <trkpt lat="44.69538" lon="3.67554">
        <ele>1305.9981198627</ele>
        <time>2015-04-23T11:05:10Z</time>
      </trkpt>
      <trkpt lat="44.6954" lon="3.67564">
        <ele>1305.9981198627</ele>
        <time>2015-04-23T11:05:15Z</time>
      </trkpt>
      <trkpt lat="44.69542" lon="3.67574">
        <ele>1306.6779539787</ele>
        <time>2015-04-23T11:05:20Z</time>
      </trkpt>
      <trkpt lat="44.69544" lon="3.67584">
        <ele>1306.6779539787</ele>
        <time>2015-04-23T11:05:25Z</time>
      </trkpt>
      <trkpt lat="44.69547" lon="3.67593">
        <ele>1306.1600851545</ele>
        <time>2015-04-23T11:05:30Z</time>
      </trkpt>
      <trkpt lat="44.6955" lon="3.676">
        <ele>1306.1600851545</ele>
        <time>2015-04-23T11:05:35Z</time>
      </trkpt>
      <trkpt lat="44.69553" lon="3.67607">
        <ele>1306.4548902366</ele>
        <time>2015-04-23T11:05:40Z</time>
      </trkpt>
      <trkpt lat="44.69558" lon="3.67612">
        <ele>1306.4548902366</ele>
        <time>2015-04-23T11:05:45Z</time>
      </trkpt>
      <trkpt lat="44.69561" lon="3.67611">
        <ele>1307.3764009431</ele>
        <time>2015-04-23T11:05:50Z</time>
      </trkpt>
      <trkpt lat="44.69567" lon="3.67608">
        <ele>1307.3764009431</ele>
        <time>2015-04-23T11:05:55Z</time>
      </trkpt>
      <trkpt lat="44.69573" lon="3.67603">
        <ele>1308.3182037672</ele>
        <time>2015-04-23T11:06:00Z</time>
      </trkpt>
      <trkpt lat="44.69578" lon="3.67599">
        <ele>1308.3182037672</ele>
        <time>2015-04-23T11:06:05Z</time>
      </trkpt>
      <trkpt lat="44.69584" lon="3.67594">
        <ele>1308.6607077627</ele>
        <time>2015-04-23T11:06:10Z</time>
      </trkpt>
      <trkpt lat="44.69592" lon="3.6759">
        <ele>1308.6607077627</ele>
        <time>2015-04-23T11:06:15Z</time>
      </trkpt>
      <trkpt lat="44.696" lon="3.67586">
        <ele>1309.0420232203</ele>
        <time>2015-04-23T11:06:20Z</time>
      </trkpt>
      <trkpt lat="44.69605" lon="3.6758">
        <ele>1309.0420232203</ele>
        <time>2015-04-23T11:06:25Z</time>
      </trkpt>
      <trkpt lat="44.6961" lon="3.67576">
        <ele>1309.5632645678</ele>
        <time>2015-04-23T11:06:30Z</time>
      </trkpt>
      <trkpt lat="44.6962" lon="3.67573">
        <ele>1309.4962517577</ele>
        <time>2015-04-23T11:06:35Z</time>
      </trkpt>
      <trkpt lat="44.6963" lon="3.67572">
        <ele>1309.2631434581</ele>
        <time>2015-04-23T11:06:40Z</time>
      </trkpt>
      <trkpt lat="44.69635" lon="3.67571">
        <ele>1309.2631434581</ele>
        <time>2015-04-23T11:06:45Z</time>
      </trkpt>
      <trkpt lat="44.69641" lon="3.67569">
        <ele>1309.4860754136</ele>
        <time>2015-04-23T11:06:50Z</time>
      </trkpt>
      <trkpt lat="44.69653" lon="3.67564">
        <ele>1309.5440169821</ele>
        <time>2015-04-23T11:06:55Z</time>
      </trkpt>
      <trkpt lat="44.69661" lon="3.67561">
        <ele>1309.5440169821</ele>
        <time>2015-04-23T11:07:00Z</time>
      </trkpt>
      <trkpt lat="44.69668" lon="3.67559">
        <ele>1309.2942841305</ele>
        <time>2015-04-23T11:07:05Z</time>
      </trkpt>
      <trkpt lat="44.69674" lon="3.67558">
        <ele>1309.2942841305</ele>
        <time>2015-04-23T11:07:10Z</time>
      </trkpt>
      <trkpt lat="44.69681" lon="3.67556">
        <ele>1309.0233825846</ele>
        <time>2015-04-23T11:07:15Z</time>
      </trkpt>
      <trkpt lat="44.69688" lon="3.67551">
        <ele>1309.0233825846</ele>
        <time>2015-04-23T11:07:20Z</time>
      </trkpt>
      <trkpt lat="44.69701" lon="3.67546">
        <ele>1308.2473681901</ele>
        <time>2015-04-23T11:07:25Z</time>
      </trkpt>
      <trkpt lat="44.69721" lon="3.67544">
        <ele>1307.254137787</ele>
        <time>2015-04-23T11:07:30Z</time>
      </trkpt>
      <trkpt lat="44.69755" lon="3.6755">
        <ele>1306.0083123491</ele>
        <time>2015-04-23T11:07:35Z</time>
      </trkpt>
      <trkpt lat="44.69792" lon="3.67555">
        <ele>1304.3624171108</ele>
        <time>2015-04-23T11:07:40Z</time>
      </trkpt>
      <trkpt lat="44.69821" lon="3.67566">
        <ele>1302.6707843211</ele>
        <time>2015-04-23T11:07:45Z</time>
      </trkpt>
      <trkpt lat="44.69851" lon="3.6757">
        <ele>1301.0743617714</ele>
        <time>2015-04-23T11:07:50Z</time>
      </trkpt>
      <trkpt lat="44.69882" lon="3.67579">
        <ele>1300.2221262372</ele>
        <time>2015-04-23T11:07:55Z</time>
      </trkpt>
      <trkpt lat="44.69915" lon="3.6758">
        <ele>1299.9061124761</ele>
        <time>2015-04-23T11:08:00Z</time>
      </trkpt>
      <trkpt lat="44.69929" lon="3.67592">
        <ele>1299.6437426752</ele>
        <time>2015-04-23T11:08:05Z</time>
      </trkpt>
      <trkpt lat="44.69932" lon="3.67599">
        <ele>1299.6437426752</ele>
        <time>2015-04-23T11:08:10Z</time>
      </trkpt>
      <trkpt lat="44.69938" lon="3.676">
        <ele>1299.5496082969</ele>
        <time>2015-04-23T11:08:15Z</time>
      </trkpt>
      <trkpt lat="44.69941" lon="3.67603">
        <ele>1299.5496082969</ele>
        <time>2015-04-23T11:08:20Z</time>
      </trkpt>
      <trkpt lat="44.69944" lon="3.67607">
        <ele>1299.5496082969</ele>
        <time>2015-04-23T11:08:25Z</time>
      </trkpt>
      <trkpt lat="44.69948" lon="3.67611">
        <ele>1298.4034250772</ele>
        <time>2015-04-23T11:08:30Z</time>
      </trkpt>
      <trkpt lat="44.69951" lon="3.67613">
        <ele>1298.4034250772</ele>
        <time>2015-04-23T11:08:35Z</time>
      </trkpt>
      <trkpt lat="44.69955" lon="3.67618">
        <ele>1298.4034250772</ele>
        <time>2015-04-23T11:08:40Z</time>
      </trkpt>
      <trkpt lat="44.69957" lon="3.67625">
        <ele>1295.9564147326</ele>
        <time>2015-04-23T11:08:45Z</time>
      </trkpt>
      <trkpt lat="44.69958" lon="3.67633">
        <ele>1295.9564147326</ele>
        <time>2015-04-23T11:08:50Z</time>
      </trkpt>
      <trkpt lat="44.6996" lon="3.67639">
        <ele>1293.134442695</ele>
        <time>2015-04-23T11:08:55Z</time>
      </trkpt>
      <trkpt lat="44.69962" lon="3.67649">
        <ele>1293.134442695</ele>
        <time>2015-04-23T11:09:00Z</time>
      </trkpt>
      <trkpt lat="44.69965" lon="3.67659">
        <ele>1291.0700460893</ele>
        <time>2015-04-23T11:09:05Z</time>
      </trkpt>
      <trkpt lat="44.69967" lon="3.67667">
        <ele>1291.0700460893</ele>
        <time>2015-04-23T11:09:10Z</time>
      </trkpt>
      <trkpt lat="44.69971" lon="3.67677">
        <ele>1288.7782850139</ele>
        <time>2015-04-23T11:09:15Z</time>
      </trkpt>
      <trkpt lat="44.69974" lon="3.67687">
        <ele>1288.7782850139</ele>
        <time>2015-04-23T11:09:20Z</time>
      </trkpt>
      <trkpt lat="44.69976" lon="3.67698">
        <ele>1287.2348684098</ele>
        <time>2015-04-23T11:09:25Z</time>
      </trkpt>
      <trkpt lat="44.69978" lon="3.67707">
        <ele>1287.2348684098</ele>
        <time>2015-04-23T11:09:30Z</time>
      </trkpt>
      <trkpt lat="44.69982" lon="3.67716">
        <ele>1285.6842474278</ele>
        <time>2015-04-23T11:09:35Z</time>
      </trkpt>
      <trkpt lat="44.69986" lon="3.67729">
        <ele>1284.9393557708</ele>
        <time>2015-04-23T11:09:40Z</time>
      </trkpt>
      <trkpt lat="44.6999" lon="3.67739">
        <ele>1284.9393557708</ele>
        <time>2015-04-23T11:09:45Z</time>
      </trkpt>
      <trkpt lat="44.69995" lon="3.67756">
        <ele>1284.5692322003</ele>
        <time>2015-04-23T11:09:50Z</time>
      </trkpt>
      <trkpt lat="44.7" lon="3.67769">
        <ele>1284.533600668</ele>
        <time>2015-04-23T11:09:55Z</time>
      </trkpt>
      <trkpt lat="44.70004" lon="3.67781">
        <ele>1284.3328587177</ele>
        <time>2015-04-23T11:10:00Z</time>
      </trkpt>
      <trkpt lat="44.70008" lon="3.67788">
        <ele>1284.3328587177</ele>
        <time>2015-04-23T11:10:05Z</time>
      </trkpt>
      <trkpt lat="44.70012" lon="3.67797">
        <ele>1284.3546436702</ele>
        <time>2015-04-23T11:10:10Z</time>
      </trkpt>
      <trkpt lat="44.70016" lon="3.67807">
        <ele>1284.3546436702</ele>
        <time>2015-04-23T11:10:15Z</time>
      </trkpt>
      <trkpt lat="44.7002" lon="3.67815">
        <ele>1283.5738566122</ele>
        <time>2015-04-23T11:10:20Z</time>
      </trkpt>
      <trkpt lat="44.70024" lon="3.67823">
        <ele>1283.5738566122</ele>
        <time>2015-04-23T11:10:25Z</time>
      </trkpt>
      <trkpt lat="44.70028" lon="3.67832">
        <ele>1282.8441835705</ele>
        <time>2015-04-23T11:10:30Z</time>
      </trkpt>
      <trkpt lat="44.70031" lon="3.67842">
        <ele>1282.8441835705</ele>
        <time>2015-04-23T11:10:35Z</time>
      </trkpt>
      <trkpt lat="44.70031" lon="3.67848">
        <ele>1282.6392612778</ele>
        <time>2015-04-23T11:10:40Z</time>
      </trkpt>
      <trkpt lat="44.70031" lon="3.67853">
        <ele>1282.6392612778</ele>
        <time>2015-04-23T11:10:45Z</time>
      </trkpt>
      <trkpt lat="44.70032" lon="3.67854">
        <ele>1282.6392612778</ele>
        <time>2015-04-23T11:10:50Z</time>
      </trkpt>
      <trkpt lat="44.70031" lon="3.67857">
        <ele>1282.6392612778</ele>
        <time>2015-04-23T11:10:55Z</time>
      </trkpt>
      <trkpt lat="44.70031" lon="3.6786">
        <ele>1282.6392612778</ele>
        <time>2015-04-23T11:11:00Z</time>
      </trkpt>
      <trkpt lat="44.70032" lon="3.67863">
        <ele>1283.3819102333</ele>
        <time>2015-04-23T11:11:05Z</time>
      </trkpt>
      <trkpt lat="44.70032" lon="3.67867">
        <ele>1283.3819102333</ele>
        <time>2015-04-23T11:11:10Z</time>
      </trkpt>
      <trkpt lat="44.70033" lon="3.67872">
        <ele>1283.3819102333</ele>
        <time>2015-04-23T11:11:15Z</time>
      </trkpt>
      <trkpt lat="44.70034" lon="3.67874">
        <ele>1283.3819102333</ele>
        <time>2015-04-23T11:11:20Z</time>
      </trkpt>
      <trkpt lat="44.70036" lon="3.6788">
        <ele>1284.3370370037</ele>
        <time>2015-04-23T11:11:25Z</time>
      </trkpt>
      <trkpt lat="44.7004" lon="3.67886">
        <ele>1284.3370370037</ele>
        <time>2015-04-23T11:11:30Z</time>
      </trkpt>
      <trkpt lat="44.70045" lon="3.6789">
        <ele>1285.240759798</ele>
        <time>2015-04-23T11:11:35Z</time>
      </trkpt>
      <trkpt lat="44.70049" lon="3.67895">
        <ele>1285.240759798</ele>
        <time>2015-04-23T11:11:40Z</time>
      </trkpt>
      <trkpt lat="44.70053" lon="3.67897">
        <ele>1285.070425744</ele>
        <time>2015-04-23T11:11:45Z</time>
      </trkpt>
      <trkpt lat="44.70056" lon="3.67903">
        <ele>1285.070425744</ele>
        <time>2015-04-23T11:11:50Z</time>
      </trkpt>
      <trkpt lat="44.70059" lon="3.67914">
        <ele>1284.9566337769</ele>
        <time>2015-04-23T11:11:55Z</time>
      </trkpt>
      <trkpt lat="44.70062" lon="3.67921">
        <ele>1284.9566337769</ele>
        <time>2015-04-23T11:12:00Z</time>
      </trkpt>
      <trkpt lat="44.70066" lon="3.67928">
        <ele>1284.736162892</ele>
        <time>2015-04-23T11:12:05Z</time>
      </trkpt>
      <trkpt lat="44.70069" lon="3.6794">
        <ele>1285.0073942621</ele>
        <time>2015-04-23T11:12:10Z</time>
      </trkpt>
      <trkpt lat="44.70072" lon="3.67947">
        <ele>1285.0073942621</ele>
        <time>2015-04-23T11:12:15Z</time>
      </trkpt>
      <trkpt lat="44.70075" lon="3.67954">
        <ele>1284.9110253314</ele>
        <time>2015-04-23T11:12:20Z</time>
      </trkpt>
      <trkpt lat="44.70072" lon="3.67966">
        <ele>1284.9110253314</ele>
        <time>2015-04-23T11:12:25Z</time>
      </trkpt>
      <trkpt lat="44.70071" lon="3.67977">
        <ele>1284.5165240091</ele>
        <time>2015-04-23T11:12:30Z</time>
      </trkpt>
      <trkpt lat="44.7007" lon="3.67992">
        <ele>1284.5375467418</ele>
        <time>2015-04-23T11:12:35Z</time>
      </trkpt>
      <trkpt lat="44.7007" lon="3.6801">
        <ele>1284.1785972354</ele>
        <time>2015-04-23T11:12:40Z</time>
      </trkpt>
      <trkpt lat="44.7007" lon="3.6802">
        <ele>1284.1785972354</ele>
        <time>2015-04-23T11:12:45Z</time>
      </trkpt>
      <trkpt lat="44.7007" lon="3.68033">
        <ele>1284.216814685</ele>
        <time>2015-04-23T11:12:50Z</time>
      </trkpt>
      <trkpt lat="44.7007" lon="3.68043">
        <ele>1284.216814685</ele>
        <time>2015-04-23T11:12:55Z</time>
      </trkpt>
      <trkpt lat="44.7007" lon="3.68055">
        <ele>1284.4487954274</ele>
        <time>2015-04-23T11:13:00Z</time>
      </trkpt>
      <trkpt lat="44.70069" lon="3.68066">
        <ele>1284.4487954274</ele>
        <time>2015-04-23T11:13:05Z</time>
      </trkpt>
      <trkpt lat="44.70069" lon="3.68073">
        <ele>1284.2387656443</ele>
        <time>2015-04-23T11:13:10Z</time>
      </trkpt>
      <trkpt lat="44.70069" lon="3.68079">
        <ele>1284.2387656443</ele>
        <time>2015-04-23T11:13:15Z</time>
      </trkpt>
      <trkpt lat="44.70068" lon="3.68085">
        <ele>1284.2387656443</ele>
        <time>2015-04-23T11:13:20Z</time>
      </trkpt>
      <trkpt lat="44.70067" lon="3.68098">
        <ele>1283.7626647953</ele>
        <time>2015-04-23T11:13:25Z</time>
      </trkpt>
      <trkpt lat="44.70067" lon="3.68112">
        <ele>1283.0113048378</ele>
        <time>2015-04-23T11:13:30Z</time>
      </trkpt>
      <trkpt lat="44.70066" lon="3.68121">
        <ele>1283.0113048378</ele>
        <time>2015-04-23T11:13:35Z</time>
      </trkpt>
      <trkpt lat="44.70066" lon="3.68134">
        <ele>1282.3227972712</ele>
        <time>2015-04-23T11:13:40Z</time>
      </trkpt>
      <trkpt lat="44.70066" lon="3.68149">
        <ele>1282.1831597826</ele>
        <time>2015-04-23T11:13:45Z</time>
      </trkpt>
      <trkpt lat="44.70066" lon="3.68164">
        <ele>1282.5800004113</ele>
        <time>2015-04-23T11:13:50Z</time>
      </trkpt>
      <trkpt lat="44.70064" lon="3.68175">
        <ele>1282.5800004113</ele>
        <time>2015-04-23T11:13:55Z</time>
      </trkpt>
      <trkpt lat="44.70062" lon="3.68188">
        <ele>1282.6356566512</ele>
        <time>2015-04-23T11:14:00Z</time>
      </trkpt>
      <trkpt lat="44.7006" lon="3.68196">
        <ele>1282.6356566512</ele>
        <time>2015-04-23T11:14:05Z</time>
      </trkpt>
      <trkpt lat="44.70061" lon="3.68198">
        <ele>1282.6356566512</ele>
        <time>2015-04-23T11:14:10Z</time>
      </trkpt>
      <trkpt lat="44.70061" lon="3.68201">
        <ele>1282.9790033534</ele>
        <time>2015-04-23T11:14:15Z</time>
      </trkpt>
      <trkpt lat="44.70061" lon="3.68204">
        <ele>1282.9790033534</ele>
        <time>2015-04-23T11:14:20Z</time>
      </trkpt>
      <trkpt lat="44.70061" lon="3.68204">
        <ele>1282.9790033534</ele>
        <time>2015-04-23T11:14:25Z</time>
      </trkpt>
      <trkpt lat="44.7006" lon="3.68208">
        <ele>1282.9790033534</ele>
        <time>2015-04-23T11:14:30Z</time>
      </trkpt>
      <trkpt lat="44.7006" lon="3.6821">
        <ele>1282.9790033534</ele>
        <time>2015-04-23T11:14:35Z</time>
      </trkpt>
      <trkpt lat="44.7006" lon="3.68211">
        <ele>1282.9790033534</ele>
        <time>2015-04-23T11:14:40Z</time>
      </trkpt>
      <trkpt lat="44.7006" lon="3.68211">
        <ele>1282.9790033534</ele>
        <time>2015-04-23T11:14:45Z</time>
      </trkpt>
      <trkpt lat="44.7006" lon="3.68211">
        <ele>1282.9790033534</ele>
        <time>2015-04-23T11:14:50Z</time>
      </trkpt>
      <trkpt lat="44.7006" lon="3.68211">
        <ele>1282.9790033534</ele>
        <time>2015-04-23T11:14:55Z</time>
      </trkpt>
      <trkpt lat="44.7006" lon="3.68211">
        <ele>1282.9790033534</ele>
        <time>2015-04-23T11:15:00Z</time>
      </trkpt>
      <trkpt lat="44.7006" lon="3.68211">
        <ele>1282.9790033534</ele>
        <time>2015-04-23T11:15:05Z</time>
      </trkpt>
      <trkpt lat="44.70061" lon="3.68212">
        <ele>1282.9790033534</ele>
        <time>2015-04-23T11:15:10Z</time>
      </trkpt>
      <trkpt lat="44.70061" lon="3.68213">
        <ele>1282.9790033534</ele>
        <time>2015-04-23T11:15:15Z</time>
      </trkpt>
      <trkpt lat="44.70061" lon="3.68215">
        <ele>1283.3993022608</ele>
        <time>2015-04-23T11:15:20Z</time>
      </trkpt>
      <trkpt lat="44.70061" lon="3.68216">
        <ele>1283.3993022608</ele>
        <time>2015-04-23T11:15:25Z</time>
      </trkpt>
      <trkpt lat="44.70061" lon="3.68215">
        <ele>1283.3993022608</ele>
        <time>2015-04-23T11:15:30Z</time>
      </trkpt>
      <trkpt lat="44.70061" lon="3.68213">
        <ele>1283.3993022608</ele>
        <time>2015-04-23T11:15:35Z</time>
      </trkpt>
      <trkpt lat="44.70061" lon="3.68212">
        <ele>1283.3993022608</ele>
        <time>2015-04-23T11:15:40Z</time>
      </trkpt>
      <trkpt lat="44.70061" lon="3.68213">
        <ele>1283.3993022608</ele>
        <time>2015-04-23T11:15:45Z</time>
      </trkpt>
      <trkpt lat="44.70062" lon="3.68213">
        <ele>1283.3993022608</ele>
        <time>2015-04-23T11:15:50Z</time>
      </trkpt>
      <trkpt lat="44.70062" lon="3.68213">
        <ele>1283.3993022608</ele>
        <time>2015-04-23T11:15:55Z</time>
      </trkpt>
      <trkpt lat="44.70062" lon="3.68213">
        <ele>1283.3993022608</ele>
        <time>2015-04-23T11:16:00Z</time>
      </trkpt>
      <trkpt lat="44.70062" lon="3.68213">
        <ele>1283.3993022608</ele>
        <time>2015-04-23T11:16:05Z</time>
      </trkpt>
      <trkpt lat="44.70062" lon="3.68213">
        <ele>1283.3993022608</ele>
        <time>2015-04-23T11:16:10Z</time>
      </trkpt>
      <trkpt lat="44.70062" lon="3.68213">
        <ele>1283.3993022608</ele>
        <time>2015-04-23T11:16:15Z</time>
      </trkpt>
      <trkpt lat="44.70062" lon="3.68213">
        <ele>1283.3993022608</ele>
        <time>2015-04-23T11:16:20Z</time>
      </trkpt>
      <trkpt lat="44.70063" lon="3.68215">
        <ele>1283.3993022608</ele>
        <time>2015-04-23T11:16:25Z</time>
      </trkpt>
      <trkpt lat="44.70064" lon="3.68211">
        <ele>1283.3993022608</ele>
        <time>2015-04-23T11:16:30Z</time>
      </trkpt>
      <trkpt lat="44.70064" lon="3.68209">
        <ele>1283.6722660155</ele>
        <time>2015-04-23T11:16:35Z</time>
      </trkpt>
      <trkpt lat="44.70063" lon="3.68208">
        <ele>1283.6722660155</ele>
        <time>2015-04-23T11:16:40Z</time>
      </trkpt>
      <trkpt lat="44.70062" lon="3.68209">
        <ele>1283.6722660155</ele>
        <time>2015-04-23T11:16:45Z</time>
      </trkpt>
      <trkpt lat="44.70062" lon="3.68209">
        <ele>1283.6722660155</ele>
        <time>2015-04-23T11:16:50Z</time>
      </trkpt>
      <trkpt lat="44.70062" lon="3.68209">
        <ele>1283.6722660155</ele>
        <time>2015-04-23T11:16:55Z</time>
      </trkpt>
      <trkpt lat="44.70062" lon="3.68209">
        <ele>1283.6722660155</ele>
        <time>2015-04-23T11:17:00Z</time>
      </trkpt>
      <trkpt lat="44.70062" lon="3.68209">
        <ele>1283.6722660155</ele>
        <time>2015-04-23T11:17:05Z</time>
      </trkpt>
      <trkpt lat="44.70062" lon="3.68209">
        <ele>1283.6722660155</ele>
        <time>2015-04-23T11:17:10Z</time>
      </trkpt>
      <trkpt lat="44.70062" lon="3.68209">
        <ele>1283.6722660155</ele>
        <time>2015-04-23T11:17:15Z</time>
      </trkpt>
      <trkpt lat="44.70061" lon="3.68208">
        <ele>1283.6722660155</ele>
        <time>2015-04-23T11:17:20Z</time>
      </trkpt>
      <trkpt lat="44.70061" lon="3.68208">
        <ele>1283.6722660155</ele>
        <time>2015-04-23T11:17:25Z</time>
      </trkpt>
      <trkpt lat="44.70059" lon="3.68207">
        <ele>1283.6722660155</ele>
        <time>2015-04-23T11:17:30Z</time>
      </trkpt>
      <trkpt lat="44.70056" lon="3.68211">
        <ele>1283.9796108351</ele>
        <time>2015-04-23T11:17:35Z</time>
      </trkpt>
      <trkpt lat="44.70056" lon="3.68212">
        <ele>1283.9796108351</ele>
        <time>2015-04-23T11:17:40Z</time>
      </trkpt>
      <trkpt lat="44.70056" lon="3.68213">
        <ele>1283.9796108351</ele>
        <time>2015-04-23T11:17:45Z</time>
      </trkpt>
      <trkpt lat="44.70056" lon="3.68213">
        <ele>1283.9796108351</ele>
        <time>2015-04-23T11:17:50Z</time>
      </trkpt>
      <trkpt lat="44.70056" lon="3.68214">
        <ele>1283.9796108351</ele>
        <time>2015-04-23T11:17:55Z</time>
      </trkpt>
      <trkpt lat="44.70056" lon="3.68213">
        <ele>1283.9796108351</ele>
        <time>2015-04-23T11:18:00Z</time>
      </trkpt>
      <trkpt lat="44.70056" lon="3.68213">
        <ele>1283.9796108351</ele>
        <time>2015-04-23T11:18:05Z</time>
      </trkpt>
      <trkpt lat="44.70056" lon="3.68213">
        <ele>1283.9796108351</ele>
        <time>2015-04-23T11:18:10Z</time>
      </trkpt>
      <trkpt lat="44.70057" lon="3.68211">
        <ele>1283.9796108351</ele>
        <time>2015-04-23T11:18:15Z</time>
      </trkpt>
      <trkpt lat="44.70063" lon="3.68206">
        <ele>1284.5905057514</ele>
        <time>2015-04-23T11:18:20Z</time>
      </trkpt>
      <trkpt lat="44.70062" lon="3.68208">
        <ele>1284.5905057514</ele>
        <time>2015-04-23T11:18:25Z</time>
      </trkpt>
      <trkpt lat="44.70062" lon="3.68208">
        <ele>1284.5905057514</ele>
        <time>2015-04-23T11:18:30Z</time>
      </trkpt>
      <trkpt lat="44.70062" lon="3.68208">
        <ele>1284.5905057514</ele>
        <time>2015-04-23T11:18:35Z</time>
      </trkpt>
      <trkpt lat="44.70061" lon="3.68209">
        <ele>1284.5905057514</ele>
        <time>2015-04-23T11:18:40Z</time>
      </trkpt>
      <trkpt lat="44.70061" lon="3.68206">
        <ele>1284.5905057514</ele>
        <time>2015-04-23T11:18:45Z</time>
      </trkpt>
      <trkpt lat="44.70062" lon="3.68206">
        <ele>1284.5905057514</ele>
        <time>2015-04-23T11:18:50Z</time>
      </trkpt>
      <trkpt lat="44.70063" lon="3.68205">
        <ele>1284.5905057514</ele>
        <time>2015-04-23T11:18:55Z</time>
      </trkpt>
      <trkpt lat="44.70063" lon="3.68205">
        <ele>1284.5905057514</ele>
        <time>2015-04-23T11:19:00Z</time>
      </trkpt>
      <trkpt lat="44.70061" lon="3.68211">
        <ele>1285.0473763627</ele>
        <time>2015-04-23T11:19:05Z</time>
      </trkpt>
      <trkpt lat="44.7006" lon="3.68216">
        <ele>1285.0473763627</ele>
        <time>2015-04-23T11:19:10Z</time>
      </trkpt>
      <trkpt lat="44.7006" lon="3.68223">
        <ele>1285.0473763627</ele>
        <time>2015-04-23T11:19:15Z</time>
      </trkpt>
      <trkpt lat="44.70061" lon="3.68232">
        <ele>1285.2725911189</ele>
        <time>2015-04-23T11:19:20Z</time>
      </trkpt>
      <trkpt lat="44.70063" lon="3.68239">
        <ele>1285.2725911189</ele>
        <time>2015-04-23T11:19:25Z</time>
      </trkpt>
      <trkpt lat="44.70062" lon="3.68247">
        <ele>1285.3101950733</ele>
        <time>2015-04-23T11:19:30Z</time>
      </trkpt>
      <trkpt lat="44.70059" lon="3.68257">
        <ele>1285.3101950733</ele>
        <time>2015-04-23T11:19:35Z</time>
      </trkpt>
      <trkpt lat="44.70058" lon="3.68267">
        <ele>1285.1150951598</ele>
        <time>2015-04-23T11:19:40Z</time>
      </trkpt>
      <trkpt lat="44.70057" lon="3.68278">
        <ele>1285.1150951598</ele>
        <time>2015-04-23T11:19:45Z</time>
      </trkpt>
      <trkpt lat="44.70055" lon="3.68289">
        <ele>1285.064125127</ele>
        <time>2015-04-23T11:19:50Z</time>
      </trkpt>
      <trkpt lat="44.70054" lon="3.68299">
        <ele>1285.064125127</ele>
        <time>2015-04-23T11:19:55Z</time>
      </trkpt>
      <trkpt lat="44.70054" lon="3.68308">
        <ele>1284.3964146011</ele>
        <time>2015-04-23T11:20:00Z</time>
      </trkpt>
      <trkpt lat="44.70053" lon="3.68318">
        <ele>1284.3964146011</ele>
        <time>2015-04-23T11:20:05Z</time>
      </trkpt>
      <trkpt lat="44.70053" lon="3.68328">
        <ele>1283.6481082611</ele>
        <time>2015-04-23T11:20:10Z</time>
      </trkpt>
      <trkpt lat="44.70052" lon="3.68332">
        <ele>1283.6481082611</ele>
        <time>2015-04-23T11:20:15Z</time>
      </trkpt>
      <trkpt lat="44.70053" lon="3.68342">
        <ele>1282.595667726</ele>
        <time>2015-04-23T11:20:20Z</time>
      </trkpt>
      <trkpt lat="44.70053" lon="3.68354">
        <ele>1282.595667726</ele>
        <time>2015-04-23T11:20:25Z</time>
      </trkpt>
      <trkpt lat="44.70054" lon="3.68366">
        <ele>1281.6813552181</ele>
        <time>2015-04-23T11:20:30Z</time>
      </trkpt>
      <trkpt lat="44.70055" lon="3.68378">
        <ele>1281.6813552181</ele>
        <time>2015-04-23T11:20:35Z</time>
      </trkpt>
      <trkpt lat="44.70055" lon="3.68389">
        <ele>1280.6372541196</ele>
        <time>2015-04-23T11:20:40Z</time>
      </trkpt>
      <trkpt lat="44.70058" lon="3.68399">
        <ele>1280.6372541196</ele>
        <time>2015-04-23T11:20:45Z</time>
      </trkpt>
      <trkpt lat="44.70061" lon="3.68411">
        <ele>1278.9705154282</ele>
        <time>2015-04-23T11:20:50Z</time>
      </trkpt>
      <trkpt lat="44.70066" lon="3.68427">
        <ele>1276.889154755</ele>
        <time>2015-04-23T11:20:55Z</time>
      </trkpt>
      <trkpt lat="44.70071" lon="3.68438">
        <ele>1274.8176396526</ele>
        <time>2015-04-23T11:21:00Z</time>
      </trkpt>
      <trkpt lat="44.70074" lon="3.68448">
        <ele>1274.8176396526</ele>
        <time>2015-04-23T11:21:05Z</time>
      </trkpt>
      <trkpt lat="44.70077" lon="3.68458">
        <ele>1273.1347981647</ele>
        <time>2015-04-23T11:21:10Z</time>
      </trkpt>
      <trkpt lat="44.7008" lon="3.68465">
        <ele>1273.1347981647</ele>
        <time>2015-04-23T11:21:15Z</time>
      </trkpt>
      <trkpt lat="44.70084" lon="3.68471">
        <ele>1270.8646846272</ele>
        <time>2015-04-23T11:21:20Z</time>
      </trkpt>
      <trkpt lat="44.70086" lon="3.68478">
        <ele>1270.8646846272</ele>
        <time>2015-04-23T11:21:25Z</time>
      </trkpt>
      <trkpt lat="44.70089" lon="3.68487">
        <ele>1269.4104291882</ele>
        <time>2015-04-23T11:21:30Z</time>
      </trkpt>
      <trkpt lat="44.70093" lon="3.68495">
        <ele>1269.4104291882</ele>
        <time>2015-04-23T11:21:35Z</time>
      </trkpt>
      <trkpt lat="44.70097" lon="3.68504">
        <ele>1267.1154681005</ele>
        <time>2015-04-23T11:21:40Z</time>
      </trkpt>
      <trkpt lat="44.70102" lon="3.6851">
        <ele>1267.1154681005</ele>
        <time>2015-04-23T11:21:45Z</time>
      </trkpt>
      <trkpt lat="44.70105" lon="3.68519">
        <ele>1264.637712953</ele>
        <time>2015-04-23T11:21:50Z</time>
      </trkpt>
      <trkpt lat="44.70108" lon="3.6853">
        <ele>1264.637712953</ele>
        <time>2015-04-23T11:21:55Z</time>
      </trkpt>
      <trkpt lat="44.70112" lon="3.68539">
        <ele>1262.2269074255</ele>
        <time>2015-04-23T11:22:00Z</time>
      </trkpt>
      <trkpt lat="44.70117" lon="3.6855">
        <ele>1260.5465133062</ele>
        <time>2015-04-23T11:22:05Z</time>
      </trkpt>
      <trkpt lat="44.70124" lon="3.68559">
        <ele>1258.9409381067</ele>
        <time>2015-04-23T11:22:10Z</time>
      </trkpt>
      <trkpt lat="44.7013" lon="3.68567">
        <ele>1258.9409381067</ele>
        <time>2015-04-23T11:22:15Z</time>
      </trkpt>
      <trkpt lat="44.70136" lon="3.68575">
        <ele>1257.3356551624</ele>
        <time>2015-04-23T11:22:20Z</time>
      </trkpt>
      <trkpt lat="44.70142" lon="3.68582">
        <ele>1257.3356551624</ele>
        <time>2015-04-23T11:22:25Z</time>
      </trkpt>
      <trkpt lat="44.70149" lon="3.6859">
        <ele>1255.5894576548</ele>
        <time>2015-04-23T11:22:30Z</time>
      </trkpt>
      <trkpt lat="44.70156" lon="3.68595">
        <ele>1255.5894576548</ele>
        <time>2015-04-23T11:22:35Z</time>
      </trkpt>
      <trkpt lat="44.7017" lon="3.68613">
        <ele>1254.3211856187</ele>
        <time>2015-04-23T11:22:40Z</time>
      </trkpt>
      <trkpt lat="44.70181" lon="3.68627">
        <ele>1252.9787118057</ele>
        <time>2015-04-23T11:22:45Z</time>
      </trkpt>
      <trkpt lat="44.70185" lon="3.68638">
        <ele>1252.9787118057</ele>
        <time>2015-04-23T11:22:50Z</time>
      </trkpt>
      <trkpt lat="44.70189" lon="3.68646">
        <ele>1251.915244299</ele>
        <time>2015-04-23T11:22:55Z</time>
      </trkpt>
      <trkpt lat="44.70194" lon="3.68653">
        <ele>1251.915244299</ele>
        <time>2015-04-23T11:23:00Z</time>
      </trkpt>
      <trkpt lat="44.70201" lon="3.68658">
        <ele>1250.8518986314</ele>
        <time>2015-04-23T11:23:05Z</time>
      </trkpt>
      <trkpt lat="44.70208" lon="3.6866">
        <ele>1250.8518986314</ele>
        <time>2015-04-23T11:23:10Z</time>
      </trkpt>
      <trkpt lat="44.70215" lon="3.68662">
        <ele>1249.9336951666</ele>
        <time>2015-04-23T11:23:15Z</time>
      </trkpt>
      <trkpt lat="44.70221" lon="3.68665">
        <ele>1249.9336951666</ele>
        <time>2015-04-23T11:23:20Z</time>
      </trkpt>
      <trkpt lat="44.70227" lon="3.68667">
        <ele>1248.7612938155</ele>
        <time>2015-04-23T11:23:25Z</time>
      </trkpt>
      <trkpt lat="44.70235" lon="3.68672">
        <ele>1248.7612938155</ele>
        <time>2015-04-23T11:23:30Z</time>
      </trkpt>
      <trkpt lat="44.70242" lon="3.68675">
        <ele>1247.685874247</ele>
        <time>2015-04-23T11:23:35Z</time>
      </trkpt>
      <trkpt lat="44.70246" lon="3.68681">
        <ele>1247.685874247</ele>
        <time>2015-04-23T11:23:40Z</time>
      </trkpt>
      <trkpt lat="44.70248" lon="3.68689">
        <ele>1246.1245651738</ele>
        <time>2015-04-23T11:23:45Z</time>
      </trkpt>
      <trkpt lat="44.7025" lon="3.68697">
        <ele>1246.1245651738</ele>
        <time>2015-04-23T11:23:50Z</time>
      </trkpt>
      <trkpt lat="44.70253" lon="3.68704">
        <ele>1244.6338422457</ele>
        <time>2015-04-23T11:23:55Z</time>
      </trkpt>
      <trkpt lat="44.70256" lon="3.68715">
        <ele>1244.6338422457</ele>
        <time>2015-04-23T11:24:00Z</time>
      </trkpt>
      <trkpt lat="44.70258" lon="3.68724">
        <ele>1243.7866736265</ele>
        <time>2015-04-23T11:24:05Z</time>
      </trkpt>
      <trkpt lat="44.70261" lon="3.68734">
        <ele>1243.7866736265</ele>
        <time>2015-04-23T11:24:10Z</time>
      </trkpt>
      <trkpt lat="44.70263" lon="3.68745">
        <ele>1243.3050377529</ele>
        <time>2015-04-23T11:24:15Z</time>
      </trkpt>
      <trkpt lat="44.70266" lon="3.68754">
        <ele>1243.3050377529</ele>
        <time>2015-04-23T11:24:20Z</time>
      </trkpt>
      <trkpt lat="44.70269" lon="3.68764">
        <ele>1242.9878886245</ele>
        <time>2015-04-23T11:24:25Z</time>
      </trkpt>
      <trkpt lat="44.70272" lon="3.68772">
        <ele>1242.9878886245</ele>
        <time>2015-04-23T11:24:30Z</time>
      </trkpt>
      <trkpt lat="44.70275" lon="3.68782">
        <ele>1242.821361728</ele>
        <time>2015-04-23T11:24:35Z</time>
      </trkpt>
      <trkpt lat="44.70279" lon="3.6879">
        <ele>1242.821361728</ele>
        <time>2015-04-23T11:24:40Z</time>
      </trkpt>
      <trkpt lat="44.70283" lon="3.68798">
        <ele>1242.7344942821</ele>
        <time>2015-04-23T11:24:45Z</time>
      </trkpt>
      <trkpt lat="44.70286" lon="3.68808">
        <ele>1242.7344942821</ele>
        <time>2015-04-23T11:24:50Z</time>
      </trkpt>
      <trkpt lat="44.7029" lon="3.68816">
        <ele>1242.7765624684</ele>
        <time>2015-04-23T11:24:55Z</time>
      </trkpt>
      <trkpt lat="44.70293" lon="3.68824">
        <ele>1242.7765624684</ele>
        <time>2015-04-23T11:25:00Z</time>
      </trkpt>
      <trkpt lat="44.70297" lon="3.68832">
        <ele>1242.3010976258</ele>
        <time>2015-04-23T11:25:05Z</time>
      </trkpt>
      <trkpt lat="44.70301" lon="3.68839">
        <ele>1242.3010976258</ele>
        <time>2015-04-23T11:25:10Z</time>
      </trkpt>
      <trkpt lat="44.70305" lon="3.68847">
        <ele>1241.7049181649</ele>
        <time>2015-04-23T11:25:15Z</time>
      </trkpt>
      <trkpt lat="44.70309" lon="3.68858">
        <ele>1241.6154183122</ele>
        <time>2015-04-23T11:25:20Z</time>
      </trkpt>
      <trkpt lat="44.70314" lon="3.68878">
        <ele>1241.5028211337</ele>
        <time>2015-04-23T11:25:25Z</time>
      </trkpt>
      <trkpt lat="44.70319" lon="3.68891">
        <ele>1240.9916206887</ele>
        <time>2015-04-23T11:25:30Z</time>
      </trkpt>
      <trkpt lat="44.70323" lon="3.689">
        <ele>1240.9916206887</ele>
        <time>2015-04-23T11:25:35Z</time>
      </trkpt>
      <trkpt lat="44.70328" lon="3.6891">
        <ele>1241.0176099176</ele>
        <time>2015-04-23T11:25:40Z</time>
      </trkpt>
      <trkpt lat="44.70332" lon="3.6892">
        <ele>1241.0176099176</ele>
        <time>2015-04-23T11:25:45Z</time>
      </trkpt>
      <trkpt lat="44.70336" lon="3.68929">
        <ele>1241.178167509</ele>
        <time>2015-04-23T11:25:50Z</time>
      </trkpt>
      <trkpt lat="44.7034" lon="3.68936">
        <ele>1241.178167509</ele>
        <time>2015-04-23T11:25:55Z</time>
      </trkpt>
      <trkpt lat="44.70344" lon="3.68944">
        <ele>1241.0998911711</ele>
        <time>2015-04-23T11:26:00Z</time>
      </trkpt>
      <trkpt lat="44.70348" lon="3.68951">
        <ele>1241.0998911711</ele>
        <time>2015-04-23T11:26:05Z</time>
      </trkpt>
      <trkpt lat="44.70351" lon="3.68959">
        <ele>1241.1004165708</ele>
        <time>2015-04-23T11:26:10Z</time>
      </trkpt>
      <trkpt lat="44.70355" lon="3.68967">
        <ele>1241.1004165708</ele>
        <time>2015-04-23T11:26:15Z</time>
      </trkpt>
      <trkpt lat="44.70358" lon="3.68977">
        <ele>1241.4306254073</ele>
        <time>2015-04-23T11:26:20Z</time>
      </trkpt>
      <trkpt lat="44.70362" lon="3.68986">
        <ele>1241.4306254073</ele>
        <time>2015-04-23T11:26:25Z</time>
      </trkpt>
      <trkpt lat="44.70365" lon="3.68995">
        <ele>1242.0338635745</ele>
        <time>2015-04-23T11:26:30Z</time>
      </trkpt>
      <trkpt lat="44.7037" lon="3.69007">
        <ele>1242.813688219</ele>
        <time>2015-04-23T11:26:35Z</time>
      </trkpt>
      <trkpt lat="44.70373" lon="3.69018">
        <ele>1242.813688219</ele>
        <time>2015-04-23T11:26:40Z</time>
      </trkpt>
      <trkpt lat="44.70387" lon="3.69023">
        <ele>1243.3920803845</ele>
        <time>2015-04-23T11:26:45Z</time>
      </trkpt>
      <trkpt lat="44.704" lon="3.69021">
        <ele>1244.1111545629</ele>
        <time>2015-04-23T11:26:50Z</time>
      </trkpt>
      <trkpt lat="44.70407" lon="3.69019">
        <ele>1244.1111545629</ele>
        <time>2015-04-23T11:26:55Z</time>
      </trkpt>
      <trkpt lat="44.70413" lon="3.69017">
        <ele>1244.7255394321</ele>
        <time>2015-04-23T11:27:00Z</time>
      </trkpt>
      <trkpt lat="44.70419" lon="3.69015">
        <ele>1244.7255394321</ele>
        <time>2015-04-23T11:27:05Z</time>
      </trkpt>
      <trkpt lat="44.70425" lon="3.69012">
        <ele>1244.9506183005</ele>
        <time>2015-04-23T11:27:10Z</time>
      </trkpt>
      <trkpt lat="44.70431" lon="3.69008">
        <ele>1244.9506183005</ele>
        <time>2015-04-23T11:27:15Z</time>
      </trkpt>
      <trkpt lat="44.70437" lon="3.69002">
        <ele>1244.9417821024</ele>
        <time>2015-04-23T11:27:20Z</time>
      </trkpt>
      <trkpt lat="44.70441" lon="3.68995">
        <ele>1244.9417821024</ele>
        <time>2015-04-23T11:27:25Z</time>
      </trkpt>
      <trkpt lat="44.70446" lon="3.68991">
        <ele>1244.7284621241</ele>
        <time>2015-04-23T11:27:30Z</time>
      </trkpt>
      <trkpt lat="44.70451" lon="3.68986">
        <ele>1244.7284621241</ele>
        <time>2015-04-23T11:27:35Z</time>
      </trkpt>
      <trkpt lat="44.70457" lon="3.68982">
        <ele>1244.4394674977</ele>
        <time>2015-04-23T11:27:40Z</time>
      </trkpt>
      <trkpt lat="44.70462" lon="3.68977">
        <ele>1244.4394674977</ele>
        <time>2015-04-23T11:27:45Z</time>
      </trkpt>
      <trkpt lat="44.70468" lon="3.68972">
        <ele>1244.0503330305</ele>
        <time>2015-04-23T11:27:50Z</time>
      </trkpt>
      <trkpt lat="44.70474" lon="3.68967">
        <ele>1244.0503330305</ele>
        <time>2015-04-23T11:27:55Z</time>
      </trkpt>
      <trkpt lat="44.70479" lon="3.68962">
        <ele>1243.3081772069</ele>
        <time>2015-04-23T11:28:00Z</time>
      </trkpt>
      <trkpt lat="44.70484" lon="3.68956">
        <ele>1243.3081772069</ele>
        <time>2015-04-23T11:28:05Z</time>
      </trkpt>
      <trkpt lat="44.70491" lon="3.68952">
        <ele>1242.6426758146</ele>
        <time>2015-04-23T11:28:10Z</time>
      </trkpt>
      <trkpt lat="44.70497" lon="3.68946">
        <ele>1242.6426758146</ele>
        <time>2015-04-23T11:28:15Z</time>
      </trkpt>
      <trkpt lat="44.70502" lon="3.68942">
        <ele>1241.7888880836</ele>
        <time>2015-04-23T11:28:20Z</time>
      </trkpt>
      <trkpt lat="44.70509" lon="3.68938">
        <ele>1241.7888880836</ele>
        <time>2015-04-23T11:28:25Z</time>
      </trkpt>
      <trkpt lat="44.70516" lon="3.68932">
        <ele>1241.0927872287</ele>
        <time>2015-04-23T11:28:30Z</time>
      </trkpt>
      <trkpt lat="44.70524" lon="3.68926">
        <ele>1240.5719173635</ele>
        <time>2015-04-23T11:28:35Z</time>
      </trkpt>
      <trkpt lat="44.70529" lon="3.68921">
        <ele>1240.5719173635</ele>
        <time>2015-04-23T11:28:40Z</time>
      </trkpt>
      <trkpt lat="44.70529" lon="3.68921">
        <ele>1240.5719173635</ele>
        <time>2015-04-23T11:28:45Z</time>
      </trkpt>
      <trkpt lat="44.70529" lon="3.68922">
        <ele>1240.5719173635</ele>
        <time>2015-04-23T11:28:50Z</time>
      </trkpt>
      <trkpt lat="44.70529" lon="3.68922">
        <ele>1240.5719173635</ele>
        <time>2015-04-23T11:28:55Z</time>
      </trkpt>
      <trkpt lat="44.70529" lon="3.68923">
        <ele>1240.5719173635</ele>
        <time>2015-04-23T11:29:00Z</time>
      </trkpt>
      <trkpt lat="44.70529" lon="3.68923">
        <ele>1240.5719173635</ele>
        <time>2015-04-23T11:29:05Z</time>
      </trkpt>
      <trkpt lat="44.70529" lon="3.68923">
        <ele>1240.5719173635</ele>
        <time>2015-04-23T11:29:10Z</time>
      </trkpt>
      <trkpt lat="44.70529" lon="3.68923">
        <ele>1240.5719173635</ele>
        <time>2015-04-23T11:29:15Z</time>
      </trkpt>
      <trkpt lat="44.70529" lon="3.68923">
        <ele>1240.5719173635</ele>
        <time>2015-04-23T11:29:20Z</time>
      </trkpt>
      <trkpt lat="44.70529" lon="3.68923">
        <ele>1240.5719173635</ele>
        <time>2015-04-23T11:29:25Z</time>
      </trkpt>
      <trkpt lat="44.70529" lon="3.68923">
        <ele>1240.5719173635</ele>
        <time>2015-04-23T11:29:30Z</time>
      </trkpt>
      <trkpt lat="44.70529" lon="3.68923">
        <ele>1240.5719173635</ele>
        <time>2015-04-23T11:29:35Z</time>
      </trkpt>
      <trkpt lat="44.70529" lon="3.68923">
        <ele>1240.5719173635</ele>
        <time>2015-04-23T11:29:40Z</time>
      </trkpt>
      <trkpt lat="44.7053" lon="3.68922">
        <ele>1239.9682872204</ele>
        <time>2015-04-23T11:29:45Z</time>
      </trkpt>
      <trkpt lat="44.70533" lon="3.68916">
        <ele>1239.9682872204</ele>
        <time>2015-04-23T11:29:50Z</time>
      </trkpt>
      <trkpt lat="44.70539" lon="3.68912">
        <ele>1239.2737185359</ele>
        <time>2015-04-23T11:29:55Z</time>
      </trkpt>
      <trkpt lat="44.70545" lon="3.68908">
        <ele>1239.2737185359</ele>
        <time>2015-04-23T11:30:00Z</time>
      </trkpt>
      <trkpt lat="44.70551" lon="3.68902">
        <ele>1238.6826912228</ele>
        <time>2015-04-23T11:30:05Z</time>
      </trkpt>
      <trkpt lat="44.70557" lon="3.68896">
        <ele>1238.6826912228</ele>
        <time>2015-04-23T11:30:10Z</time>
      </trkpt>
      <trkpt lat="44.70564" lon="3.68891">
        <ele>1238.1589841819</ele>
        <time>2015-04-23T11:30:15Z</time>
      </trkpt>
      <trkpt lat="44.7057" lon="3.68885">
        <ele>1238.1589841819</ele>
        <time>2015-04-23T11:30:20Z</time>
      </trkpt>
      <trkpt lat="44.70575" lon="3.68879">
        <ele>1237.4959532902</ele>
        <time>2015-04-23T11:30:25Z</time>
      </trkpt>
      <trkpt lat="44.7058" lon="3.68873">
        <ele>1237.4959532902</ele>
        <time>2015-04-23T11:30:30Z</time>
      </trkpt>
      <trkpt lat="44.70586" lon="3.68867">
        <ele>1236.9637157351</ele>
        <time>2015-04-23T11:30:35Z</time>
      </trkpt>
      <trkpt lat="44.70595" lon="3.68856">
        <ele>1236.4086992781</ele>
        <time>2015-04-23T11:30:40Z</time>
      </trkpt>
      <trkpt lat="44.70612" lon="3.68839">
        <ele>1235.7895828593</ele>
        <time>2015-04-23T11:30:45Z</time>
      </trkpt>
      <trkpt lat="44.70627" lon="3.6884">
        <ele>1235.5150308406</ele>
        <time>2015-04-23T11:30:50Z</time>
      </trkpt>
      <trkpt lat="44.70636" lon="3.68842">
        <ele>1235.2998330517</ele>
        <time>2015-04-23T11:30:55Z</time>
      </trkpt>
      <trkpt lat="44.7064" lon="3.68841">
        <ele>1235.2998330517</ele>
        <time>2015-04-23T11:31:00Z</time>
      </trkpt>
      <trkpt lat="44.70647" lon="3.68838">
        <ele>1235.2686871571</ele>
        <time>2015-04-23T11:31:05Z</time>
      </trkpt>
      <trkpt lat="44.70655" lon="3.68832">
        <ele>1235.2686871571</ele>
        <time>2015-04-23T11:31:10Z</time>
      </trkpt>
      <trkpt lat="44.70661" lon="3.68826">
        <ele>1235.1187146182</ele>
        <time>2015-04-23T11:31:15Z</time>
      </trkpt>
      <trkpt lat="44.70666" lon="3.68821">
        <ele>1235.1187146182</ele>
        <time>2015-04-23T11:31:20Z</time>
      </trkpt>
      <trkpt lat="44.7067" lon="3.68814">
        <ele>1234.569642184</ele>
        <time>2015-04-23T11:31:25Z</time>
      </trkpt>
      <trkpt lat="44.70674" lon="3.68808">
        <ele>1234.569642184</ele>
        <time>2015-04-23T11:31:30Z</time>
      </trkpt>
      <trkpt lat="44.70677" lon="3.68803">
        <ele>1234.2708279039</ele>
        <time>2015-04-23T11:31:35Z</time>
      </trkpt>
      <trkpt lat="44.70678" lon="3.68803">
        <ele>1234.2708279039</ele>
        <time>2015-04-23T11:31:40Z</time>
      </trkpt>
      <trkpt lat="44.7068" lon="3.68802">
        <ele>1234.2708279039</ele>
        <time>2015-04-23T11:31:45Z</time>
      </trkpt>
      <trkpt lat="44.70679" lon="3.68793">
        <ele>1234.2708279039</ele>
        <time>2015-04-23T11:31:50Z</time>
      </trkpt>
      <trkpt lat="44.70681" lon="3.68783">
        <ele>1233.7424142672</ele>
        <time>2015-04-23T11:31:55Z</time>
      </trkpt>
      <trkpt lat="44.70685" lon="3.68775">
        <ele>1233.7424142672</ele>
        <time>2015-04-23T11:32:00Z</time>
      </trkpt>
      <trkpt lat="44.70689" lon="3.68768">
        <ele>1233.5348255152</ele>
        <time>2015-04-23T11:32:05Z</time>
      </trkpt>
      <trkpt lat="44.70692" lon="3.68758">
        <ele>1233.5348255152</ele>
        <time>2015-04-23T11:32:10Z</time>
      </trkpt>
      <trkpt lat="44.70693" lon="3.68746">
        <ele>1233.306915482</ele>
        <time>2015-04-23T11:32:15Z</time>
      </trkpt>
      <trkpt lat="44.70694" lon="3.68737">
        <ele>1233.306915482</ele>
        <time>2015-04-23T11:32:20Z</time>
      </trkpt>
      <trkpt lat="44.70693" lon="3.68727">
        <ele>1232.6706177529</ele>
        <time>2015-04-23T11:32:25Z</time>
      </trkpt>
      <trkpt lat="44.70692" lon="3.68716">
        <ele>1232.6706177529</ele>
        <time>2015-04-23T11:32:30Z</time>
      </trkpt>
      <trkpt lat="44.70691" lon="3.68704">
        <ele>1231.9160350626</ele>
        <time>2015-04-23T11:32:35Z</time>
      </trkpt>
      <trkpt lat="44.70691" lon="3.6869">
        <ele>1231.3699498203</ele>
        <time>2015-04-23T11:32:40Z</time>
      </trkpt>
      <trkpt lat="44.70694" lon="3.6868">
        <ele>1231.3699498203</ele>
        <time>2015-04-23T11:32:45Z</time>
      </trkpt>
      <trkpt lat="44.70698" lon="3.68672">
        <ele>1230.9742881403</ele>
        <time>2015-04-23T11:32:50Z</time>
      </trkpt>
      <trkpt lat="44.70702" lon="3.68665">
        <ele>1230.9742881403</ele>
        <time>2015-04-23T11:32:55Z</time>
      </trkpt>
      <trkpt lat="44.70706" lon="3.68658">
        <ele>1230.5307183289</ele>
        <time>2015-04-23T11:33:00Z</time>
      </trkpt>
      <trkpt lat="44.70711" lon="3.6865">
        <ele>1230.5307183289</ele>
        <time>2015-04-23T11:33:05Z</time>
      </trkpt>
      <trkpt lat="44.70716" lon="3.68642">
        <ele>1230.0861977189</ele>
        <time>2015-04-23T11:33:10Z</time>
      </trkpt>
      <trkpt lat="44.70721" lon="3.68635">
        <ele>1230.0861977189</ele>
        <time>2015-04-23T11:33:15Z</time>
      </trkpt>
      <trkpt lat="44.70728" lon="3.68628">
        <ele>1229.9436436784</ele>
        <time>2015-04-23T11:33:20Z</time>
      </trkpt>
      <trkpt lat="44.70734" lon="3.68621">
        <ele>1229.9436436784</ele>
        <time>2015-04-23T11:33:25Z</time>
      </trkpt>
      <trkpt lat="44.7074" lon="3.68614">
        <ele>1229.8640808123</ele>
        <time>2015-04-23T11:33:30Z</time>
      </trkpt>
      <trkpt lat="44.70747" lon="3.68606">
        <ele>1230.0726643691</ele>
        <time>2015-04-23T11:33:35Z</time>
      </trkpt>
      <trkpt lat="44.70754" lon="3.68598">
        <ele>1230.0726643691</ele>
        <time>2015-04-23T11:33:40Z</time>
      </trkpt>
      <trkpt lat="44.70759" lon="3.68591">
        <ele>1229.9701882426</ele>
        <time>2015-04-23T11:33:45Z</time>
      </trkpt>
      <trkpt lat="44.70765" lon="3.68584">
        <ele>1229.9701882426</ele>
        <time>2015-04-23T11:33:50Z</time>
      </trkpt>
      <trkpt lat="44.70771" lon="3.68578">
        <ele>1229.5355584011</ele>
        <time>2015-04-23T11:33:55Z</time>
      </trkpt>
      <trkpt lat="44.70776" lon="3.68572">
        <ele>1229.5355584011</ele>
        <time>2015-04-23T11:34:00Z</time>
      </trkpt>
      <trkpt lat="44.70782" lon="3.68565">
        <ele>1229.0528072935</ele>
        <time>2015-04-23T11:34:05Z</time>
      </trkpt>
      <trkpt lat="44.70787" lon="3.68557">
        <ele>1229.0528072935</ele>
        <time>2015-04-23T11:34:10Z</time>
      </trkpt>
      <trkpt lat="44.70791" lon="3.68548">
        <ele>1228.381737392</ele>
        <time>2015-04-23T11:34:15Z</time>
      </trkpt>
      <trkpt lat="44.70796" lon="3.68541">
        <ele>1228.381737392</ele>
        <time>2015-04-23T11:34:20Z</time>
      </trkpt>
      <trkpt lat="44.70799" lon="3.68534">
        <ele>1227.6379763316</ele>
        <time>2015-04-23T11:34:25Z</time>
      </trkpt>
      <trkpt lat="44.70802" lon="3.68528">
        <ele>1227.6379763316</ele>
        <time>2015-04-23T11:34:30Z</time>
      </trkpt>
      <trkpt lat="44.70802" lon="3.68526">
        <ele>1227.6379763316</ele>
        <time>2015-04-23T11:34:35Z</time>
      </trkpt>
      <trkpt lat="44.70802" lon="3.68525">
        <ele>1227.6379763316</ele>
        <time>2015-04-23T11:34:40Z</time>
      </trkpt>
      <trkpt lat="44.70804" lon="3.68525">
        <ele>1226.8135787273</ele>
        <time>2015-04-23T11:34:45Z</time>
      </trkpt>
      <trkpt lat="44.70804" lon="3.68524">
        <ele>1226.8135787273</ele>
        <time>2015-04-23T11:34:50Z</time>
      </trkpt>
      <trkpt lat="44.70806" lon="3.68523">
        <ele>1226.8135787273</ele>
        <time>2015-04-23T11:34:55Z</time>
      </trkpt>
      <trkpt lat="44.70809" lon="3.68517">
        <ele>1226.8135787273</ele>
        <time>2015-04-23T11:35:00Z</time>
      </trkpt>
      <trkpt lat="44.7081" lon="3.68511">
        <ele>1225.1952652929</ele>
        <time>2015-04-23T11:35:05Z</time>
      </trkpt>
      <trkpt lat="44.70813" lon="3.68505">
        <ele>1225.1952652929</ele>
        <time>2015-04-23T11:35:10Z</time>
      </trkpt>
      <trkpt lat="44.70816" lon="3.685">
        <ele>1223.6087207577</ele>
        <time>2015-04-23T11:35:15Z</time>
      </trkpt>
      <trkpt lat="44.70818" lon="3.68499">
        <ele>1223.6087207577</ele>
        <time>2015-04-23T11:35:20Z</time>
      </trkpt>
      <trkpt lat="44.7082" lon="3.68496">
        <ele>1223.6087207577</ele>
        <time>2015-04-23T11:35:25Z</time>
      </trkpt>
      <trkpt lat="44.70825" lon="3.68491">
        <ele>1222.8188750046</ele>
        <time>2015-04-23T11:35:30Z</time>
      </trkpt>
      <trkpt lat="44.70831" lon="3.6848">
        <ele>1222.0190467481</ele>
        <time>2015-04-23T11:35:35Z</time>
      </trkpt>
      <trkpt lat="44.70837" lon="3.68469">
        <ele>1221.4705969005</ele>
        <time>2015-04-23T11:35:40Z</time>
      </trkpt>
      <trkpt lat="44.70841" lon="3.6846">
        <ele>1221.4705969005</ele>
        <time>2015-04-23T11:35:45Z</time>
      </trkpt>
      <trkpt lat="44.70847" lon="3.6845">
        <ele>1220.9105680686</ele>
        <time>2015-04-23T11:35:50Z</time>
      </trkpt>
      <trkpt lat="44.70852" lon="3.68443">
        <ele>1220.9105680686</ele>
        <time>2015-04-23T11:35:55Z</time>
      </trkpt>
      <trkpt lat="44.70857" lon="3.68437">
        <ele>1220.3835493208</ele>
        <time>2015-04-23T11:36:00Z</time>
      </trkpt>
      <trkpt lat="44.70862" lon="3.68426">
        <ele>1219.9883814621</ele>
        <time>2015-04-23T11:36:05Z</time>
      </trkpt>
      <trkpt lat="44.70868" lon="3.68419">
        <ele>1219.9883814621</ele>
        <time>2015-04-23T11:36:10Z</time>
      </trkpt>
      <trkpt lat="44.70873" lon="3.68414">
        <ele>1219.6289065517</ele>
        <time>2015-04-23T11:36:15Z</time>
      </trkpt>
      <trkpt lat="44.70879" lon="3.68405">
        <ele>1219.6289065517</ele>
        <time>2015-04-23T11:36:20Z</time>
      </trkpt>
      <trkpt lat="44.70881" lon="3.68396">
        <ele>1219.4032528496</ele>
        <time>2015-04-23T11:36:25Z</time>
      </trkpt>
      <trkpt lat="44.70882" lon="3.68386">
        <ele>1219.4032528496</ele>
        <time>2015-04-23T11:36:30Z</time>
      </trkpt>
      <trkpt lat="44.70883" lon="3.68376">
        <ele>1219.4740011387</ele>
        <time>2015-04-23T11:36:35Z</time>
      </trkpt>
      <trkpt lat="44.70886" lon="3.68367">
        <ele>1219.4740011387</ele>
        <time>2015-04-23T11:36:40Z</time>
      </trkpt>
      <trkpt lat="44.70887" lon="3.68359">
        <ele>1219.5441972539</ele>
        <time>2015-04-23T11:36:45Z</time>
      </trkpt>
      <trkpt lat="44.70889" lon="3.68358">
        <ele>1219.5441972539</ele>
        <time>2015-04-23T11:36:50Z</time>
      </trkpt>
      <trkpt lat="44.7089" lon="3.68358">
        <ele>1219.5441972539</ele>
        <time>2015-04-23T11:36:55Z</time>
      </trkpt>
      <trkpt lat="44.7089" lon="3.68358">
        <ele>1219.5441972539</ele>
        <time>2015-04-23T11:37:00Z</time>
      </trkpt>
      <trkpt lat="44.70892" lon="3.68355">
        <ele>1219.5441972539</ele>
        <time>2015-04-23T11:37:05Z</time>
      </trkpt>
      <trkpt lat="44.70892" lon="3.68356">
        <ele>1219.5441972539</ele>
        <time>2015-04-23T11:37:10Z</time>
      </trkpt>
      <trkpt lat="44.7089" lon="3.68359">
        <ele>1219.6125022908</ele>
        <time>2015-04-23T11:37:15Z</time>
      </trkpt>
      <trkpt lat="44.70889" lon="3.68366">
        <ele>1219.6125022908</ele>
        <time>2015-04-23T11:37:20Z</time>
      </trkpt>
      <trkpt lat="44.70888" lon="3.68372">
        <ele>1219.6200295005</ele>
        <time>2015-04-23T11:37:25Z</time>
      </trkpt>
      <trkpt lat="44.70886" lon="3.68379">
        <ele>1219.6200295005</ele>
        <time>2015-04-23T11:37:30Z</time>
      </trkpt>
      <trkpt lat="44.70884" lon="3.68384">
        <ele>1219.627674852</ele>
        <time>2015-04-23T11:37:35Z</time>
      </trkpt>
      <trkpt lat="44.70883" lon="3.68392">
        <ele>1219.627674852</ele>
        <time>2015-04-23T11:37:40Z</time>
      </trkpt>
      <trkpt lat="44.70881" lon="3.68402">
        <ele>1219.4901062825</ele>
        <time>2015-04-23T11:37:45Z</time>
      </trkpt>
      <trkpt lat="44.70879" lon="3.68411">
        <ele>1219.4901062825</ele>
        <time>2015-04-23T11:37:50Z</time>
      </trkpt>
      <trkpt lat="44.70874" lon="3.68418">
        <ele>1219.1307237039</ele>
        <time>2015-04-23T11:37:55Z</time>
      </trkpt>
      <trkpt lat="44.70869" lon="3.68425">
        <ele>1219.1307237039</ele>
        <time>2015-04-23T11:38:00Z</time>
      </trkpt>
      <trkpt lat="44.70863" lon="3.68433">
        <ele>1218.7962269327</ele>
        <time>2015-04-23T11:38:05Z</time>
      </trkpt>
      <trkpt lat="44.70848" lon="3.68448">
        <ele>1218.3116191841</ele>
        <time>2015-04-23T11:38:10Z</time>
      </trkpt>
      <trkpt lat="44.70832" lon="3.68475">
        <ele>1217.8322313578</ele>
        <time>2015-04-23T11:38:15Z</time>
      </trkpt>
      <trkpt lat="44.70817" lon="3.68511">
        <ele>1217.6749093838</ele>
        <time>2015-04-23T11:38:20Z</time>
      </trkpt>
      <trkpt lat="44.70797" lon="3.68535">
        <ele>1217.6567606722</ele>
        <time>2015-04-23T11:38:25Z</time>
      </trkpt>
      <trkpt lat="44.70779" lon="3.68563">
        <ele>1217.809701409</ele>
        <time>2015-04-23T11:38:30Z</time>
      </trkpt>
      <trkpt lat="44.70753" lon="3.68591">
        <ele>1217.932256037</ele>
        <time>2015-04-23T11:38:35Z</time>
      </trkpt>
      <trkpt lat="44.70729" lon="3.68621">
        <ele>1218.0540149522</ele>
        <time>2015-04-23T11:38:40Z</time>
      </trkpt>
      <trkpt lat="44.70708" lon="3.68655">
        <ele>1218.7932708855</ele>
        <time>2015-04-23T11:38:45Z</time>
      </trkpt>
      <trkpt lat="44.70691" lon="3.68696">
        <ele>1219.7988768379</ele>
        <time>2015-04-23T11:38:50Z</time>
      </trkpt>
      <trkpt lat="44.70691" lon="3.68741">
        <ele>1221.2923868768</ele>
        <time>2015-04-23T11:38:55Z</time>
      </trkpt>
      <trkpt lat="44.70683" lon="3.68773">
        <ele>1222.541028021</ele>
        <time>2015-04-23T11:39:00Z</time>
      </trkpt>
      <trkpt lat="44.70674" lon="3.68794">
        <ele>1223.9186044792</ele>
        <time>2015-04-23T11:39:05Z</time>
      </trkpt>
      <trkpt lat="44.70679" lon="3.68798">
        <ele>1223.9186044792</ele>
        <time>2015-04-23T11:39:10Z</time>
      </trkpt>
      <trkpt lat="44.70685" lon="3.68794">
        <ele>1225.4541149714</ele>
        <time>2015-04-23T11:39:15Z</time>
      </trkpt>
      <trkpt lat="44.70691" lon="3.68791">
        <ele>1225.4541149714</ele>
        <time>2015-04-23T11:39:20Z</time>
      </trkpt>
      <trkpt lat="44.70696" lon="3.68788">
        <ele>1226.7993659991</ele>
        <time>2015-04-23T11:39:25Z</time>
      </trkpt>
      <trkpt lat="44.707" lon="3.68785">
        <ele>1226.7993659991</ele>
        <time>2015-04-23T11:39:30Z</time>
      </trkpt>
      <trkpt lat="44.70709" lon="3.68784">
        <ele>1228.4682002181</ele>
        <time>2015-04-23T11:39:35Z</time>
      </trkpt>
      <trkpt lat="44.70716" lon="3.68782">
        <ele>1228.4682002181</ele>
        <time>2015-04-23T11:39:40Z</time>
      </trkpt>
      <trkpt lat="44.70722" lon="3.68778">
        <ele>1229.6677154813</ele>
        <time>2015-04-23T11:39:45Z</time>
      </trkpt>
      <trkpt lat="44.7073" lon="3.68773">
        <ele>1229.6677154813</ele>
        <time>2015-04-23T11:39:50Z</time>
      </trkpt>
      <trkpt lat="44.70734" lon="3.68766">
        <ele>1230.6734451646</ele>
        <time>2015-04-23T11:39:55Z</time>
      </trkpt>
      <trkpt lat="44.70739" lon="3.68762">
        <ele>1230.6734451646</ele>
        <time>2015-04-23T11:40:00Z</time>
      </trkpt>
      <trkpt lat="44.70744" lon="3.68754">
        <ele>1230.9631240755</ele>
        <time>2015-04-23T11:40:05Z</time>
      </trkpt>
      <trkpt lat="44.7075" lon="3.68749">
        <ele>1230.9631240755</ele>
        <time>2015-04-23T11:40:10Z</time>
      </trkpt>
      <trkpt lat="44.70756" lon="3.68745">
        <ele>1231.8131183942</ele>
        <time>2015-04-23T11:40:15Z</time>
      </trkpt>
      <trkpt lat="44.70763" lon="3.68742">
        <ele>1231.8131183942</ele>
        <time>2015-04-23T11:40:20Z</time>
      </trkpt>
      <trkpt lat="44.70767" lon="3.6874">
        <ele>1232.0411384916</ele>
        <time>2015-04-23T11:40:25Z</time>
      </trkpt>
      <trkpt lat="44.70772" lon="3.68738">
        <ele>1232.0411384916</ele>
        <time>2015-04-23T11:40:30Z</time>
      </trkpt>
      <trkpt lat="44.70783" lon="3.68736">
        <ele>1231.7785317579</ele>
        <time>2015-04-23T11:40:35Z</time>
      </trkpt>
      <trkpt lat="44.70807" lon="3.6874">
        <ele>1230.8458304669</ele>
        <time>2015-04-23T11:40:40Z</time>
      </trkpt>
      <trkpt lat="44.70838" lon="3.68742">
        <ele>1230.2460135287</ele>
        <time>2015-04-23T11:40:45Z</time>
      </trkpt>
      <trkpt lat="44.70862" lon="3.68749">
        <ele>1229.8266868146</ele>
        <time>2015-04-23T11:40:50Z</time>
      </trkpt>
      <trkpt lat="44.70894" lon="3.68751">
        <ele>1229.8064855269</ele>
        <time>2015-04-23T11:40:55Z</time>
      </trkpt>
      <trkpt lat="44.70899" lon="3.68754">
        <ele>1229.8064855269</ele>
        <time>2015-04-23T11:41:00Z</time>
      </trkpt>
      <trkpt lat="44.70909" lon="3.68752">
        <ele>1229.176383879</ele>
        <time>2015-04-23T11:41:05Z</time>
      </trkpt>
      <trkpt lat="44.70915" lon="3.6875">
        <ele>1229.176383879</ele>
        <time>2015-04-23T11:41:10Z</time>
      </trkpt>
      <trkpt lat="44.70915" lon="3.68751">
        <ele>1229.176383879</ele>
        <time>2015-04-23T11:41:15Z</time>
      </trkpt>
      <trkpt lat="44.70916" lon="3.6875">
        <ele>1229.176383879</ele>
        <time>2015-04-23T11:41:20Z</time>
      </trkpt>
      <trkpt lat="44.70922" lon="3.6875">
        <ele>1228.819035656</ele>
        <time>2015-04-23T11:41:25Z</time>
      </trkpt>
      <trkpt lat="44.70923" lon="3.6875">
        <ele>1228.819035656</ele>
        <time>2015-04-23T11:41:30Z</time>
      </trkpt>
      <trkpt lat="44.70924" lon="3.68751">
        <ele>1228.819035656</ele>
        <time>2015-04-23T11:41:35Z</time>
      </trkpt>
      <trkpt lat="44.70924" lon="3.68751">
        <ele>1228.819035656</ele>
        <time>2015-04-23T11:41:40Z</time>
      </trkpt>
      <trkpt lat="44.70924" lon="3.68751">
        <ele>1228.819035656</ele>
        <time>2015-04-23T11:41:45Z</time>
      </trkpt>
      <trkpt lat="44.70929" lon="3.68755">
        <ele>1228.819035656</ele>
        <time>2015-04-23T11:41:50Z</time>
      </trkpt>
      <trkpt lat="44.70931" lon="3.68757">
        <ele>1228.153649695</ele>
        <time>2015-04-23T11:41:55Z</time>
      </trkpt>
      <trkpt lat="44.70932" lon="3.68765">
        <ele>1228.153649695</ele>
        <time>2015-04-23T11:42:00Z</time>
      </trkpt>
      <trkpt lat="44.70934" lon="3.68769">
        <ele>1228.153649695</ele>
        <time>2015-04-23T11:42:05Z</time>
      </trkpt>
      <trkpt lat="44.70936" lon="3.68772">
        <ele>1227.0465040124</ele>
        <time>2015-04-23T11:42:10Z</time>
      </trkpt>
      <trkpt lat="44.70938" lon="3.68776">
        <ele>1227.0465040124</ele>
        <time>2015-04-23T11:42:15Z</time>
      </trkpt>
      <trkpt lat="44.70937" lon="3.6878">
        <ele>1227.0465040124</ele>
        <time>2015-04-23T11:42:20Z</time>
      </trkpt>
      <trkpt lat="44.70937" lon="3.68781">
        <ele>1227.0465040124</ele>
        <time>2015-04-23T11:42:25Z</time>
      </trkpt>
      <trkpt lat="44.70937" lon="3.68782">
        <ele>1227.0465040124</ele>
        <time>2015-04-23T11:42:30Z</time>
      </trkpt>
      <trkpt lat="44.70937" lon="3.68782">
        <ele>1227.0465040124</ele>
        <time>2015-04-23T11:42:35Z</time>
      </trkpt>
      <trkpt lat="44.70937" lon="3.68784">
        <ele>1225.821703141</ele>
        <time>2015-04-23T11:42:40Z</time>
      </trkpt>
      <trkpt lat="44.70938" lon="3.6879">
        <ele>1225.821703141</ele>
        <time>2015-04-23T11:42:45Z</time>
      </trkpt>
      <trkpt lat="44.70938" lon="3.68794">
        <ele>1225.821703141</ele>
        <time>2015-04-23T11:42:50Z</time>
      </trkpt>
      <trkpt lat="44.70937" lon="3.68796">
        <ele>1225.821703141</ele>
        <time>2015-04-23T11:42:55Z</time>
      </trkpt>
      <trkpt lat="44.70937" lon="3.68796">
        <ele>1225.821703141</ele>
        <time>2015-04-23T11:43:00Z</time>
      </trkpt>
      <trkpt lat="44.70939" lon="3.68795">
        <ele>1224.722238058</ele>
        <time>2015-04-23T11:43:05Z</time>
      </trkpt>
      <trkpt lat="44.70945" lon="3.68797">
        <ele>1224.722238058</ele>
        <time>2015-04-23T11:43:10Z</time>
      </trkpt>
      <trkpt lat="44.7095" lon="3.68796">
        <ele>1224.0449531169</ele>
        <time>2015-04-23T11:43:15Z</time>
      </trkpt>
      <trkpt lat="44.70954" lon="3.68796">
        <ele>1224.0449531169</ele>
        <time>2015-04-23T11:43:20Z</time>
      </trkpt>
      <trkpt lat="44.70958" lon="3.68795">
        <ele>1224.0449531169</ele>
        <time>2015-04-23T11:43:25Z</time>
      </trkpt>
      <trkpt lat="44.70963" lon="3.68792">
        <ele>1222.6225794752</ele>
        <time>2015-04-23T11:43:30Z</time>
      </trkpt>
      <trkpt lat="44.70964" lon="3.68791">
        <ele>1222.6225794752</ele>
        <time>2015-04-23T11:43:35Z</time>
      </trkpt>
      <trkpt lat="44.70968" lon="3.68789">
        <ele>1222.6225794752</ele>
        <time>2015-04-23T11:43:40Z</time>
      </trkpt>
      <trkpt lat="44.70977" lon="3.68788">
        <ele>1221.1049982663</ele>
        <time>2015-04-23T11:43:45Z</time>
      </trkpt>
      <trkpt lat="44.70981" lon="3.68786">
        <ele>1221.1049982663</ele>
        <time>2015-04-23T11:43:50Z</time>
      </trkpt>
      <trkpt lat="44.70983" lon="3.68786">
        <ele>1221.1049982663</ele>
        <time>2015-04-23T11:43:55Z</time>
      </trkpt>
      <trkpt lat="44.70983" lon="3.68785">
        <ele>1221.1049982663</ele>
        <time>2015-04-23T11:44:00Z</time>
      </trkpt>
      <trkpt lat="44.70986" lon="3.68782">
        <ele>1219.3596196317</ele>
        <time>2015-04-23T11:44:05Z</time>
      </trkpt>
      <trkpt lat="44.70991" lon="3.68777">
        <ele>1219.3596196317</ele>
        <time>2015-04-23T11:44:10Z</time>
      </trkpt>
      <trkpt lat="44.71" lon="3.68771">
        <ele>1217.1489010514</ele>
        <time>2015-04-23T11:44:15Z</time>
      </trkpt>
      <trkpt lat="44.71006" lon="3.68764">
        <ele>1217.1489010514</ele>
        <time>2015-04-23T11:44:20Z</time>
      </trkpt>
      <trkpt lat="44.71011" lon="3.68756">
        <ele>1214.1098870214</ele>
        <time>2015-04-23T11:44:25Z</time>
      </trkpt>
      <trkpt lat="44.71015" lon="3.6875">
        <ele>1214.1098870214</ele>
        <time>2015-04-23T11:44:30Z</time>
      </trkpt>
      <trkpt lat="44.7102" lon="3.68743">
        <ele>1211.1623028676</ele>
        <time>2015-04-23T11:44:35Z</time>
      </trkpt>
      <trkpt lat="44.71024" lon="3.68736">
        <ele>1211.1623028676</ele>
        <time>2015-04-23T11:44:40Z</time>
      </trkpt>
      <trkpt lat="44.71025" lon="3.68735">
        <ele>1211.1623028676</ele>
        <time>2015-04-23T11:44:45Z</time>
      </trkpt>
      <trkpt lat="44.71025" lon="3.68734">
        <ele>1211.1623028676</ele>
        <time>2015-04-23T11:44:50Z</time>
      </trkpt>
      <trkpt lat="44.71025" lon="3.68733">
        <ele>1208.2500653463</ele>
        <time>2015-04-23T11:44:55Z</time>
      </trkpt>
      <trkpt lat="44.71025" lon="3.68732">
        <ele>1208.2500653463</ele>
        <time>2015-04-23T11:45:00Z</time>
      </trkpt>
      <trkpt lat="44.71027" lon="3.6873">
        <ele>1208.2500653463</ele>
        <time>2015-04-23T11:45:05Z</time>
      </trkpt>
      <trkpt lat="44.71028" lon="3.68724">
        <ele>1208.2500653463</ele>
        <time>2015-04-23T11:45:10Z</time>
      </trkpt>
      <trkpt lat="44.71025" lon="3.68715">
        <ele>1206.2865517957</ele>
        <time>2015-04-23T11:45:15Z</time>
      </trkpt>
      <trkpt lat="44.71024" lon="3.68705">
        <ele>1206.2865517957</ele>
        <time>2015-04-23T11:45:20Z</time>
      </trkpt>
      <trkpt lat="44.71022" lon="3.68696">
        <ele>1204.4291628079</ele>
        <time>2015-04-23T11:45:25Z</time>
      </trkpt>
      <trkpt lat="44.71019" lon="3.68687">
        <ele>1204.4291628079</ele>
        <time>2015-04-23T11:45:30Z</time>
      </trkpt>
      <trkpt lat="44.71018" lon="3.68677">
        <ele>1203.5828721567</ele>
        <time>2015-04-23T11:45:35Z</time>
      </trkpt>
      <trkpt lat="44.71014" lon="3.68663">
        <ele>1202.7674074775</ele>
        <time>2015-04-23T11:45:40Z</time>
      </trkpt>
      <trkpt lat="44.71009" lon="3.68651">
        <ele>1202.3136473826</ele>
        <time>2015-04-23T11:45:45Z</time>
      </trkpt>
      <trkpt lat="44.71007" lon="3.68643">
        <ele>1202.3136473826</ele>
        <time>2015-04-23T11:45:50Z</time>
      </trkpt>
      <trkpt lat="44.71004" lon="3.6863">
        <ele>1201.9649918233</ele>
        <time>2015-04-23T11:45:55Z</time>
      </trkpt>
      <trkpt lat="44.71002" lon="3.68622">
        <ele>1201.9649918233</ele>
        <time>2015-04-23T11:46:00Z</time>
      </trkpt>
      <trkpt lat="44.70996" lon="3.68612">
        <ele>1201.5841559625</ele>
        <time>2015-04-23T11:46:05Z</time>
      </trkpt>
      <trkpt lat="44.70991" lon="3.68603">
        <ele>1201.5841559625</ele>
        <time>2015-04-23T11:46:10Z</time>
      </trkpt>
      <trkpt lat="44.70988" lon="3.68594">
        <ele>1201.7068324998</ele>
        <time>2015-04-23T11:46:15Z</time>
      </trkpt>
      <trkpt lat="44.70986" lon="3.68588">
        <ele>1201.7068324998</ele>
        <time>2015-04-23T11:46:20Z</time>
      </trkpt>
      <trkpt lat="44.70983" lon="3.68581">
        <ele>1202.2369953903</ele>
        <time>2015-04-23T11:46:25Z</time>
      </trkpt>
      <trkpt lat="44.7098" lon="3.68571">
        <ele>1202.2369953903</ele>
        <time>2015-04-23T11:46:30Z</time>
      </trkpt>
      <trkpt lat="44.70979" lon="3.68562">
        <ele>1202.580052651</ele>
        <time>2015-04-23T11:46:35Z</time>
      </trkpt>
      <trkpt lat="44.70979" lon="3.68559">
        <ele>1202.580052651</ele>
        <time>2015-04-23T11:46:40Z</time>
      </trkpt>
      <trkpt lat="44.70978" lon="3.6856">
        <ele>1202.580052651</ele>
        <time>2015-04-23T11:46:45Z</time>
      </trkpt>
      <trkpt lat="44.70977" lon="3.6856">
        <ele>1202.580052651</ele>
        <time>2015-04-23T11:46:50Z</time>
      </trkpt>
      <trkpt lat="44.70977" lon="3.6856">
        <ele>1202.580052651</ele>
        <time>2015-04-23T11:46:55Z</time>
      </trkpt>
      <trkpt lat="44.70977" lon="3.6856">
        <ele>1202.580052651</ele>
        <time>2015-04-23T11:47:00Z</time>
      </trkpt>
      <trkpt lat="44.70977" lon="3.6856">
        <ele>1202.580052651</ele>
        <time>2015-04-23T11:47:05Z</time>
      </trkpt>
      <trkpt lat="44.70977" lon="3.6856">
        <ele>1202.580052651</ele>
        <time>2015-04-23T11:47:10Z</time>
      </trkpt>
      <trkpt lat="44.70977" lon="3.6856">
        <ele>1202.580052651</ele>
        <time>2015-04-23T11:47:15Z</time>
      </trkpt>
      <trkpt lat="44.70977" lon="3.6856">
        <ele>1202.580052651</ele>
        <time>2015-04-23T11:47:20Z</time>
      </trkpt>
      <trkpt lat="44.70977" lon="3.6856">
        <ele>1202.580052651</ele>
        <time>2015-04-23T11:47:25Z</time>
      </trkpt>
      <trkpt lat="44.70977" lon="3.6856">
        <ele>1202.580052651</ele>
        <time>2015-04-23T11:47:30Z</time>
      </trkpt>
      <trkpt lat="44.70977" lon="3.6856">
        <ele>1202.580052651</ele>
        <time>2015-04-23T11:47:35Z</time>
      </trkpt>
      <trkpt lat="44.70977" lon="3.6856">
        <ele>1202.580052651</ele>
        <time>2015-04-23T11:47:40Z</time>
      </trkpt>
      <trkpt lat="44.70977" lon="3.6856">
        <ele>1202.580052651</ele>
        <time>2015-04-23T11:47:45Z</time>
      </trkpt>
      <trkpt lat="44.70977" lon="3.68561">
        <ele>1202.580052651</ele>
        <time>2015-04-23T11:47:50Z</time>
      </trkpt>
      <trkpt lat="44.70977" lon="3.68559">
        <ele>1202.580052651</ele>
        <time>2015-04-23T11:47:55Z</time>
      </trkpt>
      <trkpt lat="44.70976" lon="3.68558">
        <ele>1202.580052651</ele>
        <time>2015-04-23T11:48:00Z</time>
      </trkpt>
      <trkpt lat="44.70977" lon="3.68556">
        <ele>1202.580052651</ele>
        <time>2015-04-23T11:48:05Z</time>
      </trkpt>
      <trkpt lat="44.70978" lon="3.68556">
        <ele>1202.580052651</ele>
        <time>2015-04-23T11:48:10Z</time>
      </trkpt>
      <trkpt lat="44.70978" lon="3.68555">
        <ele>1202.580052651</ele>
        <time>2015-04-23T11:48:15Z</time>
      </trkpt>
      <trkpt lat="44.70978" lon="3.68555">
        <ele>1202.580052651</ele>
        <time>2015-04-23T11:48:20Z</time>
      </trkpt>
      <trkpt lat="44.70978" lon="3.68556">
        <ele>1202.580052651</ele>
        <time>2015-04-23T11:48:25Z</time>
      </trkpt>
      <trkpt lat="44.70978" lon="3.68557">
        <ele>1203.4104855813</ele>
        <time>2015-04-23T11:48:30Z</time>
      </trkpt>
      <trkpt lat="44.7098" lon="3.68563">
        <ele>1203.4104855813</ele>
        <time>2015-04-23T11:48:35Z</time>
      </trkpt>
      <trkpt lat="44.7098" lon="3.6857">
        <ele>1203.6801097117</ele>
        <time>2015-04-23T11:48:40Z</time>
      </trkpt>
      <trkpt lat="44.70983" lon="3.68578">
        <ele>1203.6801097117</ele>
        <time>2015-04-23T11:48:45Z</time>
      </trkpt>
      <trkpt lat="44.70987" lon="3.68583">
        <ele>1203.8315525706</ele>
        <time>2015-04-23T11:48:50Z</time>
      </trkpt>
      <trkpt lat="44.70991" lon="3.68587">
        <ele>1203.8315525706</ele>
        <time>2015-04-23T11:48:55Z</time>
      </trkpt>
      <trkpt lat="44.70994" lon="3.68592">
        <ele>1203.5546627394</ele>
        <time>2015-04-23T11:49:00Z</time>
      </trkpt>
      <trkpt lat="44.70998" lon="3.68597">
        <ele>1203.5546627394</ele>
        <time>2015-04-23T11:49:05Z</time>
      </trkpt>
      <trkpt lat="44.71003" lon="3.68605">
        <ele>1203.0532202877</ele>
        <time>2015-04-23T11:49:10Z</time>
      </trkpt>
      <trkpt lat="44.71003" lon="3.68613">
        <ele>1203.0532202877</ele>
        <time>2015-04-23T11:49:15Z</time>
      </trkpt>
      <trkpt lat="44.71003" lon="3.68617">
        <ele>1203.0532202877</ele>
        <time>2015-04-23T11:49:20Z</time>
      </trkpt>
      <trkpt lat="44.71003" lon="3.6862">
        <ele>1203.7415862096</ele>
        <time>2015-04-23T11:49:25Z</time>
      </trkpt>
      <trkpt lat="44.71005" lon="3.68628">
        <ele>1203.7415862096</ele>
        <time>2015-04-23T11:49:30Z</time>
      </trkpt>
      <trkpt lat="44.71006" lon="3.68638">
        <ele>1204.0878775668</ele>
        <time>2015-04-23T11:49:35Z</time>
      </trkpt>
      <trkpt lat="44.71009" lon="3.68648">
        <ele>1204.0878775668</ele>
        <time>2015-04-23T11:49:40Z</time>
      </trkpt>
      <trkpt lat="44.71012" lon="3.68656">
        <ele>1205.166815489</ele>
        <time>2015-04-23T11:49:45Z</time>
      </trkpt>
      <trkpt lat="44.71014" lon="3.68662">
        <ele>1205.166815489</ele>
        <time>2015-04-23T11:49:50Z</time>
      </trkpt>
      <trkpt lat="44.71015" lon="3.68669">
        <ele>1206.5886507446</ele>
        <time>2015-04-23T11:49:55Z</time>
      </trkpt>
      <trkpt lat="44.71013" lon="3.68677">
        <ele>1206.5886507446</ele>
        <time>2015-04-23T11:50:00Z</time>
      </trkpt>
      <trkpt lat="44.71015" lon="3.68685">
        <ele>1207.9048491142</ele>
        <time>2015-04-23T11:50:05Z</time>
      </trkpt>
      <trkpt lat="44.71019" lon="3.68694">
        <ele>1207.9048491142</ele>
        <time>2015-04-23T11:50:10Z</time>
      </trkpt>
      <trkpt lat="44.7102" lon="3.68702">
        <ele>1208.238990189</ele>
        <time>2015-04-23T11:50:15Z</time>
      </trkpt>
      <trkpt lat="44.7102" lon="3.68709">
        <ele>1208.238990189</ele>
        <time>2015-04-23T11:50:20Z</time>
      </trkpt>
      <trkpt lat="44.71022" lon="3.68715">
        <ele>1208.4391026341</ele>
        <time>2015-04-23T11:50:25Z</time>
      </trkpt>
      <trkpt lat="44.71026" lon="3.68722">
        <ele>1208.4391026341</ele>
        <time>2015-04-23T11:50:30Z</time>
      </trkpt>
      <trkpt lat="44.7103" lon="3.68729">
        <ele>1208.3834363951</ele>
        <time>2015-04-23T11:50:35Z</time>
      </trkpt>
      <trkpt lat="44.71032" lon="3.68737">
        <ele>1208.3834363951</ele>
        <time>2015-04-23T11:50:40Z</time>
      </trkpt>
      <trkpt lat="44.71033" lon="3.6875">
        <ele>1208.4931591511</ele>
        <time>2015-04-23T11:50:45Z</time>
      </trkpt>
      <trkpt lat="44.7103" lon="3.68761">
        <ele>1208.4931591511</ele>
        <time>2015-04-23T11:50:50Z</time>
      </trkpt>
      <trkpt lat="44.71025" lon="3.68768">
        <ele>1208.8266273179</ele>
        <time>2015-04-23T11:50:55Z</time>
      </trkpt>
      <trkpt lat="44.7102" lon="3.68771">
        <ele>1208.8266273179</ele>
        <time>2015-04-23T11:51:00Z</time>
      </trkpt>
      <trkpt lat="44.71022" lon="3.68775">
        <ele>1208.8266273179</ele>
        <time>2015-04-23T11:51:05Z</time>
      </trkpt>
      <trkpt lat="44.71024" lon="3.68776">
        <ele>1209.4085097052</ele>
        <time>2015-04-23T11:51:10Z</time>
      </trkpt>
      <trkpt lat="44.71024" lon="3.68779">
        <ele>1209.4085097052</ele>
        <time>2015-04-23T11:51:15Z</time>
      </trkpt>
      <trkpt lat="44.71022" lon="3.68782">
        <ele>1209.4085097052</ele>
        <time>2015-04-23T11:51:20Z</time>
      </trkpt>
      <trkpt lat="44.71018" lon="3.68788">
        <ele>1210.0304399061</ele>
        <time>2015-04-23T11:51:25Z</time>
      </trkpt>
      <trkpt lat="44.71016" lon="3.68791">
        <ele>1210.0304399061</ele>
        <time>2015-04-23T11:51:30Z</time>
      </trkpt>
      <trkpt lat="44.71015" lon="3.68792">
        <ele>1210.0304399061</ele>
        <time>2015-04-23T11:51:35Z</time>
      </trkpt>
      <trkpt lat="44.71014" lon="3.68792">
        <ele>1210.0304399061</ele>
        <time>2015-04-23T11:51:40Z</time>
      </trkpt>
      <trkpt lat="44.71014" lon="3.68792">
        <ele>1210.0304399061</ele>
        <time>2015-04-23T11:51:45Z</time>
      </trkpt>
      <trkpt lat="44.71012" lon="3.68792">
        <ele>1210.0304399061</ele>
        <time>2015-04-23T11:51:50Z</time>
      </trkpt>
      <trkpt lat="44.71008" lon="3.68794">
        <ele>1210.8163456136</ele>
        <time>2015-04-23T11:51:55Z</time>
      </trkpt>
      <trkpt lat="44.71004" lon="3.68796">
        <ele>1210.8163456136</ele>
        <time>2015-04-23T11:52:00Z</time>
      </trkpt>
      <trkpt lat="44.70999" lon="3.68796">
        <ele>1210.8163456136</ele>
        <time>2015-04-23T11:52:05Z</time>
      </trkpt>
      <trkpt lat="44.70995" lon="3.68798">
        <ele>1211.3186166028</ele>
        <time>2015-04-23T11:52:10Z</time>
      </trkpt>
      <trkpt lat="44.70993" lon="3.68799">
        <ele>1211.3186166028</ele>
        <time>2015-04-23T11:52:15Z</time>
      </trkpt>
      <trkpt lat="44.70991" lon="3.68799">
        <ele>1211.3186166028</ele>
        <time>2015-04-23T11:52:20Z</time>
      </trkpt>
      <trkpt lat="44.70989" lon="3.68801">
        <ele>1211.3186166028</ele>
        <time>2015-04-23T11:52:25Z</time>
      </trkpt>
      <trkpt lat="44.70979" lon="3.68807">
        <ele>1211.6133601831</ele>
        <time>2015-04-23T11:52:30Z</time>
      </trkpt>
      <trkpt lat="44.70973" lon="3.68811">
        <ele>1211.6133601831</ele>
        <time>2015-04-23T11:52:35Z</time>
      </trkpt>
      <trkpt lat="44.70965" lon="3.68813">
        <ele>1211.3249946048</ele>
        <time>2015-04-23T11:52:40Z</time>
      </trkpt>
      <trkpt lat="44.70956" lon="3.68819">
        <ele>1210.5827937806</ele>
        <time>2015-04-23T11:52:45Z</time>
      </trkpt>
      <trkpt lat="44.7095" lon="3.68825">
        <ele>1210.5827937806</ele>
        <time>2015-04-23T11:52:50Z</time>
      </trkpt>
      <trkpt lat="44.70945" lon="3.68835">
        <ele>1210.5310579853</ele>
        <time>2015-04-23T11:52:55Z</time>
      </trkpt>
      <trkpt lat="44.70944" lon="3.68841">
        <ele>1210.5310579853</ele>
        <time>2015-04-23T11:53:00Z</time>
      </trkpt>
      <trkpt lat="44.70944" lon="3.68849">
        <ele>1211.0464365431</ele>
        <time>2015-04-23T11:53:05Z</time>
      </trkpt>
      <trkpt lat="44.70945" lon="3.68857">
        <ele>1211.0464365431</ele>
        <time>2015-04-23T11:53:10Z</time>
      </trkpt>
      <trkpt lat="44.70942" lon="3.68865">
        <ele>1212.2725050811</ele>
        <time>2015-04-23T11:53:15Z</time>
      </trkpt>
      <trkpt lat="44.70938" lon="3.68871">
        <ele>1212.2725050811</ele>
        <time>2015-04-23T11:53:20Z</time>
      </trkpt>
      <trkpt lat="44.70939" lon="3.68871">
        <ele>1212.2725050811</ele>
        <time>2015-04-23T11:53:25Z</time>
      </trkpt>
      <trkpt lat="44.70939" lon="3.68869">
        <ele>1212.2725050811</ele>
        <time>2015-04-23T11:53:30Z</time>
      </trkpt>
      <trkpt lat="44.70938" lon="3.68867">
        <ele>1213.3603997091</ele>
        <time>2015-04-23T11:53:35Z</time>
      </trkpt>
      <trkpt lat="44.70938" lon="3.68867">
        <ele>1213.3603997091</ele>
        <time>2015-04-23T11:53:40Z</time>
      </trkpt>
      <trkpt lat="44.70938" lon="3.68867">
        <ele>1213.3603997091</ele>
        <time>2015-04-23T11:53:45Z</time>
      </trkpt>
      <trkpt lat="44.70938" lon="3.68867">
        <ele>1213.3603997091</ele>
        <time>2015-04-23T11:53:50Z</time>
      </trkpt>
      <trkpt lat="44.7094" lon="3.68865">
        <ele>1213.3603997091</ele>
        <time>2015-04-23T11:53:55Z</time>
      </trkpt>
      <trkpt lat="44.70941" lon="3.68862">
        <ele>1213.3603997091</ele>
        <time>2015-04-23T11:54:00Z</time>
      </trkpt>
      <trkpt lat="44.70941" lon="3.68861">
        <ele>1213.3603997091</ele>
        <time>2015-04-23T11:54:05Z</time>
      </trkpt>
      <trkpt lat="44.70941" lon="3.6886">
        <ele>1213.3603997091</ele>
        <time>2015-04-23T11:54:10Z</time>
      </trkpt>
      <trkpt lat="44.70941" lon="3.6886">
        <ele>1213.3603997091</ele>
        <time>2015-04-23T11:54:15Z</time>
      </trkpt>
      <trkpt lat="44.70941" lon="3.6886">
        <ele>1213.3603997091</ele>
        <time>2015-04-23T11:54:20Z</time>
      </trkpt>
      <trkpt lat="44.70941" lon="3.6886">
        <ele>1213.3603997091</ele>
        <time>2015-04-23T11:54:25Z</time>
      </trkpt>
      <trkpt lat="44.70941" lon="3.68854">
        <ele>1214.388729496</ele>
        <time>2015-04-23T11:54:30Z</time>
      </trkpt>
      <trkpt lat="44.70941" lon="3.68847">
        <ele>1214.388729496</ele>
        <time>2015-04-23T11:54:35Z</time>
      </trkpt>
      <trkpt lat="44.7094" lon="3.68834">
        <ele>1214.7244169346</ele>
        <time>2015-04-23T11:54:40Z</time>
      </trkpt>
      <trkpt lat="44.70941" lon="3.68817">
        <ele>1214.7916798331</ele>
        <time>2015-04-23T11:54:45Z</time>
      </trkpt>
      <trkpt lat="44.7094" lon="3.688">
        <ele>1214.8835174658</ele>
        <time>2015-04-23T11:54:50Z</time>
      </trkpt>
      <trkpt lat="44.7094" lon="3.68793">
        <ele>1214.8835174658</ele>
        <time>2015-04-23T11:54:55Z</time>
      </trkpt>
      <trkpt lat="44.70937" lon="3.68787">
        <ele>1216.0351949564</ele>
        <time>2015-04-23T11:55:00Z</time>
      </trkpt>
      <trkpt lat="44.7093" lon="3.68781">
        <ele>1216.0351949564</ele>
        <time>2015-04-23T11:55:05Z</time>
      </trkpt>
      <trkpt lat="44.7091" lon="3.6877">
        <ele>1216.6810770422</ele>
        <time>2015-04-23T11:55:10Z</time>
      </trkpt>
      <trkpt lat="44.70862" lon="3.68748">
        <ele>1217.6922166402</ele>
        <time>2015-04-23T11:55:15Z</time>
      </trkpt>
      <trkpt lat="44.7082" lon="3.68738">
        <ele>1219.0388816658</ele>
        <time>2015-04-23T11:55:20Z</time>
      </trkpt>
      <trkpt lat="44.70788" lon="3.68729">
        <ele>1220.4620804343</ele>
        <time>2015-04-23T11:55:25Z</time>
      </trkpt>
      <trkpt lat="44.70767" lon="3.68743">
        <ele>1222.0531675876</ele>
        <time>2015-04-23T11:55:30Z</time>
      </trkpt>
      <trkpt lat="44.70744" lon="3.68758">
        <ele>1223.5937678747</ele>
        <time>2015-04-23T11:55:35Z</time>
      </trkpt>
      <trkpt lat="44.7072" lon="3.68776">
        <ele>1225.7320373439</ele>
        <time>2015-04-23T11:55:40Z</time>
      </trkpt>
      <trkpt lat="44.70694" lon="3.68787">
        <ele>1227.8419963738</ele>
        <time>2015-04-23T11:55:45Z</time>
      </trkpt>
      <trkpt lat="44.70683" lon="3.68792">
        <ele>1229.4735345858</ele>
        <time>2015-04-23T11:55:50Z</time>
      </trkpt>
      <trkpt lat="44.70678" lon="3.68795">
        <ele>1229.4735345858</ele>
        <time>2015-04-23T11:55:55Z</time>
      </trkpt>
      <trkpt lat="44.70673" lon="3.68793">
        <ele>1230.5857485954</ele>
        <time>2015-04-23T11:56:00Z</time>
      </trkpt>
      <trkpt lat="44.70674" lon="3.68786">
        <ele>1230.5857485954</ele>
        <time>2015-04-23T11:56:05Z</time>
      </trkpt>
      <trkpt lat="44.70679" lon="3.68777">
        <ele>1231.4593554306</ele>
        <time>2015-04-23T11:56:10Z</time>
      </trkpt>
      <trkpt lat="44.70681" lon="3.68773">
        <ele>1231.4593554306</ele>
        <time>2015-04-23T11:56:15Z</time>
      </trkpt>
      <trkpt lat="44.70682" lon="3.68775">
        <ele>1231.4593554306</ele>
        <time>2015-04-23T11:56:20Z</time>
      </trkpt>
      <trkpt lat="44.70681" lon="3.68774">
        <ele>1231.4593554306</ele>
        <time>2015-04-23T11:56:25Z</time>
      </trkpt>
      <trkpt lat="44.70677" lon="3.68782">
        <ele>1232.2255344594</ele>
        <time>2015-04-23T11:56:30Z</time>
      </trkpt>
      <trkpt lat="44.70672" lon="3.68789">
        <ele>1232.2255344594</ele>
        <time>2015-04-23T11:56:35Z</time>
      </trkpt>
      <trkpt lat="44.7067" lon="3.68797">
        <ele>1233.0350641108</ele>
        <time>2015-04-23T11:56:40Z</time>
      </trkpt>
      <trkpt lat="44.70667" lon="3.68808">
        <ele>1233.0350641108</ele>
        <time>2015-04-23T11:56:45Z</time>
      </trkpt>
      <trkpt lat="44.70663" lon="3.68817">
        <ele>1233.8691106841</ele>
        <time>2015-04-23T11:56:50Z</time>
      </trkpt>
      <trkpt lat="44.70659" lon="3.68823">
        <ele>1233.8691106841</ele>
        <time>2015-04-23T11:56:55Z</time>
      </trkpt>
      <trkpt lat="44.70653" lon="3.68829">
        <ele>1234.3355689993</ele>
        <time>2015-04-23T11:57:00Z</time>
      </trkpt>
      <trkpt lat="44.70646" lon="3.68835">
        <ele>1234.3355689993</ele>
        <time>2015-04-23T11:57:05Z</time>
      </trkpt>
      <trkpt lat="44.7064" lon="3.68839">
        <ele>1234.9801668926</ele>
        <time>2015-04-23T11:57:10Z</time>
      </trkpt>
      <trkpt lat="44.70635" lon="3.68842">
        <ele>1234.9801668926</ele>
        <time>2015-04-23T11:57:15Z</time>
      </trkpt>
      <trkpt lat="44.70629" lon="3.6884">
        <ele>1235.5587576262</ele>
        <time>2015-04-23T11:57:20Z</time>
      </trkpt>
      <trkpt lat="44.70622" lon="3.68837">
        <ele>1235.5587576262</ele>
        <time>2015-04-23T11:57:25Z</time>
      </trkpt>
      <trkpt lat="44.70615" lon="3.68835">
        <ele>1236.0903896194</ele>
        <time>2015-04-23T11:57:30Z</time>
      </trkpt>
      <trkpt lat="44.70608" lon="3.68836">
        <ele>1236.0903896194</ele>
        <time>2015-04-23T11:57:35Z</time>
      </trkpt>
      <trkpt lat="44.70602" lon="3.68841">
        <ele>1236.2326451821</ele>
        <time>2015-04-23T11:57:40Z</time>
      </trkpt>
      <trkpt lat="44.70597" lon="3.68847">
        <ele>1236.2326451821</ele>
        <time>2015-04-23T11:57:45Z</time>
      </trkpt>
      <trkpt lat="44.70591" lon="3.68853">
        <ele>1235.8135352896</ele>
        <time>2015-04-23T11:57:50Z</time>
      </trkpt>
      <trkpt lat="44.70585" lon="3.6886">
        <ele>1235.8135352896</ele>
        <time>2015-04-23T11:57:55Z</time>
      </trkpt>
      <trkpt lat="44.70578" lon="3.68867">
        <ele>1235.7129429351</ele>
        <time>2015-04-23T11:58:00Z</time>
      </trkpt>
      <trkpt lat="44.70571" lon="3.68875">
        <ele>1235.7129429351</ele>
        <time>2015-04-23T11:58:05Z</time>
      </trkpt>
      <trkpt lat="44.70564" lon="3.68882">
        <ele>1235.6932632674</ele>
        <time>2015-04-23T11:58:10Z</time>
      </trkpt>
      <trkpt lat="44.70558" lon="3.68889">
        <ele>1235.6932632674</ele>
        <time>2015-04-23T11:58:15Z</time>
      </trkpt>
      <trkpt lat="44.70553" lon="3.68896">
        <ele>1235.6638616698</ele>
        <time>2015-04-23T11:58:20Z</time>
      </trkpt>
      <trkpt lat="44.70548" lon="3.68901">
        <ele>1235.6638616698</ele>
        <time>2015-04-23T11:58:25Z</time>
      </trkpt>
      <trkpt lat="44.70543" lon="3.68906">
        <ele>1235.6561112158</ele>
        <time>2015-04-23T11:58:30Z</time>
      </trkpt>
      <trkpt lat="44.70537" lon="3.68912">
        <ele>1235.6561112158</ele>
        <time>2015-04-23T11:58:35Z</time>
      </trkpt>
      <trkpt lat="44.7053" lon="3.68918">
        <ele>1235.5261113743</ele>
        <time>2015-04-23T11:58:40Z</time>
      </trkpt>
      <trkpt lat="44.70524" lon="3.68922">
        <ele>1235.5261113743</ele>
        <time>2015-04-23T11:58:45Z</time>
      </trkpt>
      <trkpt lat="44.70517" lon="3.68929">
        <ele>1235.8614494245</ele>
        <time>2015-04-23T11:58:50Z</time>
      </trkpt>
      <trkpt lat="44.7051" lon="3.68934">
        <ele>1235.8614494245</ele>
        <time>2015-04-23T11:58:55Z</time>
      </trkpt>
      <trkpt lat="44.70504" lon="3.68938">
        <ele>1236.3405887372</ele>
        <time>2015-04-23T11:59:00Z</time>
      </trkpt>
      <trkpt lat="44.70498" lon="3.68943">
        <ele>1236.3405887372</ele>
        <time>2015-04-23T11:59:05Z</time>
      </trkpt>
      <trkpt lat="44.70492" lon="3.68949">
        <ele>1236.8237392577</ele>
        <time>2015-04-23T11:59:10Z</time>
      </trkpt>
      <trkpt lat="44.70485" lon="3.68954">
        <ele>1236.8237392577</ele>
        <time>2015-04-23T11:59:15Z</time>
      </trkpt>
      <trkpt lat="44.70478" lon="3.68958">
        <ele>1237.455184722</ele>
        <time>2015-04-23T11:59:20Z</time>
      </trkpt>
      <trkpt lat="44.70472" lon="3.68963">
        <ele>1237.455184722</ele>
        <time>2015-04-23T11:59:25Z</time>
      </trkpt>
      <trkpt lat="44.70466" lon="3.68968">
        <ele>1238.180852894</ele>
        <time>2015-04-23T11:59:30Z</time>
      </trkpt>
      <trkpt lat="44.70459" lon="3.68972">
        <ele>1238.180852894</ele>
        <time>2015-04-23T11:59:35Z</time>
      </trkpt>
      <trkpt lat="44.70454" lon="3.68977">
        <ele>1238.6909817604</ele>
        <time>2015-04-23T11:59:40Z</time>
      </trkpt>
      <trkpt lat="44.70448" lon="3.68983">
        <ele>1238.6909817604</ele>
        <time>2015-04-23T11:59:45Z</time>
      </trkpt>
      <trkpt lat="44.70442" lon="3.68989">
        <ele>1239.6070717316</ele>
        <time>2015-04-23T11:59:50Z</time>
      </trkpt>
      <trkpt lat="44.70437" lon="3.68994">
        <ele>1239.6070717316</ele>
        <time>2015-04-23T11:59:55Z</time>
      </trkpt>
      <trkpt lat="44.70432" lon="3.68999">
        <ele>1240.3365314822</ele>
        <time>2015-04-23T12:00:00Z</time>
      </trkpt>
      <trkpt lat="44.70426" lon="3.69004">
        <ele>1240.3365314822</ele>
        <time>2015-04-23T12:00:05Z</time>
      </trkpt>
      <trkpt lat="44.70422" lon="3.6901">
        <ele>1240.9360943175</ele>
        <time>2015-04-23T12:00:10Z</time>
      </trkpt>
      <trkpt lat="44.70416" lon="3.69012">
        <ele>1240.9360943175</ele>
        <time>2015-04-23T12:00:15Z</time>
      </trkpt>
      <trkpt lat="44.70408" lon="3.69014">
        <ele>1241.2857593785</ele>
        <time>2015-04-23T12:00:20Z</time>
      </trkpt>
      <trkpt lat="44.70401" lon="3.69014">
        <ele>1241.2857593785</ele>
        <time>2015-04-23T12:00:25Z</time>
      </trkpt>
      <trkpt lat="44.70394" lon="3.69016">
        <ele>1241.3759210909</ele>
        <time>2015-04-23T12:00:30Z</time>
      </trkpt>
      <trkpt lat="44.70389" lon="3.69017">
        <ele>1241.3759210909</ele>
        <time>2015-04-23T12:00:35Z</time>
      </trkpt>
      <trkpt lat="44.70382" lon="3.69021">
        <ele>1241.5442731782</ele>
        <time>2015-04-23T12:00:40Z</time>
      </trkpt>
      <trkpt lat="44.70378" lon="3.69031">
        <ele>1241.5442731782</ele>
        <time>2015-04-23T12:00:45Z</time>
      </trkpt>
      <trkpt lat="44.7038" lon="3.69043">
        <ele>1241.9593681253</ele>
        <time>2015-04-23T12:00:50Z</time>
      </trkpt>
      <trkpt lat="44.70382" lon="3.69054">
        <ele>1241.9593681253</ele>
        <time>2015-04-23T12:00:55Z</time>
      </trkpt>
      <trkpt lat="44.70386" lon="3.69063">
        <ele>1242.8199116734</ele>
        <time>2015-04-23T12:01:00Z</time>
      </trkpt>
      <trkpt lat="44.70387" lon="3.69076">
        <ele>1242.8199116734</ele>
        <time>2015-04-23T12:01:05Z</time>
      </trkpt>
      <trkpt lat="44.70388" lon="3.69087">
        <ele>1243.3287993533</ele>
        <time>2015-04-23T12:01:10Z</time>
      </trkpt>
      <trkpt lat="44.70389" lon="3.69098">
        <ele>1243.3287993533</ele>
        <time>2015-04-23T12:01:15Z</time>
      </trkpt>
      <trkpt lat="44.70394" lon="3.69104">
        <ele>1243.9445825133</ele>
        <time>2015-04-23T12:01:20Z</time>
      </trkpt>
      <trkpt lat="44.70402" lon="3.69106">
        <ele>1243.9445825133</ele>
        <time>2015-04-23T12:01:25Z</time>
      </trkpt>
      <trkpt lat="44.7041" lon="3.69106">
        <ele>1244.5009640021</ele>
        <time>2015-04-23T12:01:30Z</time>
      </trkpt>
      <trkpt lat="44.70418" lon="3.69109">
        <ele>1244.5009640021</ele>
        <time>2015-04-23T12:01:35Z</time>
      </trkpt>
      <trkpt lat="44.70425" lon="3.69114">
        <ele>1245.2763556545</ele>
        <time>2015-04-23T12:01:40Z</time>
      </trkpt>
      <trkpt lat="44.70432" lon="3.69119">
        <ele>1245.2763556545</ele>
        <time>2015-04-23T12:01:45Z</time>
      </trkpt>
      <trkpt lat="44.70438" lon="3.69125">
        <ele>1246.1245851272</ele>
        <time>2015-04-23T12:01:50Z</time>
      </trkpt>
      <trkpt lat="44.70444" lon="3.69134">
        <ele>1247.0397083251</ele>
        <time>2015-04-23T12:01:55Z</time>
      </trkpt>
      <trkpt lat="44.70454" lon="3.69144">
        <ele>1248.3474831645</ele>
        <time>2015-04-23T12:02:00Z</time>
      </trkpt>
      <trkpt lat="44.70459" lon="3.69152">
        <ele>1248.3474831645</ele>
        <time>2015-04-23T12:02:05Z</time>
      </trkpt>
      <trkpt lat="44.70464" lon="3.6916">
        <ele>1248.965168471</ele>
        <time>2015-04-23T12:02:10Z</time>
      </trkpt>
      <trkpt lat="44.70467" lon="3.69169">
        <ele>1248.965168471</ele>
        <time>2015-04-23T12:02:15Z</time>
      </trkpt>
      <trkpt lat="44.70472" lon="3.69176">
        <ele>1249.6640657961</ele>
        <time>2015-04-23T12:02:20Z</time>
      </trkpt>
      <trkpt lat="44.70478" lon="3.69185">
        <ele>1249.6640657961</ele>
        <time>2015-04-23T12:02:25Z</time>
      </trkpt>
      <trkpt lat="44.70484" lon="3.69192">
        <ele>1249.9336475135</ele>
        <time>2015-04-23T12:02:30Z</time>
      </trkpt>
      <trkpt lat="44.70485" lon="3.69197">
        <ele>1249.9336475135</ele>
        <time>2015-04-23T12:02:35Z</time>
      </trkpt>
      <trkpt lat="44.70486" lon="3.69196">
        <ele>1249.9336475135</ele>
        <time>2015-04-23T12:02:40Z</time>
      </trkpt>
      <trkpt lat="44.70487" lon="3.692">
        <ele>1249.9336475135</ele>
        <time>2015-04-23T12:02:45Z</time>
      </trkpt>
      <trkpt lat="44.7049" lon="3.69207">
        <ele>1250.599097163</ele>
        <time>2015-04-23T12:02:50Z</time>
      </trkpt>
      <trkpt lat="44.70493" lon="3.69216">
        <ele>1250.599097163</ele>
        <time>2015-04-23T12:02:55Z</time>
      </trkpt>
      <trkpt lat="44.70494" lon="3.69222">
        <ele>1251.141283084</ele>
        <time>2015-04-23T12:03:00Z</time>
      </trkpt>
      <trkpt lat="44.70494" lon="3.69222">
        <ele>1251.141283084</ele>
        <time>2015-04-23T12:03:05Z</time>
      </trkpt>
      <trkpt lat="44.70493" lon="3.69224">
        <ele>1251.141283084</ele>
        <time>2015-04-23T12:03:10Z</time>
      </trkpt>
      <trkpt lat="44.70494" lon="3.69227">
        <ele>1251.141283084</ele>
        <time>2015-04-23T12:03:15Z</time>
      </trkpt>
      <trkpt lat="44.70494" lon="3.69224">
        <ele>1251.141283084</ele>
        <time>2015-04-23T12:03:20Z</time>
      </trkpt>
      <trkpt lat="44.70492" lon="3.69219">
        <ele>1251.4398331421</ele>
        <time>2015-04-23T12:03:25Z</time>
      </trkpt>
      <trkpt lat="44.7049" lon="3.69213">
        <ele>1251.4398331421</ele>
        <time>2015-04-23T12:03:30Z</time>
      </trkpt>
      <trkpt lat="44.70488" lon="3.69203">
        <ele>1251.8738782985</ele>
        <time>2015-04-23T12:03:35Z</time>
      </trkpt>
      <trkpt lat="44.70483" lon="3.69192">
        <ele>1251.8738782985</ele>
        <time>2015-04-23T12:03:40Z</time>
      </trkpt>
      <trkpt lat="44.7048" lon="3.69182">
        <ele>1252.1314047636</ele>
        <time>2015-04-23T12:03:45Z</time>
      </trkpt>
      <trkpt lat="44.70478" lon="3.69176">
        <ele>1252.1314047636</ele>
        <time>2015-04-23T12:03:50Z</time>
      </trkpt>
      <trkpt lat="44.70473" lon="3.69169">
        <ele>1252.2408538426</ele>
        <time>2015-04-23T12:03:55Z</time>
      </trkpt>
      <trkpt lat="44.70467" lon="3.69163">
        <ele>1252.2408538426</ele>
        <time>2015-04-23T12:04:00Z</time>
      </trkpt>
      <trkpt lat="44.70462" lon="3.69155">
        <ele>1252.3442739902</ele>
        <time>2015-04-23T12:04:05Z</time>
      </trkpt>
      <trkpt lat="44.70456" lon="3.69149">
        <ele>1252.3442739902</ele>
        <time>2015-04-23T12:04:10Z</time>
      </trkpt>
      <trkpt lat="44.70451" lon="3.69142">
        <ele>1252.0833061452</ele>
        <time>2015-04-23T12:04:15Z</time>
      </trkpt>
      <trkpt lat="44.70445" lon="3.69136">
        <ele>1252.0833061452</ele>
        <time>2015-04-23T12:04:20Z</time>
      </trkpt>
      <trkpt lat="44.70439" lon="3.6913">
        <ele>1251.919533748</ele>
        <time>2015-04-23T12:04:25Z</time>
      </trkpt>
      <trkpt lat="44.70434" lon="3.69124">
        <ele>1251.919533748</ele>
        <time>2015-04-23T12:04:30Z</time>
      </trkpt>
      <trkpt lat="44.70429" lon="3.69118">
        <ele>1251.6894832907</ele>
        <time>2015-04-23T12:04:35Z</time>
      </trkpt>
      <trkpt lat="44.70423" lon="3.69113">
        <ele>1251.6894832907</ele>
        <time>2015-04-23T12:04:40Z</time>
      </trkpt>
      <trkpt lat="44.70416" lon="3.69109">
        <ele>1251.1553827105</ele>
        <time>2015-04-23T12:04:45Z</time>
      </trkpt>
      <trkpt lat="44.70409" lon="3.69106">
        <ele>1251.1553827105</ele>
        <time>2015-04-23T12:04:50Z</time>
      </trkpt>
      <trkpt lat="44.70402" lon="3.69103">
        <ele>1250.4003801686</ele>
        <time>2015-04-23T12:04:55Z</time>
      </trkpt>
      <trkpt lat="44.70395" lon="3.69101">
        <ele>1250.4003801686</ele>
        <time>2015-04-23T12:05:00Z</time>
      </trkpt>
      <trkpt lat="44.70388" lon="3.69101">
        <ele>1249.4012178335</ele>
        <time>2015-04-23T12:05:05Z</time>
      </trkpt>
      <trkpt lat="44.70388" lon="3.69111">
        <ele>1249.4012178335</ele>
        <time>2015-04-23T12:05:10Z</time>
      </trkpt>
      <trkpt lat="44.70389" lon="3.6912">
        <ele>1248.5116727851</ele>
        <time>2015-04-23T12:05:15Z</time>
      </trkpt>
      <trkpt lat="44.7039" lon="3.69131">
        <ele>1248.5116727851</ele>
        <time>2015-04-23T12:05:20Z</time>
      </trkpt>
      <trkpt lat="44.7039" lon="3.69141">
        <ele>1247.6844816573</ele>
        <time>2015-04-23T12:05:25Z</time>
      </trkpt>
      <trkpt lat="44.7039" lon="3.69147">
        <ele>1247.6844816573</ele>
        <time>2015-04-23T12:05:30Z</time>
      </trkpt>
      <trkpt lat="44.70389" lon="3.69158">
        <ele>1247.0485484136</ele>
        <time>2015-04-23T12:05:35Z</time>
      </trkpt>
      <trkpt lat="44.70389" lon="3.69159">
        <ele>1247.0485484136</ele>
        <time>2015-04-23T12:05:40Z</time>
      </trkpt>
      <trkpt lat="44.70389" lon="3.69161">
        <ele>1247.0485484136</ele>
        <time>2015-04-23T12:05:45Z</time>
      </trkpt>
      <trkpt lat="44.70388" lon="3.69169">
        <ele>1247.0485484136</ele>
        <time>2015-04-23T12:05:50Z</time>
      </trkpt>
      <trkpt lat="44.70386" lon="3.69183">
        <ele>1246.3480126295</ele>
        <time>2015-04-23T12:05:55Z</time>
      </trkpt>
      <trkpt lat="44.70385" lon="3.69197">
        <ele>1245.6053156468</ele>
        <time>2015-04-23T12:06:00Z</time>
      </trkpt>
      <trkpt lat="44.70385" lon="3.69208">
        <ele>1245.6053156468</ele>
        <time>2015-04-23T12:06:05Z</time>
      </trkpt>
      <trkpt lat="44.70384" lon="3.69219">
        <ele>1244.4521883721</ele>
        <time>2015-04-23T12:06:10Z</time>
      </trkpt>
      <trkpt lat="44.70383" lon="3.69233">
        <ele>1243.2834478232</ele>
        <time>2015-04-23T12:06:15Z</time>
      </trkpt>
      <trkpt lat="44.70384" lon="3.69248">
        <ele>1242.3063393816</ele>
        <time>2015-04-23T12:06:20Z</time>
      </trkpt>
      <trkpt lat="44.70384" lon="3.69261">
        <ele>1241.496085065</ele>
        <time>2015-04-23T12:06:25Z</time>
      </trkpt>
      <trkpt lat="44.70385" lon="3.69273">
        <ele>1241.496085065</ele>
        <time>2015-04-23T12:06:30Z</time>
      </trkpt>
      <trkpt lat="44.70388" lon="3.69283">
        <ele>1240.9876827955</ele>
        <time>2015-04-23T12:06:35Z</time>
      </trkpt>
      <trkpt lat="44.70387" lon="3.69293">
        <ele>1240.9876827955</ele>
        <time>2015-04-23T12:06:40Z</time>
      </trkpt>
      <trkpt lat="44.70387" lon="3.69304">
        <ele>1240.5882220931</ele>
        <time>2015-04-23T12:06:45Z</time>
      </trkpt>
      <trkpt lat="44.70388" lon="3.69315">
        <ele>1240.5882220931</ele>
        <time>2015-04-23T12:06:50Z</time>
      </trkpt>
      <trkpt lat="44.7039" lon="3.69326">
        <ele>1240.1473800209</ele>
        <time>2015-04-23T12:06:55Z</time>
      </trkpt>
      <trkpt lat="44.70391" lon="3.69335">
        <ele>1240.1473800209</ele>
        <time>2015-04-23T12:07:00Z</time>
      </trkpt>
      <trkpt lat="44.70395" lon="3.69345">
        <ele>1239.9005828823</ele>
        <time>2015-04-23T12:07:05Z</time>
      </trkpt>
      <trkpt lat="44.70397" lon="3.69354">
        <ele>1239.9005828823</ele>
        <time>2015-04-23T12:07:10Z</time>
      </trkpt>
      <trkpt lat="44.704" lon="3.69364">
        <ele>1240.065323178</ele>
        <time>2015-04-23T12:07:15Z</time>
      </trkpt>
      <trkpt lat="44.70403" lon="3.69378">
        <ele>1240.3518935208</ele>
        <time>2015-04-23T12:07:20Z</time>
      </trkpt>
      <trkpt lat="44.70406" lon="3.69388">
        <ele>1240.3518935208</ele>
        <time>2015-04-23T12:07:25Z</time>
      </trkpt>
      <trkpt lat="44.70411" lon="3.69398">
        <ele>1240.6931975186</ele>
        <time>2015-04-23T12:07:30Z</time>
      </trkpt>
      <trkpt lat="44.70414" lon="3.69409">
        <ele>1240.6931975186</ele>
        <time>2015-04-23T12:07:35Z</time>
      </trkpt>
      <trkpt lat="44.70419" lon="3.69419">
        <ele>1240.6377358266</ele>
        <time>2015-04-23T12:07:40Z</time>
      </trkpt>
      <trkpt lat="44.70424" lon="3.69424">
        <ele>1240.6377358266</ele>
        <time>2015-04-23T12:07:45Z</time>
      </trkpt>
      <trkpt lat="44.70428" lon="3.69431">
        <ele>1240.258194911</ele>
        <time>2015-04-23T12:07:50Z</time>
      </trkpt>
      <trkpt lat="44.70429" lon="3.69431">
        <ele>1240.258194911</ele>
        <time>2015-04-23T12:07:55Z</time>
      </trkpt>
      <trkpt lat="44.70428" lon="3.69431">
        <ele>1240.258194911</ele>
        <time>2015-04-23T12:08:00Z</time>
      </trkpt>
      <trkpt lat="44.70426" lon="3.69426">
        <ele>1240.258194911</ele>
        <time>2015-04-23T12:08:05Z</time>
      </trkpt>
      <trkpt lat="44.7042" lon="3.6942">
        <ele>1239.0319063636</ele>
        <time>2015-04-23T12:08:10Z</time>
      </trkpt>
      <trkpt lat="44.70415" lon="3.69419">
        <ele>1239.0319063636</ele>
        <time>2015-04-23T12:08:15Z</time>
      </trkpt>
      <trkpt lat="44.70411" lon="3.69423">
        <ele>1238.1197719723</ele>
        <time>2015-04-23T12:08:20Z</time>
      </trkpt>
      <trkpt lat="44.70408" lon="3.69426">
        <ele>1238.1197719723</ele>
        <time>2015-04-23T12:08:25Z</time>
      </trkpt>
      <trkpt lat="44.70408" lon="3.69428">
        <ele>1238.1197719723</ele>
        <time>2015-04-23T12:08:30Z</time>
      </trkpt>
      <trkpt lat="44.70409" lon="3.6943">
        <ele>1238.1197719723</ele>
        <time>2015-04-23T12:08:35Z</time>
      </trkpt>
      <trkpt lat="44.7041" lon="3.69431">
        <ele>1238.1197719723</ele>
        <time>2015-04-23T12:08:40Z</time>
      </trkpt>
      <trkpt lat="44.7041" lon="3.69431">
        <ele>1238.1197719723</ele>
        <time>2015-04-23T12:08:45Z</time>
      </trkpt>
      <trkpt lat="44.7041" lon="3.69431">
        <ele>1238.1197719723</ele>
        <time>2015-04-23T12:08:50Z</time>
      </trkpt>
      <trkpt lat="44.7041" lon="3.69431">
        <ele>1238.1197719723</ele>
        <time>2015-04-23T12:08:55Z</time>
      </trkpt>
      <trkpt lat="44.7041" lon="3.69431">
        <ele>1238.1197719723</ele>
        <time>2015-04-23T12:09:00Z</time>
      </trkpt>
      <trkpt lat="44.7041" lon="3.69431">
        <ele>1238.1197719723</ele>
        <time>2015-04-23T12:09:05Z</time>
      </trkpt>
      <trkpt lat="44.7041" lon="3.69431">
        <ele>1238.1197719723</ele>
        <time>2015-04-23T12:09:10Z</time>
      </trkpt>
      <trkpt lat="44.70408" lon="3.69431">
        <ele>1236.8527188712</ele>
        <time>2015-04-23T12:09:15Z</time>
      </trkpt>
      <trkpt lat="44.70404" lon="3.69432">
        <ele>1236.8527188712</ele>
        <time>2015-04-23T12:09:20Z</time>
      </trkpt>
      <trkpt lat="44.70404" lon="3.69433">
        <ele>1236.8527188712</ele>
        <time>2015-04-23T12:09:25Z</time>
      </trkpt>
      <trkpt lat="44.70405" lon="3.69432">
        <ele>1236.8527188712</ele>
        <time>2015-04-23T12:09:30Z</time>
      </trkpt>
      <trkpt lat="44.70405" lon="3.69432">
        <ele>1236.8527188712</ele>
        <time>2015-04-23T12:09:35Z</time>
      </trkpt>
      <trkpt lat="44.70405" lon="3.69432">
        <ele>1236.8527188712</ele>
        <time>2015-04-23T12:09:40Z</time>
      </trkpt>
      <trkpt lat="44.70405" lon="3.69432">
        <ele>1236.8527188712</ele>
        <time>2015-04-23T12:09:45Z</time>
      </trkpt>
      <trkpt lat="44.70406" lon="3.69432">
        <ele>1236.8527188712</ele>
        <time>2015-04-23T12:09:50Z</time>
      </trkpt>
      <trkpt lat="44.70408" lon="3.69435">
        <ele>1236.8527188712</ele>
        <time>2015-04-23T12:09:55Z</time>
      </trkpt>
      <trkpt lat="44.70409" lon="3.69437">
        <ele>1235.3611248305</ele>
        <time>2015-04-23T12:10:00Z</time>
      </trkpt>
      <trkpt lat="44.70409" lon="3.69437">
        <ele>1235.3611248305</ele>
        <time>2015-04-23T12:10:05Z</time>
      </trkpt>
      <trkpt lat="44.70409" lon="3.69437">
        <ele>1235.3611248305</ele>
        <time>2015-04-23T12:10:10Z</time>
      </trkpt>
      <trkpt lat="44.70409" lon="3.69437">
        <ele>1235.3611248305</ele>
        <time>2015-04-23T12:10:15Z</time>
      </trkpt>
      <trkpt lat="44.70409" lon="3.69437">
        <ele>1235.3611248305</ele>
        <time>2015-04-23T12:10:20Z</time>
      </trkpt>
      <trkpt lat="44.70409" lon="3.69437">
        <ele>1235.3611248305</ele>
        <time>2015-04-23T12:10:25Z</time>
      </trkpt>
      <trkpt lat="44.70412" lon="3.69433">
        <ele>1235.3611248305</ele>
        <time>2015-04-23T12:10:30Z</time>
      </trkpt>
      <trkpt lat="44.70418" lon="3.69428">
        <ele>1234.9048225322</ele>
        <time>2015-04-23T12:10:35Z</time>
      </trkpt>
      <trkpt lat="44.70421" lon="3.69424">
        <ele>1234.9048225322</ele>
        <time>2015-04-23T12:10:40Z</time>
      </trkpt>
      <trkpt lat="44.70424" lon="3.69426">
        <ele>1234.9048225322</ele>
        <time>2015-04-23T12:10:45Z</time>
      </trkpt>
      <trkpt lat="44.70428" lon="3.69432">
        <ele>1234.4864487754</ele>
        <time>2015-04-23T12:10:50Z</time>
      </trkpt>
      <trkpt lat="44.70432" lon="3.69438">
        <ele>1234.4864487754</ele>
        <time>2015-04-23T12:10:55Z</time>
      </trkpt>
      <trkpt lat="44.70437" lon="3.69446">
        <ele>1234.0175666681</ele>
        <time>2015-04-23T12:11:00Z</time>
      </trkpt>
      <trkpt lat="44.70442" lon="3.69453">
        <ele>1234.0175666681</ele>
        <time>2015-04-23T12:11:05Z</time>
      </trkpt>
      <trkpt lat="44.70447" lon="3.69459">
        <ele>1233.8774578375</ele>
        <time>2015-04-23T12:11:10Z</time>
      </trkpt>
      <trkpt lat="44.70452" lon="3.69465">
        <ele>1233.8774578375</ele>
        <time>2015-04-23T12:11:15Z</time>
      </trkpt>
      <trkpt lat="44.70458" lon="3.69471">
        <ele>1233.7824595306</ele>
        <time>2015-04-23T12:11:20Z</time>
      </trkpt>
      <trkpt lat="44.70464" lon="3.69477">
        <ele>1233.7824595306</ele>
        <time>2015-04-23T12:11:25Z</time>
      </trkpt>
      <trkpt lat="44.70469" lon="3.69482">
        <ele>1233.67130948</ele>
        <time>2015-04-23T12:11:30Z</time>
      </trkpt>
      <trkpt lat="44.70474" lon="3.69486">
        <ele>1233.67130948</ele>
        <time>2015-04-23T12:11:35Z</time>
      </trkpt>
      <trkpt lat="44.7048" lon="3.6949">
        <ele>1233.2710627968</ele>
        <time>2015-04-23T12:11:40Z</time>
      </trkpt>
      <trkpt lat="44.70485" lon="3.69494">
        <ele>1233.2710627968</ele>
        <time>2015-04-23T12:11:45Z</time>
      </trkpt>
      <trkpt lat="44.70492" lon="3.69498">
        <ele>1233.1654245282</ele>
        <time>2015-04-23T12:11:50Z</time>
      </trkpt>
      <trkpt lat="44.705" lon="3.69502">
        <ele>1233.1654245282</ele>
        <time>2015-04-23T12:11:55Z</time>
      </trkpt>
      <trkpt lat="44.70507" lon="3.69507">
        <ele>1232.9576205356</ele>
        <time>2015-04-23T12:12:00Z</time>
      </trkpt>
      <trkpt lat="44.70516" lon="3.69511">
        <ele>1232.9864080571</ele>
        <time>2015-04-23T12:12:05Z</time>
      </trkpt>
      <trkpt lat="44.70524" lon="3.69515">
        <ele>1232.9864080571</ele>
        <time>2015-04-23T12:12:10Z</time>
      </trkpt>
      <trkpt lat="44.7053" lon="3.69519">
        <ele>1232.858808838</ele>
        <time>2015-04-23T12:12:15Z</time>
      </trkpt>
      <trkpt lat="44.70538" lon="3.69523">
        <ele>1232.858808838</ele>
        <time>2015-04-23T12:12:20Z</time>
      </trkpt>
      <trkpt lat="44.70546" lon="3.69526">
        <ele>1233.2631263969</ele>
        <time>2015-04-23T12:12:25Z</time>
      </trkpt>
      <trkpt lat="44.70553" lon="3.6953">
        <ele>1233.2631263969</ele>
        <time>2015-04-23T12:12:30Z</time>
      </trkpt>
      <trkpt lat="44.70559" lon="3.69533">
        <ele>1233.7691569889</ele>
        <time>2015-04-23T12:12:35Z</time>
      </trkpt>
      <trkpt lat="44.70566" lon="3.69536">
        <ele>1233.7691569889</ele>
        <time>2015-04-23T12:12:40Z</time>
      </trkpt>
      <trkpt lat="44.70572" lon="3.69537">
        <ele>1233.6609455151</ele>
        <time>2015-04-23T12:12:45Z</time>
      </trkpt>
      <trkpt lat="44.70578" lon="3.69537">
        <ele>1233.6609455151</ele>
        <time>2015-04-23T12:12:50Z</time>
      </trkpt>
      <trkpt lat="44.70584" lon="3.69536">
        <ele>1233.7755921489</ele>
        <time>2015-04-23T12:12:55Z</time>
      </trkpt>
      <trkpt lat="44.7059" lon="3.69535">
        <ele>1233.7755921489</ele>
        <time>2015-04-23T12:13:00Z</time>
      </trkpt>
      <trkpt lat="44.70599" lon="3.69532">
        <ele>1234.0522227473</ele>
        <time>2015-04-23T12:13:05Z</time>
      </trkpt>
      <trkpt lat="44.70609" lon="3.69531">
        <ele>1233.8431177295</ele>
        <time>2015-04-23T12:13:10Z</time>
      </trkpt>
      <trkpt lat="44.70617" lon="3.6953">
        <ele>1233.8431177295</ele>
        <time>2015-04-23T12:13:15Z</time>
      </trkpt>
      <trkpt lat="44.70625" lon="3.69529">
        <ele>1233.6159202573</ele>
        <time>2015-04-23T12:13:20Z</time>
      </trkpt>
      <trkpt lat="44.70634" lon="3.69527">
        <ele>1233.6159202573</ele>
        <time>2015-04-23T12:13:25Z</time>
      </trkpt>
      <trkpt lat="44.70642" lon="3.69527">
        <ele>1233.5589819033</ele>
        <time>2015-04-23T12:13:30Z</time>
      </trkpt>
      <trkpt lat="44.70649" lon="3.69527">
        <ele>1233.5589819033</ele>
        <time>2015-04-23T12:13:35Z</time>
      </trkpt>
      <trkpt lat="44.70653" lon="3.69526">
        <ele>1233.0104964896</ele>
        <time>2015-04-23T12:13:40Z</time>
      </trkpt>
      <trkpt lat="44.70657" lon="3.69525">
        <ele>1233.0104964896</ele>
        <time>2015-04-23T12:13:45Z</time>
      </trkpt>
      <trkpt lat="44.70664" lon="3.69523">
        <ele>1232.4538986488</ele>
        <time>2015-04-23T12:13:50Z</time>
      </trkpt>
      <trkpt lat="44.70672" lon="3.6952">
        <ele>1232.4538986488</ele>
        <time>2015-04-23T12:13:55Z</time>
      </trkpt>
      <trkpt lat="44.7068" lon="3.69517">
        <ele>1232.0056781173</ele>
        <time>2015-04-23T12:14:00Z</time>
      </trkpt>
      <trkpt lat="44.70688" lon="3.69515">
        <ele>1232.0056781173</ele>
        <time>2015-04-23T12:14:05Z</time>
      </trkpt>
      <trkpt lat="44.70697" lon="3.69512">
        <ele>1231.8311082626</ele>
        <time>2015-04-23T12:14:10Z</time>
      </trkpt>
      <trkpt lat="44.70706" lon="3.6951">
        <ele>1232.0537323596</ele>
        <time>2015-04-23T12:14:15Z</time>
      </trkpt>
      <trkpt lat="44.70715" lon="3.69508">
        <ele>1232.0537323596</ele>
        <time>2015-04-23T12:14:20Z</time>
      </trkpt>
      <trkpt lat="44.70722" lon="3.69504">
        <ele>1232.0663500347</ele>
        <time>2015-04-23T12:14:25Z</time>
      </trkpt>
      <trkpt lat="44.70727" lon="3.69499">
        <ele>1232.0663500347</ele>
        <time>2015-04-23T12:14:30Z</time>
      </trkpt>
      <trkpt lat="44.70735" lon="3.69496">
        <ele>1232.6471935946</ele>
        <time>2015-04-23T12:14:35Z</time>
      </trkpt>
      <trkpt lat="44.70741" lon="3.69495">
        <ele>1232.6471935946</ele>
        <time>2015-04-23T12:14:40Z</time>
      </trkpt>
      <trkpt lat="44.70748" lon="3.69491">
        <ele>1233.103452789</ele>
        <time>2015-04-23T12:14:45Z</time>
      </trkpt>
      <trkpt lat="44.70755" lon="3.69488">
        <ele>1233.103452789</ele>
        <time>2015-04-23T12:14:50Z</time>
      </trkpt>
      <trkpt lat="44.70764" lon="3.69485">
        <ele>1233.9032313335</ele>
        <time>2015-04-23T12:14:55Z</time>
      </trkpt>
      <trkpt lat="44.70772" lon="3.69483">
        <ele>1233.9032313335</ele>
        <time>2015-04-23T12:15:00Z</time>
      </trkpt>
      <trkpt lat="44.7078" lon="3.69479">
        <ele>1234.6434590566</ele>
        <time>2015-04-23T12:15:05Z</time>
      </trkpt>
      <trkpt lat="44.70789" lon="3.69477">
        <ele>1234.6434590566</ele>
        <time>2015-04-23T12:15:10Z</time>
      </trkpt>
      <trkpt lat="44.70796" lon="3.69474">
        <ele>1234.7491133229</ele>
        <time>2015-04-23T12:15:15Z</time>
      </trkpt>
      <trkpt lat="44.70804" lon="3.69472">
        <ele>1234.7491133229</ele>
        <time>2015-04-23T12:15:20Z</time>
      </trkpt>
      <trkpt lat="44.70812" lon="3.6947">
        <ele>1235.2023918225</ele>
        <time>2015-04-23T12:15:25Z</time>
      </trkpt>
      <trkpt lat="44.70821" lon="3.69469">
        <ele>1236.090968869</ele>
        <time>2015-04-23T12:15:30Z</time>
      </trkpt>
      <trkpt lat="44.7083" lon="3.69468">
        <ele>1236.090968869</ele>
        <time>2015-04-23T12:15:35Z</time>
      </trkpt>
      <trkpt lat="44.70836" lon="3.69465">
        <ele>1236.5725865807</ele>
        <time>2015-04-23T12:15:40Z</time>
      </trkpt>
      <trkpt lat="44.70843" lon="3.69462">
        <ele>1236.5725865807</ele>
        <time>2015-04-23T12:15:45Z</time>
      </trkpt>
      <trkpt lat="44.70849" lon="3.69459">
        <ele>1237.0929899396</ele>
        <time>2015-04-23T12:15:50Z</time>
      </trkpt>
      <trkpt lat="44.70856" lon="3.69456">
        <ele>1237.0929899396</ele>
        <time>2015-04-23T12:15:55Z</time>
      </trkpt>
      <trkpt lat="44.70865" lon="3.69453">
        <ele>1237.5607300899</ele>
        <time>2015-04-23T12:16:00Z</time>
      </trkpt>
      <trkpt lat="44.70874" lon="3.6945">
        <ele>1238.1218529724</ele>
        <time>2015-04-23T12:16:05Z</time>
      </trkpt>
      <trkpt lat="44.70882" lon="3.69447">
        <ele>1238.1218529724</ele>
        <time>2015-04-23T12:16:10Z</time>
      </trkpt>
      <trkpt lat="44.70892" lon="3.69444">
        <ele>1238.9114682691</ele>
        <time>2015-04-23T12:16:15Z</time>
      </trkpt>
      <trkpt lat="44.709" lon="3.69441">
        <ele>1238.9114682691</ele>
        <time>2015-04-23T12:16:20Z</time>
      </trkpt>
      <trkpt lat="44.70903" lon="3.69438">
        <ele>1239.0309861177</ele>
        <time>2015-04-23T12:16:25Z</time>
      </trkpt>
      <trkpt lat="44.7091" lon="3.69434">
        <ele>1239.0309861177</ele>
        <time>2015-04-23T12:16:30Z</time>
      </trkpt>
      <trkpt lat="44.70916" lon="3.69428">
        <ele>1238.9467633488</ele>
        <time>2015-04-23T12:16:35Z</time>
      </trkpt>
      <trkpt lat="44.70921" lon="3.69422">
        <ele>1238.9467633488</ele>
        <time>2015-04-23T12:16:40Z</time>
      </trkpt>
      <trkpt lat="44.70925" lon="3.69417">
        <ele>1238.6159586512</ele>
        <time>2015-04-23T12:16:45Z</time>
      </trkpt>
      <trkpt lat="44.70929" lon="3.69413">
        <ele>1238.6159586512</ele>
        <time>2015-04-23T12:16:50Z</time>
      </trkpt>
      <trkpt lat="44.70933" lon="3.6941">
        <ele>1238.3743112884</ele>
        <time>2015-04-23T12:16:55Z</time>
      </trkpt>
      <trkpt lat="44.70938" lon="3.69404">
        <ele>1238.3743112884</ele>
        <time>2015-04-23T12:17:00Z</time>
      </trkpt>
      <trkpt lat="44.70945" lon="3.69399">
        <ele>1237.9994839642</ele>
        <time>2015-04-23T12:17:05Z</time>
      </trkpt>
      <trkpt lat="44.70951" lon="3.69394">
        <ele>1237.9994839642</ele>
        <time>2015-04-23T12:17:10Z</time>
      </trkpt>
      <trkpt lat="44.70957" lon="3.69389">
        <ele>1237.2858880608</ele>
        <time>2015-04-23T12:17:15Z</time>
      </trkpt>
      <trkpt lat="44.70964" lon="3.69385">
        <ele>1237.2858880608</ele>
        <time>2015-04-23T12:17:20Z</time>
      </trkpt>
      <trkpt lat="44.7097" lon="3.69379">
        <ele>1236.6781129945</ele>
        <time>2015-04-23T12:17:25Z</time>
      </trkpt>
      <trkpt lat="44.70976" lon="3.69374">
        <ele>1236.6781129945</ele>
        <time>2015-04-23T12:17:30Z</time>
      </trkpt>
      <trkpt lat="44.70982" lon="3.6937">
        <ele>1235.9249100605</ele>
        <time>2015-04-23T12:17:35Z</time>
      </trkpt>
      <trkpt lat="44.70989" lon="3.69366">
        <ele>1235.9249100605</ele>
        <time>2015-04-23T12:17:40Z</time>
      </trkpt>
      <trkpt lat="44.70998" lon="3.69362">
        <ele>1235.1974286313</ele>
        <time>2015-04-23T12:17:45Z</time>
      </trkpt>
      <trkpt lat="44.71005" lon="3.69359">
        <ele>1235.1974286313</ele>
        <time>2015-04-23T12:17:50Z</time>
      </trkpt>
      <trkpt lat="44.71012" lon="3.69356">
        <ele>1234.1930322803</ele>
        <time>2015-04-23T12:17:55Z</time>
      </trkpt>
      <trkpt lat="44.7102" lon="3.69354">
        <ele>1234.1930322803</ele>
        <time>2015-04-23T12:18:00Z</time>
      </trkpt>
      <trkpt lat="44.71026" lon="3.69351">
        <ele>1233.3814783602</ele>
        <time>2015-04-23T12:18:05Z</time>
      </trkpt>
      <trkpt lat="44.71034" lon="3.69348">
        <ele>1233.3814783602</ele>
        <time>2015-04-23T12:18:10Z</time>
      </trkpt>
      <trkpt lat="44.7104" lon="3.69344">
        <ele>1232.6066196595</ele>
        <time>2015-04-23T12:18:15Z</time>
      </trkpt>
      <trkpt lat="44.71041" lon="3.6934">
        <ele>1232.6066196595</ele>
        <time>2015-04-23T12:18:20Z</time>
      </trkpt>
      <trkpt lat="44.71038" lon="3.69341">
        <ele>1232.6066196595</ele>
        <time>2015-04-23T12:18:25Z</time>
      </trkpt>
      <trkpt lat="44.71037" lon="3.6934">
        <ele>1232.6066196595</ele>
        <time>2015-04-23T12:18:30Z</time>
      </trkpt>
      <trkpt lat="44.71036" lon="3.6934">
        <ele>1232.6066196595</ele>
        <time>2015-04-23T12:18:35Z</time>
      </trkpt>
      <trkpt lat="44.71036" lon="3.6934">
        <ele>1232.6066196595</ele>
        <time>2015-04-23T12:18:40Z</time>
      </trkpt>
      <trkpt lat="44.71036" lon="3.6934">
        <ele>1232.6066196595</ele>
        <time>2015-04-23T12:18:45Z</time>
      </trkpt>
      <trkpt lat="44.71036" lon="3.6934">
        <ele>1232.6066196595</ele>
        <time>2015-04-23T12:18:50Z</time>
      </trkpt>
      <trkpt lat="44.71036" lon="3.6934">
        <ele>1232.6066196595</ele>
        <time>2015-04-23T12:18:55Z</time>
      </trkpt>
      <trkpt lat="44.71036" lon="3.6934">
        <ele>1232.6066196595</ele>
        <time>2015-04-23T12:19:00Z</time>
      </trkpt>
      <trkpt lat="44.71036" lon="3.6934">
        <ele>1232.6066196595</ele>
        <time>2015-04-23T12:19:05Z</time>
      </trkpt>
      <trkpt lat="44.71036" lon="3.6934">
        <ele>1232.6066196595</ele>
        <time>2015-04-23T12:19:10Z</time>
      </trkpt>
      <trkpt lat="44.71036" lon="3.6934">
        <ele>1232.6066196595</ele>
        <time>2015-04-23T12:19:15Z</time>
      </trkpt>
      <trkpt lat="44.71036" lon="3.69339">
        <ele>1231.550736291</ele>
        <time>2015-04-23T12:19:20Z</time>
      </trkpt>
      <trkpt lat="44.71042" lon="3.69339">
        <ele>1231.550736291</ele>
        <time>2015-04-23T12:19:25Z</time>
      </trkpt>
      <trkpt lat="44.71049" lon="3.69337">
        <ele>1230.2228555556</ele>
        <time>2015-04-23T12:19:30Z</time>
      </trkpt>
      <trkpt lat="44.71058" lon="3.69336">
        <ele>1230.2228555556</ele>
        <time>2015-04-23T12:19:35Z</time>
      </trkpt>
      <trkpt lat="44.71066" lon="3.69333">
        <ele>1228.9058944229</ele>
        <time>2015-04-23T12:19:40Z</time>
      </trkpt>
      <trkpt lat="44.71072" lon="3.69331">
        <ele>1228.9058944229</ele>
        <time>2015-04-23T12:19:45Z</time>
      </trkpt>
      <trkpt lat="44.71076" lon="3.69327">
        <ele>1227.7466384773</ele>
        <time>2015-04-23T12:19:50Z</time>
      </trkpt>
      <trkpt lat="44.71082" lon="3.69326">
        <ele>1227.7466384773</ele>
        <time>2015-04-23T12:19:55Z</time>
      </trkpt>
      <trkpt lat="44.71089" lon="3.69326">
        <ele>1226.3618111159</ele>
        <time>2015-04-23T12:20:00Z</time>
      </trkpt>
      <trkpt lat="44.71096" lon="3.69325">
        <ele>1226.3618111159</ele>
        <time>2015-04-23T12:20:05Z</time>
      </trkpt>
      <trkpt lat="44.71106" lon="3.69324">
        <ele>1224.526578773</ele>
        <time>2015-04-23T12:20:10Z</time>
      </trkpt>
      <trkpt lat="44.71114" lon="3.69325">
        <ele>1224.526578773</ele>
        <time>2015-04-23T12:20:15Z</time>
      </trkpt>
      <trkpt lat="44.71122" lon="3.69323">
        <ele>1222.6246898712</ele>
        <time>2015-04-23T12:20:20Z</time>
      </trkpt>
      <trkpt lat="44.7113" lon="3.69324">
        <ele>1222.6246898712</ele>
        <time>2015-04-23T12:20:25Z</time>
      </trkpt>
      <trkpt lat="44.71137" lon="3.69322">
        <ele>1220.8965389818</ele>
        <time>2015-04-23T12:20:30Z</time>
      </trkpt>
      <trkpt lat="44.71141" lon="3.6932">
        <ele>1220.8965389818</ele>
        <time>2015-04-23T12:20:35Z</time>
      </trkpt>
      <trkpt lat="44.71147" lon="3.69317">
        <ele>1218.9734471543</ele>
        <time>2015-04-23T12:20:40Z</time>
      </trkpt>
      <trkpt lat="44.71155" lon="3.69314">
        <ele>1218.9734471543</ele>
        <time>2015-04-23T12:20:45Z</time>
      </trkpt>
      <trkpt lat="44.71163" lon="3.69311">
        <ele>1217.1627857118</ele>
        <time>2015-04-23T12:20:50Z</time>
      </trkpt>
      <trkpt lat="44.7117" lon="3.69309">
        <ele>1217.1627857118</ele>
        <time>2015-04-23T12:20:55Z</time>
      </trkpt>
      <trkpt lat="44.71178" lon="3.69306">
        <ele>1215.3021990099</ele>
        <time>2015-04-23T12:21:00Z</time>
      </trkpt>
      <trkpt lat="44.71186" lon="3.69304">
        <ele>1215.3021990099</ele>
        <time>2015-04-23T12:21:05Z</time>
      </trkpt>
      <trkpt lat="44.71192" lon="3.69301">
        <ele>1213.5439370265</ele>
        <time>2015-04-23T12:21:10Z</time>
      </trkpt>
      <trkpt lat="44.712" lon="3.69301">
        <ele>1213.5439370265</ele>
        <time>2015-04-23T12:21:15Z</time>
      </trkpt>
      <trkpt lat="44.71208" lon="3.69298">
        <ele>1211.7548667917</ele>
        <time>2015-04-23T12:21:20Z</time>
      </trkpt>
      <trkpt lat="44.71215" lon="3.69296">
        <ele>1211.7548667917</ele>
        <time>2015-04-23T12:21:25Z</time>
      </trkpt>
      <trkpt lat="44.71223" lon="3.69294">
        <ele>1209.9989606533</ele>
        <time>2015-04-23T12:21:30Z</time>
      </trkpt>
      <trkpt lat="44.71231" lon="3.69292">
        <ele>1209.9989606533</ele>
        <time>2015-04-23T12:21:35Z</time>
      </trkpt>
      <trkpt lat="44.71238" lon="3.69289">
        <ele>1207.629143085</ele>
        <time>2015-04-23T12:21:40Z</time>
      </trkpt>
      <trkpt lat="44.71242" lon="3.69287">
        <ele>1207.629143085</ele>
        <time>2015-04-23T12:21:45Z</time>
      </trkpt>
      <trkpt lat="44.71249" lon="3.69285">
        <ele>1205.2436012545</ele>
        <time>2015-04-23T12:21:50Z</time>
      </trkpt>
      <trkpt lat="44.71256" lon="3.69283">
        <ele>1205.2436012545</ele>
        <time>2015-04-23T12:21:55Z</time>
      </trkpt>
      <trkpt lat="44.71265" lon="3.69282">
        <ele>1203.5262034596</ele>
        <time>2015-04-23T12:22:00Z</time>
      </trkpt>
      <trkpt lat="44.71273" lon="3.69281">
        <ele>1203.5262034596</ele>
        <time>2015-04-23T12:22:05Z</time>
      </trkpt>
      <trkpt lat="44.7128" lon="3.69281">
        <ele>1201.5233590368</ele>
        <time>2015-04-23T12:22:10Z</time>
      </trkpt>
      <trkpt lat="44.71287" lon="3.69281">
        <ele>1201.5233590368</ele>
        <time>2015-04-23T12:22:15Z</time>
      </trkpt>
      <trkpt lat="44.71295" lon="3.69281">
        <ele>1199.5339108463</ele>
        <time>2015-04-23T12:22:20Z</time>
      </trkpt>
      <trkpt lat="44.71302" lon="3.69281">
        <ele>1199.5339108463</ele>
        <time>2015-04-23T12:22:25Z</time>
      </trkpt>
      <trkpt lat="44.71309" lon="3.69281">
        <ele>1197.9498696054</ele>
        <time>2015-04-23T12:22:30Z</time>
      </trkpt>
      <trkpt lat="44.71316" lon="3.6928">
        <ele>1197.9498696054</ele>
        <time>2015-04-23T12:22:35Z</time>
      </trkpt>
      <trkpt lat="44.71323" lon="3.6928">
        <ele>1196.369391787</ele>
        <time>2015-04-23T12:22:40Z</time>
      </trkpt>
      <trkpt lat="44.71329" lon="3.69279">
        <ele>1196.369391787</ele>
        <time>2015-04-23T12:22:45Z</time>
      </trkpt>
      <trkpt lat="44.71337" lon="3.6928">
        <ele>1194.9244021439</ele>
        <time>2015-04-23T12:22:50Z</time>
      </trkpt>
      <trkpt lat="44.71344" lon="3.6928">
        <ele>1194.9244021439</ele>
        <time>2015-04-23T12:22:55Z</time>
      </trkpt>
      <trkpt lat="44.71345" lon="3.69277">
        <ele>1193.6213377903</ele>
        <time>2015-04-23T12:23:00Z</time>
      </trkpt>
      <trkpt lat="44.71343" lon="3.69277">
        <ele>1193.6213377903</ele>
        <time>2015-04-23T12:23:05Z</time>
      </trkpt>
      <trkpt lat="44.71342" lon="3.69278">
        <ele>1193.6213377903</ele>
        <time>2015-04-23T12:23:10Z</time>
      </trkpt>
      <trkpt lat="44.7134" lon="3.69278">
        <ele>1193.6213377903</ele>
        <time>2015-04-23T12:23:15Z</time>
      </trkpt>
      <trkpt lat="44.71339" lon="3.69276">
        <ele>1193.6213377903</ele>
        <time>2015-04-23T12:23:20Z</time>
      </trkpt>
      <trkpt lat="44.7134" lon="3.69277">
        <ele>1193.6213377903</ele>
        <time>2015-04-23T12:23:25Z</time>
      </trkpt>
      <trkpt lat="44.7134" lon="3.69277">
        <ele>1193.6213377903</ele>
        <time>2015-04-23T12:23:30Z</time>
      </trkpt>
      <trkpt lat="44.71341" lon="3.69277">
        <ele>1191.5433282247</ele>
        <time>2015-04-23T12:23:35Z</time>
      </trkpt>
      <trkpt lat="44.71342" lon="3.69277">
        <ele>1191.5433282247</ele>
        <time>2015-04-23T12:23:40Z</time>
      </trkpt>
      <trkpt lat="44.71341" lon="3.69276">
        <ele>1191.5433282247</ele>
        <time>2015-04-23T12:23:45Z</time>
      </trkpt>
      <trkpt lat="44.7134" lon="3.69275">
        <ele>1191.5433282247</ele>
        <time>2015-04-23T12:23:50Z</time>
      </trkpt>
      <trkpt lat="44.71337" lon="3.69275">
        <ele>1191.5433282247</ele>
        <time>2015-04-23T12:23:55Z</time>
      </trkpt>
      <trkpt lat="44.71336" lon="3.69275">
        <ele>1191.5433282247</ele>
        <time>2015-04-23T12:24:00Z</time>
      </trkpt>
      <trkpt lat="44.71336" lon="3.69275">
        <ele>1191.5433282247</ele>
        <time>2015-04-23T12:24:05Z</time>
      </trkpt>
      <trkpt lat="44.71336" lon="3.69276">
        <ele>1191.5433282247</ele>
        <time>2015-04-23T12:24:10Z</time>
      </trkpt>
      <trkpt lat="44.71336" lon="3.69276">
        <ele>1191.5433282247</ele>
        <time>2015-04-23T12:24:15Z</time>
      </trkpt>
      <trkpt lat="44.71336" lon="3.69276">
        <ele>1191.5433282247</ele>
        <time>2015-04-23T12:24:20Z</time>
      </trkpt>
      <trkpt lat="44.71337" lon="3.69276">
        <ele>1189.5001850888</ele>
        <time>2015-04-23T12:24:25Z</time>
      </trkpt>
      <trkpt lat="44.71338" lon="3.69279">
        <ele>1189.5001850888</ele>
        <time>2015-04-23T12:24:30Z</time>
      </trkpt>
      <trkpt lat="44.7134" lon="3.69279">
        <ele>1189.5001850888</ele>
        <time>2015-04-23T12:24:35Z</time>
      </trkpt>
      <trkpt lat="44.71342" lon="3.69279">
        <ele>1189.5001850888</ele>
        <time>2015-04-23T12:24:40Z</time>
      </trkpt>
      <trkpt lat="44.71349" lon="3.6928">
        <ele>1188.025846455</ele>
        <time>2015-04-23T12:24:45Z</time>
      </trkpt>
      <trkpt lat="44.71358" lon="3.69281">
        <ele>1187.0801027789</ele>
        <time>2015-04-23T12:24:50Z</time>
      </trkpt>
      <trkpt lat="44.71366" lon="3.69282">
        <ele>1187.0801027789</ele>
        <time>2015-04-23T12:24:55Z</time>
      </trkpt>
      <trkpt lat="44.71371" lon="3.69287">
        <ele>1185.9467786492</ele>
        <time>2015-04-23T12:25:00Z</time>
      </trkpt>
      <trkpt lat="44.7137" lon="3.69297">
        <ele>1185.9467786492</ele>
        <time>2015-04-23T12:25:05Z</time>
      </trkpt>
      <trkpt lat="44.71368" lon="3.69307">
        <ele>1185.0291490778</ele>
        <time>2015-04-23T12:25:10Z</time>
      </trkpt>
      <trkpt lat="44.71367" lon="3.69312">
        <ele>1185.0291490778</ele>
        <time>2015-04-23T12:25:15Z</time>
      </trkpt>
      <trkpt lat="44.71366" lon="3.69326">
        <ele>1184.0804809553</ele>
        <time>2015-04-23T12:25:20Z</time>
      </trkpt>
      <trkpt lat="44.71365" lon="3.69337">
        <ele>1184.0804809553</ele>
        <time>2015-04-23T12:25:25Z</time>
      </trkpt>
      <trkpt lat="44.71365" lon="3.69347">
        <ele>1183.5206614189</ele>
        <time>2015-04-23T12:25:30Z</time>
      </trkpt>
      <trkpt lat="44.71365" lon="3.69358">
        <ele>1183.5206614189</ele>
        <time>2015-04-23T12:25:35Z</time>
      </trkpt>
      <trkpt lat="44.71365" lon="3.69369">
        <ele>1182.9881811195</ele>
        <time>2015-04-23T12:25:40Z</time>
      </trkpt>
      <trkpt lat="44.71365" lon="3.6938">
        <ele>1182.9881811195</ele>
        <time>2015-04-23T12:25:45Z</time>
      </trkpt>
      <trkpt lat="44.71366" lon="3.6939">
        <ele>1182.6379152905</ele>
        <time>2015-04-23T12:25:50Z</time>
      </trkpt>
      <trkpt lat="44.71368" lon="3.69401">
        <ele>1182.6379152905</ele>
        <time>2015-04-23T12:25:55Z</time>
      </trkpt>
      <trkpt lat="44.71372" lon="3.69414">
        <ele>1182.6272001732</ele>
        <time>2015-04-23T12:26:00Z</time>
      </trkpt>
      <trkpt lat="44.71376" lon="3.69447">
        <ele>1183.0575789699</ele>
        <time>2015-04-23T12:26:05Z</time>
      </trkpt>
      <trkpt lat="44.7138" lon="3.69487">
        <ele>1183.5174732867</ele>
        <time>2015-04-23T12:26:10Z</time>
      </trkpt>
      <trkpt lat="44.71386" lon="3.69532">
        <ele>1184.2018799424</ele>
        <time>2015-04-23T12:26:15Z</time>
      </trkpt>
      <trkpt lat="44.71393" lon="3.69562">
        <ele>1185.2620145239</ele>
        <time>2015-04-23T12:26:20Z</time>
      </trkpt>
      <trkpt lat="44.71394" lon="3.69578">
        <ele>1186.2604973309</ele>
        <time>2015-04-23T12:26:25Z</time>
      </trkpt>
      <trkpt lat="44.71395" lon="3.69589">
        <ele>1186.2604973309</ele>
        <time>2015-04-23T12:26:30Z</time>
      </trkpt>
      <trkpt lat="44.71398" lon="3.69598">
        <ele>1187.1381458016</ele>
        <time>2015-04-23T12:26:35Z</time>
      </trkpt>
      <trkpt lat="44.714" lon="3.69607">
        <ele>1187.1381458016</ele>
        <time>2015-04-23T12:26:40Z</time>
      </trkpt>
      <trkpt lat="44.71403" lon="3.69615">
        <ele>1188.2440188304</ele>
        <time>2015-04-23T12:26:45Z</time>
      </trkpt>
      <trkpt lat="44.71404" lon="3.69625">
        <ele>1188.2440188304</ele>
        <time>2015-04-23T12:26:50Z</time>
      </trkpt>
      <trkpt lat="44.71405" lon="3.69637">
        <ele>1189.4253854541</ele>
        <time>2015-04-23T12:26:55Z</time>
      </trkpt>
      <trkpt lat="44.71406" lon="3.69646">
        <ele>1189.4253854541</ele>
        <time>2015-04-23T12:27:00Z</time>
      </trkpt>
      <trkpt lat="44.71408" lon="3.69656">
        <ele>1190.7423513164</ele>
        <time>2015-04-23T12:27:05Z</time>
      </trkpt>
      <trkpt lat="44.71409" lon="3.69667">
        <ele>1190.7423513164</ele>
        <time>2015-04-23T12:27:10Z</time>
      </trkpt>
      <trkpt lat="44.71409" lon="3.69678">
        <ele>1191.9044461503</ele>
        <time>2015-04-23T12:27:15Z</time>
      </trkpt>
      <trkpt lat="44.71409" lon="3.6969">
        <ele>1191.9044461503</ele>
        <time>2015-04-23T12:27:20Z</time>
      </trkpt>
      <trkpt lat="44.71409" lon="3.69702">
        <ele>1193.0609935372</ele>
        <time>2015-04-23T12:27:25Z</time>
      </trkpt>
      <trkpt lat="44.7141" lon="3.69714">
        <ele>1193.0609935372</ele>
        <time>2015-04-23T12:27:30Z</time>
      </trkpt>
      <trkpt lat="44.71412" lon="3.69726">
        <ele>1194.3792965499</ele>
        <time>2015-04-23T12:27:35Z</time>
      </trkpt>
      <trkpt lat="44.71414" lon="3.69737">
        <ele>1194.3792965499</ele>
        <time>2015-04-23T12:27:40Z</time>
      </trkpt>
      <trkpt lat="44.71415" lon="3.69747">
        <ele>1195.913158521</ele>
        <time>2015-04-23T12:27:45Z</time>
      </trkpt>
      <trkpt lat="44.71417" lon="3.69757">
        <ele>1195.913158521</ele>
        <time>2015-04-23T12:27:50Z</time>
      </trkpt>
      <trkpt lat="44.71417" lon="3.69761">
        <ele>1197.5678467078</ele>
        <time>2015-04-23T12:27:55Z</time>
      </trkpt>
      <trkpt lat="44.71416" lon="3.69767">
        <ele>1197.5678467078</ele>
        <time>2015-04-23T12:28:00Z</time>
      </trkpt>
      <trkpt lat="44.71416" lon="3.69775">
        <ele>1199.0392235756</ele>
        <time>2015-04-23T12:28:05Z</time>
      </trkpt>
      <trkpt lat="44.71416" lon="3.69784">
        <ele>1199.0392235756</ele>
        <time>2015-04-23T12:28:10Z</time>
      </trkpt>
      <trkpt lat="44.71416" lon="3.69789">
        <ele>1200.3920253084</ele>
        <time>2015-04-23T12:28:15Z</time>
      </trkpt>
      <trkpt lat="44.71416" lon="3.69792">
        <ele>1200.3920253084</ele>
        <time>2015-04-23T12:28:20Z</time>
      </trkpt>
      <trkpt lat="44.71414" lon="3.69796">
        <ele>1200.3920253084</ele>
        <time>2015-04-23T12:28:25Z</time>
      </trkpt>
      <trkpt lat="44.71412" lon="3.698">
        <ele>1201.2111562485</ele>
        <time>2015-04-23T12:28:30Z</time>
      </trkpt>
      <trkpt lat="44.71408" lon="3.6981">
        <ele>1201.2111562485</ele>
        <time>2015-04-23T12:28:35Z</time>
      </trkpt>
      <trkpt lat="44.71404" lon="3.6982">
        <ele>1202.1512737572</ele>
        <time>2015-04-23T12:28:40Z</time>
      </trkpt>
      <trkpt lat="44.714" lon="3.6983">
        <ele>1202.1512737572</ele>
        <time>2015-04-23T12:28:45Z</time>
      </trkpt>
      <trkpt lat="44.71396" lon="3.69842">
        <ele>1202.6947027801</ele>
        <time>2015-04-23T12:28:50Z</time>
      </trkpt>
      <trkpt lat="44.71392" lon="3.69851">
        <ele>1202.6947027801</ele>
        <time>2015-04-23T12:28:55Z</time>
      </trkpt>
      <trkpt lat="44.71389" lon="3.69859">
        <ele>1202.8386400212</ele>
        <time>2015-04-23T12:29:00Z</time>
      </trkpt>
      <trkpt lat="44.71386" lon="3.6987">
        <ele>1202.8386400212</ele>
        <time>2015-04-23T12:29:05Z</time>
      </trkpt>
      <trkpt lat="44.71383" lon="3.69876">
        <ele>1202.4376575441</ele>
        <time>2015-04-23T12:29:10Z</time>
      </trkpt>
      <trkpt lat="44.71379" lon="3.69886">
        <ele>1202.4376575441</ele>
        <time>2015-04-23T12:29:15Z</time>
      </trkpt>
      <trkpt lat="44.71376" lon="3.69897">
        <ele>1201.9639593788</ele>
        <time>2015-04-23T12:29:20Z</time>
      </trkpt>
      <trkpt lat="44.71372" lon="3.69906">
        <ele>1201.9639593788</ele>
        <time>2015-04-23T12:29:25Z</time>
      </trkpt>
      <trkpt lat="44.71369" lon="3.69914">
        <ele>1201.1060312683</ele>
        <time>2015-04-23T12:29:30Z</time>
      </trkpt>
      <trkpt lat="44.71366" lon="3.69925">
        <ele>1201.1060312683</ele>
        <time>2015-04-23T12:29:35Z</time>
      </trkpt>
      <trkpt lat="44.71363" lon="3.69934">
        <ele>1200.9022762553</ele>
        <time>2015-04-23T12:29:40Z</time>
      </trkpt>
      <trkpt lat="44.71359" lon="3.69944">
        <ele>1200.9022762553</ele>
        <time>2015-04-23T12:29:45Z</time>
      </trkpt>
      <trkpt lat="44.71355" lon="3.69957">
        <ele>1201.4628492609</ele>
        <time>2015-04-23T12:29:50Z</time>
      </trkpt>
      <trkpt lat="44.71352" lon="3.69967">
        <ele>1201.4628492609</ele>
        <time>2015-04-23T12:29:55Z</time>
      </trkpt>
      <trkpt lat="44.71349" lon="3.69975">
        <ele>1201.8501840308</ele>
        <time>2015-04-23T12:30:00Z</time>
      </trkpt>
      <trkpt lat="44.71348" lon="3.69981">
        <ele>1201.8501840308</ele>
        <time>2015-04-23T12:30:05Z</time>
      </trkpt>
      <trkpt lat="44.71346" lon="3.69991">
        <ele>1202.1617276573</ele>
        <time>2015-04-23T12:30:10Z</time>
      </trkpt>
      <trkpt lat="44.71345" lon="3.70001">
        <ele>1202.1617276573</ele>
        <time>2015-04-23T12:30:15Z</time>
      </trkpt>
      <trkpt lat="44.71344" lon="3.70011">
        <ele>1202.1854532173</ele>
        <time>2015-04-23T12:30:20Z</time>
      </trkpt>
      <trkpt lat="44.71343" lon="3.70019">
        <ele>1202.1854532173</ele>
        <time>2015-04-23T12:30:25Z</time>
      </trkpt>
      <trkpt lat="44.7134" lon="3.70027">
        <ele>1202.4751962269</ele>
        <time>2015-04-23T12:30:30Z</time>
      </trkpt>
      <trkpt lat="44.71339" lon="3.70036">
        <ele>1202.4751962269</ele>
        <time>2015-04-23T12:30:35Z</time>
      </trkpt>
      <trkpt lat="44.71339" lon="3.70047">
        <ele>1203.1543593375</ele>
        <time>2015-04-23T12:30:40Z</time>
      </trkpt>
      <trkpt lat="44.71338" lon="3.70057">
        <ele>1203.1543593375</ele>
        <time>2015-04-23T12:30:45Z</time>
      </trkpt>
      <trkpt lat="44.71337" lon="3.70068">
        <ele>1203.846304465</ele>
        <time>2015-04-23T12:30:50Z</time>
      </trkpt>
      <trkpt lat="44.71334" lon="3.70081">
        <ele>1204.6632736843</ele>
        <time>2015-04-23T12:30:55Z</time>
      </trkpt>
      <trkpt lat="44.71334" lon="3.70092">
        <ele>1204.6632736843</ele>
        <time>2015-04-23T12:31:00Z</time>
      </trkpt>
      <trkpt lat="44.71333" lon="3.70102">
        <ele>1205.1757930551</ele>
        <time>2015-04-23T12:31:05Z</time>
      </trkpt>
      <trkpt lat="44.71332" lon="3.70112">
        <ele>1205.1757930551</ele>
        <time>2015-04-23T12:31:10Z</time>
      </trkpt>
      <trkpt lat="44.7133" lon="3.7012">
        <ele>1205.8083155672</ele>
        <time>2015-04-23T12:31:15Z</time>
      </trkpt>
      <trkpt lat="44.71327" lon="3.70131">
        <ele>1205.8083155672</ele>
        <time>2015-04-23T12:31:20Z</time>
      </trkpt>
      <trkpt lat="44.71324" lon="3.70139">
        <ele>1206.0603765519</ele>
        <time>2015-04-23T12:31:25Z</time>
      </trkpt>
      <trkpt lat="44.71321" lon="3.70146">
        <ele>1206.0603765519</ele>
        <time>2015-04-23T12:31:30Z</time>
      </trkpt>
      <trkpt lat="44.71316" lon="3.70156">
        <ele>1207.3284637525</ele>
        <time>2015-04-23T12:31:35Z</time>
      </trkpt>
      <trkpt lat="44.71311" lon="3.70166">
        <ele>1208.6699929092</ele>
        <time>2015-04-23T12:31:40Z</time>
      </trkpt>
      <trkpt lat="44.71306" lon="3.70177">
        <ele>1208.6699929092</ele>
        <time>2015-04-23T12:31:45Z</time>
      </trkpt>
      <trkpt lat="44.71303" lon="3.70185">
        <ele>1209.9464694263</ele>
        <time>2015-04-23T12:31:50Z</time>
      </trkpt>
      <trkpt lat="44.713" lon="3.70194">
        <ele>1209.9464694263</ele>
        <time>2015-04-23T12:31:55Z</time>
      </trkpt>
      <trkpt lat="44.71296" lon="3.70203">
        <ele>1211.1883660334</ele>
        <time>2015-04-23T12:32:00Z</time>
      </trkpt>
      <trkpt lat="44.71294" lon="3.70212">
        <ele>1211.1883660334</ele>
        <time>2015-04-23T12:32:05Z</time>
      </trkpt>
      <trkpt lat="44.71293" lon="3.70221">
        <ele>1212.8852620058</ele>
        <time>2015-04-23T12:32:10Z</time>
      </trkpt>
      <trkpt lat="44.71292" lon="3.7023">
        <ele>1212.8852620058</ele>
        <time>2015-04-23T12:32:15Z</time>
      </trkpt>
      <trkpt lat="44.71292" lon="3.70238">
        <ele>1213.7602563537</ele>
        <time>2015-04-23T12:32:20Z</time>
      </trkpt>
      <trkpt lat="44.71291" lon="3.70245">
        <ele>1213.7602563537</ele>
        <time>2015-04-23T12:32:25Z</time>
      </trkpt>
      <trkpt lat="44.71288" lon="3.70255">
        <ele>1214.5781504216</ele>
        <time>2015-04-23T12:32:30Z</time>
      </trkpt>
      <trkpt lat="44.71285" lon="3.70265">
        <ele>1214.5781504216</ele>
        <time>2015-04-23T12:32:35Z</time>
      </trkpt>
      <trkpt lat="44.71281" lon="3.70277">
        <ele>1215.5578415908</ele>
        <time>2015-04-23T12:32:40Z</time>
      </trkpt>
      <trkpt lat="44.71278" lon="3.70287">
        <ele>1215.5578415908</ele>
        <time>2015-04-23T12:32:45Z</time>
      </trkpt>
      <trkpt lat="44.71275" lon="3.70297">
        <ele>1216.7864993982</ele>
        <time>2015-04-23T12:32:50Z</time>
      </trkpt>
      <trkpt lat="44.71272" lon="3.70307">
        <ele>1216.7864993982</ele>
        <time>2015-04-23T12:32:55Z</time>
      </trkpt>
      <trkpt lat="44.71269" lon="3.70318">
        <ele>1217.5804952154</ele>
        <time>2015-04-23T12:33:00Z</time>
      </trkpt>
      <trkpt lat="44.71267" lon="3.70329">
        <ele>1217.5804952154</ele>
        <time>2015-04-23T12:33:05Z</time>
      </trkpt>
      <trkpt lat="44.71266" lon="3.7034">
        <ele>1217.7977064288</ele>
        <time>2015-04-23T12:33:10Z</time>
      </trkpt>
      <trkpt lat="44.71265" lon="3.70352">
        <ele>1217.7977064288</ele>
        <time>2015-04-23T12:33:15Z</time>
      </trkpt>
      <trkpt lat="44.71265" lon="3.70364">
        <ele>1217.7837207891</ele>
        <time>2015-04-23T12:33:20Z</time>
      </trkpt>
      <trkpt lat="44.71265" lon="3.70374">
        <ele>1217.7837207891</ele>
        <time>2015-04-23T12:33:25Z</time>
      </trkpt>
      <trkpt lat="44.71266" lon="3.70385">
        <ele>1217.801822305</ele>
        <time>2015-04-23T12:33:30Z</time>
      </trkpt>
      <trkpt lat="44.71265" lon="3.70396">
        <ele>1217.801822305</ele>
        <time>2015-04-23T12:33:35Z</time>
      </trkpt>
      <trkpt lat="44.71266" lon="3.70407">
        <ele>1217.7356567201</ele>
        <time>2015-04-23T12:33:40Z</time>
      </trkpt>
      <trkpt lat="44.71267" lon="3.70417">
        <ele>1217.7356567201</ele>
        <time>2015-04-23T12:33:45Z</time>
      </trkpt>
      <trkpt lat="44.71268" lon="3.70426">
        <ele>1217.9100484319</ele>
        <time>2015-04-23T12:33:50Z</time>
      </trkpt>
      <trkpt lat="44.71272" lon="3.70434">
        <ele>1217.9100484319</ele>
        <time>2015-04-23T12:33:55Z</time>
      </trkpt>
      <trkpt lat="44.71275" lon="3.70441">
        <ele>1217.0689361591</ele>
        <time>2015-04-23T12:34:00Z</time>
      </trkpt>
      <trkpt lat="44.71275" lon="3.70451">
        <ele>1217.0689361591</ele>
        <time>2015-04-23T12:34:05Z</time>
      </trkpt>
      <trkpt lat="44.71271" lon="3.70463">
        <ele>1216.2851406318</ele>
        <time>2015-04-23T12:34:10Z</time>
      </trkpt>
      <trkpt lat="44.71272" lon="3.70475">
        <ele>1216.2851406318</ele>
        <time>2015-04-23T12:34:15Z</time>
      </trkpt>
      <trkpt lat="44.71274" lon="3.70485">
        <ele>1214.9096737901</ele>
        <time>2015-04-23T12:34:20Z</time>
      </trkpt>
      <trkpt lat="44.71274" lon="3.70495">
        <ele>1214.9096737901</ele>
        <time>2015-04-23T12:34:25Z</time>
      </trkpt>
      <trkpt lat="44.71276" lon="3.70506">
        <ele>1213.7551855214</ele>
        <time>2015-04-23T12:34:30Z</time>
      </trkpt>
      <trkpt lat="44.7128" lon="3.70514">
        <ele>1213.7551855214</ele>
        <time>2015-04-23T12:34:35Z</time>
      </trkpt>
      <trkpt lat="44.7128" lon="3.70526">
        <ele>1212.6805195021</ele>
        <time>2015-04-23T12:34:40Z</time>
      </trkpt>
      <trkpt lat="44.7128" lon="3.70537">
        <ele>1212.6805195021</ele>
        <time>2015-04-23T12:34:45Z</time>
      </trkpt>
      <trkpt lat="44.71282" lon="3.70547">
        <ele>1211.6411170958</ele>
        <time>2015-04-23T12:34:50Z</time>
      </trkpt>
      <trkpt lat="44.71284" lon="3.70556">
        <ele>1211.6411170958</ele>
        <time>2015-04-23T12:34:55Z</time>
      </trkpt>
      <trkpt lat="44.71285" lon="3.70567">
        <ele>1209.4426751975</ele>
        <time>2015-04-23T12:35:00Z</time>
      </trkpt>
      <trkpt lat="44.71287" lon="3.70576">
        <ele>1209.4426751975</ele>
        <time>2015-04-23T12:35:05Z</time>
      </trkpt>
      <trkpt lat="44.7129" lon="3.70585">
        <ele>1206.9705642173</ele>
        <time>2015-04-23T12:35:10Z</time>
      </trkpt>
      <trkpt lat="44.71294" lon="3.70593">
        <ele>1206.9705642173</ele>
        <time>2015-04-23T12:35:15Z</time>
      </trkpt>
      <trkpt lat="44.71298" lon="3.706">
        <ele>1204.3396770353</ele>
        <time>2015-04-23T12:35:20Z</time>
      </trkpt>
      <trkpt lat="44.71301" lon="3.70609">
        <ele>1204.3396770353</ele>
        <time>2015-04-23T12:35:25Z</time>
      </trkpt>
      <trkpt lat="44.71305" lon="3.70614">
        <ele>1201.7721208039</ele>
        <time>2015-04-23T12:35:30Z</time>
      </trkpt>
      <trkpt lat="44.71306" lon="3.70619">
        <ele>1201.7721208039</ele>
        <time>2015-04-23T12:35:35Z</time>
      </trkpt>
      <trkpt lat="44.71308" lon="3.70628">
        <ele>1199.2572432994</ele>
        <time>2015-04-23T12:35:40Z</time>
      </trkpt>
      <trkpt lat="44.71309" lon="3.70637">
        <ele>1199.2572432994</ele>
        <time>2015-04-23T12:35:45Z</time>
      </trkpt>
      <trkpt lat="44.7131" lon="3.70644">
        <ele>1197.692812192</ele>
        <time>2015-04-23T12:35:50Z</time>
      </trkpt>
      <trkpt lat="44.71312" lon="3.70652">
        <ele>1197.692812192</ele>
        <time>2015-04-23T12:35:55Z</time>
      </trkpt>
      <trkpt lat="44.71313" lon="3.70657">
        <ele>1195.5011934213</ele>
        <time>2015-04-23T12:36:00Z</time>
      </trkpt>
      <trkpt lat="44.71314" lon="3.70662">
        <ele>1195.5011934213</ele>
        <time>2015-04-23T12:36:05Z</time>
      </trkpt>
      <trkpt lat="44.71315" lon="3.70668">
        <ele>1195.5011934213</ele>
        <time>2015-04-23T12:36:10Z</time>
      </trkpt>
      <trkpt lat="44.71319" lon="3.70671">
        <ele>1193.3695199337</ele>
        <time>2015-04-23T12:36:15Z</time>
      </trkpt>
      <trkpt lat="44.71322" lon="3.70681">
        <ele>1193.3695199337</ele>
        <time>2015-04-23T12:36:20Z</time>
      </trkpt>
      <trkpt lat="44.71326" lon="3.70686">
        <ele>1191.8044308175</ele>
        <time>2015-04-23T12:36:25Z</time>
      </trkpt>
      <trkpt lat="44.71329" lon="3.70692">
        <ele>1191.8044308175</ele>
        <time>2015-04-23T12:36:30Z</time>
      </trkpt>
      <trkpt lat="44.7133" lon="3.707">
        <ele>1190.1495354408</ele>
        <time>2015-04-23T12:36:35Z</time>
      </trkpt>
      <trkpt lat="44.71332" lon="3.7071">
        <ele>1190.1495354408</ele>
        <time>2015-04-23T12:36:40Z</time>
      </trkpt>
      <trkpt lat="44.71334" lon="3.70719">
        <ele>1188.4740746144</ele>
        <time>2015-04-23T12:36:45Z</time>
      </trkpt>
      <trkpt lat="44.71336" lon="3.70731">
        <ele>1188.4740746144</ele>
        <time>2015-04-23T12:36:50Z</time>
      </trkpt>
      <trkpt lat="44.71338" lon="3.70741">
        <ele>1187.3608972057</ele>
        <time>2015-04-23T12:36:55Z</time>
      </trkpt>
      <trkpt lat="44.71339" lon="3.70752">
        <ele>1187.3608972057</ele>
        <time>2015-04-23T12:37:00Z</time>
      </trkpt>
      <trkpt lat="44.71339" lon="3.70766">
        <ele>1186.0080608425</ele>
        <time>2015-04-23T12:37:05Z</time>
      </trkpt>
      <trkpt lat="44.71337" lon="3.70783">
        <ele>1184.350363744</ele>
        <time>2015-04-23T12:37:10Z</time>
      </trkpt>
      <trkpt lat="44.71337" lon="3.708">
        <ele>1183.2215753326</ele>
        <time>2015-04-23T12:37:15Z</time>
      </trkpt>
      <trkpt lat="44.71337" lon="3.70814">
        <ele>1182.153216441</ele>
        <time>2015-04-23T12:37:20Z</time>
      </trkpt>
      <trkpt lat="44.71337" lon="3.70827">
        <ele>1180.9558836207</ele>
        <time>2015-04-23T12:37:25Z</time>
      </trkpt>
      <trkpt lat="44.71339" lon="3.70839">
        <ele>1180.9558836207</ele>
        <time>2015-04-23T12:37:30Z</time>
      </trkpt>
      <trkpt lat="44.71339" lon="3.70852">
        <ele>1178.6040363865</ele>
        <time>2015-04-23T12:37:35Z</time>
      </trkpt>
      <trkpt lat="44.71342" lon="3.70862">
        <ele>1178.6040363865</ele>
        <time>2015-04-23T12:37:40Z</time>
      </trkpt>
      <trkpt lat="44.71341" lon="3.70875">
        <ele>1176.7445549288</ele>
        <time>2015-04-23T12:37:45Z</time>
      </trkpt>
      <trkpt lat="44.71342" lon="3.70887">
        <ele>1176.7445549288</ele>
        <time>2015-04-23T12:37:50Z</time>
      </trkpt>
      <trkpt lat="44.71345" lon="3.70895">
        <ele>1174.8554262626</ele>
        <time>2015-04-23T12:37:55Z</time>
      </trkpt>
      <trkpt lat="44.71347" lon="3.70903">
        <ele>1174.8554262626</ele>
        <time>2015-04-23T12:38:00Z</time>
      </trkpt>
      <trkpt lat="44.71348" lon="3.70913">
        <ele>1173.0293566859</ele>
        <time>2015-04-23T12:38:05Z</time>
      </trkpt>
      <trkpt lat="44.71349" lon="3.70924">
        <ele>1173.0293566859</ele>
        <time>2015-04-23T12:38:10Z</time>
      </trkpt>
      <trkpt lat="44.71354" lon="3.70927">
        <ele>1171.7410103897</ele>
        <time>2015-04-23T12:38:15Z</time>
      </trkpt>
      <trkpt lat="44.71354" lon="3.70939">
        <ele>1171.7410103897</ele>
        <time>2015-04-23T12:38:20Z</time>
      </trkpt>
      <trkpt lat="44.71355" lon="3.70951">
        <ele>1170.7511994026</ele>
        <time>2015-04-23T12:38:25Z</time>
      </trkpt>
      <trkpt lat="44.71355" lon="3.70964">
        <ele>1169.6211536461</ele>
        <time>2015-04-23T12:38:30Z</time>
      </trkpt>
      <trkpt lat="44.71355" lon="3.70975">
        <ele>1169.6211536461</ele>
        <time>2015-04-23T12:38:35Z</time>
      </trkpt>
      <trkpt lat="44.71356" lon="3.70985">
        <ele>1168.7660197583</ele>
        <time>2015-04-23T12:38:40Z</time>
      </trkpt>
      <trkpt lat="44.71358" lon="3.70994">
        <ele>1168.7660197583</ele>
        <time>2015-04-23T12:38:45Z</time>
      </trkpt>
      <trkpt lat="44.71361" lon="3.70999">
        <ele>1167.4887078459</ele>
        <time>2015-04-23T12:38:50Z</time>
      </trkpt>
      <trkpt lat="44.71362" lon="3.71004">
        <ele>1167.4887078459</ele>
        <time>2015-04-23T12:38:55Z</time>
      </trkpt>
      <trkpt lat="44.71362" lon="3.71014">
        <ele>1166.1387589202</ele>
        <time>2015-04-23T12:39:00Z</time>
      </trkpt>
      <trkpt lat="44.71362" lon="3.71026">
        <ele>1166.1387589202</ele>
        <time>2015-04-23T12:39:05Z</time>
      </trkpt>
      <trkpt lat="44.71362" lon="3.71038">
        <ele>1164.1610392961</ele>
        <time>2015-04-23T12:39:10Z</time>
      </trkpt>
      <trkpt lat="44.71363" lon="3.71048">
        <ele>1164.1610392961</ele>
        <time>2015-04-23T12:39:15Z</time>
      </trkpt>
      <trkpt lat="44.71364" lon="3.71058">
        <ele>1161.9075029626</ele>
        <time>2015-04-23T12:39:20Z</time>
      </trkpt>
      <trkpt lat="44.71364" lon="3.71067">
        <ele>1161.9075029626</ele>
        <time>2015-04-23T12:39:25Z</time>
      </trkpt>
      <trkpt lat="44.71362" lon="3.71078">
        <ele>1159.6760817467</ele>
        <time>2015-04-23T12:39:30Z</time>
      </trkpt>
      <trkpt lat="44.71363" lon="3.71087">
        <ele>1159.6760817467</ele>
        <time>2015-04-23T12:39:35Z</time>
      </trkpt>
      <trkpt lat="44.71363" lon="3.71097">
        <ele>1157.6849954152</ele>
        <time>2015-04-23T12:39:40Z</time>
      </trkpt>
      <trkpt lat="44.71363" lon="3.71107">
        <ele>1157.6849954152</ele>
        <time>2015-04-23T12:39:45Z</time>
      </trkpt>
      <trkpt lat="44.71364" lon="3.71115">
        <ele>1155.8474165411</ele>
        <time>2015-04-23T12:39:50Z</time>
      </trkpt>
      <trkpt lat="44.71365" lon="3.71124">
        <ele>1155.8474165411</ele>
        <time>2015-04-23T12:39:55Z</time>
      </trkpt>
      <trkpt lat="44.71367" lon="3.71132">
        <ele>1154.5002683263</ele>
        <time>2015-04-23T12:40:00Z</time>
      </trkpt>
      <trkpt lat="44.71368" lon="3.71142">
        <ele>1154.5002683263</ele>
        <time>2015-04-23T12:40:05Z</time>
      </trkpt>
      <trkpt lat="44.71369" lon="3.71153">
        <ele>1153.9542326864</ele>
        <time>2015-04-23T12:40:10Z</time>
      </trkpt>
      <trkpt lat="44.7137" lon="3.71163">
        <ele>1153.9542326864</ele>
        <time>2015-04-23T12:40:15Z</time>
      </trkpt>
      <trkpt lat="44.71371" lon="3.71171">
        <ele>1153.687791179</ele>
        <time>2015-04-23T12:40:20Z</time>
      </trkpt>
      <trkpt lat="44.71371" lon="3.71181">
        <ele>1153.687791179</ele>
        <time>2015-04-23T12:40:25Z</time>
      </trkpt>
      <trkpt lat="44.7137" lon="3.71191">
        <ele>1153.4041983071</ele>
        <time>2015-04-23T12:40:30Z</time>
      </trkpt>
      <trkpt lat="44.71369" lon="3.71203">
        <ele>1153.4041983071</ele>
        <time>2015-04-23T12:40:35Z</time>
      </trkpt>
      <trkpt lat="44.71371" lon="3.71225">
        <ele>1153.5922603936</ele>
        <time>2015-04-23T12:40:40Z</time>
      </trkpt>
      <trkpt lat="44.71372" lon="3.71242">
        <ele>1153.6947055752</ele>
        <time>2015-04-23T12:40:45Z</time>
      </trkpt>
      <trkpt lat="44.71369" lon="3.71254">
        <ele>1153.7718292388</ele>
        <time>2015-04-23T12:40:50Z</time>
      </trkpt>
      <trkpt lat="44.71371" lon="3.71262">
        <ele>1153.7718292388</ele>
        <time>2015-04-23T12:40:55Z</time>
      </trkpt>
      <trkpt lat="44.71372" lon="3.7127">
        <ele>1154.0668737087</ele>
        <time>2015-04-23T12:41:00Z</time>
      </trkpt>
      <trkpt lat="44.71372" lon="3.71279">
        <ele>1154.0668737087</ele>
        <time>2015-04-23T12:41:05Z</time>
      </trkpt>
      <trkpt lat="44.71372" lon="3.71288">
        <ele>1154.5307660545</ele>
        <time>2015-04-23T12:41:10Z</time>
      </trkpt>
      <trkpt lat="44.71373" lon="3.71297">
        <ele>1154.5307660545</ele>
        <time>2015-04-23T12:41:15Z</time>
      </trkpt>
      <trkpt lat="44.71374" lon="3.71306">
        <ele>1155.4634224056</ele>
        <time>2015-04-23T12:41:20Z</time>
      </trkpt>
      <trkpt lat="44.71373" lon="3.71318">
        <ele>1155.4634224056</ele>
        <time>2015-04-23T12:41:25Z</time>
      </trkpt>
      <trkpt lat="44.71371" lon="3.71332">
        <ele>1156.7379081574</ele>
        <time>2015-04-23T12:41:30Z</time>
      </trkpt>
      <trkpt lat="44.7137" lon="3.71343">
        <ele>1156.7379081574</ele>
        <time>2015-04-23T12:41:35Z</time>
      </trkpt>
      <trkpt lat="44.71368" lon="3.71352">
        <ele>1157.7457000594</ele>
        <time>2015-04-23T12:41:40Z</time>
      </trkpt>
      <trkpt lat="44.71368" lon="3.71361">
        <ele>1157.7457000594</ele>
        <time>2015-04-23T12:41:45Z</time>
      </trkpt>
      <trkpt lat="44.71365" lon="3.7137">
        <ele>1158.9469547803</ele>
        <time>2015-04-23T12:41:50Z</time>
      </trkpt>
      <trkpt lat="44.71363" lon="3.71379">
        <ele>1158.9469547803</ele>
        <time>2015-04-23T12:41:55Z</time>
      </trkpt>
      <trkpt lat="44.71361" lon="3.71388">
        <ele>1160.090218188</ele>
        <time>2015-04-23T12:42:00Z</time>
      </trkpt>
      <trkpt lat="44.71359" lon="3.71396">
        <ele>1160.090218188</ele>
        <time>2015-04-23T12:42:05Z</time>
      </trkpt>
      <trkpt lat="44.71359" lon="3.71406">
        <ele>1161.3894879722</ele>
        <time>2015-04-23T12:42:10Z</time>
      </trkpt>
      <trkpt lat="44.71364" lon="3.71419">
        <ele>1162.639179845</ele>
        <time>2015-04-23T12:42:15Z</time>
      </trkpt>
      <trkpt lat="44.71374" lon="3.71425">
        <ele>1163.9228623317</ele>
        <time>2015-04-23T12:42:20Z</time>
      </trkpt>
      <trkpt lat="44.71382" lon="3.71428">
        <ele>1163.9228623317</ele>
        <time>2015-04-23T12:42:25Z</time>
      </trkpt>
      <trkpt lat="44.71389" lon="3.71432">
        <ele>1165.3756270791</ele>
        <time>2015-04-23T12:42:30Z</time>
      </trkpt>
      <trkpt lat="44.71395" lon="3.71434">
        <ele>1165.3756270791</ele>
        <time>2015-04-23T12:42:35Z</time>
      </trkpt>
      <trkpt lat="44.71402" lon="3.71436">
        <ele>1166.9061255471</ele>
        <time>2015-04-23T12:42:40Z</time>
      </trkpt>
      <trkpt lat="44.71409" lon="3.71438">
        <ele>1166.9061255471</ele>
        <time>2015-04-23T12:42:45Z</time>
      </trkpt>
      <trkpt lat="44.71416" lon="3.7144">
        <ele>1168.4872816552</ele>
        <time>2015-04-23T12:42:50Z</time>
      </trkpt>
      <trkpt lat="44.71423" lon="3.71441">
        <ele>1168.4872816552</ele>
        <time>2015-04-23T12:42:55Z</time>
      </trkpt>
      <trkpt lat="44.71431" lon="3.71443">
        <ele>1170.266945968</ele>
        <time>2015-04-23T12:43:00Z</time>
      </trkpt>
      <trkpt lat="44.71439" lon="3.71445">
        <ele>1170.266945968</ele>
        <time>2015-04-23T12:43:05Z</time>
      </trkpt>
      <trkpt lat="44.71446" lon="3.71447">
        <ele>1172.2375968972</ele>
        <time>2015-04-23T12:43:10Z</time>
      </trkpt>
      <trkpt lat="44.71454" lon="3.71449">
        <ele>1172.2375968972</ele>
        <time>2015-04-23T12:43:15Z</time>
      </trkpt>
      <trkpt lat="44.71459" lon="3.7145">
        <ele>1173.6569287405</ele>
        <time>2015-04-23T12:43:20Z</time>
      </trkpt>
      <trkpt lat="44.71464" lon="3.71451">
        <ele>1173.6569287405</ele>
        <time>2015-04-23T12:43:25Z</time>
      </trkpt>
      <trkpt lat="44.7147" lon="3.71451">
        <ele>1175.0926530941</ele>
        <time>2015-04-23T12:43:30Z</time>
      </trkpt>
      <trkpt lat="44.71472" lon="3.71452">
        <ele>1175.0926530941</ele>
        <time>2015-04-23T12:43:35Z</time>
      </trkpt>
      <trkpt lat="44.71479" lon="3.71453">
        <ele>1176.638579208</ele>
        <time>2015-04-23T12:43:40Z</time>
      </trkpt>
      <trkpt lat="44.71486" lon="3.71455">
        <ele>1176.638579208</ele>
        <time>2015-04-23T12:43:45Z</time>
      </trkpt>
      <trkpt lat="44.71494" lon="3.71455">
        <ele>1178.5832582226</ele>
        <time>2015-04-23T12:43:50Z</time>
      </trkpt>
      <trkpt lat="44.71502" lon="3.71455">
        <ele>1178.5832582226</ele>
        <time>2015-04-23T12:43:55Z</time>
      </trkpt>
      <trkpt lat="44.71516" lon="3.71453">
        <ele>1180.5157946632</ele>
        <time>2015-04-23T12:44:00Z</time>
      </trkpt>
      <trkpt lat="44.71524" lon="3.71451">
        <ele>1180.5157946632</ele>
        <time>2015-04-23T12:44:05Z</time>
      </trkpt>
      <trkpt lat="44.71529" lon="3.71448">
        <ele>1182.0989400997</ele>
        <time>2015-04-23T12:44:10Z</time>
      </trkpt>
      <trkpt lat="44.71533" lon="3.71448">
        <ele>1182.0989400997</ele>
        <time>2015-04-23T12:44:15Z</time>
      </trkpt>
      <trkpt lat="44.71538" lon="3.71448">
        <ele>1183.7563666322</ele>
        <time>2015-04-23T12:44:20Z</time>
      </trkpt>
      <trkpt lat="44.71546" lon="3.71447">
        <ele>1183.7563666322</ele>
        <time>2015-04-23T12:44:25Z</time>
      </trkpt>
      <trkpt lat="44.71552" lon="3.71446">
        <ele>1185.3474060848</ele>
        <time>2015-04-23T12:44:30Z</time>
      </trkpt>
      <trkpt lat="44.71558" lon="3.71445">
        <ele>1185.3474060848</ele>
        <time>2015-04-23T12:44:35Z</time>
      </trkpt>
      <trkpt lat="44.71564" lon="3.71446">
        <ele>1186.7997575546</ele>
        <time>2015-04-23T12:44:40Z</time>
      </trkpt>
      <trkpt lat="44.7157" lon="3.71446">
        <ele>1186.7997575546</ele>
        <time>2015-04-23T12:44:45Z</time>
      </trkpt>
      <trkpt lat="44.71576" lon="3.71442">
        <ele>1187.931733763</ele>
        <time>2015-04-23T12:44:50Z</time>
      </trkpt>
      <trkpt lat="44.71584" lon="3.7144">
        <ele>1187.931733763</ele>
        <time>2015-04-23T12:44:55Z</time>
      </trkpt>
      <trkpt lat="44.71593" lon="3.71435">
        <ele>1188.9075483974</ele>
        <time>2015-04-23T12:45:00Z</time>
      </trkpt>
      <trkpt lat="44.716" lon="3.71433">
        <ele>1188.9075483974</ele>
        <time>2015-04-23T12:45:05Z</time>
      </trkpt>
      <trkpt lat="44.71606" lon="3.71433">
        <ele>1189.73587458</ele>
        <time>2015-04-23T12:45:10Z</time>
      </trkpt>
      <trkpt lat="44.71613" lon="3.71432">
        <ele>1189.73587458</ele>
        <time>2015-04-23T12:45:15Z</time>
      </trkpt>
      <trkpt lat="44.7162" lon="3.71432">
        <ele>1190.7279854175</ele>
        <time>2015-04-23T12:45:20Z</time>
      </trkpt>
      <trkpt lat="44.71627" lon="3.71432">
        <ele>1190.7279854175</ele>
        <time>2015-04-23T12:45:25Z</time>
      </trkpt>
      <trkpt lat="44.71634" lon="3.71434">
        <ele>1191.9990789776</ele>
        <time>2015-04-23T12:45:30Z</time>
      </trkpt>
      <trkpt lat="44.71642" lon="3.71433">
        <ele>1191.9990789776</ele>
        <time>2015-04-23T12:45:35Z</time>
      </trkpt>
      <trkpt lat="44.7165" lon="3.71433">
        <ele>1193.6696978674</ele>
        <time>2015-04-23T12:45:40Z</time>
      </trkpt>
      <trkpt lat="44.71656" lon="3.71434">
        <ele>1193.6696978674</ele>
        <time>2015-04-23T12:45:45Z</time>
      </trkpt>
      <trkpt lat="44.71661" lon="3.71433">
        <ele>1194.5247589736</ele>
        <time>2015-04-23T12:45:50Z</time>
      </trkpt>
      <trkpt lat="44.71666" lon="3.71432">
        <ele>1194.5247589736</ele>
        <time>2015-04-23T12:45:55Z</time>
      </trkpt>
      <trkpt lat="44.71671" lon="3.71431">
        <ele>1194.2623256146</ele>
        <time>2015-04-23T12:46:00Z</time>
      </trkpt>
      <trkpt lat="44.71677" lon="3.71429">
        <ele>1194.2623256146</ele>
        <time>2015-04-23T12:46:05Z</time>
      </trkpt>
      <trkpt lat="44.71685" lon="3.71427">
        <ele>1193.7299992113</ele>
        <time>2015-04-23T12:46:10Z</time>
      </trkpt>
      <trkpt lat="44.71693" lon="3.71424">
        <ele>1193.7299992113</ele>
        <time>2015-04-23T12:46:15Z</time>
      </trkpt>
      <trkpt lat="44.71701" lon="3.71421">
        <ele>1193.4978507103</ele>
        <time>2015-04-23T12:46:20Z</time>
      </trkpt>
      <trkpt lat="44.71708" lon="3.71419">
        <ele>1193.4978507103</ele>
        <time>2015-04-23T12:46:25Z</time>
      </trkpt>
      <trkpt lat="44.71717" lon="3.71418">
        <ele>1192.839591926</ele>
        <time>2015-04-23T12:46:30Z</time>
      </trkpt>
      <trkpt lat="44.71726" lon="3.71419">
        <ele>1192.839591926</ele>
        <time>2015-04-23T12:46:35Z</time>
      </trkpt>
      <trkpt lat="44.71735" lon="3.7142">
        <ele>1192.6399938946</ele>
        <time>2015-04-23T12:46:40Z</time>
      </trkpt>
      <trkpt lat="44.71743" lon="3.71421">
        <ele>1192.6399938946</ele>
        <time>2015-04-23T12:46:45Z</time>
      </trkpt>
      <trkpt lat="44.71751" lon="3.71424">
        <ele>1192.4062293735</ele>
        <time>2015-04-23T12:46:50Z</time>
      </trkpt>
      <trkpt lat="44.71762" lon="3.71427">
        <ele>1193.1373745931</ele>
        <time>2015-04-23T12:46:55Z</time>
      </trkpt>
      <trkpt lat="44.71773" lon="3.71429">
        <ele>1193.6668667065</ele>
        <time>2015-04-23T12:47:00Z</time>
      </trkpt>
      <trkpt lat="44.71782" lon="3.7143">
        <ele>1193.6668667065</ele>
        <time>2015-04-23T12:47:05Z</time>
      </trkpt>
      <trkpt lat="44.71788" lon="3.7143">
        <ele>1193.0153426719</ele>
        <time>2015-04-23T12:47:10Z</time>
      </trkpt>
      <trkpt lat="44.71786" lon="3.71428">
        <ele>1193.0153426719</ele>
        <time>2015-04-23T12:47:15Z</time>
      </trkpt>
      <trkpt lat="44.71792" lon="3.71427">
        <ele>1193.0153426719</ele>
        <time>2015-04-23T12:47:20Z</time>
      </trkpt>
      <trkpt lat="44.71799" lon="3.71424">
        <ele>1191.979258825</ele>
        <time>2015-04-23T12:47:25Z</time>
      </trkpt>
      <trkpt lat="44.71807" lon="3.71424">
        <ele>1191.979258825</ele>
        <time>2015-04-23T12:47:30Z</time>
      </trkpt>
      <trkpt lat="44.71815" lon="3.71423">
        <ele>1190.9662269239</ele>
        <time>2015-04-23T12:47:35Z</time>
      </trkpt>
      <trkpt lat="44.71821" lon="3.71422">
        <ele>1190.9662269239</ele>
        <time>2015-04-23T12:47:40Z</time>
      </trkpt>
      <trkpt lat="44.71829" lon="3.71423">
        <ele>1190.2097657436</ele>
        <time>2015-04-23T12:47:45Z</time>
      </trkpt>
      <trkpt lat="44.7184" lon="3.71425">
        <ele>1190.1128768308</ele>
        <time>2015-04-23T12:47:50Z</time>
      </trkpt>
      <trkpt lat="44.71849" lon="3.71427">
        <ele>1189.7645178557</ele>
        <time>2015-04-23T12:47:55Z</time>
      </trkpt>
      <trkpt lat="44.71857" lon="3.71428">
        <ele>1189.7645178557</ele>
        <time>2015-04-23T12:48:00Z</time>
      </trkpt>
      <trkpt lat="44.71866" lon="3.71431">
        <ele>1190.1226578144</ele>
        <time>2015-04-23T12:48:05Z</time>
      </trkpt>
      <trkpt lat="44.7187" lon="3.71432">
        <ele>1190.1226578144</ele>
        <time>2015-04-23T12:48:10Z</time>
      </trkpt>
      <trkpt lat="44.71873" lon="3.71434">
        <ele>1190.1226578144</ele>
        <time>2015-04-23T12:48:15Z</time>
      </trkpt>
      <trkpt lat="44.71878" lon="3.71436">
        <ele>1189.0177386804</ele>
        <time>2015-04-23T12:48:20Z</time>
      </trkpt>
      <trkpt lat="44.71884" lon="3.71438">
        <ele>1189.0177386804</ele>
        <time>2015-04-23T12:48:25Z</time>
      </trkpt>
      <trkpt lat="44.71892" lon="3.71441">
        <ele>1188.2914258665</ele>
        <time>2015-04-23T12:48:30Z</time>
      </trkpt>
      <trkpt lat="44.719" lon="3.71445">
        <ele>1188.2914258665</ele>
        <time>2015-04-23T12:48:35Z</time>
      </trkpt>
      <trkpt lat="44.71908" lon="3.7145">
        <ele>1188.0926040725</ele>
        <time>2015-04-23T12:48:40Z</time>
      </trkpt>
      <trkpt lat="44.71914" lon="3.71456">
        <ele>1188.0926040725</ele>
        <time>2015-04-23T12:48:45Z</time>
      </trkpt>
      <trkpt lat="44.71916" lon="3.71462">
        <ele>1186.9436574458</ele>
        <time>2015-04-23T12:48:50Z</time>
      </trkpt>
      <trkpt lat="44.71913" lon="3.7147">
        <ele>1186.9436574458</ele>
        <time>2015-04-23T12:48:55Z</time>
      </trkpt>
      <trkpt lat="44.71912" lon="3.71479">
        <ele>1185.380399198</ele>
        <time>2015-04-23T12:49:00Z</time>
      </trkpt>
      <trkpt lat="44.71914" lon="3.71487">
        <ele>1185.380399198</ele>
        <time>2015-04-23T12:49:05Z</time>
      </trkpt>
      <trkpt lat="44.71912" lon="3.71499">
        <ele>1183.5977521239</ele>
        <time>2015-04-23T12:49:10Z</time>
      </trkpt>
      <trkpt lat="44.71911" lon="3.71511">
        <ele>1183.5977521239</ele>
        <time>2015-04-23T12:49:15Z</time>
      </trkpt>
      <trkpt lat="44.71909" lon="3.71523">
        <ele>1181.9642100484</ele>
        <time>2015-04-23T12:49:20Z</time>
      </trkpt>
      <trkpt lat="44.71907" lon="3.71534">
        <ele>1181.9642100484</ele>
        <time>2015-04-23T12:49:25Z</time>
      </trkpt>
      <trkpt lat="44.71909" lon="3.71543">
        <ele>1179.7686840519</ele>
        <time>2015-04-23T12:49:30Z</time>
      </trkpt>
      <trkpt lat="44.7191" lon="3.7155">
        <ele>1179.7686840519</ele>
        <time>2015-04-23T12:49:35Z</time>
      </trkpt>
      <trkpt lat="44.71913" lon="3.71551">
        <ele>1179.7686840519</ele>
        <time>2015-04-23T12:49:40Z</time>
      </trkpt>
      <trkpt lat="44.71913" lon="3.71552">
        <ele>1179.7686840519</ele>
        <time>2015-04-23T12:49:45Z</time>
      </trkpt>
      <trkpt lat="44.71913" lon="3.71553">
        <ele>1177.6219789216</ele>
        <time>2015-04-23T12:49:50Z</time>
      </trkpt>
      <trkpt lat="44.71913" lon="3.71553">
        <ele>1177.6219789216</ele>
        <time>2015-04-23T12:49:55Z</time>
      </trkpt>
      <trkpt lat="44.71913" lon="3.71553">
        <ele>1177.6219789216</ele>
        <time>2015-04-23T12:50:00Z</time>
      </trkpt>
      <trkpt lat="44.71913" lon="3.71553">
        <ele>1177.6219789216</ele>
        <time>2015-04-23T12:50:05Z</time>
      </trkpt>
      <trkpt lat="44.71912" lon="3.71554">
        <ele>1177.6219789216</ele>
        <time>2015-04-23T12:50:10Z</time>
      </trkpt>
      <trkpt lat="44.7191" lon="3.71555">
        <ele>1177.6219789216</ele>
        <time>2015-04-23T12:50:15Z</time>
      </trkpt>
      <trkpt lat="44.71908" lon="3.71557">
        <ele>1177.6219789216</ele>
        <time>2015-04-23T12:50:20Z</time>
      </trkpt>
      <trkpt lat="44.71907" lon="3.71559">
        <ele>1177.6219789216</ele>
        <time>2015-04-23T12:50:25Z</time>
      </trkpt>
      <trkpt lat="44.71908" lon="3.71558">
        <ele>1177.6219789216</ele>
        <time>2015-04-23T12:50:30Z</time>
      </trkpt>
      <trkpt lat="44.71908" lon="3.71557">
        <ele>1176.0465500951</ele>
        <time>2015-04-23T12:50:35Z</time>
      </trkpt>
      <trkpt lat="44.71904" lon="3.71559">
        <ele>1176.0465500951</ele>
        <time>2015-04-23T12:50:40Z</time>
      </trkpt>
      <trkpt lat="44.719" lon="3.71562">
        <ele>1176.0465500951</ele>
        <time>2015-04-23T12:50:45Z</time>
      </trkpt>
      <trkpt lat="44.71898" lon="3.71564">
        <ele>1174.7033170234</ele>
        <time>2015-04-23T12:50:50Z</time>
      </trkpt>
      <trkpt lat="44.71897" lon="3.71564">
        <ele>1174.7033170234</ele>
        <time>2015-04-23T12:50:55Z</time>
      </trkpt>
      <trkpt lat="44.71895" lon="3.71565">
        <ele>1174.7033170234</ele>
        <time>2015-04-23T12:51:00Z</time>
      </trkpt>
      <trkpt lat="44.71892" lon="3.71567">
        <ele>1174.7033170234</ele>
        <time>2015-04-23T12:51:05Z</time>
      </trkpt>
      <trkpt lat="44.71892" lon="3.71566">
        <ele>1174.7033170234</ele>
        <time>2015-04-23T12:51:10Z</time>
      </trkpt>
      <trkpt lat="44.71893" lon="3.71565">
        <ele>1174.7033170234</ele>
        <time>2015-04-23T12:51:15Z</time>
      </trkpt>
      <trkpt lat="44.71892" lon="3.71565">
        <ele>1173.9114172793</ele>
        <time>2015-04-23T12:51:20Z</time>
      </trkpt>
      <trkpt lat="44.71892" lon="3.71565">
        <ele>1173.9114172793</ele>
        <time>2015-04-23T12:51:25Z</time>
      </trkpt>
      <trkpt lat="44.71891" lon="3.71565">
        <ele>1173.9114172793</ele>
        <time>2015-04-23T12:51:30Z</time>
      </trkpt>
      <trkpt lat="44.71891" lon="3.71566">
        <ele>1173.9114172793</ele>
        <time>2015-04-23T12:51:35Z</time>
      </trkpt>
      <trkpt lat="44.71891" lon="3.71566">
        <ele>1173.9114172793</ele>
        <time>2015-04-23T12:51:40Z</time>
      </trkpt>
      <trkpt lat="44.71891" lon="3.71566">
        <ele>1173.9114172793</ele>
        <time>2015-04-23T12:51:45Z</time>
      </trkpt>
      <trkpt lat="44.71891" lon="3.71566">
        <ele>1173.9114172793</ele>
        <time>2015-04-23T12:51:50Z</time>
      </trkpt>
      <trkpt lat="44.71891" lon="3.71566">
        <ele>1173.9114172793</ele>
        <time>2015-04-23T12:51:55Z</time>
      </trkpt>
      <trkpt lat="44.7189" lon="3.71568">
        <ele>1173.9114172793</ele>
        <time>2015-04-23T12:52:00Z</time>
      </trkpt>
      <trkpt lat="44.71888" lon="3.71575">
        <ele>1173.6478217718</ele>
        <time>2015-04-23T12:52:05Z</time>
      </trkpt>
      <trkpt lat="44.71887" lon="3.71576">
        <ele>1173.6478217718</ele>
        <time>2015-04-23T12:52:10Z</time>
      </trkpt>
      <trkpt lat="44.71887" lon="3.71576">
        <ele>1173.6478217718</ele>
        <time>2015-04-23T12:52:15Z</time>
      </trkpt>
      <trkpt lat="44.71887" lon="3.71576">
        <ele>1173.6478217718</ele>
        <time>2015-04-23T12:52:20Z</time>
      </trkpt>
      <trkpt lat="44.71888" lon="3.71577">
        <ele>1173.6478217718</ele>
        <time>2015-04-23T12:52:25Z</time>
      </trkpt>
      <trkpt lat="44.71888" lon="3.71578">
        <ele>1173.6478217718</ele>
        <time>2015-04-23T12:52:30Z</time>
      </trkpt>
      <trkpt lat="44.71888" lon="3.71578">
        <ele>1173.6478217718</ele>
        <time>2015-04-23T12:52:35Z</time>
      </trkpt>
      <trkpt lat="44.71888" lon="3.71578">
        <ele>1173.6478217718</ele>
        <time>2015-04-23T12:52:40Z</time>
      </trkpt>
      <trkpt lat="44.71888" lon="3.71578">
        <ele>1173.6478217718</ele>
        <time>2015-04-23T12:52:45Z</time>
      </trkpt>
      <trkpt lat="44.71888" lon="3.71578">
        <ele>1173.6478217718</ele>
        <time>2015-04-23T12:52:50Z</time>
      </trkpt>
      <trkpt lat="44.71887" lon="3.71577">
        <ele>1173.6478217718</ele>
        <time>2015-04-23T12:52:55Z</time>
      </trkpt>
      <trkpt lat="44.71888" lon="3.71576">
        <ele>1173.6478217718</ele>
        <time>2015-04-23T12:53:00Z</time>
      </trkpt>
      <trkpt lat="44.71891" lon="3.71575">
        <ele>1173.6478217718</ele>
        <time>2015-04-23T12:53:05Z</time>
      </trkpt>
      <trkpt lat="44.71892" lon="3.71579">
        <ele>1172.8087447806</ele>
        <time>2015-04-23T12:53:10Z</time>
      </trkpt>
      <trkpt lat="44.7189" lon="3.7158">
        <ele>1172.8087447806</ele>
        <time>2015-04-23T12:53:15Z</time>
      </trkpt>
      <trkpt lat="44.7189" lon="3.7158">
        <ele>1172.8087447806</ele>
        <time>2015-04-23T12:53:20Z</time>
      </trkpt>
      <trkpt lat="44.7189" lon="3.71579">
        <ele>1172.8087447806</ele>
        <time>2015-04-23T12:53:25Z</time>
      </trkpt>
      <trkpt lat="44.7189" lon="3.71579">
        <ele>1172.8087447806</ele>
        <time>2015-04-23T12:53:30Z</time>
      </trkpt>
      <trkpt lat="44.7189" lon="3.71579">
        <ele>1172.8087447806</ele>
        <time>2015-04-23T12:53:35Z</time>
      </trkpt>
      <trkpt lat="44.7189" lon="3.71579">
        <ele>1172.8087447806</ele>
        <time>2015-04-23T12:53:40Z</time>
      </trkpt>
      <trkpt lat="44.7189" lon="3.71579">
        <ele>1172.8087447806</ele>
        <time>2015-04-23T12:53:45Z</time>
      </trkpt>
      <trkpt lat="44.7189" lon="3.71579">
        <ele>1172.8087447806</ele>
        <time>2015-04-23T12:53:50Z</time>
      </trkpt>
      <trkpt lat="44.7189" lon="3.71578">
        <ele>1172.8087447806</ele>
        <time>2015-04-23T12:53:55Z</time>
      </trkpt>
      <trkpt lat="44.71889" lon="3.71578">
        <ele>1172.8087447806</ele>
        <time>2015-04-23T12:54:00Z</time>
      </trkpt>
      <trkpt lat="44.71889" lon="3.71578">
        <ele>1172.8087447806</ele>
        <time>2015-04-23T12:54:05Z</time>
      </trkpt>
      <trkpt lat="44.71889" lon="3.71578">
        <ele>1172.8087447806</ele>
        <time>2015-04-23T12:54:10Z</time>
      </trkpt>
      <trkpt lat="44.71889" lon="3.71578">
        <ele>1172.8087447806</ele>
        <time>2015-04-23T12:54:15Z</time>
      </trkpt>
      <trkpt lat="44.71889" lon="3.71578">
        <ele>1172.8087447806</ele>
        <time>2015-04-23T12:54:20Z</time>
      </trkpt>
      <trkpt lat="44.71889" lon="3.71577">
        <ele>1172.8087447806</ele>
        <time>2015-04-23T12:54:25Z</time>
      </trkpt>
      <trkpt lat="44.71889" lon="3.71577">
        <ele>1172.8087447806</ele>
        <time>2015-04-23T12:54:30Z</time>
      </trkpt>
      <trkpt lat="44.71889" lon="3.71577">
        <ele>1172.8087447806</ele>
        <time>2015-04-23T12:54:35Z</time>
      </trkpt>
      <trkpt lat="44.71889" lon="3.71577">
        <ele>1172.8087447806</ele>
        <time>2015-04-23T12:54:40Z</time>
      </trkpt>
      <trkpt lat="44.71889" lon="3.71577">
        <ele>1172.8087447806</ele>
        <time>2015-04-23T12:54:45Z</time>
      </trkpt>
      <trkpt lat="44.71889" lon="3.71577">
        <ele>1172.8087447806</ele>
        <time>2015-04-23T12:54:50Z</time>
      </trkpt>
      <trkpt lat="44.71889" lon="3.71577">
        <ele>1172.8087447806</ele>
        <time>2015-04-23T12:54:55Z</time>
      </trkpt>
      <trkpt lat="44.71889" lon="3.71577">
        <ele>1172.8087447806</ele>
        <time>2015-04-23T12:55:00Z</time>
      </trkpt>
      <trkpt lat="44.71889" lon="3.71577">
        <ele>1172.8087447806</ele>
        <time>2015-04-23T12:55:05Z</time>
      </trkpt>
      <trkpt lat="44.71888" lon="3.71575">
        <ele>1172.8087447806</ele>
        <time>2015-04-23T12:55:10Z</time>
      </trkpt>
      <trkpt lat="44.71888" lon="3.71574">
        <ele>1172.8087447806</ele>
        <time>2015-04-23T12:55:15Z</time>
      </trkpt>
      <trkpt lat="44.71889" lon="3.71575">
        <ele>1172.577869239</ele>
        <time>2015-04-23T12:55:20Z</time>
      </trkpt>
      <trkpt lat="44.71888" lon="3.71576">
        <ele>1172.577869239</ele>
        <time>2015-04-23T12:55:25Z</time>
      </trkpt>
      <trkpt lat="44.71889" lon="3.71577">
        <ele>1172.577869239</ele>
        <time>2015-04-23T12:55:30Z</time>
      </trkpt>
      <trkpt lat="44.71888" lon="3.71577">
        <ele>1172.577869239</ele>
        <time>2015-04-23T12:55:35Z</time>
      </trkpt>
      <trkpt lat="44.71888" lon="3.71578">
        <ele>1172.577869239</ele>
        <time>2015-04-23T12:55:40Z</time>
      </trkpt>
      <trkpt lat="44.71889" lon="3.71577">
        <ele>1172.577869239</ele>
        <time>2015-04-23T12:55:45Z</time>
      </trkpt>
      <trkpt lat="44.7189" lon="3.71577">
        <ele>1172.577869239</ele>
        <time>2015-04-23T12:55:50Z</time>
      </trkpt>
      <trkpt lat="44.71891" lon="3.71577">
        <ele>1172.577869239</ele>
        <time>2015-04-23T12:55:55Z</time>
      </trkpt>
      <trkpt lat="44.71892" lon="3.71577">
        <ele>1172.577869239</ele>
        <time>2015-04-23T12:56:00Z</time>
      </trkpt>
      <trkpt lat="44.71892" lon="3.71577">
        <ele>1172.577869239</ele>
        <time>2015-04-23T12:56:05Z</time>
      </trkpt>
      <trkpt lat="44.71892" lon="3.71577">
        <ele>1172.577869239</ele>
        <time>2015-04-23T12:56:10Z</time>
      </trkpt>
      <trkpt lat="44.71892" lon="3.71577">
        <ele>1172.577869239</ele>
        <time>2015-04-23T12:56:15Z</time>
      </trkpt>
      <trkpt lat="44.71892" lon="3.71577">
        <ele>1172.577869239</ele>
        <time>2015-04-23T12:56:20Z</time>
      </trkpt>
      <trkpt lat="44.71892" lon="3.71577">
        <ele>1172.577869239</ele>
        <time>2015-04-23T12:56:25Z</time>
      </trkpt>
      <trkpt lat="44.71891" lon="3.71577">
        <ele>1172.577869239</ele>
        <time>2015-04-23T12:56:30Z</time>
      </trkpt>
      <trkpt lat="44.71891" lon="3.71577">
        <ele>1172.577869239</ele>
        <time>2015-04-23T12:56:35Z</time>
      </trkpt>
      <trkpt lat="44.71891" lon="3.71577">
        <ele>1172.577869239</ele>
        <time>2015-04-23T12:56:40Z</time>
      </trkpt>
      <trkpt lat="44.71889" lon="3.71578">
        <ele>1171.6290244922</ele>
        <time>2015-04-23T12:56:45Z</time>
      </trkpt>
      <trkpt lat="44.71886" lon="3.71579">
        <ele>1171.6290244922</ele>
        <time>2015-04-23T12:56:50Z</time>
      </trkpt>
      <trkpt lat="44.71885" lon="3.71578">
        <ele>1171.6290244922</ele>
        <time>2015-04-23T12:56:55Z</time>
      </trkpt>
      <trkpt lat="44.71885" lon="3.71578">
        <ele>1171.6290244922</ele>
        <time>2015-04-23T12:57:00Z</time>
      </trkpt>
      <trkpt lat="44.71885" lon="3.71578">
        <ele>1171.6290244922</ele>
        <time>2015-04-23T12:57:05Z</time>
      </trkpt>
      <trkpt lat="44.71885" lon="3.71578">
        <ele>1171.6290244922</ele>
        <time>2015-04-23T12:57:10Z</time>
      </trkpt>
      <trkpt lat="44.71885" lon="3.71578">
        <ele>1171.6290244922</ele>
        <time>2015-04-23T12:57:15Z</time>
      </trkpt>
      <trkpt lat="44.71885" lon="3.71578">
        <ele>1171.6290244922</ele>
        <time>2015-04-23T12:57:20Z</time>
      </trkpt>
      <trkpt lat="44.71885" lon="3.71578">
        <ele>1171.6290244922</ele>
        <time>2015-04-23T12:57:25Z</time>
      </trkpt>
      <trkpt lat="44.71885" lon="3.71578">
        <ele>1171.6290244922</ele>
        <time>2015-04-23T12:57:30Z</time>
      </trkpt>
      <trkpt lat="44.71885" lon="3.71578">
        <ele>1171.6290244922</ele>
        <time>2015-04-23T12:57:35Z</time>
      </trkpt>
      <trkpt lat="44.71885" lon="3.71578">
        <ele>1171.6290244922</ele>
        <time>2015-04-23T12:57:40Z</time>
      </trkpt>
      <trkpt lat="44.71885" lon="3.71578">
        <ele>1171.6290244922</ele>
        <time>2015-04-23T12:57:45Z</time>
      </trkpt>
      <trkpt lat="44.71886" lon="3.71574">
        <ele>1171.6290244922</ele>
        <time>2015-04-23T12:57:50Z</time>
      </trkpt>
      <trkpt lat="44.71887" lon="3.71572">
        <ele>1170.3782162452</ele>
        <time>2015-04-23T12:57:55Z</time>
      </trkpt>
      <trkpt lat="44.71887" lon="3.71571">
        <ele>1170.3782162452</ele>
        <time>2015-04-23T12:58:00Z</time>
      </trkpt>
      <trkpt lat="44.71888" lon="3.71569">
        <ele>1170.3782162452</ele>
        <time>2015-04-23T12:58:05Z</time>
      </trkpt>
      <trkpt lat="44.7189" lon="3.71568">
        <ele>1170.3782162452</ele>
        <time>2015-04-23T12:58:10Z</time>
      </trkpt>
      <trkpt lat="44.71891" lon="3.71568">
        <ele>1170.3782162452</ele>
        <time>2015-04-23T12:58:15Z</time>
      </trkpt>
      <trkpt lat="44.71892" lon="3.71569">
        <ele>1170.3782162452</ele>
        <time>2015-04-23T12:58:20Z</time>
      </trkpt>
      <trkpt lat="44.71891" lon="3.7157">
        <ele>1170.3782162452</ele>
        <time>2015-04-23T12:58:25Z</time>
      </trkpt>
      <trkpt lat="44.7189" lon="3.7157">
        <ele>1170.3782162452</ele>
        <time>2015-04-23T12:58:30Z</time>
      </trkpt>
      <trkpt lat="44.7189" lon="3.7157">
        <ele>1170.3782162452</ele>
        <time>2015-04-23T12:58:35Z</time>
      </trkpt>
      <trkpt lat="44.7189" lon="3.7157">
        <ele>1170.3782162452</ele>
        <time>2015-04-23T12:58:40Z</time>
      </trkpt>
      <trkpt lat="44.7189" lon="3.71569">
        <ele>1170.3782162452</ele>
        <time>2015-04-23T12:58:45Z</time>
      </trkpt>
      <trkpt lat="44.7189" lon="3.71569">
        <ele>1170.3782162452</ele>
        <time>2015-04-23T12:58:50Z</time>
      </trkpt>
      <trkpt lat="44.7189" lon="3.71569">
        <ele>1170.3782162452</ele>
        <time>2015-04-23T12:58:55Z</time>
      </trkpt>
      <trkpt lat="44.7189" lon="3.71569">
        <ele>1170.3782162452</ele>
        <time>2015-04-23T12:59:00Z</time>
      </trkpt>
      <trkpt lat="44.7189" lon="3.71569">
        <ele>1170.3782162452</ele>
        <time>2015-04-23T12:59:05Z</time>
      </trkpt>
      <trkpt lat="44.7189" lon="3.71569">
        <ele>1170.3782162452</ele>
        <time>2015-04-23T12:59:10Z</time>
      </trkpt>
      <trkpt lat="44.7189" lon="3.71569">
        <ele>1170.3782162452</ele>
        <time>2015-04-23T12:59:15Z</time>
      </trkpt>
      <trkpt lat="44.7189" lon="3.71569">
        <ele>1170.3782162452</ele>
        <time>2015-04-23T12:59:20Z</time>
      </trkpt>
      <trkpt lat="44.7189" lon="3.71569">
        <ele>1170.3782162452</ele>
        <time>2015-04-23T12:59:25Z</time>
      </trkpt>
      <trkpt lat="44.7189" lon="3.71569">
        <ele>1170.3782162452</ele>
        <time>2015-04-23T12:59:30Z</time>
      </trkpt>
      <trkpt lat="44.7189" lon="3.71569">
        <ele>1170.3782162452</ele>
        <time>2015-04-23T12:59:35Z</time>
      </trkpt>
      <trkpt lat="44.7189" lon="3.71569">
        <ele>1170.3782162452</ele>
        <time>2015-04-23T12:59:40Z</time>
      </trkpt>
      <trkpt lat="44.7189" lon="3.71569">
        <ele>1170.3782162452</ele>
        <time>2015-04-23T12:59:45Z</time>
      </trkpt>
      <trkpt lat="44.7189" lon="3.71569">
        <ele>1170.3782162452</ele>
        <time>2015-04-23T12:59:50Z</time>
      </trkpt>
      <trkpt lat="44.7189" lon="3.71569">
        <ele>1170.3782162452</ele>
        <time>2015-04-23T12:59:55Z</time>
      </trkpt>
      <trkpt lat="44.7189" lon="3.71569">
        <ele>1170.3782162452</ele>
        <time>2015-04-23T13:00:00Z</time>
      </trkpt>
      <trkpt lat="44.7189" lon="3.71569">
        <ele>1170.3782162452</ele>
        <time>2015-04-23T13:00:05Z</time>
      </trkpt>
      <trkpt lat="44.7189" lon="3.71569">
        <ele>1169.1683808429</ele>
        <time>2015-04-23T13:00:10Z</time>
      </trkpt>
      <trkpt lat="44.7189" lon="3.71569">
        <ele>1169.1683808429</ele>
        <time>2015-04-23T13:00:15Z</time>
      </trkpt>
      <trkpt lat="44.7189" lon="3.71569">
        <ele>1169.1683808429</ele>
        <time>2015-04-23T13:00:20Z</time>
      </trkpt>
      <trkpt lat="44.7189" lon="3.71569">
        <ele>1169.1683808429</ele>
        <time>2015-04-23T13:00:25Z</time>
      </trkpt>
      <trkpt lat="44.7189" lon="3.71569">
        <ele>1169.1683808429</ele>
        <time>2015-04-23T13:00:30Z</time>
      </trkpt>
      <trkpt lat="44.7189" lon="3.71569">
        <ele>1169.1683808429</ele>
        <time>2015-04-23T13:00:35Z</time>
      </trkpt>
      <trkpt lat="44.7189" lon="3.71569">
        <ele>1169.1683808429</ele>
        <time>2015-04-23T13:00:40Z</time>
      </trkpt>
      <trkpt lat="44.7189" lon="3.71569">
        <ele>1169.1683808429</ele>
        <time>2015-04-23T13:00:45Z</time>
      </trkpt>
      <trkpt lat="44.7189" lon="3.71569">
        <ele>1169.1683808429</ele>
        <time>2015-04-23T13:00:50Z</time>
      </trkpt>
      <trkpt lat="44.7189" lon="3.71569">
        <ele>1169.1683808429</ele>
        <time>2015-04-23T13:00:55Z</time>
      </trkpt>
      <trkpt lat="44.7189" lon="3.71569">
        <ele>1169.1683808429</ele>
        <time>2015-04-23T13:01:00Z</time>
      </trkpt>
      <trkpt lat="44.7189" lon="3.71569">
        <ele>1169.1683808429</ele>
        <time>2015-04-23T13:01:05Z</time>
      </trkpt>
      <trkpt lat="44.7189" lon="3.71569">
        <ele>1169.1683808429</ele>
        <time>2015-04-23T13:01:10Z</time>
      </trkpt>
      <trkpt lat="44.7189" lon="3.71569">
        <ele>1169.1683808429</ele>
        <time>2015-04-23T13:01:15Z</time>
      </trkpt>
      <trkpt lat="44.7189" lon="3.71569">
        <ele>1169.1683808429</ele>
        <time>2015-04-23T13:01:20Z</time>
      </trkpt>
      <trkpt lat="44.7189" lon="3.71569">
        <ele>1169.1683808429</ele>
        <time>2015-04-23T13:01:25Z</time>
      </trkpt>
      <trkpt lat="44.7189" lon="3.71569">
        <ele>1169.1683808429</ele>
        <time>2015-04-23T13:01:30Z</time>
      </trkpt>
      <trkpt lat="44.7189" lon="3.71569">
        <ele>1169.1683808429</ele>
        <time>2015-04-23T13:01:35Z</time>
      </trkpt>
      <trkpt lat="44.7189" lon="3.71569">
        <ele>1169.1683808429</ele>
        <time>2015-04-23T13:01:40Z</time>
      </trkpt>
      <trkpt lat="44.7189" lon="3.71569">
        <ele>1169.1683808429</ele>
        <time>2015-04-23T13:01:45Z</time>
      </trkpt>
      <trkpt lat="44.7189" lon="3.71569">
        <ele>1169.1683808429</ele>
        <time>2015-04-23T13:01:50Z</time>
      </trkpt>
      <trkpt lat="44.7189" lon="3.71569">
        <ele>1169.1683808429</ele>
        <time>2015-04-23T13:01:55Z</time>
      </trkpt>
      <trkpt lat="44.7189" lon="3.71569">
        <ele>1169.1683808429</ele>
        <time>2015-04-23T13:02:00Z</time>
      </trkpt>
      <trkpt lat="44.7189" lon="3.71569">
        <ele>1169.1683808429</ele>
        <time>2015-04-23T13:02:05Z</time>
      </trkpt>
      <trkpt lat="44.7189" lon="3.71569">
        <ele>1169.1683808429</ele>
        <time>2015-04-23T13:02:10Z</time>
      </trkpt>
      <trkpt lat="44.7189" lon="3.71569">
        <ele>1169.1683808429</ele>
        <time>2015-04-23T13:02:15Z</time>
      </trkpt>
      <trkpt lat="44.7189" lon="3.71569">
        <ele>1169.1683808429</ele>
        <time>2015-04-23T13:02:20Z</time>
      </trkpt>
      <trkpt lat="44.7189" lon="3.71569">
        <ele>1169.1683808429</ele>
        <time>2015-04-23T13:02:25Z</time>
      </trkpt>
      <trkpt lat="44.7189" lon="3.71569">
        <ele>1169.1683808429</ele>
        <time>2015-04-23T13:02:30Z</time>
      </trkpt>
      <trkpt lat="44.7189" lon="3.71569">
        <ele>1169.1683808429</ele>
        <time>2015-04-23T13:02:35Z</time>
      </trkpt>
      <trkpt lat="44.7189" lon="3.71569">
        <ele>1169.1683808429</ele>
        <time>2015-04-23T13:02:40Z</time>
      </trkpt>
      <trkpt lat="44.7189" lon="3.71569">
        <ele>1169.1683808429</ele>
        <time>2015-04-23T13:02:45Z</time>
      </trkpt>
      <trkpt lat="44.7189" lon="3.71569">
        <ele>1169.1683808429</ele>
        <time>2015-04-23T13:02:50Z</time>
      </trkpt>
      <trkpt lat="44.7189" lon="3.71569">
        <ele>1169.1683808429</ele>
        <time>2015-04-23T13:02:55Z</time>
      </trkpt>
      <trkpt lat="44.7189" lon="3.71569">
        <ele>1169.1683808429</ele>
        <time>2015-04-23T13:03:00Z</time>
      </trkpt>
      <trkpt lat="44.7189" lon="3.71569">
        <ele>1169.1683808429</ele>
        <time>2015-04-23T13:03:05Z</time>
      </trkpt>
      <trkpt lat="44.7189" lon="3.71569">
        <ele>1169.1683808429</ele>
        <time>2015-04-23T13:03:10Z</time>
      </trkpt>
      <trkpt lat="44.7189" lon="3.71569">
        <ele>1169.1683808429</ele>
        <time>2015-04-23T13:03:15Z</time>
      </trkpt>
      <trkpt lat="44.7189" lon="3.71569">
        <ele>1169.1683808429</ele>
        <time>2015-04-23T13:03:20Z</time>
      </trkpt>
      <trkpt lat="44.7189" lon="3.71569">
        <ele>1169.1683808429</ele>
        <time>2015-04-23T13:03:25Z</time>
      </trkpt>
      <trkpt lat="44.7189" lon="3.71569">
        <ele>1169.1683808429</ele>
        <time>2015-04-23T13:03:30Z</time>
      </trkpt>
      <trkpt lat="44.7189" lon="3.71569">
        <ele>1169.1683808429</ele>
        <time>2015-04-23T13:03:35Z</time>
      </trkpt>
      <trkpt lat="44.7189" lon="3.71569">
        <ele>1169.1683808429</ele>
        <time>2015-04-23T13:03:45Z</time>
      </trkpt>
      <trkpt lat="44.7189" lon="3.71569">
        <ele>1169.1683808429</ele>
        <time>2015-04-23T13:03:50Z</time>
      </trkpt>
      <trkpt lat="44.7189" lon="3.71569">
        <ele>1169.1683808429</ele>
        <time>2015-04-23T13:03:55Z</time>
      </trkpt>
      <trkpt lat="44.7189" lon="3.71569">
        <ele>1169.1683808429</ele>
        <time>2015-04-23T13:04:00Z</time>
      </trkpt>
      <trkpt lat="44.7189" lon="3.71569">
        <ele>1169.1683808429</ele>
        <time>2015-04-23T13:04:05Z</time>
      </trkpt>
      <trkpt lat="44.7189" lon="3.71569">
        <ele>1169.1683808429</ele>
        <time>2015-04-23T13:04:10Z</time>
      </trkpt>
      <trkpt lat="44.7189" lon="3.71569">
        <ele>1169.1683808429</ele>
        <time>2015-04-23T13:04:15Z</time>
      </trkpt>
      <trkpt lat="44.7189" lon="3.71569">
        <ele>1169.1683808429</ele>
        <time>2015-04-23T13:04:20Z</time>
      </trkpt>
      <trkpt lat="44.7189" lon="3.71569">
        <ele>1169.1683808429</ele>
        <time>2015-04-23T13:04:25Z</time>
      </trkpt>
      <trkpt lat="44.7189" lon="3.71569">
        <ele>1169.1683808429</ele>
        <time>2015-04-23T13:04:30Z</time>
      </trkpt>
      <trkpt lat="44.7189" lon="3.71569">
        <ele>1169.1683808429</ele>
        <time>2015-04-23T13:04:35Z</time>
      </trkpt>
      <trkpt lat="44.7189" lon="3.71569">
        <ele>1169.1683808429</ele>
        <time>2015-04-23T13:04:40Z</time>
      </trkpt>
      <trkpt lat="44.7189" lon="3.71569">
        <ele>1169.1683808429</ele>
        <time>2015-04-23T13:04:45Z</time>
      </trkpt>
      <trkpt lat="44.7189" lon="3.71569">
        <ele>1169.1683808429</ele>
        <time>2015-04-23T13:04:50Z</time>
      </trkpt>
      <trkpt lat="44.7189" lon="3.71569">
        <ele>1169.1683808429</ele>
        <time>2015-04-23T13:04:55Z</time>
      </trkpt>
      <trkpt lat="44.7189" lon="3.71569">
        <ele>1169.1683808429</ele>
        <time>2015-04-23T13:05:00Z</time>
      </trkpt>
      <trkpt lat="44.7189" lon="3.71569">
        <ele>1169.1683808429</ele>
        <time>2015-04-23T13:05:05Z</time>
      </trkpt>
      <trkpt lat="44.7189" lon="3.71569">
        <ele>1169.1683808429</ele>
        <time>2015-04-23T13:05:10Z</time>
      </trkpt>
      <trkpt lat="44.7189" lon="3.71569">
        <ele>1169.1683808429</ele>
        <time>2015-04-23T13:05:15Z</time>
      </trkpt>
      <trkpt lat="44.7189" lon="3.71569">
        <ele>1169.1683808429</ele>
        <time>2015-04-23T13:05:20Z</time>
      </trkpt>
      <trkpt lat="44.7189" lon="3.71569">
        <ele>1169.1683808429</ele>
        <time>2015-04-23T13:05:25Z</time>
      </trkpt>
      <trkpt lat="44.7189" lon="3.71569">
        <ele>1169.1683808429</ele>
        <time>2015-04-23T13:05:30Z</time>
      </trkpt>
      <trkpt lat="44.7189" lon="3.71569">
        <ele>1169.1683808429</ele>
        <time>2015-04-23T13:05:35Z</time>
      </trkpt>
      <trkpt lat="44.7189" lon="3.71569">
        <ele>1169.1683808429</ele>
        <time>2015-04-23T13:05:40Z</time>
      </trkpt>
      <trkpt lat="44.7189" lon="3.71569">
        <ele>1169.1683808429</ele>
        <time>2015-04-23T13:05:45Z</time>
      </trkpt>
      <trkpt lat="44.7189" lon="3.71569">
        <ele>1169.1683808429</ele>
        <time>2015-04-23T13:05:50Z</time>
      </trkpt>
      <trkpt lat="44.7189" lon="3.71569">
        <ele>1169.1683808429</ele>
        <time>2015-04-23T13:05:55Z</time>
      </trkpt>
      <trkpt lat="44.7189" lon="3.71569">
        <ele>1169.1683808429</ele>
        <time>2015-04-23T13:06:00Z</time>
      </trkpt>
      <trkpt lat="44.7189" lon="3.71569">
        <ele>1169.1683808429</ele>
        <time>2015-04-23T13:06:05Z</time>
      </trkpt>
      <trkpt lat="44.7189" lon="3.71569">
        <ele>1169.1683808429</ele>
        <time>2015-04-23T13:06:10Z</time>
      </trkpt>
      <trkpt lat="44.7189" lon="3.71569">
        <ele>1169.1683808429</ele>
        <time>2015-04-23T13:06:15Z</time>
      </trkpt>
      <trkpt lat="44.7189" lon="3.71569">
        <ele>1169.1683808429</ele>
        <time>2015-04-23T13:06:20Z</time>
      </trkpt>
      <trkpt lat="44.7189" lon="3.71569">
        <ele>1169.1683808429</ele>
        <time>2015-04-23T13:06:25Z</time>
      </trkpt>
      <trkpt lat="44.7189" lon="3.71569">
        <ele>1169.1683808429</ele>
        <time>2015-04-23T13:06:30Z</time>
      </trkpt>
      <trkpt lat="44.7189" lon="3.71569">
        <ele>1169.1683808429</ele>
        <time>2015-04-23T13:06:35Z</time>
      </trkpt>
      <trkpt lat="44.7189" lon="3.71569">
        <ele>1169.1683808429</ele>
        <time>2015-04-23T13:06:40Z</time>
      </trkpt>
      <trkpt lat="44.7189" lon="3.71569">
        <ele>1169.1683808429</ele>
        <time>2015-04-23T13:06:45Z</time>
      </trkpt>
      <trkpt lat="44.7189" lon="3.71569">
        <ele>1169.1683808429</ele>
        <time>2015-04-23T13:06:50Z</time>
      </trkpt>
      <trkpt lat="44.7189" lon="3.71569">
        <ele>1169.1683808429</ele>
        <time>2015-04-23T13:06:55Z</time>
      </trkpt>
      <trkpt lat="44.7189" lon="3.71569">
        <ele>1169.1683808429</ele>
        <time>2015-04-23T13:07:00Z</time>
      </trkpt>
      <trkpt lat="44.7189" lon="3.71569">
        <ele>1169.1683808429</ele>
        <time>2015-04-23T13:07:05Z</time>
      </trkpt>
      <trkpt lat="44.7189" lon="3.71569">
        <ele>1169.1683808429</ele>
        <time>2015-04-23T13:07:10Z</time>
      </trkpt>
      <trkpt lat="44.7189" lon="3.71569">
        <ele>1169.1683808429</ele>
        <time>2015-04-23T13:07:15Z</time>
      </trkpt>
      <trkpt lat="44.7189" lon="3.71569">
        <ele>1169.1683808429</ele>
        <time>2015-04-23T13:07:20Z</time>
      </trkpt>
      <trkpt lat="44.7189" lon="3.71569">
        <ele>1169.1683808429</ele>
        <time>2015-04-23T13:07:25Z</time>
      </trkpt>
      <trkpt lat="44.7189" lon="3.71569">
        <ele>1169.1683808429</ele>
        <time>2015-04-23T13:07:30Z</time>
      </trkpt>
      <trkpt lat="44.7189" lon="3.71569">
        <ele>1169.1683808429</ele>
        <time>2015-04-23T13:07:35Z</time>
      </trkpt>
      <trkpt lat="44.7189" lon="3.71569">
        <ele>1169.1683808429</ele>
        <time>2015-04-23T13:07:40Z</time>
      </trkpt>
      <trkpt lat="44.7189" lon="3.71569">
        <ele>1169.1683808429</ele>
        <time>2015-04-23T13:07:45Z</time>
      </trkpt>
      <trkpt lat="44.7189" lon="3.71569">
        <ele>1169.1683808429</ele>
        <time>2015-04-23T13:07:50Z</time>
      </trkpt>
      <trkpt lat="44.7189" lon="3.71569">
        <ele>1169.1683808429</ele>
        <time>2015-04-23T13:07:55Z</time>
      </trkpt>
      <trkpt lat="44.7189" lon="3.71569">
        <ele>1169.1683808429</ele>
        <time>2015-04-23T13:08:00Z</time>
      </trkpt>
      <trkpt lat="44.7189" lon="3.71569">
        <ele>1169.1683808429</ele>
        <time>2015-04-23T13:08:05Z</time>
      </trkpt>
      <trkpt lat="44.7189" lon="3.71569">
        <ele>1169.1683808429</ele>
        <time>2015-04-23T13:08:10Z</time>
      </trkpt>
      <trkpt lat="44.7189" lon="3.71569">
        <ele>1169.1683808429</ele>
        <time>2015-04-23T13:08:15Z</time>
      </trkpt>
      <trkpt lat="44.7189" lon="3.71569">
        <ele>1169.1683808429</ele>
        <time>2015-04-23T13:08:20Z</time>
      </trkpt>
      <trkpt lat="44.7189" lon="3.71569">
        <ele>1169.1683808429</ele>
        <time>2015-04-23T13:08:25Z</time>
      </trkpt>
      <trkpt lat="44.7189" lon="3.71569">
        <ele>1169.1683808429</ele>
        <time>2015-04-23T13:08:30Z</time>
      </trkpt>
      <trkpt lat="44.7189" lon="3.71569">
        <ele>1169.1683808429</ele>
        <time>2015-04-23T13:08:35Z</time>
      </trkpt>
      <trkpt lat="44.7189" lon="3.71569">
        <ele>1169.1683808429</ele>
        <time>2015-04-23T13:08:40Z</time>
      </trkpt>
      <trkpt lat="44.7189" lon="3.71569">
        <ele>1169.1683808429</ele>
        <time>2015-04-23T13:08:45Z</time>
      </trkpt>
      <trkpt lat="44.7189" lon="3.71569">
        <ele>1169.1683808429</ele>
        <time>2015-04-23T13:08:50Z</time>
      </trkpt>
      <trkpt lat="44.7189" lon="3.71569">
        <ele>1169.1683808429</ele>
        <time>2015-04-23T13:08:55Z</time>
      </trkpt>
      <trkpt lat="44.7189" lon="3.71569">
        <ele>1169.1683808429</ele>
        <time>2015-04-23T13:09:00Z</time>
      </trkpt>
      <trkpt lat="44.7189" lon="3.71569">
        <ele>1169.1683808429</ele>
        <time>2015-04-23T13:09:05Z</time>
      </trkpt>
      <trkpt lat="44.7189" lon="3.71569">
        <ele>1169.1683808429</ele>
        <time>2015-04-23T13:09:10Z</time>
      </trkpt>
      <trkpt lat="44.7189" lon="3.71569">
        <ele>1169.1683808429</ele>
        <time>2015-04-23T13:09:15Z</time>
      </trkpt>
      <trkpt lat="44.7189" lon="3.71569">
        <ele>1169.1683808429</ele>
        <time>2015-04-23T13:09:20Z</time>
      </trkpt>
      <trkpt lat="44.7189" lon="3.71569">
        <ele>1169.1683808429</ele>
        <time>2015-04-23T13:09:25Z</time>
      </trkpt>
      <trkpt lat="44.7189" lon="3.71569">
        <ele>1169.1683808429</ele>
        <time>2015-04-23T13:09:30Z</time>
      </trkpt>
      <trkpt lat="44.7189" lon="3.71569">
        <ele>1169.1683808429</ele>
        <time>2015-04-23T13:09:35Z</time>
      </trkpt>
      <trkpt lat="44.7189" lon="3.71569">
        <ele>1169.1683808429</ele>
        <time>2015-04-23T13:09:40Z</time>
      </trkpt>
      <trkpt lat="44.7189" lon="3.71569">
        <ele>1169.1683808429</ele>
        <time>2015-04-23T13:09:45Z</time>
      </trkpt>
      <trkpt lat="44.7189" lon="3.71569">
        <ele>1169.1683808429</ele>
        <time>2015-04-23T13:09:50Z</time>
      </trkpt>
      <trkpt lat="44.7189" lon="3.71569">
        <ele>1169.1683808429</ele>
        <time>2015-04-23T13:09:55Z</time>
      </trkpt>
      <trkpt lat="44.7189" lon="3.71569">
        <ele>1169.1683808429</ele>
        <time>2015-04-23T13:10:00Z</time>
      </trkpt>
      <trkpt lat="44.7189" lon="3.71569">
        <ele>1169.1683808429</ele>
        <time>2015-04-23T13:10:05Z</time>
      </trkpt>
      <trkpt lat="44.7189" lon="3.71569">
        <ele>1169.1683808429</ele>
        <time>2015-04-23T13:10:10Z</time>
      </trkpt>
      <trkpt lat="44.7189" lon="3.71569">
        <ele>1169.1683808429</ele>
        <time>2015-04-23T13:10:15Z</time>
      </trkpt>
      <trkpt lat="44.7189" lon="3.71569">
        <ele>1169.1683808429</ele>
        <time>2015-04-23T13:10:20Z</time>
      </trkpt>
      <trkpt lat="44.7189" lon="3.71569">
        <ele>1169.1683808429</ele>
        <time>2015-04-23T13:10:25Z</time>
      </trkpt>
      <trkpt lat="44.7189" lon="3.71569">
        <ele>1169.1683808429</ele>
        <time>2015-04-23T13:10:30Z</time>
      </trkpt>
      <trkpt lat="44.7189" lon="3.71569">
        <ele>1169.1683808429</ele>
        <time>2015-04-23T13:10:35Z</time>
      </trkpt>
      <trkpt lat="44.7189" lon="3.71569">
        <ele>1169.1683808429</ele>
        <time>2015-04-23T13:10:40Z</time>
      </trkpt>
      <trkpt lat="44.7189" lon="3.71569">
        <ele>1169.1683808429</ele>
        <time>2015-04-23T13:10:45Z</time>
      </trkpt>
      <trkpt lat="44.7189" lon="3.71569">
        <ele>1169.1683808429</ele>
        <time>2015-04-23T13:10:50Z</time>
      </trkpt>
      <trkpt lat="44.7189" lon="3.71569">
        <ele>1169.1683808429</ele>
        <time>2015-04-23T13:10:55Z</time>
      </trkpt>
      <trkpt lat="44.7189" lon="3.71569">
        <ele>1169.1683808429</ele>
        <time>2015-04-23T13:11:00Z</time>
      </trkpt>
      <trkpt lat="44.7189" lon="3.71569">
        <ele>1169.1683808429</ele>
        <time>2015-04-23T13:11:05Z</time>
      </trkpt>
      <trkpt lat="44.7189" lon="3.71569">
        <ele>1169.1683808429</ele>
        <time>2015-04-23T13:11:10Z</time>
      </trkpt>
      <trkpt lat="44.7189" lon="3.71569">
        <ele>1169.1683808429</ele>
        <time>2015-04-23T13:11:15Z</time>
      </trkpt>
      <trkpt lat="44.7189" lon="3.71569">
        <ele>1169.1683808429</ele>
        <time>2015-04-23T13:11:20Z</time>
      </trkpt>
      <trkpt lat="44.7189" lon="3.71569">
        <ele>1169.1683808429</ele>
        <time>2015-04-23T13:11:25Z</time>
      </trkpt>
      <trkpt lat="44.7189" lon="3.71569">
        <ele>1169.1683808429</ele>
        <time>2015-04-23T13:11:30Z</time>
      </trkpt>
      <trkpt lat="44.7189" lon="3.71569">
        <ele>1169.1683808429</ele>
        <time>2015-04-23T13:11:35Z</time>
      </trkpt>
      <trkpt lat="44.7189" lon="3.71569">
        <ele>1169.1683808429</ele>
        <time>2015-04-23T13:11:40Z</time>
      </trkpt>
      <trkpt lat="44.7189" lon="3.71569">
        <ele>1169.1683808429</ele>
        <time>2015-04-23T13:11:45Z</time>
      </trkpt>
      <trkpt lat="44.7189" lon="3.71569">
        <ele>1169.1683808429</ele>
        <time>2015-04-23T13:11:50Z</time>
      </trkpt>
      <trkpt lat="44.7189" lon="3.71569">
        <ele>1169.1683808429</ele>
        <time>2015-04-23T13:11:55Z</time>
      </trkpt>
      <trkpt lat="44.7189" lon="3.71569">
        <ele>1169.1683808429</ele>
        <time>2015-04-23T13:12:00Z</time>
      </trkpt>
      <trkpt lat="44.7189" lon="3.71569">
        <ele>1169.1683808429</ele>
        <time>2015-04-23T13:12:05Z</time>
      </trkpt>
      <trkpt lat="44.7189" lon="3.71569">
        <ele>1169.1683808429</ele>
        <time>2015-04-23T13:12:10Z</time>
      </trkpt>
      <trkpt lat="44.7189" lon="3.71569">
        <ele>1169.1683808429</ele>
        <time>2015-04-23T13:12:15Z</time>
      </trkpt>
      <trkpt lat="44.7189" lon="3.71569">
        <ele>1169.1683808429</ele>
        <time>2015-04-23T13:12:20Z</time>
      </trkpt>
      <trkpt lat="44.7189" lon="3.71569">
        <ele>1169.1683808429</ele>
        <time>2015-04-23T13:12:25Z</time>
      </trkpt>
      <trkpt lat="44.7189" lon="3.71569">
        <ele>1169.1683808429</ele>
        <time>2015-04-23T13:12:30Z</time>
      </trkpt>
      <trkpt lat="44.7189" lon="3.71569">
        <ele>1169.1683808429</ele>
        <time>2015-04-23T13:12:35Z</time>
      </trkpt>
      <trkpt lat="44.7189" lon="3.71569">
        <ele>1169.1683808429</ele>
        <time>2015-04-23T13:12:40Z</time>
      </trkpt>
      <trkpt lat="44.7189" lon="3.71569">
        <ele>1169.1683808429</ele>
        <time>2015-04-23T13:12:45Z</time>
      </trkpt>
      <trkpt lat="44.7189" lon="3.71569">
        <ele>1169.1683808429</ele>
        <time>2015-04-23T13:12:50Z</time>
      </trkpt>
      <trkpt lat="44.7189" lon="3.71569">
        <ele>1169.1683808429</ele>
        <time>2015-04-23T13:12:55Z</time>
      </trkpt>
      <trkpt lat="44.7189" lon="3.71569">
        <ele>1169.1683808429</ele>
        <time>2015-04-23T13:13:00Z</time>
      </trkpt>
      <trkpt lat="44.7189" lon="3.71569">
        <ele>1169.1683808429</ele>
        <time>2015-04-23T13:13:05Z</time>
      </trkpt>
      <trkpt lat="44.7189" lon="3.71569">
        <ele>1169.1683808429</ele>
        <time>2015-04-23T13:13:10Z</time>
      </trkpt>
      <trkpt lat="44.7189" lon="3.71569">
        <ele>1169.1683808429</ele>
        <time>2015-04-23T13:13:15Z</time>
      </trkpt>
      <trkpt lat="44.7189" lon="3.71569">
        <ele>1169.1683808429</ele>
        <time>2015-04-23T13:13:20Z</time>
      </trkpt>
      <trkpt lat="44.7189" lon="3.71569">
        <ele>1169.1683808429</ele>
        <time>2015-04-23T13:13:30Z</time>
      </trkpt>
      <trkpt lat="44.7189" lon="3.71569">
        <ele>1169.1683808429</ele>
        <time>2015-04-23T13:13:35Z</time>
      </trkpt>
      <trkpt lat="44.7189" lon="3.71569">
        <ele>1169.1683808429</ele>
        <time>2015-04-23T13:13:40Z</time>
      </trkpt>
      <trkpt lat="44.7189" lon="3.71569">
        <ele>1169.1683808429</ele>
        <time>2015-04-23T13:13:45Z</time>
      </trkpt>
      <trkpt lat="44.7189" lon="3.71569">
        <ele>1169.1683808429</ele>
        <time>2015-04-23T13:13:50Z</time>
      </trkpt>
      <trkpt lat="44.7189" lon="3.71569">
        <ele>1169.1683808429</ele>
        <time>2015-04-23T13:13:55Z</time>
      </trkpt>
      <trkpt lat="44.7189" lon="3.71569">
        <ele>1169.1683808429</ele>
        <time>2015-04-23T13:14:00Z</time>
      </trkpt>
      <trkpt lat="44.7189" lon="3.71569">
        <ele>1169.1683808429</ele>
        <time>2015-04-23T13:14:05Z</time>
      </trkpt>
      <trkpt lat="44.7189" lon="3.71569">
        <ele>1169.1683808429</ele>
        <time>2015-04-23T13:14:10Z</time>
      </trkpt>
      <trkpt lat="44.7189" lon="3.71569">
        <ele>1169.1683808429</ele>
        <time>2015-04-23T13:14:15Z</time>
      </trkpt>
      <trkpt lat="44.7189" lon="3.71569">
        <ele>1169.1683808429</ele>
        <time>2015-04-23T13:14:20Z</time>
      </trkpt>
      <trkpt lat="44.7189" lon="3.71569">
        <ele>1169.1683808429</ele>
        <time>2015-04-23T13:14:25Z</time>
      </trkpt>
      <trkpt lat="44.7189" lon="3.71569">
        <ele>1169.1683808429</ele>
        <time>2015-04-23T13:14:30Z</time>
      </trkpt>
      <trkpt lat="44.7189" lon="3.71569">
        <ele>1169.1683808429</ele>
        <time>2015-04-23T13:14:35Z</time>
      </trkpt>
      <trkpt lat="44.7189" lon="3.71569">
        <ele>1169.1683808429</ele>
        <time>2015-04-23T13:14:40Z</time>
      </trkpt>
      <trkpt lat="44.7189" lon="3.71569">
        <ele>1169.1683808429</ele>
        <time>2015-04-23T13:14:45Z</time>
      </trkpt>
      <trkpt lat="44.7189" lon="3.71569">
        <ele>1169.1683808429</ele>
        <time>2015-04-23T13:14:50Z</time>
      </trkpt>
      <trkpt lat="44.7189" lon="3.71569">
        <ele>1169.1683808429</ele>
        <time>2015-04-23T13:14:55Z</time>
      </trkpt>
      <trkpt lat="44.7189" lon="3.71569">
        <ele>1169.1683808429</ele>
        <time>2015-04-23T13:15:00Z</time>
      </trkpt>
      <trkpt lat="44.7189" lon="3.71569">
        <ele>1169.1683808429</ele>
        <time>2015-04-23T13:15:05Z</time>
      </trkpt>
      <trkpt lat="44.7189" lon="3.71569">
        <ele>1169.1683808429</ele>
        <time>2015-04-23T13:15:10Z</time>
      </trkpt>
      <trkpt lat="44.7189" lon="3.71569">
        <ele>1169.1683808429</ele>
        <time>2015-04-23T13:15:15Z</time>
      </trkpt>
      <trkpt lat="44.7189" lon="3.71569">
        <ele>1169.1683808429</ele>
        <time>2015-04-23T13:15:20Z</time>
      </trkpt>
      <trkpt lat="44.7189" lon="3.71569">
        <ele>1169.1683808429</ele>
        <time>2015-04-23T13:15:25Z</time>
      </trkpt>
      <trkpt lat="44.7189" lon="3.71569">
        <ele>1169.1683808429</ele>
        <time>2015-04-23T13:15:30Z</time>
      </trkpt>
      <trkpt lat="44.7189" lon="3.71569">
        <ele>1169.1683808429</ele>
        <time>2015-04-23T13:15:35Z</time>
      </trkpt>
      <trkpt lat="44.7189" lon="3.71569">
        <ele>1169.1683808429</ele>
        <time>2015-04-23T13:15:40Z</time>
      </trkpt>
      <trkpt lat="44.7189" lon="3.71569">
        <ele>1169.1683808429</ele>
        <time>2015-04-23T13:15:45Z</time>
      </trkpt>
      <trkpt lat="44.7189" lon="3.71569">
        <ele>1169.1683808429</ele>
        <time>2015-04-23T13:15:50Z</time>
      </trkpt>
      <trkpt lat="44.7189" lon="3.71569">
        <ele>1169.1683808429</ele>
        <time>2015-04-23T13:15:55Z</time>
      </trkpt>
      <trkpt lat="44.7189" lon="3.71569">
        <ele>1169.1683808429</ele>
        <time>2015-04-23T13:16:00Z</time>
      </trkpt>
      <trkpt lat="44.7189" lon="3.71569">
        <ele>1169.1683808429</ele>
        <time>2015-04-23T13:16:05Z</time>
      </trkpt>
      <trkpt lat="44.7189" lon="3.71569">
        <ele>1169.1683808429</ele>
        <time>2015-04-23T13:16:10Z</time>
      </trkpt>
      <trkpt lat="44.7189" lon="3.71569">
        <ele>1169.1683808429</ele>
        <time>2015-04-23T13:16:15Z</time>
      </trkpt>
      <trkpt lat="44.7189" lon="3.71569">
        <ele>1169.1683808429</ele>
        <time>2015-04-23T13:16:20Z</time>
      </trkpt>
      <trkpt lat="44.7189" lon="3.71569">
        <ele>1169.1683808429</ele>
        <time>2015-04-23T13:16:25Z</time>
      </trkpt>
      <trkpt lat="44.7189" lon="3.71569">
        <ele>1169.1683808429</ele>
        <time>2015-04-23T13:16:30Z</time>
      </trkpt>
      <trkpt lat="44.7189" lon="3.71569">
        <ele>1169.1683808429</ele>
        <time>2015-04-23T13:16:35Z</time>
      </trkpt>
      <trkpt lat="44.7189" lon="3.71569">
        <ele>1169.1683808429</ele>
        <time>2015-04-23T13:16:40Z</time>
      </trkpt>
      <trkpt lat="44.7189" lon="3.71569">
        <ele>1169.1683808429</ele>
        <time>2015-04-23T13:16:45Z</time>
      </trkpt>
      <trkpt lat="44.7189" lon="3.71569">
        <ele>1169.1683808429</ele>
        <time>2015-04-23T13:16:50Z</time>
      </trkpt>
      <trkpt lat="44.7189" lon="3.71569">
        <ele>1169.1683808429</ele>
        <time>2015-04-23T13:16:55Z</time>
      </trkpt>
      <trkpt lat="44.7189" lon="3.71569">
        <ele>1169.1683808429</ele>
        <time>2015-04-23T13:17:00Z</time>
      </trkpt>
      <trkpt lat="44.7189" lon="3.71569">
        <ele>1169.1683808429</ele>
        <time>2015-04-23T13:17:05Z</time>
      </trkpt>
      <trkpt lat="44.71891" lon="3.71569">
        <ele>1169.1683808429</ele>
        <time>2015-04-23T13:17:10Z</time>
      </trkpt>
      <trkpt lat="44.7189" lon="3.71569">
        <ele>1169.1683808429</ele>
        <time>2015-04-23T13:17:15Z</time>
      </trkpt>
      <trkpt lat="44.71889" lon="3.7157">
        <ele>1169.1683808429</ele>
        <time>2015-04-23T13:17:20Z</time>
      </trkpt>
      <trkpt lat="44.71889" lon="3.7157">
        <ele>1169.1683808429</ele>
        <time>2015-04-23T13:17:25Z</time>
      </trkpt>
      <trkpt lat="44.71889" lon="3.7157">
        <ele>1169.1683808429</ele>
        <time>2015-04-23T13:17:30Z</time>
      </trkpt>
      <trkpt lat="44.71889" lon="3.7157">
        <ele>1169.1683808429</ele>
        <time>2015-04-23T13:17:35Z</time>
      </trkpt>
      <trkpt lat="44.71889" lon="3.7157">
        <ele>1169.1683808429</ele>
        <time>2015-04-23T13:17:40Z</time>
      </trkpt>
      <trkpt lat="44.71889" lon="3.7157">
        <ele>1169.1683808429</ele>
        <time>2015-04-23T13:17:45Z</time>
      </trkpt>
      <trkpt lat="44.71889" lon="3.7157">
        <ele>1169.1683808429</ele>
        <time>2015-04-23T13:17:50Z</time>
      </trkpt>
      <trkpt lat="44.71889" lon="3.71571">
        <ele>1169.1683808429</ele>
        <time>2015-04-23T13:17:55Z</time>
      </trkpt>
      <trkpt lat="44.71892" lon="3.71562">
        <ele>1167.870279756</ele>
        <time>2015-04-23T13:18:00Z</time>
      </trkpt>
      <trkpt lat="44.7189" lon="3.7156">
        <ele>1167.870279756</ele>
        <time>2015-04-23T13:18:05Z</time>
      </trkpt>
      <trkpt lat="44.7189" lon="3.7156">
        <ele>1167.870279756</ele>
        <time>2015-04-23T13:18:10Z</time>
      </trkpt>
      <trkpt lat="44.7189" lon="3.71561">
        <ele>1167.870279756</ele>
        <time>2015-04-23T13:18:15Z</time>
      </trkpt>
      <trkpt lat="44.71889" lon="3.71562">
        <ele>1167.870279756</ele>
        <time>2015-04-23T13:18:20Z</time>
      </trkpt>
      <trkpt lat="44.71889" lon="3.71562">
        <ele>1167.870279756</ele>
        <time>2015-04-23T13:18:25Z</time>
      </trkpt>
      <trkpt lat="44.71889" lon="3.71562">
        <ele>1167.870279756</ele>
        <time>2015-04-23T13:18:30Z</time>
      </trkpt>
      <trkpt lat="44.71889" lon="3.71562">
        <ele>1167.870279756</ele>
        <time>2015-04-23T13:18:35Z</time>
      </trkpt>
      <trkpt lat="44.71888" lon="3.71564">
        <ele>1167.870279756</ele>
        <time>2015-04-23T13:18:40Z</time>
      </trkpt>
      <trkpt lat="44.71887" lon="3.71566">
        <ele>1167.870279756</ele>
        <time>2015-04-23T13:18:45Z</time>
      </trkpt>
      <trkpt lat="44.71888" lon="3.71565">
        <ele>1167.870279756</ele>
        <time>2015-04-23T13:18:50Z</time>
      </trkpt>
      <trkpt lat="44.71888" lon="3.71565">
        <ele>1167.870279756</ele>
        <time>2015-04-23T13:18:55Z</time>
      </trkpt>
      <trkpt lat="44.71888" lon="3.71565">
        <ele>1167.870279756</ele>
        <time>2015-04-23T13:19:00Z</time>
      </trkpt>
      <trkpt lat="44.71888" lon="3.71565">
        <ele>1167.870279756</ele>
        <time>2015-04-23T13:19:05Z</time>
      </trkpt>
      <trkpt lat="44.71888" lon="3.71565">
        <ele>1167.870279756</ele>
        <time>2015-04-23T13:19:10Z</time>
      </trkpt>
      <trkpt lat="44.71888" lon="3.71565">
        <ele>1167.870279756</ele>
        <time>2015-04-23T13:19:15Z</time>
      </trkpt>
      <trkpt lat="44.71887" lon="3.71567">
        <ele>1166.8686809428</ele>
        <time>2015-04-23T13:19:20Z</time>
      </trkpt>
      <trkpt lat="44.71888" lon="3.71567">
        <ele>1166.8686809428</ele>
        <time>2015-04-23T13:19:25Z</time>
      </trkpt>
      <trkpt lat="44.71889" lon="3.71566">
        <ele>1166.8686809428</ele>
        <time>2015-04-23T13:19:30Z</time>
      </trkpt>
      <trkpt lat="44.71889" lon="3.71565">
        <ele>1166.8686809428</ele>
        <time>2015-04-23T13:19:35Z</time>
      </trkpt>
      <trkpt lat="44.71889" lon="3.71564">
        <ele>1166.8686809428</ele>
        <time>2015-04-23T13:19:40Z</time>
      </trkpt>
      <trkpt lat="44.7189" lon="3.71565">
        <ele>1166.8686809428</ele>
        <time>2015-04-23T13:19:45Z</time>
      </trkpt>
      <trkpt lat="44.7189" lon="3.71567">
        <ele>1166.8686809428</ele>
        <time>2015-04-23T13:19:50Z</time>
      </trkpt>
      <trkpt lat="44.7189" lon="3.71568">
        <ele>1166.8686809428</ele>
        <time>2015-04-23T13:19:55Z</time>
      </trkpt>
      <trkpt lat="44.7189" lon="3.71568">
        <ele>1166.8686809428</ele>
        <time>2015-04-23T13:20:00Z</time>
      </trkpt>
      <trkpt lat="44.7189" lon="3.71568">
        <ele>1166.8686809428</ele>
        <time>2015-04-23T13:20:05Z</time>
      </trkpt>
      <trkpt lat="44.7189" lon="3.71568">
        <ele>1166.8686809428</ele>
        <time>2015-04-23T13:20:10Z</time>
      </trkpt>
      <trkpt lat="44.7189" lon="3.71568">
        <ele>1166.8686809428</ele>
        <time>2015-04-23T13:20:15Z</time>
      </trkpt>
      <trkpt lat="44.7189" lon="3.71568">
        <ele>1166.8686809428</ele>
        <time>2015-04-23T13:20:20Z</time>
      </trkpt>
      <trkpt lat="44.7189" lon="3.71568">
        <ele>1166.8686809428</ele>
        <time>2015-04-23T13:20:25Z</time>
      </trkpt>
      <trkpt lat="44.71891" lon="3.71566">
        <ele>1166.8686809428</ele>
        <time>2015-04-23T13:20:30Z</time>
      </trkpt>
      <trkpt lat="44.71891" lon="3.71563">
        <ele>1166.1876763679</ele>
        <time>2015-04-23T13:20:35Z</time>
      </trkpt>
      <trkpt lat="44.71891" lon="3.71563">
        <ele>1166.1876763679</ele>
        <time>2015-04-23T13:20:40Z</time>
      </trkpt>
      <trkpt lat="44.7189" lon="3.71563">
        <ele>1166.1876763679</ele>
        <time>2015-04-23T13:20:45Z</time>
      </trkpt>
      <trkpt lat="44.7189" lon="3.71562">
        <ele>1166.1876763679</ele>
        <time>2015-04-23T13:20:50Z</time>
      </trkpt>
      <trkpt lat="44.7189" lon="3.71562">
        <ele>1166.1876763679</ele>
        <time>2015-04-23T13:20:55Z</time>
      </trkpt>
      <trkpt lat="44.7189" lon="3.71562">
        <ele>1166.1876763679</ele>
        <time>2015-04-23T13:21:00Z</time>
      </trkpt>
      <trkpt lat="44.7189" lon="3.71562">
        <ele>1166.1876763679</ele>
        <time>2015-04-23T13:21:05Z</time>
      </trkpt>
      <trkpt lat="44.7189" lon="3.71562">
        <ele>1166.1876763679</ele>
        <time>2015-04-23T13:21:10Z</time>
      </trkpt>
      <trkpt lat="44.7189" lon="3.71562">
        <ele>1166.1876763679</ele>
        <time>2015-04-23T13:21:15Z</time>
      </trkpt>
      <trkpt lat="44.7189" lon="3.71562">
        <ele>1166.1876763679</ele>
        <time>2015-04-23T13:21:20Z</time>
      </trkpt>
      <trkpt lat="44.71889" lon="3.71562">
        <ele>1166.1876763679</ele>
        <time>2015-04-23T13:21:25Z</time>
      </trkpt>
      <trkpt lat="44.71889" lon="3.71562">
        <ele>1166.1876763679</ele>
        <time>2015-04-23T13:21:30Z</time>
      </trkpt>
      <trkpt lat="44.71888" lon="3.71562">
        <ele>1166.1876763679</ele>
        <time>2015-04-23T13:21:35Z</time>
      </trkpt>
      <trkpt lat="44.71888" lon="3.71562">
        <ele>1166.1876763679</ele>
        <time>2015-04-23T13:21:40Z</time>
      </trkpt>
      <trkpt lat="44.71888" lon="3.71562">
        <ele>1166.1876763679</ele>
        <time>2015-04-23T13:21:45Z</time>
      </trkpt>
      <trkpt lat="44.71888" lon="3.71562">
        <ele>1166.1876763679</ele>
        <time>2015-04-23T13:21:50Z</time>
      </trkpt>
      <trkpt lat="44.71888" lon="3.71562">
        <ele>1166.1876763679</ele>
        <time>2015-04-23T13:21:55Z</time>
      </trkpt>
      <trkpt lat="44.71888" lon="3.71562">
        <ele>1166.1876763679</ele>
        <time>2015-04-23T13:22:00Z</time>
      </trkpt>
      <trkpt lat="44.71888" lon="3.71562">
        <ele>1166.1876763679</ele>
        <time>2015-04-23T13:22:05Z</time>
      </trkpt>
      <trkpt lat="44.71887" lon="3.71562">
        <ele>1166.1876763679</ele>
        <time>2015-04-23T13:22:10Z</time>
      </trkpt>
      <trkpt lat="44.71887" lon="3.71563">
        <ele>1166.1876763679</ele>
        <time>2015-04-23T13:22:15Z</time>
      </trkpt>
      <trkpt lat="44.71887" lon="3.71563">
        <ele>1166.1876763679</ele>
        <time>2015-04-23T13:22:20Z</time>
      </trkpt>
      <trkpt lat="44.71886" lon="3.71564">
        <ele>1166.1876763679</ele>
        <time>2015-04-23T13:22:25Z</time>
      </trkpt>
      <trkpt lat="44.71888" lon="3.71565">
        <ele>1165.4162330493</ele>
        <time>2015-04-23T13:22:30Z</time>
      </trkpt>
      <trkpt lat="44.71889" lon="3.71565">
        <ele>1165.4162330493</ele>
        <time>2015-04-23T13:22:35Z</time>
      </trkpt>
      <trkpt lat="44.71889" lon="3.71566">
        <ele>1165.4162330493</ele>
        <time>2015-04-23T13:22:40Z</time>
      </trkpt>
      <trkpt lat="44.71889" lon="3.71567">
        <ele>1165.4162330493</ele>
        <time>2015-04-23T13:22:45Z</time>
      </trkpt>
      <trkpt lat="44.71888" lon="3.71567">
        <ele>1165.4162330493</ele>
        <time>2015-04-23T13:22:50Z</time>
      </trkpt>
      <trkpt lat="44.71887" lon="3.71567">
        <ele>1165.4162330493</ele>
        <time>2015-04-23T13:22:55Z</time>
      </trkpt>
      <trkpt lat="44.71887" lon="3.71567">
        <ele>1165.4162330493</ele>
        <time>2015-04-23T13:23:00Z</time>
      </trkpt>
      <trkpt lat="44.71887" lon="3.71567">
        <ele>1165.4162330493</ele>
        <time>2015-04-23T13:23:05Z</time>
      </trkpt>
      <trkpt lat="44.71888" lon="3.71568">
        <ele>1165.4162330493</ele>
        <time>2015-04-23T13:23:10Z</time>
      </trkpt>
      <trkpt lat="44.7189" lon="3.71571">
        <ele>1165.4162330493</ele>
        <time>2015-04-23T13:23:15Z</time>
      </trkpt>
      <trkpt lat="44.71889" lon="3.71574">
        <ele>1165.4850594002</ele>
        <time>2015-04-23T13:23:20Z</time>
      </trkpt>
      <trkpt lat="44.71888" lon="3.71573">
        <ele>1165.4850594002</ele>
        <time>2015-04-23T13:23:25Z</time>
      </trkpt>
      <trkpt lat="44.71888" lon="3.71574">
        <ele>1165.4850594002</ele>
        <time>2015-04-23T13:23:30Z</time>
      </trkpt>
      <trkpt lat="44.71887" lon="3.71574">
        <ele>1165.4850594002</ele>
        <time>2015-04-23T13:23:35Z</time>
      </trkpt>
      <trkpt lat="44.71887" lon="3.71574">
        <ele>1165.4850594002</ele>
        <time>2015-04-23T13:23:40Z</time>
      </trkpt>
      <trkpt lat="44.71888" lon="3.71574">
        <ele>1165.4850594002</ele>
        <time>2015-04-23T13:23:45Z</time>
      </trkpt>
      <trkpt lat="44.71888" lon="3.71574">
        <ele>1165.4850594002</ele>
        <time>2015-04-23T13:23:50Z</time>
      </trkpt>
      <trkpt lat="44.71888" lon="3.71575">
        <ele>1165.4850594002</ele>
        <time>2015-04-23T13:23:55Z</time>
      </trkpt>
      <trkpt lat="44.71888" lon="3.71575">
        <ele>1165.4850594002</ele>
        <time>2015-04-23T13:24:00Z</time>
      </trkpt>
      <trkpt lat="44.71889" lon="3.71576">
        <ele>1165.4850594002</ele>
        <time>2015-04-23T13:24:05Z</time>
      </trkpt>
      <trkpt lat="44.71889" lon="3.71577">
        <ele>1165.4850594002</ele>
        <time>2015-04-23T13:24:10Z</time>
      </trkpt>
      <trkpt lat="44.71889" lon="3.71577">
        <ele>1165.4850594002</ele>
        <time>2015-04-23T13:24:15Z</time>
      </trkpt>
      <trkpt lat="44.7189" lon="3.71577">
        <ele>1165.4850594002</ele>
        <time>2015-04-23T13:24:20Z</time>
      </trkpt>
      <trkpt lat="44.71891" lon="3.71577">
        <ele>1165.4850594002</ele>
        <time>2015-04-23T13:24:25Z</time>
      </trkpt>
      <trkpt lat="44.71892" lon="3.71578">
        <ele>1165.4850594002</ele>
        <time>2015-04-23T13:24:30Z</time>
      </trkpt>
      <trkpt lat="44.71892" lon="3.71578">
        <ele>1165.4850594002</ele>
        <time>2015-04-23T13:24:35Z</time>
      </trkpt>
      <trkpt lat="44.71891" lon="3.71578">
        <ele>1165.5967469876</ele>
        <time>2015-04-23T13:24:40Z</time>
      </trkpt>
      <trkpt lat="44.71891" lon="3.71578">
        <ele>1165.5967469876</ele>
        <time>2015-04-23T13:24:45Z</time>
      </trkpt>
      <trkpt lat="44.71891" lon="3.71578">
        <ele>1165.5967469876</ele>
        <time>2015-04-23T13:24:50Z</time>
      </trkpt>
      <trkpt lat="44.71891" lon="3.71578">
        <ele>1165.5967469876</ele>
        <time>2015-04-23T13:24:55Z</time>
      </trkpt>
      <trkpt lat="44.71891" lon="3.71578">
        <ele>1165.5967469876</ele>
        <time>2015-04-23T13:25:00Z</time>
      </trkpt>
      <trkpt lat="44.71891" lon="3.71578">
        <ele>1165.5967469876</ele>
        <time>2015-04-23T13:25:05Z</time>
      </trkpt>
      <trkpt lat="44.71889" lon="3.71577">
        <ele>1165.5967469876</ele>
        <time>2015-04-23T13:25:10Z</time>
      </trkpt>
      <trkpt lat="44.71889" lon="3.71578">
        <ele>1165.5967469876</ele>
        <time>2015-04-23T13:25:15Z</time>
      </trkpt>
      <trkpt lat="44.7189" lon="3.71576">
        <ele>1165.5967469876</ele>
        <time>2015-04-23T13:25:20Z</time>
      </trkpt>
      <trkpt lat="44.7189" lon="3.71574">
        <ele>1165.5967469876</ele>
        <time>2015-04-23T13:25:25Z</time>
      </trkpt>
      <trkpt lat="44.7189" lon="3.7158">
        <ele>1165.7472075179</ele>
        <time>2015-04-23T13:25:30Z</time>
      </trkpt>
      <trkpt lat="44.71889" lon="3.71582">
        <ele>1165.7472075179</ele>
        <time>2015-04-23T13:25:35Z</time>
      </trkpt>
      <trkpt lat="44.71888" lon="3.71583">
        <ele>1165.7472075179</ele>
        <time>2015-04-23T13:25:40Z</time>
      </trkpt>
      <trkpt lat="44.71888" lon="3.71583">
        <ele>1165.7472075179</ele>
        <time>2015-04-23T13:25:45Z</time>
      </trkpt>
      <trkpt lat="44.71887" lon="3.71582">
        <ele>1165.7472075179</ele>
        <time>2015-04-23T13:25:50Z</time>
      </trkpt>
      <trkpt lat="44.71887" lon="3.71582">
        <ele>1165.7472075179</ele>
        <time>2015-04-23T13:25:55Z</time>
      </trkpt>
      <trkpt lat="44.71887" lon="3.71582">
        <ele>1165.7472075179</ele>
        <time>2015-04-23T13:26:00Z</time>
      </trkpt>
      <trkpt lat="44.71887" lon="3.71582">
        <ele>1165.7472075179</ele>
        <time>2015-04-23T13:26:05Z</time>
      </trkpt>
      <trkpt lat="44.71887" lon="3.71582">
        <ele>1165.7472075179</ele>
        <time>2015-04-23T13:26:10Z</time>
      </trkpt>
      <trkpt lat="44.71887" lon="3.71582">
        <ele>1165.7472075179</ele>
        <time>2015-04-23T13:26:15Z</time>
      </trkpt>
      <trkpt lat="44.71887" lon="3.71582">
        <ele>1165.7472075179</ele>
        <time>2015-04-23T13:26:20Z</time>
      </trkpt>
      <trkpt lat="44.71887" lon="3.71582">
        <ele>1165.7472075179</ele>
        <time>2015-04-23T13:26:25Z</time>
      </trkpt>
      <trkpt lat="44.71888" lon="3.71579">
        <ele>1165.7472075179</ele>
        <time>2015-04-23T13:26:30Z</time>
      </trkpt>
      <trkpt lat="44.71887" lon="3.71577">
        <ele>1165.7472075179</ele>
        <time>2015-04-23T13:26:35Z</time>
      </trkpt>
      <trkpt lat="44.71887" lon="3.71577">
        <ele>1165.7472075179</ele>
        <time>2015-04-23T13:26:40Z</time>
      </trkpt>
      <trkpt lat="44.71887" lon="3.71577">
        <ele>1165.7472075179</ele>
        <time>2015-04-23T13:26:45Z</time>
      </trkpt>
      <trkpt lat="44.71887" lon="3.71577">
        <ele>1165.7472075179</ele>
        <time>2015-04-23T13:26:50Z</time>
      </trkpt>
      <trkpt lat="44.71887" lon="3.71577">
        <ele>1165.7472075179</ele>
        <time>2015-04-23T13:26:55Z</time>
      </trkpt>
      <trkpt lat="44.71887" lon="3.71577">
        <ele>1165.7472075179</ele>
        <time>2015-04-23T13:27:00Z</time>
      </trkpt>
      <trkpt lat="44.71887" lon="3.71577">
        <ele>1165.7472075179</ele>
        <time>2015-04-23T13:27:05Z</time>
      </trkpt>
      <trkpt lat="44.71887" lon="3.71576">
        <ele>1165.7472075179</ele>
        <time>2015-04-23T13:27:10Z</time>
      </trkpt>
      <trkpt lat="44.71887" lon="3.71576">
        <ele>1165.7472075179</ele>
        <time>2015-04-23T13:27:15Z</time>
      </trkpt>
      <trkpt lat="44.71888" lon="3.71577">
        <ele>1165.8603944647</ele>
        <time>2015-04-23T13:27:20Z</time>
      </trkpt>
      <trkpt lat="44.71887" lon="3.71577">
        <ele>1165.8603944647</ele>
        <time>2015-04-23T13:27:25Z</time>
      </trkpt>
      <trkpt lat="44.71887" lon="3.71578">
        <ele>1165.8603944647</ele>
        <time>2015-04-23T13:27:30Z</time>
      </trkpt>
      <trkpt lat="44.71887" lon="3.71578">
        <ele>1165.8603944647</ele>
        <time>2015-04-23T13:27:35Z</time>
      </trkpt>
      <trkpt lat="44.71887" lon="3.71578">
        <ele>1165.8603944647</ele>
        <time>2015-04-23T13:27:40Z</time>
      </trkpt>
      <trkpt lat="44.71887" lon="3.71578">
        <ele>1165.8603944647</ele>
        <time>2015-04-23T13:27:45Z</time>
      </trkpt>
      <trkpt lat="44.71887" lon="3.71578">
        <ele>1165.8603944647</ele>
        <time>2015-04-23T13:27:50Z</time>
      </trkpt>
      <trkpt lat="44.71887" lon="3.71578">
        <ele>1165.8603944647</ele>
        <time>2015-04-23T13:27:55Z</time>
      </trkpt>
      <trkpt lat="44.71887" lon="3.71578">
        <ele>1165.8603944647</ele>
        <time>2015-04-23T13:28:00Z</time>
      </trkpt>
      <trkpt lat="44.71886" lon="3.71576">
        <ele>1165.8603944647</ele>
        <time>2015-04-23T13:28:05Z</time>
      </trkpt>
      <trkpt lat="44.71887" lon="3.71575">
        <ele>1165.8603944647</ele>
        <time>2015-04-23T13:28:10Z</time>
      </trkpt>
      <trkpt lat="44.71887" lon="3.71573">
        <ele>1165.8603944647</ele>
        <time>2015-04-23T13:28:15Z</time>
      </trkpt>
      <trkpt lat="44.71886" lon="3.71569">
        <ele>1165.8603944647</ele>
        <time>2015-04-23T13:28:20Z</time>
      </trkpt>
      <trkpt lat="44.71885" lon="3.71564">
        <ele>1166.2405578304</ele>
        <time>2015-04-23T13:28:25Z</time>
      </trkpt>
      <trkpt lat="44.71886" lon="3.7156">
        <ele>1166.2405578304</ele>
        <time>2015-04-23T13:28:30Z</time>
      </trkpt>
      <trkpt lat="44.71889" lon="3.71561">
        <ele>1166.2405578304</ele>
        <time>2015-04-23T13:28:35Z</time>
      </trkpt>
      <trkpt lat="44.71888" lon="3.71559">
        <ele>1166.2405578304</ele>
        <time>2015-04-23T13:28:40Z</time>
      </trkpt>
      <trkpt lat="44.71889" lon="3.71559">
        <ele>1166.2405578304</ele>
        <time>2015-04-23T13:28:45Z</time>
      </trkpt>
      <trkpt lat="44.7189" lon="3.7156">
        <ele>1166.2405578304</ele>
        <time>2015-04-23T13:28:50Z</time>
      </trkpt>
      <trkpt lat="44.71894" lon="3.71561">
        <ele>1166.4049863328</ele>
        <time>2015-04-23T13:28:55Z</time>
      </trkpt>
      <trkpt lat="44.719" lon="3.71557">
        <ele>1166.4049863328</ele>
        <time>2015-04-23T13:29:00Z</time>
      </trkpt>
      <trkpt lat="44.71903" lon="3.71558">
        <ele>1166.4049863328</ele>
        <time>2015-04-23T13:29:05Z</time>
      </trkpt>
      <trkpt lat="44.71904" lon="3.71559">
        <ele>1167.4201391261</ele>
        <time>2015-04-23T13:29:10Z</time>
      </trkpt>
      <trkpt lat="44.71907" lon="3.71556">
        <ele>1167.4201391261</ele>
        <time>2015-04-23T13:29:15Z</time>
      </trkpt>
      <trkpt lat="44.71909" lon="3.71555">
        <ele>1167.4201391261</ele>
        <time>2015-04-23T13:29:20Z</time>
      </trkpt>
      <trkpt lat="44.71909" lon="3.71549">
        <ele>1168.6000083474</ele>
        <time>2015-04-23T13:29:25Z</time>
      </trkpt>
      <trkpt lat="44.71908" lon="3.71539">
        <ele>1168.6000083474</ele>
        <time>2015-04-23T13:29:30Z</time>
      </trkpt>
      <trkpt lat="44.7191" lon="3.7153">
        <ele>1169.4670033707</ele>
        <time>2015-04-23T13:29:35Z</time>
      </trkpt>
      <trkpt lat="44.71912" lon="3.71519">
        <ele>1169.4670033707</ele>
        <time>2015-04-23T13:29:40Z</time>
      </trkpt>
      <trkpt lat="44.71913" lon="3.7151">
        <ele>1170.4873719595</ele>
        <time>2015-04-23T13:29:45Z</time>
      </trkpt>
      <trkpt lat="44.71913" lon="3.71501">
        <ele>1170.4873719595</ele>
        <time>2015-04-23T13:29:50Z</time>
      </trkpt>
      <trkpt lat="44.71912" lon="3.71493">
        <ele>1171.3288822471</ele>
        <time>2015-04-23T13:29:55Z</time>
      </trkpt>
      <trkpt lat="44.71911" lon="3.71484">
        <ele>1171.3288822471</ele>
        <time>2015-04-23T13:30:00Z</time>
      </trkpt>
      <trkpt lat="44.7191" lon="3.71475">
        <ele>1172.0733117317</ele>
        <time>2015-04-23T13:30:05Z</time>
      </trkpt>
      <trkpt lat="44.71909" lon="3.71472">
        <ele>1172.0733117317</ele>
        <time>2015-04-23T13:30:10Z</time>
      </trkpt>
      <trkpt lat="44.71908" lon="3.71475">
        <ele>1172.0733117317</ele>
        <time>2015-04-23T13:30:15Z</time>
      </trkpt>
      <trkpt lat="44.71907" lon="3.7147">
        <ele>1172.0733117317</ele>
        <time>2015-04-23T13:30:20Z</time>
      </trkpt>
      <trkpt lat="44.71905" lon="3.71461">
        <ele>1172.9120042163</ele>
        <time>2015-04-23T13:30:25Z</time>
      </trkpt>
      <trkpt lat="44.71911" lon="3.7146">
        <ele>1172.9120042163</ele>
        <time>2015-04-23T13:30:30Z</time>
      </trkpt>
      <trkpt lat="44.71917" lon="3.71463">
        <ele>1173.8923050146</ele>
        <time>2015-04-23T13:30:35Z</time>
      </trkpt>
      <trkpt lat="44.71923" lon="3.71468">
        <ele>1173.8923050146</ele>
        <time>2015-04-23T13:30:40Z</time>
      </trkpt>
      <trkpt lat="44.71929" lon="3.71474">
        <ele>1174.4380362431</ele>
        <time>2015-04-23T13:30:45Z</time>
      </trkpt>
      <trkpt lat="44.71936" lon="3.7148">
        <ele>1174.4380362431</ele>
        <time>2015-04-23T13:30:50Z</time>
      </trkpt>
      <trkpt lat="44.7195" lon="3.7149">
        <ele>1175.0686135891</ele>
        <time>2015-04-23T13:30:55Z</time>
      </trkpt>
      <trkpt lat="44.71963" lon="3.71498">
        <ele>1175.2130898652</ele>
        <time>2015-04-23T13:31:00Z</time>
      </trkpt>
      <trkpt lat="44.7197" lon="3.71502">
        <ele>1175.2130898652</ele>
        <time>2015-04-23T13:31:05Z</time>
      </trkpt>
      <trkpt lat="44.71976" lon="3.71506">
        <ele>1174.8914909095</ele>
        <time>2015-04-23T13:31:10Z</time>
      </trkpt>
      <trkpt lat="44.71982" lon="3.71511">
        <ele>1174.8914909095</ele>
        <time>2015-04-23T13:31:15Z</time>
      </trkpt>
      <trkpt lat="44.71988" lon="3.71514">
        <ele>1174.5272360935</ele>
        <time>2015-04-23T13:31:20Z</time>
      </trkpt>
      <trkpt lat="44.71994" lon="3.71518">
        <ele>1174.5272360935</ele>
        <time>2015-04-23T13:31:25Z</time>
      </trkpt>
      <trkpt lat="44.72006" lon="3.71524">
        <ele>1174.1957600244</ele>
        <time>2015-04-23T13:31:30Z</time>
      </trkpt>
      <trkpt lat="44.72017" lon="3.7153">
        <ele>1173.880438337</ele>
        <time>2015-04-23T13:31:35Z</time>
      </trkpt>
      <trkpt lat="44.72024" lon="3.71534">
        <ele>1173.880438337</ele>
        <time>2015-04-23T13:31:40Z</time>
      </trkpt>
      <trkpt lat="44.72031" lon="3.71538">
        <ele>1173.9837830164</ele>
        <time>2015-04-23T13:31:45Z</time>
      </trkpt>
      <trkpt lat="44.72037" lon="3.71542">
        <ele>1173.9837830164</ele>
        <time>2015-04-23T13:31:50Z</time>
      </trkpt>
      <trkpt lat="44.72042" lon="3.71545">
        <ele>1174.4164439009</ele>
        <time>2015-04-23T13:31:55Z</time>
      </trkpt>
      <trkpt lat="44.72049" lon="3.71547">
        <ele>1174.4164439009</ele>
        <time>2015-04-23T13:32:00Z</time>
      </trkpt>
      <trkpt lat="44.72054" lon="3.71547">
        <ele>1175.0226913845</ele>
        <time>2015-04-23T13:32:05Z</time>
      </trkpt>
      <trkpt lat="44.7206" lon="3.71552">
        <ele>1175.0226913845</ele>
        <time>2015-04-23T13:32:10Z</time>
      </trkpt>
      <trkpt lat="44.72066" lon="3.71557">
        <ele>1175.0669299553</ele>
        <time>2015-04-23T13:32:15Z</time>
      </trkpt>
      <trkpt lat="44.72072" lon="3.71561">
        <ele>1175.0669299553</ele>
        <time>2015-04-23T13:32:20Z</time>
      </trkpt>
      <trkpt lat="44.72079" lon="3.71569">
        <ele>1174.9500489579</ele>
        <time>2015-04-23T13:32:25Z</time>
      </trkpt>
      <trkpt lat="44.72088" lon="3.71581">
        <ele>1175.1736796485</ele>
        <time>2015-04-23T13:32:30Z</time>
      </trkpt>
      <trkpt lat="44.72094" lon="3.71588">
        <ele>1175.1736796485</ele>
        <time>2015-04-23T13:32:35Z</time>
      </trkpt>
      <trkpt lat="44.72101" lon="3.71594">
        <ele>1175.5243651518</ele>
        <time>2015-04-23T13:32:40Z</time>
      </trkpt>
      <trkpt lat="44.72108" lon="3.71603">
        <ele>1175.8472448179</ele>
        <time>2015-04-23T13:32:45Z</time>
      </trkpt>
      <trkpt lat="44.72123" lon="3.71622">
        <ele>1176.3592294492</ele>
        <time>2015-04-23T13:32:50Z</time>
      </trkpt>
      <trkpt lat="44.72155" lon="3.71644">
        <ele>1176.8428837575</ele>
        <time>2015-04-23T13:32:55Z</time>
      </trkpt>
      <trkpt lat="44.72178" lon="3.71668">
        <ele>1177.7309569677</ele>
        <time>2015-04-23T13:33:00Z</time>
      </trkpt>
      <trkpt lat="44.72188" lon="3.71685">
        <ele>1178.0686744286</ele>
        <time>2015-04-23T13:33:05Z</time>
      </trkpt>
      <trkpt lat="44.72205" lon="3.71709">
        <ele>1178.3420455456</ele>
        <time>2015-04-23T13:33:10Z</time>
      </trkpt>
      <trkpt lat="44.72223" lon="3.71739">
        <ele>1178.3098720636</ele>
        <time>2015-04-23T13:33:15Z</time>
      </trkpt>
      <trkpt lat="44.72241" lon="3.71772">
        <ele>1178.1242665528</ele>
        <time>2015-04-23T13:33:20Z</time>
      </trkpt>
      <trkpt lat="44.72256" lon="3.71804">
        <ele>1178.1139862968</ele>
        <time>2015-04-23T13:33:25Z</time>
      </trkpt>
      <trkpt lat="44.7226" lon="3.7182">
        <ele>1178.3237873676</ele>
        <time>2015-04-23T13:33:30Z</time>
      </trkpt>
      <trkpt lat="44.72267" lon="3.71829">
        <ele>1178.4775142664</ele>
        <time>2015-04-23T13:33:35Z</time>
      </trkpt>
      <trkpt lat="44.7227" lon="3.71836">
        <ele>1178.4775142664</ele>
        <time>2015-04-23T13:33:40Z</time>
      </trkpt>
      <trkpt lat="44.72272" lon="3.71838">
        <ele>1178.4775142664</ele>
        <time>2015-04-23T13:33:45Z</time>
      </trkpt>
      <trkpt lat="44.72273" lon="3.71838">
        <ele>1178.4775142664</ele>
        <time>2015-04-23T13:33:50Z</time>
      </trkpt>
      <trkpt lat="44.72276" lon="3.71842">
        <ele>1177.9448006597</ele>
        <time>2015-04-23T13:33:55Z</time>
      </trkpt>
      <trkpt lat="44.7228" lon="3.71849">
        <ele>1177.9448006597</ele>
        <time>2015-04-23T13:34:00Z</time>
      </trkpt>
      <trkpt lat="44.72284" lon="3.71856">
        <ele>1177.3252546403</ele>
        <time>2015-04-23T13:34:05Z</time>
      </trkpt>
      <trkpt lat="44.72288" lon="3.71865">
        <ele>1177.3252546403</ele>
        <time>2015-04-23T13:34:10Z</time>
      </trkpt>
      <trkpt lat="44.72293" lon="3.7187">
        <ele>1176.5262063595</ele>
        <time>2015-04-23T13:34:15Z</time>
      </trkpt>
      <trkpt lat="44.72296" lon="3.71875">
        <ele>1176.5262063595</ele>
        <time>2015-04-23T13:34:20Z</time>
      </trkpt>
      <trkpt lat="44.723" lon="3.71886">
        <ele>1175.8081826991</ele>
        <time>2015-04-23T13:34:25Z</time>
      </trkpt>
      <trkpt lat="44.72304" lon="3.71895">
        <ele>1175.8081826991</ele>
        <time>2015-04-23T13:34:30Z</time>
      </trkpt>
      <trkpt lat="44.72308" lon="3.719">
        <ele>1174.6773887365</ele>
        <time>2015-04-23T13:34:35Z</time>
      </trkpt>
      <trkpt lat="44.72311" lon="3.71908">
        <ele>1174.6773887365</ele>
        <time>2015-04-23T13:34:40Z</time>
      </trkpt>
      <trkpt lat="44.72315" lon="3.71916">
        <ele>1173.7727086612</ele>
        <time>2015-04-23T13:34:45Z</time>
      </trkpt>
      <trkpt lat="44.7232" lon="3.71926">
        <ele>1173.7727086612</ele>
        <time>2015-04-23T13:34:50Z</time>
      </trkpt>
      <trkpt lat="44.72324" lon="3.71934">
        <ele>1172.950487716</ele>
        <time>2015-04-23T13:34:55Z</time>
      </trkpt>
      <trkpt lat="44.72329" lon="3.71949">
        <ele>1173.0285147052</ele>
        <time>2015-04-23T13:35:00Z</time>
      </trkpt>
      <trkpt lat="44.72332" lon="3.7196">
        <ele>1173.0285147052</ele>
        <time>2015-04-23T13:35:05Z</time>
      </trkpt>
      <trkpt lat="44.72336" lon="3.71969">
        <ele>1173.2632069926</ele>
        <time>2015-04-23T13:35:10Z</time>
      </trkpt>
      <trkpt lat="44.72339" lon="3.71979">
        <ele>1173.2632069926</ele>
        <time>2015-04-23T13:35:15Z</time>
      </trkpt>
      <trkpt lat="44.72342" lon="3.71988">
        <ele>1173.6280605507</ele>
        <time>2015-04-23T13:35:20Z</time>
      </trkpt>
      <trkpt lat="44.72353" lon="3.71997">
        <ele>1174.2278389043</ele>
        <time>2015-04-23T13:35:25Z</time>
      </trkpt>
      <trkpt lat="44.72373" lon="3.72007">
        <ele>1174.9860073102</ele>
        <time>2015-04-23T13:35:30Z</time>
      </trkpt>
      <trkpt lat="44.72401" lon="3.72034">
        <ele>1175.6726817412</ele>
        <time>2015-04-23T13:35:35Z</time>
      </trkpt>
      <trkpt lat="44.72423" lon="3.72053">
        <ele>1176.449755802</ele>
        <time>2015-04-23T13:35:40Z</time>
      </trkpt>
      <trkpt lat="44.7243" lon="3.7206">
        <ele>1176.449755802</ele>
        <time>2015-04-23T13:35:45Z</time>
      </trkpt>
      <trkpt lat="44.72435" lon="3.72068">
        <ele>1176.8473050319</ele>
        <time>2015-04-23T13:35:50Z</time>
      </trkpt>
      <trkpt lat="44.7244" lon="3.72075">
        <ele>1176.8473050319</ele>
        <time>2015-04-23T13:35:55Z</time>
      </trkpt>
      <trkpt lat="44.72443" lon="3.72082">
        <ele>1177.079500739</ele>
        <time>2015-04-23T13:36:00Z</time>
      </trkpt>
      <trkpt lat="44.72447" lon="3.72089">
        <ele>1177.079500739</ele>
        <time>2015-04-23T13:36:05Z</time>
      </trkpt>
      <trkpt lat="44.72451" lon="3.72096">
        <ele>1176.9705690656</ele>
        <time>2015-04-23T13:36:10Z</time>
      </trkpt>
      <trkpt lat="44.72454" lon="3.72105">
        <ele>1176.9705690656</ele>
        <time>2015-04-23T13:36:15Z</time>
      </trkpt>
      <trkpt lat="44.72458" lon="3.72112">
        <ele>1176.7044855669</ele>
        <time>2015-04-23T13:36:20Z</time>
      </trkpt>
      <trkpt lat="44.72461" lon="3.72121">
        <ele>1176.7044855669</ele>
        <time>2015-04-23T13:36:25Z</time>
      </trkpt>
      <trkpt lat="44.72465" lon="3.72134">
        <ele>1176.4089305925</ele>
        <time>2015-04-23T13:36:30Z</time>
      </trkpt>
      <trkpt lat="44.7247" lon="3.72146">
        <ele>1176.1014194497</ele>
        <time>2015-04-23T13:36:35Z</time>
      </trkpt>
      <trkpt lat="44.72473" lon="3.72156">
        <ele>1176.1014194497</ele>
        <time>2015-04-23T13:36:40Z</time>
      </trkpt>
      <trkpt lat="44.72478" lon="3.72167">
        <ele>1176.1152655831</ele>
        <time>2015-04-23T13:36:45Z</time>
      </trkpt>
      <trkpt lat="44.72482" lon="3.72175">
        <ele>1176.1152655831</ele>
        <time>2015-04-23T13:36:50Z</time>
      </trkpt>
      <trkpt lat="44.72486" lon="3.72183">
        <ele>1175.9657885164</ele>
        <time>2015-04-23T13:36:55Z</time>
      </trkpt>
      <trkpt lat="44.7249" lon="3.72188">
        <ele>1175.9657885164</ele>
        <time>2015-04-23T13:37:00Z</time>
      </trkpt>
      <trkpt lat="44.72493" lon="3.72198">
        <ele>1175.9105170544</ele>
        <time>2015-04-23T13:37:05Z</time>
      </trkpt>
      <trkpt lat="44.72496" lon="3.72208">
        <ele>1175.9105170544</ele>
        <time>2015-04-23T13:37:10Z</time>
      </trkpt>
      <trkpt lat="44.725" lon="3.72218">
        <ele>1176.2742658975</ele>
        <time>2015-04-23T13:37:15Z</time>
      </trkpt>
      <trkpt lat="44.72502" lon="3.72228">
        <ele>1176.2742658975</ele>
        <time>2015-04-23T13:37:20Z</time>
      </trkpt>
      <trkpt lat="44.72505" lon="3.72235">
        <ele>1176.5642036604</ele>
        <time>2015-04-23T13:37:25Z</time>
      </trkpt>
      <trkpt lat="44.72507" lon="3.72245">
        <ele>1176.5642036604</ele>
        <time>2015-04-23T13:37:30Z</time>
      </trkpt>
      <trkpt lat="44.7251" lon="3.72255">
        <ele>1177.1453456144</ele>
        <time>2015-04-23T13:37:35Z</time>
      </trkpt>
      <trkpt lat="44.72514" lon="3.72264">
        <ele>1177.1453456144</ele>
        <time>2015-04-23T13:37:40Z</time>
      </trkpt>
      <trkpt lat="44.72518" lon="3.7227">
        <ele>1177.1301356305</ele>
        <time>2015-04-23T13:37:45Z</time>
      </trkpt>
      <trkpt lat="44.72522" lon="3.72277">
        <ele>1177.1301356305</ele>
        <time>2015-04-23T13:37:50Z</time>
      </trkpt>
      <trkpt lat="44.72525" lon="3.72288">
        <ele>1178.1045538072</ele>
        <time>2015-04-23T13:37:55Z</time>
      </trkpt>
      <trkpt lat="44.7253" lon="3.72297">
        <ele>1178.1045538072</ele>
        <time>2015-04-23T13:38:00Z</time>
      </trkpt>
      <trkpt lat="44.72533" lon="3.72306">
        <ele>1178.9845420488</ele>
        <time>2015-04-23T13:38:05Z</time>
      </trkpt>
      <trkpt lat="44.72535" lon="3.72317">
        <ele>1178.9845420488</ele>
        <time>2015-04-23T13:38:10Z</time>
      </trkpt>
      <trkpt lat="44.72538" lon="3.72329">
        <ele>1180.3944135468</ele>
        <time>2015-04-23T13:38:15Z</time>
      </trkpt>
      <trkpt lat="44.7254" lon="3.72341">
        <ele>1181.9456110498</ele>
        <time>2015-04-23T13:38:20Z</time>
      </trkpt>
      <trkpt lat="44.72543" lon="3.72352">
        <ele>1181.9456110498</ele>
        <time>2015-04-23T13:38:25Z</time>
      </trkpt>
      <trkpt lat="44.72546" lon="3.72356">
        <ele>1182.7157201212</ele>
        <time>2015-04-23T13:38:30Z</time>
      </trkpt>
      <trkpt lat="44.72549" lon="3.72362">
        <ele>1182.7157201212</ele>
        <time>2015-04-23T13:38:35Z</time>
      </trkpt>
      <trkpt lat="44.72552" lon="3.7237">
        <ele>1183.3366585699</ele>
        <time>2015-04-23T13:38:40Z</time>
      </trkpt>
      <trkpt lat="44.72556" lon="3.7238">
        <ele>1183.3366585699</ele>
        <time>2015-04-23T13:38:45Z</time>
      </trkpt>
      <trkpt lat="44.72562" lon="3.72397">
        <ele>1183.7747050373</ele>
        <time>2015-04-23T13:38:50Z</time>
      </trkpt>
      <trkpt lat="44.72568" lon="3.72417">
        <ele>1184.2729826651</ele>
        <time>2015-04-23T13:38:55Z</time>
      </trkpt>
      <trkpt lat="44.72572" lon="3.72427">
        <ele>1184.2729826651</ele>
        <time>2015-04-23T13:39:00Z</time>
      </trkpt>
      <trkpt lat="44.72575" lon="3.72435">
        <ele>1185.3160304695</ele>
        <time>2015-04-23T13:39:05Z</time>
      </trkpt>
      <trkpt lat="44.72577" lon="3.72439">
        <ele>1185.3160304695</ele>
        <time>2015-04-23T13:39:10Z</time>
      </trkpt>
      <trkpt lat="44.7258" lon="3.72445">
        <ele>1185.3160304695</ele>
        <time>2015-04-23T13:39:15Z</time>
      </trkpt>
      <trkpt lat="44.72582" lon="3.72452">
        <ele>1185.1896415746</ele>
        <time>2015-04-23T13:39:20Z</time>
      </trkpt>
      <trkpt lat="44.72585" lon="3.72459">
        <ele>1185.1896415746</ele>
        <time>2015-04-23T13:39:25Z</time>
      </trkpt>
      <trkpt lat="44.72587" lon="3.72466">
        <ele>1184.7155127347</ele>
        <time>2015-04-23T13:39:30Z</time>
      </trkpt>
      <trkpt lat="44.72592" lon="3.72473">
        <ele>1184.7155127347</ele>
        <time>2015-04-23T13:39:35Z</time>
      </trkpt>
      <trkpt lat="44.72595" lon="3.72477">
        <ele>1183.459869142</ele>
        <time>2015-04-23T13:39:40Z</time>
      </trkpt>
      <trkpt lat="44.72599" lon="3.72482">
        <ele>1183.459869142</ele>
        <time>2015-04-23T13:39:45Z</time>
      </trkpt>
      <trkpt lat="44.72602" lon="3.72494">
        <ele>1182.9685242255</ele>
        <time>2015-04-23T13:39:50Z</time>
      </trkpt>
      <trkpt lat="44.72605" lon="3.72505">
        <ele>1182.9685242255</ele>
        <time>2015-04-23T13:39:55Z</time>
      </trkpt>
      <trkpt lat="44.72607" lon="3.72513">
        <ele>1181.9046785156</ele>
        <time>2015-04-23T13:40:00Z</time>
      </trkpt>
      <trkpt lat="44.72608" lon="3.72523">
        <ele>1181.9046785156</ele>
        <time>2015-04-23T13:40:05Z</time>
      </trkpt>
      <trkpt lat="44.72613" lon="3.72527">
        <ele>1180.313937019</ele>
        <time>2015-04-23T13:40:10Z</time>
      </trkpt>
      <trkpt lat="44.72617" lon="3.72532">
        <ele>1180.313937019</ele>
        <time>2015-04-23T13:40:15Z</time>
      </trkpt>
      <trkpt lat="44.7262" lon="3.72541">
        <ele>1178.5858957062</ele>
        <time>2015-04-23T13:40:20Z</time>
      </trkpt>
      <trkpt lat="44.72621" lon="3.72552">
        <ele>1178.5858957062</ele>
        <time>2015-04-23T13:40:25Z</time>
      </trkpt>
      <trkpt lat="44.72625" lon="3.72558">
        <ele>1176.4478097693</ele>
        <time>2015-04-23T13:40:30Z</time>
      </trkpt>
      <trkpt lat="44.72629" lon="3.7256">
        <ele>1176.4478097693</ele>
        <time>2015-04-23T13:40:35Z</time>
      </trkpt>
      <trkpt lat="44.72633" lon="3.72572">
        <ele>1174.1524767763</ele>
        <time>2015-04-23T13:40:40Z</time>
      </trkpt>
      <trkpt lat="44.72637" lon="3.72581">
        <ele>1174.1524767763</ele>
        <time>2015-04-23T13:40:45Z</time>
      </trkpt>
      <trkpt lat="44.72641" lon="3.7259">
        <ele>1172.1506835123</ele>
        <time>2015-04-23T13:40:50Z</time>
      </trkpt>
      <trkpt lat="44.72644" lon="3.72597">
        <ele>1172.1506835123</ele>
        <time>2015-04-23T13:40:55Z</time>
      </trkpt>
      <trkpt lat="44.72648" lon="3.72604">
        <ele>1169.4036911758</ele>
        <time>2015-04-23T13:41:00Z</time>
      </trkpt>
      <trkpt lat="44.72651" lon="3.72611">
        <ele>1169.4036911758</ele>
        <time>2015-04-23T13:41:05Z</time>
      </trkpt>
      <trkpt lat="44.72654" lon="3.72619">
        <ele>1166.8821655034</ele>
        <time>2015-04-23T13:41:10Z</time>
      </trkpt>
      <trkpt lat="44.72657" lon="3.72625">
        <ele>1166.8821655034</ele>
        <time>2015-04-23T13:41:15Z</time>
      </trkpt>
      <trkpt lat="44.7266" lon="3.72632">
        <ele>1163.9283377784</ele>
        <time>2015-04-23T13:41:20Z</time>
      </trkpt>
      <trkpt lat="44.72664" lon="3.72637">
        <ele>1163.9283377784</ele>
        <time>2015-04-23T13:41:25Z</time>
      </trkpt>
      <trkpt lat="44.72668" lon="3.72645">
        <ele>1160.8273477127</ele>
        <time>2015-04-23T13:41:30Z</time>
      </trkpt>
      <trkpt lat="44.72671" lon="3.72654">
        <ele>1160.8273477127</ele>
        <time>2015-04-23T13:41:35Z</time>
      </trkpt>
      <trkpt lat="44.72674" lon="3.72663">
        <ele>1157.4833943681</ele>
        <time>2015-04-23T13:41:40Z</time>
      </trkpt>
      <trkpt lat="44.72677" lon="3.72673">
        <ele>1157.4833943681</ele>
        <time>2015-04-23T13:41:45Z</time>
      </trkpt>
      <trkpt lat="44.72681" lon="3.72686">
        <ele>1155.3502420225</ele>
        <time>2015-04-23T13:41:50Z</time>
      </trkpt>
      <trkpt lat="44.72685" lon="3.72698">
        <ele>1153.3214204367</ele>
        <time>2015-04-23T13:41:55Z</time>
      </trkpt>
      <trkpt lat="44.72691" lon="3.72711">
        <ele>1152.5617752205</ele>
        <time>2015-04-23T13:42:00Z</time>
      </trkpt>
      <trkpt lat="44.72696" lon="3.72722">
        <ele>1152.100481287</ele>
        <time>2015-04-23T13:42:05Z</time>
      </trkpt>
      <trkpt lat="44.72701" lon="3.72729">
        <ele>1152.100481287</ele>
        <time>2015-04-23T13:42:10Z</time>
      </trkpt>
      <trkpt lat="44.72707" lon="3.72742">
        <ele>1152.1178690065</ele>
        <time>2015-04-23T13:42:15Z</time>
      </trkpt>
      <trkpt lat="44.72714" lon="3.72755">
        <ele>1152.7939429151</ele>
        <time>2015-04-23T13:42:20Z</time>
      </trkpt>
      <trkpt lat="44.7272" lon="3.72764">
        <ele>1153.2703141995</ele>
        <time>2015-04-23T13:42:25Z</time>
      </trkpt>
      <trkpt lat="44.72728" lon="3.72768">
        <ele>1153.2703141995</ele>
        <time>2015-04-23T13:42:30Z</time>
      </trkpt>
      <trkpt lat="44.72741" lon="3.72782">
        <ele>1154.4237841899</ele>
        <time>2015-04-23T13:42:35Z</time>
      </trkpt>
      <trkpt lat="44.72749" lon="3.72792">
        <ele>1155.6236359158</ele>
        <time>2015-04-23T13:42:40Z</time>
      </trkpt>
      <trkpt lat="44.72755" lon="3.72799">
        <ele>1155.6236359158</ele>
        <time>2015-04-23T13:42:45Z</time>
      </trkpt>
      <trkpt lat="44.72761" lon="3.72807">
        <ele>1156.5302643243</ele>
        <time>2015-04-23T13:42:50Z</time>
      </trkpt>
      <trkpt lat="44.72768" lon="3.72814">
        <ele>1156.5302643243</ele>
        <time>2015-04-23T13:42:55Z</time>
      </trkpt>
      <trkpt lat="44.72775" lon="3.7282">
        <ele>1157.5359183675</ele>
        <time>2015-04-23T13:43:00Z</time>
      </trkpt>
      <trkpt lat="44.72782" lon="3.72826">
        <ele>1157.5359183675</ele>
        <time>2015-04-23T13:43:05Z</time>
      </trkpt>
      <trkpt lat="44.72788" lon="3.72832">
        <ele>1158.5137342137</ele>
        <time>2015-04-23T13:43:10Z</time>
      </trkpt>
      <trkpt lat="44.72795" lon="3.72838">
        <ele>1158.5137342137</ele>
        <time>2015-04-23T13:43:15Z</time>
      </trkpt>
      <trkpt lat="44.72801" lon="3.72837">
        <ele>1159.3173965347</ele>
        <time>2015-04-23T13:43:20Z</time>
      </trkpt>
      <trkpt lat="44.72807" lon="3.72841">
        <ele>1159.3173965347</ele>
        <time>2015-04-23T13:43:25Z</time>
      </trkpt>
      <trkpt lat="44.72813" lon="3.72846">
        <ele>1159.7829915881</ele>
        <time>2015-04-23T13:43:30Z</time>
      </trkpt>
      <trkpt lat="44.7282" lon="3.7285">
        <ele>1159.7829915881</ele>
        <time>2015-04-23T13:43:35Z</time>
      </trkpt>
      <trkpt lat="44.72828" lon="3.72854">
        <ele>1160.379272278</ele>
        <time>2015-04-23T13:43:40Z</time>
      </trkpt>
      <trkpt lat="44.72836" lon="3.72856">
        <ele>1160.379272278</ele>
        <time>2015-04-23T13:43:45Z</time>
      </trkpt>
      <trkpt lat="44.72844" lon="3.72859">
        <ele>1160.9637555241</ele>
        <time>2015-04-23T13:43:50Z</time>
      </trkpt>
      <trkpt lat="44.72853" lon="3.72859">
        <ele>1160.9637555241</ele>
        <time>2015-04-23T13:43:55Z</time>
      </trkpt>
      <trkpt lat="44.72861" lon="3.72859">
        <ele>1161.2171314632</ele>
        <time>2015-04-23T13:44:00Z</time>
      </trkpt>
      <trkpt lat="44.72868" lon="3.72861">
        <ele>1161.2171314632</ele>
        <time>2015-04-23T13:44:05Z</time>
      </trkpt>
      <trkpt lat="44.72875" lon="3.72863">
        <ele>1161.4209448493</ele>
        <time>2015-04-23T13:44:10Z</time>
      </trkpt>
      <trkpt lat="44.72882" lon="3.72863">
        <ele>1161.4209448493</ele>
        <time>2015-04-23T13:44:15Z</time>
      </trkpt>
      <trkpt lat="44.7289" lon="3.72864">
        <ele>1161.4471273613</ele>
        <time>2015-04-23T13:44:20Z</time>
      </trkpt>
      <trkpt lat="44.72897" lon="3.72866">
        <ele>1161.4471273613</ele>
        <time>2015-04-23T13:44:25Z</time>
      </trkpt>
      <trkpt lat="44.72905" lon="3.72868">
        <ele>1161.2640171437</ele>
        <time>2015-04-23T13:44:30Z</time>
      </trkpt>
      <trkpt lat="44.72912" lon="3.72869">
        <ele>1161.2640171437</ele>
        <time>2015-04-23T13:44:35Z</time>
      </trkpt>
      <trkpt lat="44.72919" lon="3.72868">
        <ele>1161.0446564582</ele>
        <time>2015-04-23T13:44:40Z</time>
      </trkpt>
      <trkpt lat="44.72929" lon="3.7287">
        <ele>1160.401890714</ele>
        <time>2015-04-23T13:44:45Z</time>
      </trkpt>
      <trkpt lat="44.7294" lon="3.72874">
        <ele>1159.5979050181</ele>
        <time>2015-04-23T13:44:50Z</time>
      </trkpt>
      <trkpt lat="44.7295" lon="3.72876">
        <ele>1159.3228529481</ele>
        <time>2015-04-23T13:44:55Z</time>
      </trkpt>
      <trkpt lat="44.72956" lon="3.72877">
        <ele>1159.3228529481</ele>
        <time>2015-04-23T13:45:00Z</time>
      </trkpt>
      <trkpt lat="44.72963" lon="3.7288">
        <ele>1158.470988771</ele>
        <time>2015-04-23T13:45:05Z</time>
      </trkpt>
      <trkpt lat="44.7297" lon="3.72882">
        <ele>1158.470988771</ele>
        <time>2015-04-23T13:45:10Z</time>
      </trkpt>
      <trkpt lat="44.72977" lon="3.72885">
        <ele>1157.388491848</ele>
        <time>2015-04-23T13:45:15Z</time>
      </trkpt>
      <trkpt lat="44.72984" lon="3.72889">
        <ele>1157.388491848</ele>
        <time>2015-04-23T13:45:20Z</time>
      </trkpt>
      <trkpt lat="44.72991" lon="3.72888">
        <ele>1156.1661989082</ele>
        <time>2015-04-23T13:45:25Z</time>
      </trkpt>
      <trkpt lat="44.72997" lon="3.72899">
        <ele>1155.7245246939</ele>
        <time>2015-04-23T13:45:30Z</time>
      </trkpt>
      <trkpt lat="44.73004" lon="3.72907">
        <ele>1155.7245246939</ele>
        <time>2015-04-23T13:45:35Z</time>
      </trkpt>
      <trkpt lat="44.7301" lon="3.72911">
        <ele>1155.1703448692</ele>
        <time>2015-04-23T13:45:40Z</time>
      </trkpt>
      <trkpt lat="44.73017" lon="3.72912">
        <ele>1155.1703448692</ele>
        <time>2015-04-23T13:45:45Z</time>
      </trkpt>
      <trkpt lat="44.73024" lon="3.72912">
        <ele>1154.3681976391</ele>
        <time>2015-04-23T13:45:50Z</time>
      </trkpt>
      <trkpt lat="44.73031" lon="3.72911">
        <ele>1154.3681976391</ele>
        <time>2015-04-23T13:45:55Z</time>
      </trkpt>
      <trkpt lat="44.73038" lon="3.72913">
        <ele>1153.2653247877</ele>
        <time>2015-04-23T13:46:00Z</time>
      </trkpt>
      <trkpt lat="44.73045" lon="3.7292">
        <ele>1153.2653247877</ele>
        <time>2015-04-23T13:46:05Z</time>
      </trkpt>
      <trkpt lat="44.73052" lon="3.72929">
        <ele>1152.6927644535</ele>
        <time>2015-04-23T13:46:10Z</time>
      </trkpt>
      <trkpt lat="44.73059" lon="3.72931">
        <ele>1152.6927644535</ele>
        <time>2015-04-23T13:46:15Z</time>
      </trkpt>
      <trkpt lat="44.73066" lon="3.72934">
        <ele>1151.5599807524</ele>
        <time>2015-04-23T13:46:20Z</time>
      </trkpt>
      <trkpt lat="44.73075" lon="3.7294">
        <ele>1150.9909570011</ele>
        <time>2015-04-23T13:46:25Z</time>
      </trkpt>
      <trkpt lat="44.73083" lon="3.72941">
        <ele>1150.9909570011</ele>
        <time>2015-04-23T13:46:30Z</time>
      </trkpt>
      <trkpt lat="44.7309" lon="3.72945">
        <ele>1150.1664830243</ele>
        <time>2015-04-23T13:46:35Z</time>
      </trkpt>
      <trkpt lat="44.73096" lon="3.7295">
        <ele>1150.1664830243</ele>
        <time>2015-04-23T13:46:40Z</time>
      </trkpt>
      <trkpt lat="44.73103" lon="3.7296">
        <ele>1149.9855103989</ele>
        <time>2015-04-23T13:46:45Z</time>
      </trkpt>
      <trkpt lat="44.7311" lon="3.72966">
        <ele>1149.9855103989</ele>
        <time>2015-04-23T13:46:50Z</time>
      </trkpt>
      <trkpt lat="44.73116" lon="3.7297">
        <ele>1149.9677253635</ele>
        <time>2015-04-23T13:46:55Z</time>
      </trkpt>
      <trkpt lat="44.73124" lon="3.72972">
        <ele>1149.9677253635</ele>
        <time>2015-04-23T13:47:00Z</time>
      </trkpt>
      <trkpt lat="44.7313" lon="3.72973">
        <ele>1148.9470720576</ele>
        <time>2015-04-23T13:47:05Z</time>
      </trkpt>
      <trkpt lat="44.73138" lon="3.72973">
        <ele>1148.9470720576</ele>
        <time>2015-04-23T13:47:10Z</time>
      </trkpt>
      <trkpt lat="44.73145" lon="3.72978">
        <ele>1148.0796770192</ele>
        <time>2015-04-23T13:47:15Z</time>
      </trkpt>
      <trkpt lat="44.73152" lon="3.72983">
        <ele>1148.0796770192</ele>
        <time>2015-04-23T13:47:20Z</time>
      </trkpt>
      <trkpt lat="44.73158" lon="3.72989">
        <ele>1146.7069613988</ele>
        <time>2015-04-23T13:47:25Z</time>
      </trkpt>
      <trkpt lat="44.73165" lon="3.72995">
        <ele>1146.7069613988</ele>
        <time>2015-04-23T13:47:30Z</time>
      </trkpt>
      <trkpt lat="44.7317" lon="3.72998">
        <ele>1145.545949476</ele>
        <time>2015-04-23T13:47:35Z</time>
      </trkpt>
      <trkpt lat="44.73178" lon="3.73001">
        <ele>1145.545949476</ele>
        <time>2015-04-23T13:47:40Z</time>
      </trkpt>
      <trkpt lat="44.73185" lon="3.73004">
        <ele>1144.280422897</ele>
        <time>2015-04-23T13:47:45Z</time>
      </trkpt>
      <trkpt lat="44.73192" lon="3.73008">
        <ele>1144.280422897</ele>
        <time>2015-04-23T13:47:50Z</time>
      </trkpt>
      <trkpt lat="44.73198" lon="3.73011">
        <ele>1142.5888373919</ele>
        <time>2015-04-23T13:47:55Z</time>
      </trkpt>
      <trkpt lat="44.73205" lon="3.73016">
        <ele>1142.5888373919</ele>
        <time>2015-04-23T13:48:00Z</time>
      </trkpt>
      <trkpt lat="44.73215" lon="3.73023">
        <ele>1140.6788209553</ele>
        <time>2015-04-23T13:48:05Z</time>
      </trkpt>
      <trkpt lat="44.73225" lon="3.7303">
        <ele>1138.9739009423</ele>
        <time>2015-04-23T13:48:10Z</time>
      </trkpt>
      <trkpt lat="44.73229" lon="3.73034">
        <ele>1138.9739009423</ele>
        <time>2015-04-23T13:48:15Z</time>
      </trkpt>
      <trkpt lat="44.7323" lon="3.7304">
        <ele>1137.8082276181</ele>
        <time>2015-04-23T13:48:20Z</time>
      </trkpt>
      <trkpt lat="44.7323" lon="3.7304">
        <ele>1137.8082276181</ele>
        <time>2015-04-23T13:48:25Z</time>
      </trkpt>
      <trkpt lat="44.73229" lon="3.73039">
        <ele>1137.8082276181</ele>
        <time>2015-04-23T13:48:30Z</time>
      </trkpt>
      <trkpt lat="44.73229" lon="3.73039">
        <ele>1137.8082276181</ele>
        <time>2015-04-23T13:48:35Z</time>
      </trkpt>
      <trkpt lat="44.73229" lon="3.73039">
        <ele>1137.8082276181</ele>
        <time>2015-04-23T13:48:40Z</time>
      </trkpt>
      <trkpt lat="44.73229" lon="3.73039">
        <ele>1137.8082276181</ele>
        <time>2015-04-23T13:48:45Z</time>
      </trkpt>
      <trkpt lat="44.73229" lon="3.73039">
        <ele>1137.8082276181</ele>
        <time>2015-04-23T13:48:50Z</time>
      </trkpt>
      <trkpt lat="44.73229" lon="3.73039">
        <ele>1137.8082276181</ele>
        <time>2015-04-23T13:48:55Z</time>
      </trkpt>
      <trkpt lat="44.73231" lon="3.73041">
        <ele>1137.8082276181</ele>
        <time>2015-04-23T13:49:00Z</time>
      </trkpt>
      <trkpt lat="44.73237" lon="3.73045">
        <ele>1136.898986066</ele>
        <time>2015-04-23T13:49:05Z</time>
      </trkpt>
      <trkpt lat="44.73245" lon="3.73051">
        <ele>1136.898986066</ele>
        <time>2015-04-23T13:49:10Z</time>
      </trkpt>
      <trkpt lat="44.73252" lon="3.73054">
        <ele>1135.2772184168</ele>
        <time>2015-04-23T13:49:15Z</time>
      </trkpt>
      <trkpt lat="44.73258" lon="3.73056">
        <ele>1135.2772184168</ele>
        <time>2015-04-23T13:49:20Z</time>
      </trkpt>
      <trkpt lat="44.73262" lon="3.73058">
        <ele>1133.7620107883</ele>
        <time>2015-04-23T13:49:25Z</time>
      </trkpt>
      <trkpt lat="44.73267" lon="3.73057">
        <ele>1133.7620107883</ele>
        <time>2015-04-23T13:49:30Z</time>
      </trkpt>
      <trkpt lat="44.73274" lon="3.73055">
        <ele>1131.9446207498</ele>
        <time>2015-04-23T13:49:35Z</time>
      </trkpt>
      <trkpt lat="44.73282" lon="3.73059">
        <ele>1131.9446207498</ele>
        <time>2015-04-23T13:49:40Z</time>
      </trkpt>
      <trkpt lat="44.73289" lon="3.73061">
        <ele>1130.6000064959</ele>
        <time>2015-04-23T13:49:45Z</time>
      </trkpt>
      <trkpt lat="44.73296" lon="3.73065">
        <ele>1130.6000064959</ele>
        <time>2015-04-23T13:49:50Z</time>
      </trkpt>
      <trkpt lat="44.73303" lon="3.73069">
        <ele>1129.0181054631</ele>
        <time>2015-04-23T13:49:55Z</time>
      </trkpt>
      <trkpt lat="44.73306" lon="3.7308">
        <ele>1129.0181054631</ele>
        <time>2015-04-23T13:50:00Z</time>
      </trkpt>
      <trkpt lat="44.73304" lon="3.73085">
        <ele>1127.8530250086</ele>
        <time>2015-04-23T13:50:05Z</time>
      </trkpt>
      <trkpt lat="44.73298" lon="3.73086">
        <ele>1127.8530250086</ele>
        <time>2015-04-23T13:50:10Z</time>
      </trkpt>
      <trkpt lat="44.73289" lon="3.73087">
        <ele>1127.9978081236</ele>
        <time>2015-04-23T13:50:15Z</time>
      </trkpt>
      <trkpt lat="44.7328" lon="3.73091">
        <ele>1128.5324133278</ele>
        <time>2015-04-23T13:50:20Z</time>
      </trkpt>
      <trkpt lat="44.73272" lon="3.73096">
        <ele>1128.5324133278</ele>
        <time>2015-04-23T13:50:25Z</time>
      </trkpt>
      <trkpt lat="44.73264" lon="3.73101">
        <ele>1129.5831939436</ele>
        <time>2015-04-23T13:50:30Z</time>
      </trkpt>
      <trkpt lat="44.73257" lon="3.73104">
        <ele>1129.5831939436</ele>
        <time>2015-04-23T13:50:35Z</time>
      </trkpt>
      <trkpt lat="44.73252" lon="3.73105">
        <ele>1129.9399094766</ele>
        <time>2015-04-23T13:50:40Z</time>
      </trkpt>
      <trkpt lat="44.73249" lon="3.73109">
        <ele>1129.9399094766</ele>
        <time>2015-04-23T13:50:45Z</time>
      </trkpt>
      <trkpt lat="44.73247" lon="3.73113">
        <ele>1129.9399094766</ele>
        <time>2015-04-23T13:50:50Z</time>
      </trkpt>
      <trkpt lat="44.73248" lon="3.73115">
        <ele>1129.9399094766</ele>
        <time>2015-04-23T13:50:55Z</time>
      </trkpt>
      <trkpt lat="44.73247" lon="3.73116">
        <ele>1129.5927975274</ele>
        <time>2015-04-23T13:51:00Z</time>
      </trkpt>
      <trkpt lat="44.73246" lon="3.73116">
        <ele>1129.5927975274</ele>
        <time>2015-04-23T13:51:05Z</time>
      </trkpt>
      <trkpt lat="44.73241" lon="3.73115">
        <ele>1129.5927975274</ele>
        <time>2015-04-23T13:51:10Z</time>
      </trkpt>
      <trkpt lat="44.73236" lon="3.73117">
        <ele>1129.4426704939</ele>
        <time>2015-04-23T13:51:15Z</time>
      </trkpt>
      <trkpt lat="44.73236" lon="3.73126">
        <ele>1129.4426704939</ele>
        <time>2015-04-23T13:51:20Z</time>
      </trkpt>
      <trkpt lat="44.73232" lon="3.73133">
        <ele>1128.6230936445</ele>
        <time>2015-04-23T13:51:25Z</time>
      </trkpt>
      <trkpt lat="44.73224" lon="3.73133">
        <ele>1128.6230936445</ele>
        <time>2015-04-23T13:51:30Z</time>
      </trkpt>
      <trkpt lat="44.73216" lon="3.7313">
        <ele>1128.1633649997</ele>
        <time>2015-04-23T13:51:35Z</time>
      </trkpt>
      <trkpt lat="44.73204" lon="3.73127">
        <ele>1128.237960206</ele>
        <time>2015-04-23T13:51:40Z</time>
      </trkpt>
      <trkpt lat="44.73195" lon="3.73127">
        <ele>1128.2576639494</ele>
        <time>2015-04-23T13:51:45Z</time>
      </trkpt>
      <trkpt lat="44.73188" lon="3.73127">
        <ele>1128.2576639494</ele>
        <time>2015-04-23T13:51:50Z</time>
      </trkpt>
      <trkpt lat="44.73186" lon="3.73126">
        <ele>1128.0802165714</ele>
        <time>2015-04-23T13:51:55Z</time>
      </trkpt>
      <trkpt lat="44.73183" lon="3.73127">
        <ele>1128.0802165714</ele>
        <time>2015-04-23T13:52:00Z</time>
      </trkpt>
      <trkpt lat="44.73176" lon="3.73126">
        <ele>1127.1276277367</ele>
        <time>2015-04-23T13:52:05Z</time>
      </trkpt>
      <trkpt lat="44.73169" lon="3.73125">
        <ele>1127.1276277367</ele>
        <time>2015-04-23T13:52:10Z</time>
      </trkpt>
      <trkpt lat="44.73163" lon="3.73124">
        <ele>1124.8665511634</ele>
        <time>2015-04-23T13:52:15Z</time>
      </trkpt>
      <trkpt lat="44.73158" lon="3.73121">
        <ele>1124.8665511634</ele>
        <time>2015-04-23T13:52:20Z</time>
      </trkpt>
      <trkpt lat="44.73152" lon="3.73119">
        <ele>1123.0546325679</ele>
        <time>2015-04-23T13:52:25Z</time>
      </trkpt>
      <trkpt lat="44.73146" lon="3.7312">
        <ele>1123.0546325679</ele>
        <time>2015-04-23T13:52:30Z</time>
      </trkpt>
      <trkpt lat="44.73145" lon="3.73119">
        <ele>1123.0546325679</ele>
        <time>2015-04-23T13:52:35Z</time>
      </trkpt>
      <trkpt lat="44.73144" lon="3.7312">
        <ele>1123.0546325679</ele>
        <time>2015-04-23T13:52:40Z</time>
      </trkpt>
      <trkpt lat="44.73144" lon="3.7312">
        <ele>1123.0546325679</ele>
        <time>2015-04-23T13:52:45Z</time>
      </trkpt>
      <trkpt lat="44.73144" lon="3.73119">
        <ele>1121.128653274</ele>
        <time>2015-04-23T13:52:50Z</time>
      </trkpt>
      <trkpt lat="44.73138" lon="3.73119">
        <ele>1121.128653274</ele>
        <time>2015-04-23T13:52:55Z</time>
      </trkpt>
      <trkpt lat="44.73129" lon="3.73118">
        <ele>1118.3797341308</ele>
        <time>2015-04-23T13:53:00Z</time>
      </trkpt>
      <trkpt lat="44.73123" lon="3.73117">
        <ele>1118.3797341308</ele>
        <time>2015-04-23T13:53:05Z</time>
      </trkpt>
      <trkpt lat="44.73118" lon="3.73119">
        <ele>1115.4359458123</ele>
        <time>2015-04-23T13:53:10Z</time>
      </trkpt>
      <trkpt lat="44.73111" lon="3.7312">
        <ele>1115.4359458123</ele>
        <time>2015-04-23T13:53:15Z</time>
      </trkpt>
      <trkpt lat="44.73106" lon="3.73122">
        <ele>1113.0959008541</ele>
        <time>2015-04-23T13:53:20Z</time>
      </trkpt>
      <trkpt lat="44.73102" lon="3.73125">
        <ele>1113.0959008541</ele>
        <time>2015-04-23T13:53:25Z</time>
      </trkpt>
      <trkpt lat="44.73095" lon="3.73127">
        <ele>1111.6078299309</ele>
        <time>2015-04-23T13:53:30Z</time>
      </trkpt>
      <trkpt lat="44.73089" lon="3.73129">
        <ele>1111.6078299309</ele>
        <time>2015-04-23T13:53:35Z</time>
      </trkpt>
      <trkpt lat="44.73084" lon="3.73134">
        <ele>1110.6084303327</ele>
        <time>2015-04-23T13:53:40Z</time>
      </trkpt>
      <trkpt lat="44.73079" lon="3.73137">
        <ele>1110.6084303327</ele>
        <time>2015-04-23T13:53:45Z</time>
      </trkpt>
      <trkpt lat="44.73073" lon="3.7314">
        <ele>1109.1832144437</ele>
        <time>2015-04-23T13:53:50Z</time>
      </trkpt>
      <trkpt lat="44.73067" lon="3.73146">
        <ele>1109.1832144437</ele>
        <time>2015-04-23T13:53:55Z</time>
      </trkpt>
      <trkpt lat="44.73064" lon="3.73149">
        <ele>1107.653308593</ele>
        <time>2015-04-23T13:54:00Z</time>
      </trkpt>
      <trkpt lat="44.73061" lon="3.73154">
        <ele>1107.653308593</ele>
        <time>2015-04-23T13:54:05Z</time>
      </trkpt>
      <trkpt lat="44.73056" lon="3.7316">
        <ele>1105.9706172209</ele>
        <time>2015-04-23T13:54:10Z</time>
      </trkpt>
      <trkpt lat="44.73053" lon="3.73168">
        <ele>1105.9706172209</ele>
        <time>2015-04-23T13:54:15Z</time>
      </trkpt>
      <trkpt lat="44.73049" lon="3.73182">
        <ele>1104.2350578336</ele>
        <time>2015-04-23T13:54:20Z</time>
      </trkpt>
      <trkpt lat="44.73046" lon="3.73193">
        <ele>1104.2350578336</ele>
        <time>2015-04-23T13:54:25Z</time>
      </trkpt>
      <trkpt lat="44.73044" lon="3.73208">
        <ele>1103.2310297668</ele>
        <time>2015-04-23T13:54:30Z</time>
      </trkpt>
      <trkpt lat="44.73044" lon="3.73222">
        <ele>1102.1700313565</ele>
        <time>2015-04-23T13:54:35Z</time>
      </trkpt>
      <trkpt lat="44.73045" lon="3.73235">
        <ele>1100.7683289843</ele>
        <time>2015-04-23T13:54:40Z</time>
      </trkpt>
      <trkpt lat="44.73044" lon="3.73244">
        <ele>1100.7683289843</ele>
        <time>2015-04-23T13:54:45Z</time>
      </trkpt>
      <trkpt lat="44.73043" lon="3.73252">
        <ele>1098.6342288779</ele>
        <time>2015-04-23T13:54:50Z</time>
      </trkpt>
      <trkpt lat="44.73041" lon="3.73263">
        <ele>1098.6342288779</ele>
        <time>2015-04-23T13:54:55Z</time>
      </trkpt>
      <trkpt lat="44.7304" lon="3.73277">
        <ele>1097.0496747329</ele>
        <time>2015-04-23T13:55:00Z</time>
      </trkpt>
      <trkpt lat="44.73041" lon="3.73286">
        <ele>1097.0496747329</ele>
        <time>2015-04-23T13:55:05Z</time>
      </trkpt>
      <trkpt lat="44.73041" lon="3.73292">
        <ele>1095.4426828485</ele>
        <time>2015-04-23T13:55:10Z</time>
      </trkpt>
      <trkpt lat="44.7304" lon="3.733">
        <ele>1095.4426828485</ele>
        <time>2015-04-23T13:55:15Z</time>
      </trkpt>
      <trkpt lat="44.7304" lon="3.73302">
        <ele>1095.4426828485</ele>
        <time>2015-04-23T13:55:20Z</time>
      </trkpt>
      <trkpt lat="44.7304" lon="3.73303">
        <ele>1095.4426828485</ele>
        <time>2015-04-23T13:55:25Z</time>
      </trkpt>
      <trkpt lat="44.7304" lon="3.73303">
        <ele>1095.4426828485</ele>
        <time>2015-04-23T13:55:30Z</time>
      </trkpt>
      <trkpt lat="44.7304" lon="3.73304">
        <ele>1095.4426828485</ele>
        <time>2015-04-23T13:55:35Z</time>
      </trkpt>
      <trkpt lat="44.7304" lon="3.73308">
        <ele>1093.7012122344</ele>
        <time>2015-04-23T13:55:40Z</time>
      </trkpt>
      <trkpt lat="44.73039" lon="3.73315">
        <ele>1093.7012122344</ele>
        <time>2015-04-23T13:55:45Z</time>
      </trkpt>
      <trkpt lat="44.73038" lon="3.73325">
        <ele>1093.407871245</ele>
        <time>2015-04-23T13:55:50Z</time>
      </trkpt>
      <trkpt lat="44.73036" lon="3.73332">
        <ele>1093.407871245</ele>
        <time>2015-04-23T13:55:55Z</time>
      </trkpt>
      <trkpt lat="44.73035" lon="3.73341">
        <ele>1091.6871443485</ele>
        <time>2015-04-23T13:56:00Z</time>
      </trkpt>
      <trkpt lat="44.73036" lon="3.73352">
        <ele>1091.6871443485</ele>
        <time>2015-04-23T13:56:05Z</time>
      </trkpt>
      <trkpt lat="44.73035" lon="3.73363">
        <ele>1089.8993995061</ele>
        <time>2015-04-23T13:56:10Z</time>
      </trkpt>
      <trkpt lat="44.73034" lon="3.73373">
        <ele>1089.8993995061</ele>
        <time>2015-04-23T13:56:15Z</time>
      </trkpt>
      <trkpt lat="44.73032" lon="3.73382">
        <ele>1087.7920386733</ele>
        <time>2015-04-23T13:56:20Z</time>
      </trkpt>
      <trkpt lat="44.73032" lon="3.73392">
        <ele>1087.7920386733</ele>
        <time>2015-04-23T13:56:25Z</time>
      </trkpt>
      <trkpt lat="44.73032" lon="3.73406">
        <ele>1086.5441518023</ele>
        <time>2015-04-23T13:56:30Z</time>
      </trkpt>
      <trkpt lat="44.73031" lon="3.7342">
        <ele>1085.357892255</ele>
        <time>2015-04-23T13:56:35Z</time>
      </trkpt>
      <trkpt lat="44.73032" lon="3.73432">
        <ele>1085.357892255</ele>
        <time>2015-04-23T13:56:40Z</time>
      </trkpt>
      <trkpt lat="44.73032" lon="3.73444">
        <ele>1084.257586293</ele>
        <time>2015-04-23T13:56:45Z</time>
      </trkpt>
      <trkpt lat="44.73032" lon="3.73454">
        <ele>1084.257586293</ele>
        <time>2015-04-23T13:56:50Z</time>
      </trkpt>
      <trkpt lat="44.73033" lon="3.73463">
        <ele>1083.2510711798</ele>
        <time>2015-04-23T13:56:55Z</time>
      </trkpt>
      <trkpt lat="44.73034" lon="3.73471">
        <ele>1083.2510711798</ele>
        <time>2015-04-23T13:57:00Z</time>
      </trkpt>
      <trkpt lat="44.73033" lon="3.73474">
        <ele>1083.2510711798</ele>
        <time>2015-04-23T13:57:05Z</time>
      </trkpt>
      <trkpt lat="44.73031" lon="3.73482">
        <ele>1081.1491754947</ele>
        <time>2015-04-23T13:57:10Z</time>
      </trkpt>
      <trkpt lat="44.73031" lon="3.73491">
        <ele>1081.1491754947</ele>
        <time>2015-04-23T13:57:15Z</time>
      </trkpt>
      <trkpt lat="44.73031" lon="3.73505">
        <ele>1079.7497465313</ele>
        <time>2015-04-23T13:57:20Z</time>
      </trkpt>
      <trkpt lat="44.7303" lon="3.7351">
        <ele>1079.7497465313</ele>
        <time>2015-04-23T13:57:25Z</time>
      </trkpt>
      <trkpt lat="44.73029" lon="3.73513">
        <ele>1079.7497465313</ele>
        <time>2015-04-23T13:57:30Z</time>
      </trkpt>
      <trkpt lat="44.73028" lon="3.73515">
        <ele>1079.7497465313</ele>
        <time>2015-04-23T13:57:35Z</time>
      </trkpt>
      <trkpt lat="44.73025" lon="3.73519">
        <ele>1079.6068955784</ele>
        <time>2015-04-23T13:57:40Z</time>
      </trkpt>
      <trkpt lat="44.7302" lon="3.73528">
        <ele>1079.6068955784</ele>
        <time>2015-04-23T13:57:45Z</time>
      </trkpt>
      <trkpt lat="44.73013" lon="3.73537">
        <ele>1079.2273226923</ele>
        <time>2015-04-23T13:57:50Z</time>
      </trkpt>
      <trkpt lat="44.73008" lon="3.73549">
        <ele>1078.856515174</ele>
        <time>2015-04-23T13:57:55Z</time>
      </trkpt>
      <trkpt lat="44.73006" lon="3.73556">
        <ele>1078.856515174</ele>
        <time>2015-04-23T13:58:00Z</time>
      </trkpt>
      <trkpt lat="44.73004" lon="3.73561">
        <ele>1078.5201257637</ele>
        <time>2015-04-23T13:58:05Z</time>
      </trkpt>
      <trkpt lat="44.73002" lon="3.73565">
        <ele>1078.5201257637</ele>
        <time>2015-04-23T13:58:10Z</time>
      </trkpt>
      <trkpt lat="44.72999" lon="3.73567">
        <ele>1078.5201257637</ele>
        <time>2015-04-23T13:58:15Z</time>
      </trkpt>
      <trkpt lat="44.72999" lon="3.73568">
        <ele>1078.5201257637</ele>
        <time>2015-04-23T13:58:20Z</time>
      </trkpt>
      <trkpt lat="44.72998" lon="3.73569">
        <ele>1078.5201257637</ele>
        <time>2015-04-23T13:58:25Z</time>
      </trkpt>
      <trkpt lat="44.72998" lon="3.73569">
        <ele>1078.5201257637</ele>
        <time>2015-04-23T13:58:30Z</time>
      </trkpt>
      <trkpt lat="44.72997" lon="3.73572">
        <ele>1078.0544701276</ele>
        <time>2015-04-23T13:58:35Z</time>
      </trkpt>
      <trkpt lat="44.72992" lon="3.7358">
        <ele>1078.0544701276</ele>
        <time>2015-04-23T13:58:40Z</time>
      </trkpt>
      <trkpt lat="44.72988" lon="3.73587">
        <ele>1077.4379472621</ele>
        <time>2015-04-23T13:58:45Z</time>
      </trkpt>
      <trkpt lat="44.72985" lon="3.73595">
        <ele>1077.4379472621</ele>
        <time>2015-04-23T13:58:50Z</time>
      </trkpt>
      <trkpt lat="44.7298" lon="3.73604">
        <ele>1075.8151232403</ele>
        <time>2015-04-23T13:58:55Z</time>
      </trkpt>
      <trkpt lat="44.72975" lon="3.73616">
        <ele>1074.3705549292</ele>
        <time>2015-04-23T13:59:00Z</time>
      </trkpt>
      <trkpt lat="44.7297" lon="3.73626">
        <ele>1074.3705549292</ele>
        <time>2015-04-23T13:59:05Z</time>
      </trkpt>
      <trkpt lat="44.72965" lon="3.73637">
        <ele>1073.1636882392</ele>
        <time>2015-04-23T13:59:10Z</time>
      </trkpt>
      <trkpt lat="44.72962" lon="3.73642">
        <ele>1073.1636882392</ele>
        <time>2015-04-23T13:59:15Z</time>
      </trkpt>
      <trkpt lat="44.72959" lon="3.7365">
        <ele>1071.4995624373</ele>
        <time>2015-04-23T13:59:20Z</time>
      </trkpt>
      <trkpt lat="44.72952" lon="3.73668">
        <ele>1069.7587428992</ele>
        <time>2015-04-23T13:59:25Z</time>
      </trkpt>
      <trkpt lat="44.72943" lon="3.73682">
        <ele>1067.7320200812</ele>
        <time>2015-04-23T13:59:30Z</time>
      </trkpt>
      <trkpt lat="44.72938" lon="3.73695">
        <ele>1066.0045513269</ele>
        <time>2015-04-23T13:59:35Z</time>
      </trkpt>
      <trkpt lat="44.72928" lon="3.73708">
        <ele>1064.3826943974</ele>
        <time>2015-04-23T13:59:40Z</time>
      </trkpt>
      <trkpt lat="44.72924" lon="3.73716">
        <ele>1064.3826943974</ele>
        <time>2015-04-23T13:59:45Z</time>
      </trkpt>
      <trkpt lat="44.72922" lon="3.73721">
        <ele>1062.9317135357</ele>
        <time>2015-04-23T13:59:50Z</time>
      </trkpt>
      <trkpt lat="44.7292" lon="3.73726">
        <ele>1062.9317135357</ele>
        <time>2015-04-23T13:59:55Z</time>
      </trkpt>
      <trkpt lat="44.72916" lon="3.73731">
        <ele>1061.5098303813</ele>
        <time>2015-04-23T14:00:00Z</time>
      </trkpt>
      <trkpt lat="44.72912" lon="3.73737">
        <ele>1061.5098303813</ele>
        <time>2015-04-23T14:00:05Z</time>
      </trkpt>
      <trkpt lat="44.72907" lon="3.73742">
        <ele>1060.9078984092</ele>
        <time>2015-04-23T14:00:10Z</time>
      </trkpt>
      <trkpt lat="44.729" lon="3.73748">
        <ele>1060.9078984092</ele>
        <time>2015-04-23T14:00:15Z</time>
      </trkpt>
      <trkpt lat="44.72896" lon="3.73756">
        <ele>1060.6458311278</ele>
        <time>2015-04-23T14:00:20Z</time>
      </trkpt>
      <trkpt lat="44.72891" lon="3.73764">
        <ele>1060.6458311278</ele>
        <time>2015-04-23T14:00:25Z</time>
      </trkpt>
      <trkpt lat="44.72883" lon="3.73774">
        <ele>1061.4739746328</ele>
        <time>2015-04-23T14:00:30Z</time>
      </trkpt>
      <trkpt lat="44.72874" lon="3.73781">
        <ele>1062.1245910704</ele>
        <time>2015-04-23T14:00:35Z</time>
      </trkpt>
      <trkpt lat="44.72868" lon="3.73783">
        <ele>1062.1245910704</ele>
        <time>2015-04-23T14:00:40Z</time>
      </trkpt>
      <trkpt lat="44.72861" lon="3.73786">
        <ele>1062.4323645458</ele>
        <time>2015-04-23T14:00:45Z</time>
      </trkpt>
      <trkpt lat="44.72851" lon="3.73793">
        <ele>1062.4468716319</ele>
        <time>2015-04-23T14:00:50Z</time>
      </trkpt>
      <trkpt lat="44.72841" lon="3.73799">
        <ele>1062.0563893248</ele>
        <time>2015-04-23T14:00:55Z</time>
      </trkpt>
      <trkpt lat="44.72834" lon="3.73805">
        <ele>1062.0563893248</ele>
        <time>2015-04-23T14:01:00Z</time>
      </trkpt>
      <trkpt lat="44.72826" lon="3.73813">
        <ele>1061.8935548601</ele>
        <time>2015-04-23T14:01:05Z</time>
      </trkpt>
      <trkpt lat="44.72821" lon="3.73821">
        <ele>1061.8935548601</ele>
        <time>2015-04-23T14:01:10Z</time>
      </trkpt>
      <trkpt lat="44.72819" lon="3.73825">
        <ele>1061.016369998</ele>
        <time>2015-04-23T14:01:15Z</time>
      </trkpt>
      <trkpt lat="44.7282" lon="3.73829">
        <ele>1061.016369998</ele>
        <time>2015-04-23T14:01:20Z</time>
      </trkpt>
      <trkpt lat="44.7282" lon="3.7384">
        <ele>1062.0560008341</ele>
        <time>2015-04-23T14:01:25Z</time>
      </trkpt>
      <trkpt lat="44.7282" lon="3.73843">
        <ele>1062.0560008341</ele>
        <time>2015-04-23T14:01:30Z</time>
      </trkpt>
      <trkpt lat="44.72818" lon="3.73842">
        <ele>1062.0560008341</ele>
        <time>2015-04-23T14:01:35Z</time>
      </trkpt>
      <trkpt lat="44.72822" lon="3.73835">
        <ele>1061.911147958</ele>
        <time>2015-04-23T14:01:40Z</time>
      </trkpt>
      <trkpt lat="44.72828" lon="3.7383">
        <ele>1061.911147958</ele>
        <time>2015-04-23T14:01:45Z</time>
      </trkpt>
      <trkpt lat="44.72833" lon="3.73828">
        <ele>1061.8765365398</ele>
        <time>2015-04-23T14:01:50Z</time>
      </trkpt>
      <trkpt lat="44.72834" lon="3.73823">
        <ele>1061.8765365398</ele>
        <time>2015-04-23T14:01:55Z</time>
      </trkpt>
      <trkpt lat="44.72836" lon="3.73822">
        <ele>1061.8765365398</ele>
        <time>2015-04-23T14:02:00Z</time>
      </trkpt>
      <trkpt lat="44.72838" lon="3.73822">
        <ele>1061.8765365398</ele>
        <time>2015-04-23T14:02:05Z</time>
      </trkpt>
      <trkpt lat="44.7284" lon="3.73819">
        <ele>1061.3069232368</ele>
        <time>2015-04-23T14:02:10Z</time>
      </trkpt>
      <trkpt lat="44.7285" lon="3.73812">
        <ele>1061.090387038</ele>
        <time>2015-04-23T14:02:15Z</time>
      </trkpt>
      <trkpt lat="44.72859" lon="3.73812">
        <ele>1060.4636337339</ele>
        <time>2015-04-23T14:02:20Z</time>
      </trkpt>
      <trkpt lat="44.72867" lon="3.73809">
        <ele>1060.4636337339</ele>
        <time>2015-04-23T14:02:25Z</time>
      </trkpt>
      <trkpt lat="44.72876" lon="3.73806">
        <ele>1059.7726798968</ele>
        <time>2015-04-23T14:02:30Z</time>
      </trkpt>
      <trkpt lat="44.72885" lon="3.73802">
        <ele>1059.2951467071</ele>
        <time>2015-04-23T14:02:35Z</time>
      </trkpt>
      <trkpt lat="44.72893" lon="3.73799">
        <ele>1059.2951467071</ele>
        <time>2015-04-23T14:02:40Z</time>
      </trkpt>
      <trkpt lat="44.72901" lon="3.73801">
        <ele>1059.2300934043</ele>
        <time>2015-04-23T14:02:45Z</time>
      </trkpt>
      <trkpt lat="44.7291" lon="3.73802">
        <ele>1059.2300934043</ele>
        <time>2015-04-23T14:02:50Z</time>
      </trkpt>
      <trkpt lat="44.72918" lon="3.73804">
        <ele>1058.6512168131</ele>
        <time>2015-04-23T14:02:55Z</time>
      </trkpt>
      <trkpt lat="44.72928" lon="3.73805">
        <ele>1057.9843623181</ele>
        <time>2015-04-23T14:03:00Z</time>
      </trkpt>
      <trkpt lat="44.72936" lon="3.73805">
        <ele>1057.9843623181</ele>
        <time>2015-04-23T14:03:05Z</time>
      </trkpt>
      <trkpt lat="44.72946" lon="3.73806">
        <ele>1057.5235327846</ele>
        <time>2015-04-23T14:03:10Z</time>
      </trkpt>
      <trkpt lat="44.72956" lon="3.73804">
        <ele>1057.0650581293</ele>
        <time>2015-04-23T14:03:15Z</time>
      </trkpt>
      <trkpt lat="44.72967" lon="3.73802">
        <ele>1056.4347008729</ele>
        <time>2015-04-23T14:03:20Z</time>
      </trkpt>
      <trkpt lat="44.72975" lon="3.73803">
        <ele>1056.4347008729</ele>
        <time>2015-04-23T14:03:25Z</time>
      </trkpt>
      <trkpt lat="44.72981" lon="3.73811">
        <ele>1055.2265792479</ele>
        <time>2015-04-23T14:03:30Z</time>
      </trkpt>
      <trkpt lat="44.72988" lon="3.73817">
        <ele>1055.2265792479</ele>
        <time>2015-04-23T14:03:35Z</time>
      </trkpt>
      <trkpt lat="44.72995" lon="3.73812">
        <ele>1053.844507002</ele>
        <time>2015-04-23T14:03:40Z</time>
      </trkpt>
      <trkpt lat="44.73" lon="3.73807">
        <ele>1053.844507002</ele>
        <time>2015-04-23T14:03:45Z</time>
      </trkpt>
      <trkpt lat="44.73008" lon="3.73809">
        <ele>1052.3749518981</ele>
        <time>2015-04-23T14:03:50Z</time>
      </trkpt>
      <trkpt lat="44.73016" lon="3.73812">
        <ele>1052.3749518981</ele>
        <time>2015-04-23T14:03:55Z</time>
      </trkpt>
      <trkpt lat="44.73024" lon="3.73813">
        <ele>1051.1144868097</ele>
        <time>2015-04-23T14:04:00Z</time>
      </trkpt>
      <trkpt lat="44.73031" lon="3.73814">
        <ele>1051.1144868097</ele>
        <time>2015-04-23T14:04:05Z</time>
      </trkpt>
      <trkpt lat="44.73039" lon="3.73816">
        <ele>1050.1644158722</ele>
        <time>2015-04-23T14:04:10Z</time>
      </trkpt>
      <trkpt lat="44.73046" lon="3.73816">
        <ele>1050.1644158722</ele>
        <time>2015-04-23T14:04:15Z</time>
      </trkpt>
      <trkpt lat="44.73053" lon="3.73819">
        <ele>1049.7042289428</ele>
        <time>2015-04-23T14:04:20Z</time>
      </trkpt>
      <trkpt lat="44.7306" lon="3.73822">
        <ele>1049.7042289428</ele>
        <time>2015-04-23T14:04:25Z</time>
      </trkpt>
      <trkpt lat="44.73067" lon="3.73826">
        <ele>1049.5530178006</ele>
        <time>2015-04-23T14:04:30Z</time>
      </trkpt>
      <trkpt lat="44.73073" lon="3.7383">
        <ele>1049.5530178006</ele>
        <time>2015-04-23T14:04:35Z</time>
      </trkpt>
      <trkpt lat="44.73079" lon="3.73833">
        <ele>1049.2108682523</ele>
        <time>2015-04-23T14:04:40Z</time>
      </trkpt>
      <trkpt lat="44.73084" lon="3.7384">
        <ele>1049.2108682523</ele>
        <time>2015-04-23T14:04:45Z</time>
      </trkpt>
      <trkpt lat="44.73087" lon="3.73847">
        <ele>1049.0654090782</ele>
        <time>2015-04-23T14:04:50Z</time>
      </trkpt>
      <trkpt lat="44.7309" lon="3.7385">
        <ele>1049.0654090782</ele>
        <time>2015-04-23T14:04:55Z</time>
      </trkpt>
      <trkpt lat="44.73093" lon="3.73857">
        <ele>1048.5673713647</ele>
        <time>2015-04-23T14:05:00Z</time>
      </trkpt>
      <trkpt lat="44.73097" lon="3.73864">
        <ele>1048.5673713647</ele>
        <time>2015-04-23T14:05:05Z</time>
      </trkpt>
      <trkpt lat="44.73101" lon="3.73871">
        <ele>1047.7564766972</ele>
        <time>2015-04-23T14:05:10Z</time>
      </trkpt>
      <trkpt lat="44.73108" lon="3.73878">
        <ele>1047.7564766972</ele>
        <time>2015-04-23T14:05:15Z</time>
      </trkpt>
      <trkpt lat="44.73115" lon="3.73883">
        <ele>1046.944247062</ele>
        <time>2015-04-23T14:05:20Z</time>
      </trkpt>
      <trkpt lat="44.73121" lon="3.73887">
        <ele>1046.944247062</ele>
        <time>2015-04-23T14:05:25Z</time>
      </trkpt>
      <trkpt lat="44.73126" lon="3.73892">
        <ele>1045.007060351</ele>
        <time>2015-04-23T14:05:30Z</time>
      </trkpt>
      <trkpt lat="44.73131" lon="3.73898">
        <ele>1045.007060351</ele>
        <time>2015-04-23T14:05:35Z</time>
      </trkpt>
      <trkpt lat="44.73136" lon="3.73904">
        <ele>1042.6651661997</ele>
        <time>2015-04-23T14:05:40Z</time>
      </trkpt>
      <trkpt lat="44.73136" lon="3.73909">
        <ele>1042.6651661997</ele>
        <time>2015-04-23T14:05:45Z</time>
      </trkpt>
      <trkpt lat="44.73135" lon="3.73917">
        <ele>1037.8489334584</ele>
        <time>2015-04-23T14:05:50Z</time>
      </trkpt>
      <trkpt lat="44.73138" lon="3.73925">
        <ele>1037.8489334584</ele>
        <time>2015-04-23T14:05:55Z</time>
      </trkpt>
      <trkpt lat="44.73142" lon="3.73939">
        <ele>1032.207236421</ele>
        <time>2015-04-23T14:06:00Z</time>
      </trkpt>
      <trkpt lat="44.73144" lon="3.73955">
        <ele>1027.2124532837</ele>
        <time>2015-04-23T14:06:05Z</time>
      </trkpt>
      <trkpt lat="44.73145" lon="3.73976">
        <ele>1023.7801729282</ele>
        <time>2015-04-23T14:06:10Z</time>
      </trkpt>
      <trkpt lat="44.73145" lon="3.73995">
        <ele>1021.2699018947</ele>
        <time>2015-04-23T14:06:15Z</time>
      </trkpt>
      <trkpt lat="44.73144" lon="3.74009">
        <ele>1019.1143192228</ele>
        <time>2015-04-23T14:06:20Z</time>
      </trkpt>
      <trkpt lat="44.73142" lon="3.74028">
        <ele>1016.9019493604</ele>
        <time>2015-04-23T14:06:25Z</time>
      </trkpt>
      <trkpt lat="44.73136" lon="3.74042">
        <ele>1014.5830303979</ele>
        <time>2015-04-23T14:06:30Z</time>
      </trkpt>
      <trkpt lat="44.73134" lon="3.74054">
        <ele>1014.5830303979</ele>
        <time>2015-04-23T14:06:35Z</time>
      </trkpt>
      <trkpt lat="44.73133" lon="3.74065">
        <ele>1013.6536165265</ele>
        <time>2015-04-23T14:06:40Z</time>
      </trkpt>
      <trkpt lat="44.73131" lon="3.74076">
        <ele>1013.6536165265</ele>
        <time>2015-04-23T14:06:45Z</time>
      </trkpt>
      <trkpt lat="44.73129" lon="3.74086">
        <ele>1012.6856718357</ele>
        <time>2015-04-23T14:06:50Z</time>
      </trkpt>
      <trkpt lat="44.73128" lon="3.74095">
        <ele>1012.6856718357</ele>
        <time>2015-04-23T14:06:55Z</time>
      </trkpt>
      <trkpt lat="44.73128" lon="3.74106">
        <ele>1012.9212322548</ele>
        <time>2015-04-23T14:07:00Z</time>
      </trkpt>
      <trkpt lat="44.73131" lon="3.74116">
        <ele>1012.9212322548</ele>
        <time>2015-04-23T14:07:05Z</time>
      </trkpt>
      <trkpt lat="44.73136" lon="3.74128">
        <ele>1014.0088573329</ele>
        <time>2015-04-23T14:07:10Z</time>
      </trkpt>
      <trkpt lat="44.73143" lon="3.74136">
        <ele>1015.0440009724</ele>
        <time>2015-04-23T14:07:15Z</time>
      </trkpt>
      <trkpt lat="44.7315" lon="3.74138">
        <ele>1015.0440009724</ele>
        <time>2015-04-23T14:07:20Z</time>
      </trkpt>
      <trkpt lat="44.73157" lon="3.74135">
        <ele>1015.9812561667</ele>
        <time>2015-04-23T14:07:25Z</time>
      </trkpt>
      <trkpt lat="44.73163" lon="3.74131">
        <ele>1015.9812561667</ele>
        <time>2015-04-23T14:07:30Z</time>
      </trkpt>
      <trkpt lat="44.7317" lon="3.74127">
        <ele>1017.0237703462</ele>
        <time>2015-04-23T14:07:35Z</time>
      </trkpt>
      <trkpt lat="44.73177" lon="3.74122">
        <ele>1017.0237703462</ele>
        <time>2015-04-23T14:07:40Z</time>
      </trkpt>
      <trkpt lat="44.73187" lon="3.74114">
        <ele>1018.1865163367</ele>
        <time>2015-04-23T14:07:45Z</time>
      </trkpt>
      <trkpt lat="44.73192" lon="3.74107">
        <ele>1018.1865163367</ele>
        <time>2015-04-23T14:07:50Z</time>
      </trkpt>
      <trkpt lat="44.73195" lon="3.74097">
        <ele>1019.3245050286</ele>
        <time>2015-04-23T14:07:55Z</time>
      </trkpt>
      <trkpt lat="44.73196" lon="3.74087">
        <ele>1019.3245050286</ele>
        <time>2015-04-23T14:08:00Z</time>
      </trkpt>
      <trkpt lat="44.73199" lon="3.74078">
        <ele>1020.3611285028</ele>
        <time>2015-04-23T14:08:05Z</time>
      </trkpt>
      <trkpt lat="44.73201" lon="3.74073">
        <ele>1020.3611285028</ele>
        <time>2015-04-23T14:08:10Z</time>
      </trkpt>
      <trkpt lat="44.73203" lon="3.74066">
        <ele>1021.5283585399</ele>
        <time>2015-04-23T14:08:15Z</time>
      </trkpt>
      <trkpt lat="44.73206" lon="3.74064">
        <ele>1021.5283585399</ele>
        <time>2015-04-23T14:08:20Z</time>
      </trkpt>
      <trkpt lat="44.73206" lon="3.74058">
        <ele>1021.5283585399</ele>
        <time>2015-04-23T14:08:25Z</time>
      </trkpt>
      <trkpt lat="44.73207" lon="3.74055">
        <ele>1022.968755703</ele>
        <time>2015-04-23T14:08:30Z</time>
      </trkpt>
      <trkpt lat="44.73206" lon="3.74059">
        <ele>1022.968755703</ele>
        <time>2015-04-23T14:08:35Z</time>
      </trkpt>
      <trkpt lat="44.73203" lon="3.74066">
        <ele>1022.968755703</ele>
        <time>2015-04-23T14:08:40Z</time>
      </trkpt>
      <trkpt lat="44.73198" lon="3.74071">
        <ele>1024.467842296</ele>
        <time>2015-04-23T14:08:45Z</time>
      </trkpt>
      <trkpt lat="44.73192" lon="3.74069">
        <ele>1024.467842296</ele>
        <time>2015-04-23T14:08:50Z</time>
      </trkpt>
      <trkpt lat="44.73189" lon="3.74064">
        <ele>1025.870047181</ele>
        <time>2015-04-23T14:08:55Z</time>
      </trkpt>
      <trkpt lat="44.73188" lon="3.74061">
        <ele>1025.870047181</ele>
        <time>2015-04-23T14:09:00Z</time>
      </trkpt>
      <trkpt lat="44.7319" lon="3.74061">
        <ele>1025.870047181</ele>
        <time>2015-04-23T14:09:05Z</time>
      </trkpt>
      <trkpt lat="44.73192" lon="3.74057">
        <ele>1025.870047181</ele>
        <time>2015-04-23T14:09:10Z</time>
      </trkpt>
      <trkpt lat="44.73196" lon="3.74051">
        <ele>1026.4551500041</ele>
        <time>2015-04-23T14:09:15Z</time>
      </trkpt>
      <trkpt lat="44.73197" lon="3.74045">
        <ele>1026.4551500041</ele>
        <time>2015-04-23T14:09:20Z</time>
      </trkpt>
      <trkpt lat="44.73201" lon="3.74039">
        <ele>1027.3019816284</ele>
        <time>2015-04-23T14:09:25Z</time>
      </trkpt>
      <trkpt lat="44.73207" lon="3.74034">
        <ele>1027.3019816284</ele>
        <time>2015-04-23T14:09:30Z</time>
      </trkpt>
      <trkpt lat="44.7321" lon="3.74028">
        <ele>1027.8819252909</ele>
        <time>2015-04-23T14:09:35Z</time>
      </trkpt>
      <trkpt lat="44.73214" lon="3.74022">
        <ele>1027.8819252909</ele>
        <time>2015-04-23T14:09:40Z</time>
      </trkpt>
      <trkpt lat="44.73214" lon="3.74016">
        <ele>1028.0375207542</ele>
        <time>2015-04-23T14:09:45Z</time>
      </trkpt>
      <trkpt lat="44.73215" lon="3.74012">
        <ele>1028.0375207542</ele>
        <time>2015-04-23T14:09:50Z</time>
      </trkpt>
      <trkpt lat="44.73215" lon="3.74009">
        <ele>1028.0375207542</ele>
        <time>2015-04-23T14:09:55Z</time>
      </trkpt>
      <trkpt lat="44.73215" lon="3.74007">
        <ele>1028.0375207542</ele>
        <time>2015-04-23T14:10:00Z</time>
      </trkpt>
      <trkpt lat="44.73213" lon="3.74002">
        <ele>1027.1053858807</ele>
        <time>2015-04-23T14:10:05Z</time>
      </trkpt>
      <trkpt lat="44.73214" lon="3.73993">
        <ele>1027.1053858807</ele>
        <time>2015-04-23T14:10:10Z</time>
      </trkpt>
      <trkpt lat="44.73218" lon="3.73979">
        <ele>1027.2409765422</ele>
        <time>2015-04-23T14:10:15Z</time>
      </trkpt>
      <trkpt lat="44.73221" lon="3.7397">
        <ele>1027.2409765422</ele>
        <time>2015-04-23T14:10:20Z</time>
      </trkpt>
      <trkpt lat="44.73221" lon="3.7396">
        <ele>1027.4266093144</ele>
        <time>2015-04-23T14:10:25Z</time>
      </trkpt>
      <trkpt lat="44.73222" lon="3.73948">
        <ele>1027.4266093144</ele>
        <time>2015-04-23T14:10:30Z</time>
      </trkpt>
      <trkpt lat="44.73222" lon="3.73943">
        <ele>1027.3534220972</ele>
        <time>2015-04-23T14:10:35Z</time>
      </trkpt>
      <trkpt lat="44.73223" lon="3.73933">
        <ele>1027.3534220972</ele>
        <time>2015-04-23T14:10:40Z</time>
      </trkpt>
      <trkpt lat="44.73222" lon="3.73923">
        <ele>1026.8657777682</ele>
        <time>2015-04-23T14:10:45Z</time>
      </trkpt>
      <trkpt lat="44.7322" lon="3.73913">
        <ele>1026.8657777682</ele>
        <time>2015-04-23T14:10:50Z</time>
      </trkpt>
      <trkpt lat="44.73217" lon="3.73902">
        <ele>1025.89279599</ele>
        <time>2015-04-23T14:10:55Z</time>
      </trkpt>
      <trkpt lat="44.73218" lon="3.73893">
        <ele>1025.89279599</ele>
        <time>2015-04-23T14:11:00Z</time>
      </trkpt>
      <trkpt lat="44.73216" lon="3.73886">
        <ele>1025.0187642617</ele>
        <time>2015-04-23T14:11:05Z</time>
      </trkpt>
      <trkpt lat="44.73216" lon="3.73874">
        <ele>1025.0187642617</ele>
        <time>2015-04-23T14:11:10Z</time>
      </trkpt>
      <trkpt lat="44.73216" lon="3.73868">
        <ele>1024.2228287758</ele>
        <time>2015-04-23T14:11:15Z</time>
      </trkpt>
      <trkpt lat="44.73214" lon="3.73861">
        <ele>1024.2228287758</ele>
        <time>2015-04-23T14:11:20Z</time>
      </trkpt>
      <trkpt lat="44.73214" lon="3.73854">
        <ele>1023.1973081717</ele>
        <time>2015-04-23T14:11:25Z</time>
      </trkpt>
      <trkpt lat="44.73215" lon="3.73846">
        <ele>1023.1973081717</ele>
        <time>2015-04-23T14:11:30Z</time>
      </trkpt>
      <trkpt lat="44.73216" lon="3.73834">
        <ele>1022.2054622427</ele>
        <time>2015-04-23T14:11:35Z</time>
      </trkpt>
      <trkpt lat="44.73213" lon="3.73818">
        <ele>1021.995571402</ele>
        <time>2015-04-23T14:11:40Z</time>
      </trkpt>
      <trkpt lat="44.73215" lon="3.73803">
        <ele>1021.976223566</ele>
        <time>2015-04-23T14:11:45Z</time>
      </trkpt>
      <trkpt lat="44.73219" lon="3.73793">
        <ele>1021.976223566</ele>
        <time>2015-04-23T14:11:50Z</time>
      </trkpt>
      <trkpt lat="44.73223" lon="3.73781">
        <ele>1022.1465941446</ele>
        <time>2015-04-23T14:11:55Z</time>
      </trkpt>
      <trkpt lat="44.73226" lon="3.73768">
        <ele>1022.5486739174</ele>
        <time>2015-04-23T14:12:00Z</time>
      </trkpt>
      <trkpt lat="44.73233" lon="3.73756">
        <ele>1023.2495963708</ele>
        <time>2015-04-23T14:12:05Z</time>
      </trkpt>
      <trkpt lat="44.73247" lon="3.73742">
        <ele>1023.7199266646</ele>
        <time>2015-04-23T14:12:10Z</time>
      </trkpt>
      <trkpt lat="44.7326" lon="3.73735">
        <ele>1024.1759738427</ele>
        <time>2015-04-23T14:12:15Z</time>
      </trkpt>
      <trkpt lat="44.73268" lon="3.73733">
        <ele>1024.1759738427</ele>
        <time>2015-04-23T14:12:20Z</time>
      </trkpt>
      <trkpt lat="44.73277" lon="3.73729">
        <ele>1024.5012155483</ele>
        <time>2015-04-23T14:12:25Z</time>
      </trkpt>
      <trkpt lat="44.73286" lon="3.73727">
        <ele>1026.1157017353</ele>
        <time>2015-04-23T14:12:30Z</time>
      </trkpt>
      <trkpt lat="44.73296" lon="3.73725">
        <ele>1027.6367428575</ele>
        <time>2015-04-23T14:12:35Z</time>
      </trkpt>
      <trkpt lat="44.73302" lon="3.73727">
        <ele>1027.6367428575</ele>
        <time>2015-04-23T14:12:40Z</time>
      </trkpt>
      <trkpt lat="44.7331" lon="3.73721">
        <ele>1028.8499836212</ele>
        <time>2015-04-23T14:12:45Z</time>
      </trkpt>
      <trkpt lat="44.7332" lon="3.73721">
        <ele>1029.9324523048</ele>
        <time>2015-04-23T14:12:50Z</time>
      </trkpt>
      <trkpt lat="44.7333" lon="3.73721">
        <ele>1030.9333419498</ele>
        <time>2015-04-23T14:12:55Z</time>
      </trkpt>
      <trkpt lat="44.73339" lon="3.73719">
        <ele>1032.8064585435</ele>
        <time>2015-04-23T14:13:00Z</time>
      </trkpt>
      <trkpt lat="44.73349" lon="3.73718">
        <ele>1034.5885752943</ele>
        <time>2015-04-23T14:13:05Z</time>
      </trkpt>
      <trkpt lat="44.73359" lon="3.73718">
        <ele>1036.1081433674</ele>
        <time>2015-04-23T14:13:10Z</time>
      </trkpt>
      <trkpt lat="44.73366" lon="3.7372">
        <ele>1036.1081433674</ele>
        <time>2015-04-23T14:13:15Z</time>
      </trkpt>
      <trkpt lat="44.73372" lon="3.73724">
        <ele>1037.1205995746</ele>
        <time>2015-04-23T14:13:20Z</time>
      </trkpt>
      <trkpt lat="44.73378" lon="3.73726">
        <ele>1037.1205995746</ele>
        <time>2015-04-23T14:13:25Z</time>
      </trkpt>
      <trkpt lat="44.73384" lon="3.73727">
        <ele>1037.7899865101</ele>
        <time>2015-04-23T14:13:30Z</time>
      </trkpt>
      <trkpt lat="44.73391" lon="3.73726">
        <ele>1037.7899865101</ele>
        <time>2015-04-23T14:13:35Z</time>
      </trkpt>
      <trkpt lat="44.73401" lon="3.73724">
        <ele>1039.5231461098</ele>
        <time>2015-04-23T14:13:40Z</time>
      </trkpt>
      <trkpt lat="44.73408" lon="3.73725">
        <ele>1039.5231461098</ele>
        <time>2015-04-23T14:13:45Z</time>
      </trkpt>
      <trkpt lat="44.73415" lon="3.73724">
        <ele>1041.4158114912</ele>
        <time>2015-04-23T14:13:50Z</time>
      </trkpt>
      <trkpt lat="44.73425" lon="3.73727">
        <ele>1043.177441715</ele>
        <time>2015-04-23T14:13:55Z</time>
      </trkpt>
      <trkpt lat="44.73433" lon="3.73729">
        <ele>1043.177441715</ele>
        <time>2015-04-23T14:14:00Z</time>
      </trkpt>
      <trkpt lat="44.73427" lon="3.73734">
        <ele>1043.6170200197</ele>
        <time>2015-04-23T14:14:05Z</time>
      </trkpt>
      <trkpt lat="44.73417" lon="3.73736">
        <ele>1043.8397556257</ele>
        <time>2015-04-23T14:14:10Z</time>
      </trkpt>
      <trkpt lat="44.73409" lon="3.73737">
        <ele>1043.8397556257</ele>
        <time>2015-04-23T14:14:15Z</time>
      </trkpt>
      <trkpt lat="44.73402" lon="3.7374">
        <ele>1043.9336767187</ele>
        <time>2015-04-23T14:14:20Z</time>
      </trkpt>
      <trkpt lat="44.73394" lon="3.73743">
        <ele>1043.9336767187</ele>
        <time>2015-04-23T14:14:25Z</time>
      </trkpt>
      <trkpt lat="44.73386" lon="3.73747">
        <ele>1045.5084012957</ele>
        <time>2015-04-23T14:14:30Z</time>
      </trkpt>
      <trkpt lat="44.73379" lon="3.7375">
        <ele>1045.5084012957</ele>
        <time>2015-04-23T14:14:35Z</time>
      </trkpt>
      <trkpt lat="44.73373" lon="3.73755">
        <ele>1047.2122733172</ele>
        <time>2015-04-23T14:14:40Z</time>
      </trkpt>
      <trkpt lat="44.73367" lon="3.73759">
        <ele>1047.2122733172</ele>
        <time>2015-04-23T14:14:45Z</time>
      </trkpt>
      <trkpt lat="44.73363" lon="3.73763">
        <ele>1048.4267639667</ele>
        <time>2015-04-23T14:14:50Z</time>
      </trkpt>
      <trkpt lat="44.73356" lon="3.73765">
        <ele>1048.4267639667</ele>
        <time>2015-04-23T14:14:55Z</time>
      </trkpt>
      <trkpt lat="44.73351" lon="3.73769">
        <ele>1049.5458064238</ele>
        <time>2015-04-23T14:15:00Z</time>
      </trkpt>
      <trkpt lat="44.73344" lon="3.73771">
        <ele>1049.5458064238</ele>
        <time>2015-04-23T14:15:05Z</time>
      </trkpt>
      <trkpt lat="44.73338" lon="3.73772">
        <ele>1051.0068271777</ele>
        <time>2015-04-23T14:15:10Z</time>
      </trkpt>
      <trkpt lat="44.73331" lon="3.7377">
        <ele>1051.0068271777</ele>
        <time>2015-04-23T14:15:15Z</time>
      </trkpt>
      <trkpt lat="44.73323" lon="3.73771">
        <ele>1052.5369455811</ele>
        <time>2015-04-23T14:15:20Z</time>
      </trkpt>
      <trkpt lat="44.73317" lon="3.73773">
        <ele>1052.5369455811</ele>
        <time>2015-04-23T14:15:25Z</time>
      </trkpt>
      <trkpt lat="44.7331" lon="3.73775">
        <ele>1053.6526613617</ele>
        <time>2015-04-23T14:15:30Z</time>
      </trkpt>
      <trkpt lat="44.73302" lon="3.73776">
        <ele>1053.6526613617</ele>
        <time>2015-04-23T14:15:35Z</time>
      </trkpt>
      <trkpt lat="44.73296" lon="3.73779">
        <ele>1054.3107698732</ele>
        <time>2015-04-23T14:15:40Z</time>
      </trkpt>
      <trkpt lat="44.7329" lon="3.73784">
        <ele>1054.3107698732</ele>
        <time>2015-04-23T14:15:45Z</time>
      </trkpt>
      <trkpt lat="44.73286" lon="3.7379">
        <ele>1054.0835232384</ele>
        <time>2015-04-23T14:15:50Z</time>
      </trkpt>
      <trkpt lat="44.7328" lon="3.73793">
        <ele>1054.0835232384</ele>
        <time>2015-04-23T14:15:55Z</time>
      </trkpt>
      <trkpt lat="44.73273" lon="3.73797">
        <ele>1054.2056279845</ele>
        <time>2015-04-23T14:16:00Z</time>
      </trkpt>
      <trkpt lat="44.73263" lon="3.73809">
        <ele>1054.3358476712</ele>
        <time>2015-04-23T14:16:05Z</time>
      </trkpt>
      <trkpt lat="44.73261" lon="3.73819">
        <ele>1054.3358476712</ele>
        <time>2015-04-23T14:16:10Z</time>
      </trkpt>
      <trkpt lat="44.73262" lon="3.73825">
        <ele>1053.6392606643</ele>
        <time>2015-04-23T14:16:15Z</time>
      </trkpt>
      <trkpt lat="44.73265" lon="3.73828">
        <ele>1053.6392606643</ele>
        <time>2015-04-23T14:16:20Z</time>
      </trkpt>
      <trkpt lat="44.73269" lon="3.73829">
        <ele>1053.6392606643</ele>
        <time>2015-04-23T14:16:25Z</time>
      </trkpt>
      <trkpt lat="44.73274" lon="3.7383">
        <ele>1053.0451672638</ele>
        <time>2015-04-23T14:16:30Z</time>
      </trkpt>
      <trkpt lat="44.73278" lon="3.73832">
        <ele>1053.0451672638</ele>
        <time>2015-04-23T14:16:35Z</time>
      </trkpt>
      <trkpt lat="44.73282" lon="3.73832">
        <ele>1053.0451672638</ele>
        <time>2015-04-23T14:16:40Z</time>
      </trkpt>
      <trkpt lat="44.73285" lon="3.73831">
        <ele>1052.4344031802</ele>
        <time>2015-04-23T14:16:45Z</time>
      </trkpt>
      <trkpt lat="44.73291" lon="3.73831">
        <ele>1052.4344031802</ele>
        <time>2015-04-23T14:16:50Z</time>
      </trkpt>
      <trkpt lat="44.73299" lon="3.73831">
        <ele>1052.2154364928</ele>
        <time>2015-04-23T14:16:55Z</time>
      </trkpt>
      <trkpt lat="44.7331" lon="3.73831">
        <ele>1052.679183914</ele>
        <time>2015-04-23T14:17:00Z</time>
      </trkpt>
      <trkpt lat="44.73317" lon="3.73833">
        <ele>1052.679183914</ele>
        <time>2015-04-23T14:17:05Z</time>
      </trkpt>
      <trkpt lat="44.73326" lon="3.7384">
        <ele>1053.401554725</ele>
        <time>2015-04-23T14:17:10Z</time>
      </trkpt>
      <trkpt lat="44.73324" lon="3.7385">
        <ele>1053.401554725</ele>
        <time>2015-04-23T14:17:15Z</time>
      </trkpt>
      <trkpt lat="44.73321" lon="3.73854">
        <ele>1055.1273728547</ele>
        <time>2015-04-23T14:17:20Z</time>
      </trkpt>
      <trkpt lat="44.73316" lon="3.73858">
        <ele>1055.1273728547</ele>
        <time>2015-04-23T14:17:25Z</time>
      </trkpt>
      <trkpt lat="44.73312" lon="3.73863">
        <ele>1056.2669845294</ele>
        <time>2015-04-23T14:17:30Z</time>
      </trkpt>
      <trkpt lat="44.73309" lon="3.73869">
        <ele>1056.2669845294</ele>
        <time>2015-04-23T14:17:35Z</time>
      </trkpt>
      <trkpt lat="44.73306" lon="3.7388">
        <ele>1057.698178295</ele>
        <time>2015-04-23T14:17:40Z</time>
      </trkpt>
      <trkpt lat="44.73307" lon="3.73886">
        <ele>1057.698178295</ele>
        <time>2015-04-23T14:17:45Z</time>
      </trkpt>
      <trkpt lat="44.7331" lon="3.73887">
        <ele>1057.698178295</ele>
        <time>2015-04-23T14:17:50Z</time>
      </trkpt>
      <trkpt lat="44.73314" lon="3.73887">
        <ele>1057.8700324256</ele>
        <time>2015-04-23T14:17:55Z</time>
      </trkpt>
      <trkpt lat="44.73318" lon="3.73889">
        <ele>1057.8700324256</ele>
        <time>2015-04-23T14:18:00Z</time>
      </trkpt>
      <trkpt lat="44.7332" lon="3.73888">
        <ele>1057.8700324256</ele>
        <time>2015-04-23T14:18:05Z</time>
      </trkpt>
      <trkpt lat="44.73325" lon="3.73886">
        <ele>1058.2025026496</ele>
        <time>2015-04-23T14:18:10Z</time>
      </trkpt>
      <trkpt lat="44.73331" lon="3.73886">
        <ele>1058.2025026496</ele>
        <time>2015-04-23T14:18:15Z</time>
      </trkpt>
      <trkpt lat="44.73336" lon="3.73885">
        <ele>1058.7714414865</ele>
        <time>2015-04-23T14:18:20Z</time>
      </trkpt>
      <trkpt lat="44.73344" lon="3.73884">
        <ele>1058.7714414865</ele>
        <time>2015-04-23T14:18:25Z</time>
      </trkpt>
      <trkpt lat="44.73351" lon="3.73886">
        <ele>1060.0355772425</ele>
        <time>2015-04-23T14:18:30Z</time>
      </trkpt>
      <trkpt lat="44.73354" lon="3.73887">
        <ele>1060.0355772425</ele>
        <time>2015-04-23T14:18:35Z</time>
      </trkpt>
      <trkpt lat="44.73361" lon="3.7389">
        <ele>1060.6886647767</ele>
        <time>2015-04-23T14:18:40Z</time>
      </trkpt>
      <trkpt lat="44.73368" lon="3.7389">
        <ele>1060.6886647767</ele>
        <time>2015-04-23T14:18:45Z</time>
      </trkpt>
      <trkpt lat="44.73377" lon="3.7389">
        <ele>1060.9776590304</ele>
        <time>2015-04-23T14:18:50Z</time>
      </trkpt>
      <trkpt lat="44.73384" lon="3.73887">
        <ele>1060.9776590304</ele>
        <time>2015-04-23T14:18:55Z</time>
      </trkpt>
      <trkpt lat="44.73393" lon="3.73889">
        <ele>1061.0171114263</ele>
        <time>2015-04-23T14:19:00Z</time>
      </trkpt>
      <trkpt lat="44.73405" lon="3.73887">
        <ele>1060.495937213</ele>
        <time>2015-04-23T14:19:05Z</time>
      </trkpt>
      <trkpt lat="44.73428" lon="3.73885">
        <ele>1059.5021590781</ele>
        <time>2015-04-23T14:19:10Z</time>
      </trkpt>
      <trkpt lat="44.7344" lon="3.73882">
        <ele>1059.2283005611</ele>
        <time>2015-04-23T14:19:15Z</time>
      </trkpt>
      <trkpt lat="44.73466" lon="3.73882">
        <ele>1058.4282265928</ele>
        <time>2015-04-23T14:19:20Z</time>
      </trkpt>
      <trkpt lat="44.73515" lon="3.73863">
        <ele>1058.8021866681</ele>
        <time>2015-04-23T14:19:25Z</time>
      </trkpt>
      <trkpt lat="44.73542" lon="3.7385">
        <ele>1059.2417306511</ele>
        <time>2015-04-23T14:19:30Z</time>
      </trkpt>
      <trkpt lat="44.73568" lon="3.73835">
        <ele>1061.1406785481</ele>
        <time>2015-04-23T14:19:35Z</time>
      </trkpt>
      <trkpt lat="44.73596" lon="3.73831">
        <ele>1063.1346856418</ele>
        <time>2015-04-23T14:19:40Z</time>
      </trkpt>
      <trkpt lat="44.73626" lon="3.73825">
        <ele>1065.2275151983</ele>
        <time>2015-04-23T14:19:45Z</time>
      </trkpt>
      <trkpt lat="44.73655" lon="3.73818">
        <ele>1067.0332597844</ele>
        <time>2015-04-23T14:19:50Z</time>
      </trkpt>
      <trkpt lat="44.73681" lon="3.73821">
        <ele>1069.1030617124</ele>
        <time>2015-04-23T14:19:55Z</time>
      </trkpt>
      <trkpt lat="44.73705" lon="3.73845">
        <ele>1071.110998119</ele>
        <time>2015-04-23T14:20:00Z</time>
      </trkpt>
      <trkpt lat="44.73725" lon="3.73876">
        <ele>1073.4470134655</ele>
        <time>2015-04-23T14:20:05Z</time>
      </trkpt>
      <trkpt lat="44.73733" lon="3.73887">
        <ele>1075.707726202</ele>
        <time>2015-04-23T14:20:10Z</time>
      </trkpt>
      <trkpt lat="44.73739" lon="3.73893">
        <ele>1075.707726202</ele>
        <time>2015-04-23T14:20:15Z</time>
      </trkpt>
      <trkpt lat="44.73744" lon="3.73901">
        <ele>1077.7069813446</ele>
        <time>2015-04-23T14:20:20Z</time>
      </trkpt>
      <trkpt lat="44.73749" lon="3.7391">
        <ele>1077.7069813446</ele>
        <time>2015-04-23T14:20:25Z</time>
      </trkpt>
      <trkpt lat="44.73755" lon="3.73919">
        <ele>1079.2010235768</ele>
        <time>2015-04-23T14:20:30Z</time>
      </trkpt>
      <trkpt lat="44.7376" lon="3.73926">
        <ele>1079.2010235768</ele>
        <time>2015-04-23T14:20:35Z</time>
      </trkpt>
      <trkpt lat="44.73766" lon="3.73933">
        <ele>1080.4554520957</ele>
        <time>2015-04-23T14:20:40Z</time>
      </trkpt>
      <trkpt lat="44.73771" lon="3.73941">
        <ele>1080.4554520957</ele>
        <time>2015-04-23T14:20:45Z</time>
      </trkpt>
      <trkpt lat="44.73777" lon="3.73949">
        <ele>1082.5096970705</ele>
        <time>2015-04-23T14:20:50Z</time>
      </trkpt>
      <trkpt lat="44.73781" lon="3.73957">
        <ele>1082.5096970705</ele>
        <time>2015-04-23T14:20:55Z</time>
      </trkpt>
      <trkpt lat="44.73787" lon="3.73964">
        <ele>1084.436794287</ele>
        <time>2015-04-23T14:21:00Z</time>
      </trkpt>
      <trkpt lat="44.73792" lon="3.73972">
        <ele>1084.436794287</ele>
        <time>2015-04-23T14:21:05Z</time>
      </trkpt>
      <trkpt lat="44.73798" lon="3.73979">
        <ele>1086.5888294844</ele>
        <time>2015-04-23T14:21:10Z</time>
      </trkpt>
      <trkpt lat="44.73807" lon="3.7399">
        <ele>1088.2106284284</ele>
        <time>2015-04-23T14:21:15Z</time>
      </trkpt>
      <trkpt lat="44.73813" lon="3.73999">
        <ele>1088.2106284284</ele>
        <time>2015-04-23T14:21:20Z</time>
      </trkpt>
      <trkpt lat="44.73817" lon="3.74008">
        <ele>1089.6416515661</ele>
        <time>2015-04-23T14:21:25Z</time>
      </trkpt>
      <trkpt lat="44.73822" lon="3.74016">
        <ele>1089.6416515661</ele>
        <time>2015-04-23T14:21:30Z</time>
      </trkpt>
      <trkpt lat="44.73825" lon="3.74024">
        <ele>1090.8799870282</ele>
        <time>2015-04-23T14:21:35Z</time>
      </trkpt>
      <trkpt lat="44.73827" lon="3.74032">
        <ele>1090.8799870282</ele>
        <time>2015-04-23T14:21:40Z</time>
      </trkpt>
      <trkpt lat="44.73831" lon="3.74041">
        <ele>1091.2903867317</ele>
        <time>2015-04-23T14:21:45Z</time>
      </trkpt>
      <trkpt lat="44.73834" lon="3.74051">
        <ele>1091.2903867317</ele>
        <time>2015-04-23T14:21:50Z</time>
      </trkpt>
      <trkpt lat="44.73837" lon="3.74061">
        <ele>1091.4683688399</ele>
        <time>2015-04-23T14:21:55Z</time>
      </trkpt>
      <trkpt lat="44.73842" lon="3.7407">
        <ele>1091.4683688399</ele>
        <time>2015-04-23T14:22:00Z</time>
      </trkpt>
      <trkpt lat="44.73847" lon="3.74076">
        <ele>1092.0384731944</ele>
        <time>2015-04-23T14:22:05Z</time>
      </trkpt>
      <trkpt lat="44.7385" lon="3.74085">
        <ele>1092.0384731944</ele>
        <time>2015-04-23T14:22:10Z</time>
      </trkpt>
      <trkpt lat="44.73853" lon="3.74094">
        <ele>1091.2581215101</ele>
        <time>2015-04-23T14:22:15Z</time>
      </trkpt>
      <trkpt lat="44.73859" lon="3.74104">
        <ele>1090.6870162848</ele>
        <time>2015-04-23T14:22:20Z</time>
      </trkpt>
      <trkpt lat="44.73864" lon="3.74113">
        <ele>1090.6870162848</ele>
        <time>2015-04-23T14:22:25Z</time>
      </trkpt>
      <trkpt lat="44.73868" lon="3.74123">
        <ele>1089.5936432718</ele>
        <time>2015-04-23T14:22:30Z</time>
      </trkpt>
      <trkpt lat="44.73872" lon="3.74132">
        <ele>1089.5936432718</ele>
        <time>2015-04-23T14:22:35Z</time>
      </trkpt>
      <trkpt lat="44.73877" lon="3.74141">
        <ele>1088.4834095422</ele>
        <time>2015-04-23T14:22:40Z</time>
      </trkpt>
      <trkpt lat="44.73881" lon="3.7415">
        <ele>1088.4834095422</ele>
        <time>2015-04-23T14:22:45Z</time>
      </trkpt>
      <trkpt lat="44.73886" lon="3.74159">
        <ele>1087.1473107062</ele>
        <time>2015-04-23T14:22:50Z</time>
      </trkpt>
      <trkpt lat="44.73891" lon="3.74166">
        <ele>1087.1473107062</ele>
        <time>2015-04-23T14:22:55Z</time>
      </trkpt>
      <trkpt lat="44.73895" lon="3.74174">
        <ele>1085.9255143333</ele>
        <time>2015-04-23T14:23:00Z</time>
      </trkpt>
      <trkpt lat="44.73899" lon="3.74181">
        <ele>1085.9255143333</ele>
        <time>2015-04-23T14:23:05Z</time>
      </trkpt>
      <trkpt lat="44.73904" lon="3.7419">
        <ele>1084.801380378</ele>
        <time>2015-04-23T14:23:10Z</time>
      </trkpt>
      <trkpt lat="44.73909" lon="3.74197">
        <ele>1084.801380378</ele>
        <time>2015-04-23T14:23:15Z</time>
      </trkpt>
      <trkpt lat="44.73914" lon="3.74204">
        <ele>1083.5141699752</ele>
        <time>2015-04-23T14:23:20Z</time>
      </trkpt>
      <trkpt lat="44.73919" lon="3.74211">
        <ele>1083.5141699752</ele>
        <time>2015-04-23T14:23:25Z</time>
      </trkpt>
      <trkpt lat="44.73923" lon="3.74219">
        <ele>1082.6008839747</ele>
        <time>2015-04-23T14:23:30Z</time>
      </trkpt>
      <trkpt lat="44.73928" lon="3.74229">
        <ele>1082.6008839747</ele>
        <time>2015-04-23T14:23:35Z</time>
      </trkpt>
      <trkpt lat="44.73933" lon="3.74237">
        <ele>1081.2609416779</ele>
        <time>2015-04-23T14:23:40Z</time>
      </trkpt>
      <trkpt lat="44.73938" lon="3.74247">
        <ele>1081.2609416779</ele>
        <time>2015-04-23T14:23:45Z</time>
      </trkpt>
      <trkpt lat="44.73941" lon="3.74263">
        <ele>1081.2612104701</ele>
        <time>2015-04-23T14:23:50Z</time>
      </trkpt>
      <trkpt lat="44.73945" lon="3.74269">
        <ele>1081.2612104701</ele>
        <time>2015-04-23T14:23:55Z</time>
      </trkpt>
      <trkpt lat="44.73951" lon="3.74277">
        <ele>1081.2806262598</ele>
        <time>2015-04-23T14:24:00Z</time>
      </trkpt>
      <trkpt lat="44.73956" lon="3.74281">
        <ele>1081.2806262598</ele>
        <time>2015-04-23T14:24:05Z</time>
      </trkpt>
      <trkpt lat="44.73964" lon="3.74294">
        <ele>1080.7867454073</ele>
        <time>2015-04-23T14:24:10Z</time>
      </trkpt>
      <trkpt lat="44.73973" lon="3.74316">
        <ele>1080.7575057847</ele>
        <time>2015-04-23T14:24:15Z</time>
      </trkpt>
      <trkpt lat="44.7398" lon="3.74327">
        <ele>1081.5932106963</ele>
        <time>2015-04-23T14:24:20Z</time>
      </trkpt>
      <trkpt lat="44.73986" lon="3.74334">
        <ele>1081.5932106963</ele>
        <time>2015-04-23T14:24:25Z</time>
      </trkpt>
      <trkpt lat="44.73992" lon="3.74343">
        <ele>1081.6879067375</ele>
        <time>2015-04-23T14:24:30Z</time>
      </trkpt>
      <trkpt lat="44.73998" lon="3.74351">
        <ele>1081.6879067375</ele>
        <time>2015-04-23T14:24:35Z</time>
      </trkpt>
      <trkpt lat="44.74002" lon="3.74357">
        <ele>1080.9967038825</ele>
        <time>2015-04-23T14:24:40Z</time>
      </trkpt>
      <trkpt lat="44.74005" lon="3.74363">
        <ele>1080.9967038825</ele>
        <time>2015-04-23T14:24:45Z</time>
      </trkpt>
      <trkpt lat="44.7401" lon="3.74371">
        <ele>1080.4312506367</ele>
        <time>2015-04-23T14:24:50Z</time>
      </trkpt>
      <trkpt lat="44.74016" lon="3.74379">
        <ele>1080.4312506367</ele>
        <time>2015-04-23T14:24:55Z</time>
      </trkpt>
      <trkpt lat="44.74021" lon="3.74386">
        <ele>1079.8269982826</ele>
        <time>2015-04-23T14:25:00Z</time>
      </trkpt>
      <trkpt lat="44.74026" lon="3.74391">
        <ele>1079.8269982826</ele>
        <time>2015-04-23T14:25:05Z</time>
      </trkpt>
      <trkpt lat="44.74036" lon="3.74395">
        <ele>1078.8297393681</ele>
        <time>2015-04-23T14:25:10Z</time>
      </trkpt>
      <trkpt lat="44.74044" lon="3.74404">
        <ele>1077.7607859375</ele>
        <time>2015-04-23T14:25:15Z</time>
      </trkpt>
      <trkpt lat="44.7405" lon="3.74409">
        <ele>1077.7607859375</ele>
        <time>2015-04-23T14:25:20Z</time>
      </trkpt>
      <trkpt lat="44.74056" lon="3.74415">
        <ele>1076.5432515945</ele>
        <time>2015-04-23T14:25:25Z</time>
      </trkpt>
      <trkpt lat="44.74062" lon="3.74419">
        <ele>1076.5432515945</ele>
        <time>2015-04-23T14:25:30Z</time>
      </trkpt>
      <trkpt lat="44.74067" lon="3.74426">
        <ele>1074.8612132884</ele>
        <time>2015-04-23T14:25:35Z</time>
      </trkpt>
      <trkpt lat="44.74072" lon="3.74434">
        <ele>1074.8612132884</ele>
        <time>2015-04-23T14:25:40Z</time>
      </trkpt>
      <trkpt lat="44.74077" lon="3.74439">
        <ele>1072.855472753</ele>
        <time>2015-04-23T14:25:45Z</time>
      </trkpt>
      <trkpt lat="44.74082" lon="3.74447">
        <ele>1072.855472753</ele>
        <time>2015-04-23T14:25:50Z</time>
      </trkpt>
      <trkpt lat="44.74088" lon="3.74458">
        <ele>1069.8790675978</ele>
        <time>2015-04-23T14:25:55Z</time>
      </trkpt>
      <trkpt lat="44.74094" lon="3.74471">
        <ele>1067.3959343794</ele>
        <time>2015-04-23T14:26:00Z</time>
      </trkpt>
      <trkpt lat="44.741" lon="3.7448">
        <ele>1065.7809804212</ele>
        <time>2015-04-23T14:26:05Z</time>
      </trkpt>
      <trkpt lat="44.74106" lon="3.74491">
        <ele>1064.2981446015</ele>
        <time>2015-04-23T14:26:10Z</time>
      </trkpt>
      <trkpt lat="44.74111" lon="3.74501">
        <ele>1064.2981446015</ele>
        <time>2015-04-23T14:26:15Z</time>
      </trkpt>
      <trkpt lat="44.74117" lon="3.74509">
        <ele>1063.4610245513</ele>
        <time>2015-04-23T14:26:20Z</time>
      </trkpt>
      <trkpt lat="44.74124" lon="3.74518">
        <ele>1063.0373692245</ele>
        <time>2015-04-23T14:26:25Z</time>
      </trkpt>
      <trkpt lat="44.74131" lon="3.74527">
        <ele>1063.0373692245</ele>
        <time>2015-04-23T14:26:30Z</time>
      </trkpt>
      <trkpt lat="44.74137" lon="3.74534">
        <ele>1062.2486343521</ele>
        <time>2015-04-23T14:26:35Z</time>
      </trkpt>
      <trkpt lat="44.74147" lon="3.7454">
        <ele>1061.5992807974</ele>
        <time>2015-04-23T14:26:40Z</time>
      </trkpt>
      <trkpt lat="44.74155" lon="3.74543">
        <ele>1061.5992807974</ele>
        <time>2015-04-23T14:26:45Z</time>
      </trkpt>
      <trkpt lat="44.74163" lon="3.74544">
        <ele>1061.0517834269</ele>
        <time>2015-04-23T14:26:50Z</time>
      </trkpt>
      <trkpt lat="44.74171" lon="3.74546">
        <ele>1061.0517834269</ele>
        <time>2015-04-23T14:26:55Z</time>
      </trkpt>
      <trkpt lat="44.74176" lon="3.74552">
        <ele>1060.4556574357</ele>
        <time>2015-04-23T14:27:00Z</time>
      </trkpt>
      <trkpt lat="44.74173" lon="3.74561">
        <ele>1060.4556574357</ele>
        <time>2015-04-23T14:27:05Z</time>
      </trkpt>
      <trkpt lat="44.74169" lon="3.74567">
        <ele>1060.7378983058</ele>
        <time>2015-04-23T14:27:10Z</time>
      </trkpt>
      <trkpt lat="44.74165" lon="3.74575">
        <ele>1060.7378983058</ele>
        <time>2015-04-23T14:27:15Z</time>
      </trkpt>
      <trkpt lat="44.74162" lon="3.74585">
        <ele>1061.0831277168</ele>
        <time>2015-04-23T14:27:20Z</time>
      </trkpt>
      <trkpt lat="44.74157" lon="3.74594">
        <ele>1061.0831277168</ele>
        <time>2015-04-23T14:27:25Z</time>
      </trkpt>
      <trkpt lat="44.74152" lon="3.74602">
        <ele>1061.1679084679</ele>
        <time>2015-04-23T14:27:30Z</time>
      </trkpt>
      <trkpt lat="44.74149" lon="3.74609">
        <ele>1061.1679084679</ele>
        <time>2015-04-23T14:27:35Z</time>
      </trkpt>
      <trkpt lat="44.74145" lon="3.74613">
        <ele>1062.0190164179</ele>
        <time>2015-04-23T14:27:40Z</time>
      </trkpt>
      <trkpt lat="44.7414" lon="3.74618">
        <ele>1062.0190164179</ele>
        <time>2015-04-23T14:27:45Z</time>
      </trkpt>
      <trkpt lat="44.74134" lon="3.74625">
        <ele>1063.0435764999</ele>
        <time>2015-04-23T14:27:50Z</time>
      </trkpt>
      <trkpt lat="44.74128" lon="3.74633">
        <ele>1063.0435764999</ele>
        <time>2015-04-23T14:27:55Z</time>
      </trkpt>
      <trkpt lat="44.74124" lon="3.74639">
        <ele>1064.0375757665</ele>
        <time>2015-04-23T14:28:00Z</time>
      </trkpt>
      <trkpt lat="44.74118" lon="3.74643">
        <ele>1064.0375757665</ele>
        <time>2015-04-23T14:28:05Z</time>
      </trkpt>
      <trkpt lat="44.74112" lon="3.7465">
        <ele>1065.2731750081</ele>
        <time>2015-04-23T14:28:10Z</time>
      </trkpt>
      <trkpt lat="44.74104" lon="3.74656">
        <ele>1065.2731750081</ele>
        <time>2015-04-23T14:28:15Z</time>
      </trkpt>
      <trkpt lat="44.74098" lon="3.74662">
        <ele>1066.0362809959</ele>
        <time>2015-04-23T14:28:20Z</time>
      </trkpt>
      <trkpt lat="44.74092" lon="3.74668">
        <ele>1066.0362809959</ele>
        <time>2015-04-23T14:28:25Z</time>
      </trkpt>
      <trkpt lat="44.74085" lon="3.74676">
        <ele>1066.8338593706</ele>
        <time>2015-04-23T14:28:30Z</time>
      </trkpt>
      <trkpt lat="44.74078" lon="3.74682">
        <ele>1066.8338593706</ele>
        <time>2015-04-23T14:28:35Z</time>
      </trkpt>
      <trkpt lat="44.74071" lon="3.7469">
        <ele>1067.3573261667</ele>
        <time>2015-04-23T14:28:40Z</time>
      </trkpt>
      <trkpt lat="44.74064" lon="3.74693">
        <ele>1067.3573261667</ele>
        <time>2015-04-23T14:28:45Z</time>
      </trkpt>
      <trkpt lat="44.74057" lon="3.74699">
        <ele>1068.0565017107</ele>
        <time>2015-04-23T14:28:50Z</time>
      </trkpt>
      <trkpt lat="44.74052" lon="3.74703">
        <ele>1068.0565017107</ele>
        <time>2015-04-23T14:28:55Z</time>
      </trkpt>
      <trkpt lat="44.74046" lon="3.74707">
        <ele>1069.073868628</ele>
        <time>2015-04-23T14:29:00Z</time>
      </trkpt>
      <trkpt lat="44.74041" lon="3.74709">
        <ele>1069.073868628</ele>
        <time>2015-04-23T14:29:05Z</time>
      </trkpt>
      <trkpt lat="44.74034" lon="3.74712">
        <ele>1070.0938250711</ele>
        <time>2015-04-23T14:29:10Z</time>
      </trkpt>
      <trkpt lat="44.74027" lon="3.74717">
        <ele>1070.0938250711</ele>
        <time>2015-04-23T14:29:15Z</time>
      </trkpt>
      <trkpt lat="44.7402" lon="3.74722">
        <ele>1071.2130749703</ele>
        <time>2015-04-23T14:29:20Z</time>
      </trkpt>
      <trkpt lat="44.74016" lon="3.74726">
        <ele>1071.2130749703</ele>
        <time>2015-04-23T14:29:25Z</time>
      </trkpt>
      <trkpt lat="44.74012" lon="3.7473">
        <ele>1072.1895226415</ele>
        <time>2015-04-23T14:29:30Z</time>
      </trkpt>
      <trkpt lat="44.74006" lon="3.74734">
        <ele>1072.1895226415</ele>
        <time>2015-04-23T14:29:35Z</time>
      </trkpt>
      <trkpt lat="44.74" lon="3.74739">
        <ele>1072.5254923848</ele>
        <time>2015-04-23T14:29:40Z</time>
      </trkpt>
      <trkpt lat="44.73994" lon="3.74744">
        <ele>1072.5254923848</ele>
        <time>2015-04-23T14:29:45Z</time>
      </trkpt>
      <trkpt lat="44.73987" lon="3.74749">
        <ele>1072.6407945803</ele>
        <time>2015-04-23T14:29:50Z</time>
      </trkpt>
      <trkpt lat="44.7398" lon="3.74753">
        <ele>1072.6407945803</ele>
        <time>2015-04-23T14:29:55Z</time>
      </trkpt>
      <trkpt lat="44.73973" lon="3.74757">
        <ele>1072.7953754198</ele>
        <time>2015-04-23T14:30:00Z</time>
      </trkpt>
      <trkpt lat="44.73968" lon="3.74761">
        <ele>1072.7953754198</ele>
        <time>2015-04-23T14:30:05Z</time>
      </trkpt>
      <trkpt lat="44.73964" lon="3.74764">
        <ele>1072.826521043</ele>
        <time>2015-04-23T14:30:10Z</time>
      </trkpt>
      <trkpt lat="44.73957" lon="3.74768">
        <ele>1072.826521043</ele>
        <time>2015-04-23T14:30:15Z</time>
      </trkpt>
      <trkpt lat="44.73951" lon="3.74772">
        <ele>1073.030617942</ele>
        <time>2015-04-23T14:30:20Z</time>
      </trkpt>
      <trkpt lat="44.73944" lon="3.74778">
        <ele>1073.030617942</ele>
        <time>2015-04-23T14:30:25Z</time>
      </trkpt>
      <trkpt lat="44.73938" lon="3.74783">
        <ele>1072.9612946544</ele>
        <time>2015-04-23T14:30:30Z</time>
      </trkpt>
      <trkpt lat="44.73933" lon="3.74789">
        <ele>1072.9612946544</ele>
        <time>2015-04-23T14:30:35Z</time>
      </trkpt>
      <trkpt lat="44.73926" lon="3.74796">
        <ele>1072.9119356655</ele>
        <time>2015-04-23T14:30:40Z</time>
      </trkpt>
      <trkpt lat="44.73917" lon="3.74802">
        <ele>1072.995847747</ele>
        <time>2015-04-23T14:30:45Z</time>
      </trkpt>
      <trkpt lat="44.73912" lon="3.74807">
        <ele>1072.995847747</ele>
        <time>2015-04-23T14:30:50Z</time>
      </trkpt>
      <trkpt lat="44.73905" lon="3.74813">
        <ele>1072.5106675399</ele>
        <time>2015-04-23T14:30:55Z</time>
      </trkpt>
      <trkpt lat="44.73899" lon="3.7482">
        <ele>1072.5106675399</ele>
        <time>2015-04-23T14:31:00Z</time>
      </trkpt>
      <trkpt lat="44.73893" lon="3.74828">
        <ele>1072.7095381824</ele>
        <time>2015-04-23T14:31:05Z</time>
      </trkpt>
      <trkpt lat="44.73888" lon="3.74835">
        <ele>1072.7095381824</ele>
        <time>2015-04-23T14:31:10Z</time>
      </trkpt>
      <trkpt lat="44.73883" lon="3.74845">
        <ele>1073.584374628</ele>
        <time>2015-04-23T14:31:15Z</time>
      </trkpt>
      <trkpt lat="44.73878" lon="3.74853">
        <ele>1073.584374628</ele>
        <time>2015-04-23T14:31:20Z</time>
      </trkpt>
      <trkpt lat="44.73874" lon="3.74861">
        <ele>1074.5926250304</ele>
        <time>2015-04-23T14:31:25Z</time>
      </trkpt>
      <trkpt lat="44.7387" lon="3.74869">
        <ele>1074.5926250304</ele>
        <time>2015-04-23T14:31:30Z</time>
      </trkpt>
      <trkpt lat="44.73866" lon="3.74878">
        <ele>1075.3897900825</ele>
        <time>2015-04-23T14:31:35Z</time>
      </trkpt>
      <trkpt lat="44.73861" lon="3.74887">
        <ele>1075.3897900825</ele>
        <time>2015-04-23T14:31:40Z</time>
      </trkpt>
      <trkpt lat="44.73857" lon="3.74897">
        <ele>1075.9311331673</ele>
        <time>2015-04-23T14:31:45Z</time>
      </trkpt>
      <trkpt lat="44.73852" lon="3.74906">
        <ele>1075.9311331673</ele>
        <time>2015-04-23T14:31:50Z</time>
      </trkpt>
      <trkpt lat="44.73849" lon="3.74916">
        <ele>1076.6371338593</ele>
        <time>2015-04-23T14:31:55Z</time>
      </trkpt>
      <trkpt lat="44.73846" lon="3.74926">
        <ele>1076.6371338593</ele>
        <time>2015-04-23T14:32:00Z</time>
      </trkpt>
      <trkpt lat="44.73842" lon="3.74938">
        <ele>1077.2484805661</ele>
        <time>2015-04-23T14:32:05Z</time>
      </trkpt>
      <trkpt lat="44.73839" lon="3.74945">
        <ele>1077.2484805661</ele>
        <time>2015-04-23T14:32:10Z</time>
      </trkpt>
      <trkpt lat="44.73834" lon="3.74951">
        <ele>1077.9143372574</ele>
        <time>2015-04-23T14:32:15Z</time>
      </trkpt>
      <trkpt lat="44.7383" lon="3.74955">
        <ele>1077.9143372574</ele>
        <time>2015-04-23T14:32:20Z</time>
      </trkpt>
      <trkpt lat="44.73823" lon="3.7496">
        <ele>1078.6863533379</ele>
        <time>2015-04-23T14:32:25Z</time>
      </trkpt>
      <trkpt lat="44.73818" lon="3.74964">
        <ele>1078.6863533379</ele>
        <time>2015-04-23T14:32:30Z</time>
      </trkpt>
      <trkpt lat="44.73811" lon="3.74968">
        <ele>1079.5112726205</ele>
        <time>2015-04-23T14:32:35Z</time>
      </trkpt>
      <trkpt lat="44.73807" lon="3.74972">
        <ele>1079.5112726205</ele>
        <time>2015-04-23T14:32:40Z</time>
      </trkpt>
      <trkpt lat="44.73801" lon="3.74974">
        <ele>1080.5414244076</ele>
        <time>2015-04-23T14:32:45Z</time>
      </trkpt>
      <trkpt lat="44.73795" lon="3.74979">
        <ele>1080.5414244076</ele>
        <time>2015-04-23T14:32:50Z</time>
      </trkpt>
      <trkpt lat="44.7379" lon="3.74982">
        <ele>1081.513929224</ele>
        <time>2015-04-23T14:32:55Z</time>
      </trkpt>
      <trkpt lat="44.73782" lon="3.74987">
        <ele>1081.513929224</ele>
        <time>2015-04-23T14:33:00Z</time>
      </trkpt>
      <trkpt lat="44.73774" lon="3.74994">
        <ele>1082.6466069173</ele>
        <time>2015-04-23T14:33:05Z</time>
      </trkpt>
      <trkpt lat="44.73769" lon="3.74998">
        <ele>1082.6466069173</ele>
        <time>2015-04-23T14:33:10Z</time>
      </trkpt>
      <trkpt lat="44.73762" lon="3.75003">
        <ele>1083.9391454445</ele>
        <time>2015-04-23T14:33:15Z</time>
      </trkpt>
      <trkpt lat="44.73755" lon="3.75008">
        <ele>1083.9391454445</ele>
        <time>2015-04-23T14:33:20Z</time>
      </trkpt>
      <trkpt lat="44.73749" lon="3.75012">
        <ele>1084.9873728702</ele>
        <time>2015-04-23T14:33:25Z</time>
      </trkpt>
      <trkpt lat="44.73743" lon="3.75018">
        <ele>1084.9873728702</ele>
        <time>2015-04-23T14:33:30Z</time>
      </trkpt>
      <trkpt lat="44.73735" lon="3.75027">
        <ele>1086.6136961539</ele>
        <time>2015-04-23T14:33:35Z</time>
      </trkpt>
      <trkpt lat="44.7373" lon="3.75034">
        <ele>1086.6136961539</ele>
        <time>2015-04-23T14:33:40Z</time>
      </trkpt>
      <trkpt lat="44.73725" lon="3.7504">
        <ele>1087.8060034965</ele>
        <time>2015-04-23T14:33:45Z</time>
      </trkpt>
      <trkpt lat="44.7372" lon="3.75046">
        <ele>1087.8060034965</ele>
        <time>2015-04-23T14:33:50Z</time>
      </trkpt>
      <trkpt lat="44.73715" lon="3.75053">
        <ele>1088.3772136879</ele>
        <time>2015-04-23T14:33:55Z</time>
      </trkpt>
      <trkpt lat="44.73712" lon="3.75057">
        <ele>1088.3772136879</ele>
        <time>2015-04-23T14:34:00Z</time>
      </trkpt>
      <trkpt lat="44.73707" lon="3.75061">
        <ele>1088.7178504205</ele>
        <time>2015-04-23T14:34:05Z</time>
      </trkpt>
      <trkpt lat="44.73701" lon="3.75067">
        <ele>1088.7178504205</ele>
        <time>2015-04-23T14:34:10Z</time>
      </trkpt>
      <trkpt lat="44.73696" lon="3.75072">
        <ele>1089.2625369522</ele>
        <time>2015-04-23T14:34:15Z</time>
      </trkpt>
      <trkpt lat="44.73692" lon="3.75076">
        <ele>1089.2625369522</ele>
        <time>2015-04-23T14:34:20Z</time>
      </trkpt>
      <trkpt lat="44.73687" lon="3.75079">
        <ele>1089.4911662296</ele>
        <time>2015-04-23T14:34:25Z</time>
      </trkpt>
      <trkpt lat="44.73681" lon="3.75084">
        <ele>1089.4911662296</ele>
        <time>2015-04-23T14:34:30Z</time>
      </trkpt>
      <trkpt lat="44.73676" lon="3.75088">
        <ele>1089.4704220374</ele>
        <time>2015-04-23T14:34:35Z</time>
      </trkpt>
      <trkpt lat="44.73669" lon="3.75091">
        <ele>1089.4704220374</ele>
        <time>2015-04-23T14:34:40Z</time>
      </trkpt>
      <trkpt lat="44.73662" lon="3.75093">
        <ele>1087.6199872973</ele>
        <time>2015-04-23T14:34:45Z</time>
      </trkpt>
      <trkpt lat="44.73654" lon="3.75098">
        <ele>1086.1124219492</ele>
        <time>2015-04-23T14:34:50Z</time>
      </trkpt>
      <trkpt lat="44.73648" lon="3.75103">
        <ele>1086.1124219492</ele>
        <time>2015-04-23T14:34:55Z</time>
      </trkpt>
      <trkpt lat="44.73643" lon="3.7511">
        <ele>1085.25925684</ele>
        <time>2015-04-23T14:35:00Z</time>
      </trkpt>
      <trkpt lat="44.73634" lon="3.75117">
        <ele>1084.8285266055</ele>
        <time>2015-04-23T14:35:05Z</time>
      </trkpt>
      <trkpt lat="44.73627" lon="3.75124">
        <ele>1084.5320764837</ele>
        <time>2015-04-23T14:35:10Z</time>
      </trkpt>
      <trkpt lat="44.73621" lon="3.75128">
        <ele>1084.5320764837</ele>
        <time>2015-04-23T14:35:15Z</time>
      </trkpt>
      <trkpt lat="44.73615" lon="3.75132">
        <ele>1084.4195891465</ele>
        <time>2015-04-23T14:35:20Z</time>
      </trkpt>
      <trkpt lat="44.73609" lon="3.75136">
        <ele>1084.4195891465</ele>
        <time>2015-04-23T14:35:25Z</time>
      </trkpt>
      <trkpt lat="44.73602" lon="3.7514">
        <ele>1084.2339434851</ele>
        <time>2015-04-23T14:35:30Z</time>
      </trkpt>
      <trkpt lat="44.73593" lon="3.75144">
        <ele>1084.2339434851</ele>
        <time>2015-04-23T14:35:35Z</time>
      </trkpt>
      <trkpt lat="44.73586" lon="3.75149">
        <ele>1084.1694358411</ele>
        <time>2015-04-23T14:35:40Z</time>
      </trkpt>
      <trkpt lat="44.73578" lon="3.75155">
        <ele>1084.1694358411</ele>
        <time>2015-04-23T14:35:45Z</time>
      </trkpt>
      <trkpt lat="44.73569" lon="3.75162">
        <ele>1083.9013474504</ele>
        <time>2015-04-23T14:35:50Z</time>
      </trkpt>
      <trkpt lat="44.73563" lon="3.75164">
        <ele>1083.9013474504</ele>
        <time>2015-04-23T14:35:55Z</time>
      </trkpt>
      <trkpt lat="44.73556" lon="3.7517">
        <ele>1083.8931570114</ele>
        <time>2015-04-23T14:36:00Z</time>
      </trkpt>
      <trkpt lat="44.7355" lon="3.75174">
        <ele>1083.8931570114</ele>
        <time>2015-04-23T14:36:05Z</time>
      </trkpt>
      <trkpt lat="44.73545" lon="3.75181">
        <ele>1083.3486021285</ele>
        <time>2015-04-23T14:36:10Z</time>
      </trkpt>
      <trkpt lat="44.73538" lon="3.75185">
        <ele>1083.3486021285</ele>
        <time>2015-04-23T14:36:15Z</time>
      </trkpt>
      <trkpt lat="44.73532" lon="3.75189">
        <ele>1082.9725059547</ele>
        <time>2015-04-23T14:36:20Z</time>
      </trkpt>
      <trkpt lat="44.73527" lon="3.75194">
        <ele>1082.9725059547</ele>
        <time>2015-04-23T14:36:25Z</time>
      </trkpt>
      <trkpt lat="44.73522" lon="3.75197">
        <ele>1082.754504513</ele>
        <time>2015-04-23T14:36:30Z</time>
      </trkpt>
      <trkpt lat="44.73516" lon="3.75203">
        <ele>1082.754504513</ele>
        <time>2015-04-23T14:36:35Z</time>
      </trkpt>
      <trkpt lat="44.7351" lon="3.75206">
        <ele>1082.4107095738</ele>
        <time>2015-04-23T14:36:40Z</time>
      </trkpt>
      <trkpt lat="44.73504" lon="3.75212">
        <ele>1082.4107095738</ele>
        <time>2015-04-23T14:36:45Z</time>
      </trkpt>
      <trkpt lat="44.735" lon="3.75217">
        <ele>1081.8225164919</ele>
        <time>2015-04-23T14:36:50Z</time>
      </trkpt>
      <trkpt lat="44.73495" lon="3.75222">
        <ele>1081.8225164919</ele>
        <time>2015-04-23T14:36:55Z</time>
      </trkpt>
      <trkpt lat="44.73489" lon="3.75227">
        <ele>1081.21213626</ele>
        <time>2015-04-23T14:37:00Z</time>
      </trkpt>
      <trkpt lat="44.73481" lon="3.75233">
        <ele>1080.626954372</ele>
        <time>2015-04-23T14:37:05Z</time>
      </trkpt>
      <trkpt lat="44.73474" lon="3.75237">
        <ele>1080.626954372</ele>
        <time>2015-04-23T14:37:10Z</time>
      </trkpt>
      <trkpt lat="44.73466" lon="3.75242">
        <ele>1080.4710374682</ele>
        <time>2015-04-23T14:37:15Z</time>
      </trkpt>
      <trkpt lat="44.73457" lon="3.75247">
        <ele>1080.555484604</ele>
        <time>2015-04-23T14:37:20Z</time>
      </trkpt>
      <trkpt lat="44.73449" lon="3.7525">
        <ele>1080.555484604</ele>
        <time>2015-04-23T14:37:25Z</time>
      </trkpt>
      <trkpt lat="44.73442" lon="3.75254">
        <ele>1080.6901381243</ele>
        <time>2015-04-23T14:37:30Z</time>
      </trkpt>
      <trkpt lat="44.73435" lon="3.75257">
        <ele>1080.6901381243</ele>
        <time>2015-04-23T14:37:35Z</time>
      </trkpt>
      <trkpt lat="44.73428" lon="3.7526">
        <ele>1080.8715551316</ele>
        <time>2015-04-23T14:37:40Z</time>
      </trkpt>
      <trkpt lat="44.73421" lon="3.75263">
        <ele>1080.8715551316</ele>
        <time>2015-04-23T14:37:45Z</time>
      </trkpt>
      <trkpt lat="44.73413" lon="3.75268">
        <ele>1081.0963703301</ele>
        <time>2015-04-23T14:37:50Z</time>
      </trkpt>
      <trkpt lat="44.73406" lon="3.75272">
        <ele>1081.0963703301</ele>
        <time>2015-04-23T14:37:55Z</time>
      </trkpt>
      <trkpt lat="44.734" lon="3.75276">
        <ele>1081.116313488</ele>
        <time>2015-04-23T14:38:00Z</time>
      </trkpt>
      <trkpt lat="44.73395" lon="3.75282">
        <ele>1081.116313488</ele>
        <time>2015-04-23T14:38:05Z</time>
      </trkpt>
      <trkpt lat="44.73389" lon="3.75288">
        <ele>1080.9612878606</ele>
        <time>2015-04-23T14:38:10Z</time>
      </trkpt>
      <trkpt lat="44.73384" lon="3.75293">
        <ele>1080.9612878606</ele>
        <time>2015-04-23T14:38:15Z</time>
      </trkpt>
      <trkpt lat="44.73379" lon="3.75299">
        <ele>1080.7459200708</ele>
        <time>2015-04-23T14:38:20Z</time>
      </trkpt>
      <trkpt lat="44.73372" lon="3.75303">
        <ele>1080.7459200708</ele>
        <time>2015-04-23T14:38:25Z</time>
      </trkpt>
      <trkpt lat="44.73364" lon="3.75309">
        <ele>1080.8359495773</ele>
        <time>2015-04-23T14:38:30Z</time>
      </trkpt>
      <trkpt lat="44.73359" lon="3.75313">
        <ele>1080.8359495773</ele>
        <time>2015-04-23T14:38:35Z</time>
      </trkpt>
      <trkpt lat="44.73354" lon="3.75319">
        <ele>1080.7479230303</ele>
        <time>2015-04-23T14:38:40Z</time>
      </trkpt>
      <trkpt lat="44.73347" lon="3.75325">
        <ele>1080.7479230303</ele>
        <time>2015-04-23T14:38:45Z</time>
      </trkpt>
      <trkpt lat="44.73341" lon="3.75332">
        <ele>1080.5675773077</ele>
        <time>2015-04-23T14:38:50Z</time>
      </trkpt>
      <trkpt lat="44.73336" lon="3.75338">
        <ele>1080.5675773077</ele>
        <time>2015-04-23T14:38:55Z</time>
      </trkpt>
      <trkpt lat="44.7333" lon="3.75344">
        <ele>1080.3745760103</ele>
        <time>2015-04-23T14:39:00Z</time>
      </trkpt>
      <trkpt lat="44.73324" lon="3.75348">
        <ele>1080.3745760103</ele>
        <time>2015-04-23T14:39:05Z</time>
      </trkpt>
      <trkpt lat="44.73317" lon="3.75354">
        <ele>1080.4156665386</ele>
        <time>2015-04-23T14:39:10Z</time>
      </trkpt>
      <trkpt lat="44.73312" lon="3.75358">
        <ele>1080.4156665386</ele>
        <time>2015-04-23T14:39:15Z</time>
      </trkpt>
      <trkpt lat="44.73305" lon="3.75364">
        <ele>1080.342336653</ele>
        <time>2015-04-23T14:39:20Z</time>
      </trkpt>
      <trkpt lat="44.73299" lon="3.75371">
        <ele>1080.342336653</ele>
        <time>2015-04-23T14:39:25Z</time>
      </trkpt>
      <trkpt lat="44.73293" lon="3.75378">
        <ele>1080.4084100763</ele>
        <time>2015-04-23T14:39:30Z</time>
      </trkpt>
      <trkpt lat="44.73288" lon="3.75382">
        <ele>1080.4084100763</ele>
        <time>2015-04-23T14:39:35Z</time>
      </trkpt>
      <trkpt lat="44.73281" lon="3.75387">
        <ele>1080.4307216456</ele>
        <time>2015-04-23T14:39:40Z</time>
      </trkpt>
      <trkpt lat="44.73272" lon="3.75393">
        <ele>1080.484645304</ele>
        <time>2015-04-23T14:39:45Z</time>
      </trkpt>
      <trkpt lat="44.73265" lon="3.75399">
        <ele>1080.484645304</ele>
        <time>2015-04-23T14:39:50Z</time>
      </trkpt>
      <trkpt lat="44.7326" lon="3.75403">
        <ele>1080.596670156</ele>
        <time>2015-04-23T14:39:55Z</time>
      </trkpt>
      <trkpt lat="44.73254" lon="3.75408">
        <ele>1080.596670156</ele>
        <time>2015-04-23T14:40:00Z</time>
      </trkpt>
      <trkpt lat="44.73254" lon="3.75408">
        <ele>1080.596670156</ele>
        <time>2015-04-23T14:40:05Z</time>
      </trkpt>
      <trkpt lat="44.73257" lon="3.75408">
        <ele>1080.430874299</ele>
        <time>2015-04-23T14:40:10Z</time>
      </trkpt>
      <trkpt lat="44.73263" lon="3.75404">
        <ele>1080.430874299</ele>
        <time>2015-04-23T14:40:15Z</time>
      </trkpt>
      <trkpt lat="44.73269" lon="3.75399">
        <ele>1080.3252693064</ele>
        <time>2015-04-23T14:40:20Z</time>
      </trkpt>
      <trkpt lat="44.73274" lon="3.75395">
        <ele>1080.3252693064</ele>
        <time>2015-04-23T14:40:25Z</time>
      </trkpt>
      <trkpt lat="44.73281" lon="3.75394">
        <ele>1080.5207910235</ele>
        <time>2015-04-23T14:40:30Z</time>
      </trkpt>
      <trkpt lat="44.73277" lon="3.75406">
        <ele>1080.5207910235</ele>
        <time>2015-04-23T14:40:35Z</time>
      </trkpt>
      <trkpt lat="44.73264" lon="3.75438">
        <ele>1080.5192558072</ele>
        <time>2015-04-23T14:40:40Z</time>
      </trkpt>
      <trkpt lat="44.7325" lon="3.75475">
        <ele>1080.7386890144</ele>
        <time>2015-04-23T14:40:45Z</time>
      </trkpt>
      <trkpt lat="44.73239" lon="3.75506">
        <ele>1080.8884496272</ele>
        <time>2015-04-23T14:40:50Z</time>
      </trkpt>
      <trkpt lat="44.73232" lon="3.75524">
        <ele>1081.8955528068</ele>
        <time>2015-04-23T14:40:55Z</time>
      </trkpt>
      <trkpt lat="44.73231" lon="3.75535">
        <ele>1081.8955528068</ele>
        <time>2015-04-23T14:41:00Z</time>
      </trkpt>
      <trkpt lat="44.73231" lon="3.75542">
        <ele>1082.1810231489</ele>
        <time>2015-04-23T14:41:05Z</time>
      </trkpt>
      <trkpt lat="44.73227" lon="3.7555">
        <ele>1082.1810231489</ele>
        <time>2015-04-23T14:41:10Z</time>
      </trkpt>
      <trkpt lat="44.73226" lon="3.75562">
        <ele>1082.2870406109</ele>
        <time>2015-04-23T14:41:15Z</time>
      </trkpt>
      <trkpt lat="44.73223" lon="3.75572">
        <ele>1082.2870406109</ele>
        <time>2015-04-23T14:41:20Z</time>
      </trkpt>
      <trkpt lat="44.73226" lon="3.75574">
        <ele>1081.9814913511</ele>
        <time>2015-04-23T14:41:25Z</time>
      </trkpt>
      <trkpt lat="44.73226" lon="3.75576">
        <ele>1081.9814913511</ele>
        <time>2015-04-23T14:41:30Z</time>
      </trkpt>
      <trkpt lat="44.73226" lon="3.75576">
        <ele>1081.9814913511</ele>
        <time>2015-04-23T14:41:35Z</time>
      </trkpt>
      <trkpt lat="44.73226" lon="3.75581">
        <ele>1081.9814913511</ele>
        <time>2015-04-23T14:41:40Z</time>
      </trkpt>
      <trkpt lat="44.73227" lon="3.75588">
        <ele>1080.9639984547</ele>
        <time>2015-04-23T14:41:45Z</time>
      </trkpt>
      <trkpt lat="44.73228" lon="3.75596">
        <ele>1080.9639984547</ele>
        <time>2015-04-23T14:41:50Z</time>
      </trkpt>
      <trkpt lat="44.73229" lon="3.75609">
        <ele>1080.0967213383</ele>
        <time>2015-04-23T14:41:55Z</time>
      </trkpt>
      <trkpt lat="44.73231" lon="3.75621">
        <ele>1080.0967213383</ele>
        <time>2015-04-23T14:42:00Z</time>
      </trkpt>
      <trkpt lat="44.73228" lon="3.75634">
        <ele>1079.1692765878</ele>
        <time>2015-04-23T14:42:05Z</time>
      </trkpt>
      <trkpt lat="44.73225" lon="3.75645">
        <ele>1079.1692765878</ele>
        <time>2015-04-23T14:42:10Z</time>
      </trkpt>
      <trkpt lat="44.73225" lon="3.75656">
        <ele>1078.1742327985</ele>
        <time>2015-04-23T14:42:15Z</time>
      </trkpt>
      <trkpt lat="44.73229" lon="3.75664">
        <ele>1078.1742327985</ele>
        <time>2015-04-23T14:42:20Z</time>
      </trkpt>
      <trkpt lat="44.73233" lon="3.7567">
        <ele>1077.2201604332</ele>
        <time>2015-04-23T14:42:25Z</time>
      </trkpt>
      <trkpt lat="44.73234" lon="3.75676">
        <ele>1077.2201604332</ele>
        <time>2015-04-23T14:42:30Z</time>
      </trkpt>
      <trkpt lat="44.73236" lon="3.75683">
        <ele>1075.9463545056</ele>
        <time>2015-04-23T14:42:35Z</time>
      </trkpt>
      <trkpt lat="44.73235" lon="3.75699">
        <ele>1074.6247350964</ele>
        <time>2015-04-23T14:42:40Z</time>
      </trkpt>
      <trkpt lat="44.73232" lon="3.75731">
        <ele>1073.7523283264</ele>
        <time>2015-04-23T14:42:45Z</time>
      </trkpt>
      <trkpt lat="44.73233" lon="3.75742">
        <ele>1073.7523283264</ele>
        <time>2015-04-23T14:42:50Z</time>
      </trkpt>
      <trkpt lat="44.73237" lon="3.75752">
        <ele>1073.4568867106</ele>
        <time>2015-04-23T14:42:55Z</time>
      </trkpt>
      <trkpt lat="44.73243" lon="3.75758">
        <ele>1073.4568867106</ele>
        <time>2015-04-23T14:43:00Z</time>
      </trkpt>
      <trkpt lat="44.73249" lon="3.75761">
        <ele>1073.451599455</ele>
        <time>2015-04-23T14:43:05Z</time>
      </trkpt>
      <trkpt lat="44.73253" lon="3.75766">
        <ele>1073.451599455</ele>
        <time>2015-04-23T14:43:10Z</time>
      </trkpt>
      <trkpt lat="44.73254" lon="3.75776">
        <ele>1072.8501832118</ele>
        <time>2015-04-23T14:43:15Z</time>
      </trkpt>
      <trkpt lat="44.73256" lon="3.75782">
        <ele>1072.8501832118</ele>
        <time>2015-04-23T14:43:20Z</time>
      </trkpt>
      <trkpt lat="44.73259" lon="3.75788">
        <ele>1072.2165515225</ele>
        <time>2015-04-23T14:43:25Z</time>
      </trkpt>
      <trkpt lat="44.7326" lon="3.75797">
        <ele>1072.2165515225</ele>
        <time>2015-04-23T14:43:30Z</time>
      </trkpt>
      <trkpt lat="44.73262" lon="3.75804">
        <ele>1071.3815023156</ele>
        <time>2015-04-23T14:43:35Z</time>
      </trkpt>
      <trkpt lat="44.73262" lon="3.75815">
        <ele>1071.3815023156</ele>
        <time>2015-04-23T14:43:40Z</time>
      </trkpt>
      <trkpt lat="44.73263" lon="3.75815">
        <ele>1071.3815023156</ele>
        <time>2015-04-23T14:43:45Z</time>
      </trkpt>
      <trkpt lat="44.73262" lon="3.75811">
        <ele>1070.837280964</ele>
        <time>2015-04-23T14:43:50Z</time>
      </trkpt>
      <trkpt lat="44.7326" lon="3.75804">
        <ele>1070.837280964</ele>
        <time>2015-04-23T14:43:55Z</time>
      </trkpt>
      <trkpt lat="44.73259" lon="3.75797">
        <ele>1070.1456196396</ele>
        <time>2015-04-23T14:44:00Z</time>
      </trkpt>
      <trkpt lat="44.73258" lon="3.75789">
        <ele>1070.1456196396</ele>
        <time>2015-04-23T14:44:05Z</time>
      </trkpt>
      <trkpt lat="44.73255" lon="3.75779">
        <ele>1069.6213665188</ele>
        <time>2015-04-23T14:44:10Z</time>
      </trkpt>
      <trkpt lat="44.73251" lon="3.75771">
        <ele>1069.6213665188</ele>
        <time>2015-04-23T14:44:15Z</time>
      </trkpt>
      <trkpt lat="44.73246" lon="3.75762">
        <ele>1069.4260238845</ele>
        <time>2015-04-23T14:44:20Z</time>
      </trkpt>
      <trkpt lat="44.73241" lon="3.75755">
        <ele>1069.4260238845</ele>
        <time>2015-04-23T14:44:25Z</time>
      </trkpt>
      <trkpt lat="44.73234" lon="3.75748">
        <ele>1069.1462277802</ele>
        <time>2015-04-23T14:44:30Z</time>
      </trkpt>
      <trkpt lat="44.73229" lon="3.75745">
        <ele>1069.1462277802</ele>
        <time>2015-04-23T14:44:35Z</time>
      </trkpt>
      <trkpt lat="44.73222" lon="3.75742">
        <ele>1069.0044398804</ele>
        <time>2015-04-23T14:44:40Z</time>
      </trkpt>
      <trkpt lat="44.73212" lon="3.75736">
        <ele>1068.9757747888</ele>
        <time>2015-04-23T14:44:45Z</time>
      </trkpt>
      <trkpt lat="44.73196" lon="3.75732">
        <ele>1069.7285567236</ele>
        <time>2015-04-23T14:44:50Z</time>
      </trkpt>
      <trkpt lat="44.73184" lon="3.7573">
        <ele>1070.1792825806</ele>
        <time>2015-04-23T14:44:55Z</time>
      </trkpt>
      <trkpt lat="44.73177" lon="3.7573">
        <ele>1070.1792825806</ele>
        <time>2015-04-23T14:45:00Z</time>
      </trkpt>
      <trkpt lat="44.7317" lon="3.7573">
        <ele>1071.1118480386</ele>
        <time>2015-04-23T14:45:05Z</time>
      </trkpt>
      <trkpt lat="44.73162" lon="3.75728">
        <ele>1071.1118480386</ele>
        <time>2015-04-23T14:45:10Z</time>
      </trkpt>
      <trkpt lat="44.73155" lon="3.75724">
        <ele>1071.6659778315</ele>
        <time>2015-04-23T14:45:15Z</time>
      </trkpt>
      <trkpt lat="44.73149" lon="3.75721">
        <ele>1071.6659778315</ele>
        <time>2015-04-23T14:45:20Z</time>
      </trkpt>
      <trkpt lat="44.73148" lon="3.7572">
        <ele>1071.6659778315</ele>
        <time>2015-04-23T14:45:25Z</time>
      </trkpt>
      <trkpt lat="44.73144" lon="3.75718">
        <ele>1072.4147071229</ele>
        <time>2015-04-23T14:45:30Z</time>
      </trkpt>
      <trkpt lat="44.73139" lon="3.75716">
        <ele>1072.4147071229</ele>
        <time>2015-04-23T14:45:35Z</time>
      </trkpt>
      <trkpt lat="44.73133" lon="3.75713">
        <ele>1072.6779017405</ele>
        <time>2015-04-23T14:45:40Z</time>
      </trkpt>
      <trkpt lat="44.73124" lon="3.7571">
        <ele>1072.9220086967</ele>
        <time>2015-04-23T14:45:45Z</time>
      </trkpt>
      <trkpt lat="44.73116" lon="3.75707">
        <ele>1072.9220086967</ele>
        <time>2015-04-23T14:45:50Z</time>
      </trkpt>
      <trkpt lat="44.73109" lon="3.75702">
        <ele>1073.3919365888</ele>
        <time>2015-04-23T14:45:55Z</time>
      </trkpt>
      <trkpt lat="44.73101" lon="3.75697">
        <ele>1073.3919365888</ele>
        <time>2015-04-23T14:46:00Z</time>
      </trkpt>
      <trkpt lat="44.73093" lon="3.75693">
        <ele>1074.0113585397</ele>
        <time>2015-04-23T14:46:05Z</time>
      </trkpt>
      <trkpt lat="44.73085" lon="3.75688">
        <ele>1074.0113585397</ele>
        <time>2015-04-23T14:46:10Z</time>
      </trkpt>
      <trkpt lat="44.73077" lon="3.75685">
        <ele>1074.579461761</ele>
        <time>2015-04-23T14:46:15Z</time>
      </trkpt>
      <trkpt lat="44.73071" lon="3.75683">
        <ele>1074.579461761</ele>
        <time>2015-04-23T14:46:20Z</time>
      </trkpt>
      <trkpt lat="44.73066" lon="3.75678">
        <ele>1075.3571051158</ele>
        <time>2015-04-23T14:46:25Z</time>
      </trkpt>
      <trkpt lat="44.7306" lon="3.75673">
        <ele>1075.3571051158</ele>
        <time>2015-04-23T14:46:30Z</time>
      </trkpt>
      <trkpt lat="44.73053" lon="3.75671">
        <ele>1076.0089889116</ele>
        <time>2015-04-23T14:46:35Z</time>
      </trkpt>
      <trkpt lat="44.73047" lon="3.75666">
        <ele>1076.0089889116</ele>
        <time>2015-04-23T14:46:40Z</time>
      </trkpt>
      <trkpt lat="44.73041" lon="3.75661">
        <ele>1076.9021614006</ele>
        <time>2015-04-23T14:46:45Z</time>
      </trkpt>
      <trkpt lat="44.73033" lon="3.75657">
        <ele>1076.9021614006</ele>
        <time>2015-04-23T14:46:50Z</time>
      </trkpt>
      <trkpt lat="44.73026" lon="3.75654">
        <ele>1077.8284553416</ele>
        <time>2015-04-23T14:46:55Z</time>
      </trkpt>
      <trkpt lat="44.7302" lon="3.75652">
        <ele>1077.8284553416</ele>
        <time>2015-04-23T14:47:00Z</time>
      </trkpt>
      <trkpt lat="44.73013" lon="3.7565">
        <ele>1078.8255326407</ele>
        <time>2015-04-23T14:47:05Z</time>
      </trkpt>
      <trkpt lat="44.73005" lon="3.75647">
        <ele>1078.8255326407</ele>
        <time>2015-04-23T14:47:10Z</time>
      </trkpt>
      <trkpt lat="44.72998" lon="3.75641">
        <ele>1080.1731372452</ele>
        <time>2015-04-23T14:47:15Z</time>
      </trkpt>
      <trkpt lat="44.72992" lon="3.75637">
        <ele>1080.1731372452</ele>
        <time>2015-04-23T14:47:20Z</time>
      </trkpt>
      <trkpt lat="44.72985" lon="3.75638">
        <ele>1081.7260335595</ele>
        <time>2015-04-23T14:47:25Z</time>
      </trkpt>
      <trkpt lat="44.72979" lon="3.75645">
        <ele>1081.7260335595</ele>
        <time>2015-04-23T14:47:30Z</time>
      </trkpt>
      <trkpt lat="44.72975" lon="3.75651">
        <ele>1082.9600502991</ele>
        <time>2015-04-23T14:47:35Z</time>
      </trkpt>
      <trkpt lat="44.72971" lon="3.75658">
        <ele>1082.9600502991</ele>
        <time>2015-04-23T14:47:40Z</time>
      </trkpt>
      <trkpt lat="44.72968" lon="3.75664">
        <ele>1083.808415834</ele>
        <time>2015-04-23T14:47:45Z</time>
      </trkpt>
      <trkpt lat="44.72965" lon="3.75669">
        <ele>1083.808415834</ele>
        <time>2015-04-23T14:47:50Z</time>
      </trkpt>
      <trkpt lat="44.72961" lon="3.75673">
        <ele>1083.8213261939</ele>
        <time>2015-04-23T14:47:55Z</time>
      </trkpt>
      <trkpt lat="44.72957" lon="3.75678">
        <ele>1083.8213261939</ele>
        <time>2015-04-23T14:48:00Z</time>
      </trkpt>
      <trkpt lat="44.72951" lon="3.75685">
        <ele>1083.9390902772</ele>
        <time>2015-04-23T14:48:05Z</time>
      </trkpt>
      <trkpt lat="44.72946" lon="3.75691">
        <ele>1083.9390902772</ele>
        <time>2015-04-23T14:48:10Z</time>
      </trkpt>
      <trkpt lat="44.72941" lon="3.757">
        <ele>1084.2689391855</ele>
        <time>2015-04-23T14:48:15Z</time>
      </trkpt>
      <trkpt lat="44.72936" lon="3.75708">
        <ele>1084.2689391855</ele>
        <time>2015-04-23T14:48:20Z</time>
      </trkpt>
      <trkpt lat="44.72932" lon="3.75717">
        <ele>1084.7079529595</ele>
        <time>2015-04-23T14:48:25Z</time>
      </trkpt>
      <trkpt lat="44.72927" lon="3.75725">
        <ele>1084.7079529595</ele>
        <time>2015-04-23T14:48:30Z</time>
      </trkpt>
      <trkpt lat="44.72922" lon="3.75732">
        <ele>1084.6705599926</ele>
        <time>2015-04-23T14:48:35Z</time>
      </trkpt>
      <trkpt lat="44.72915" lon="3.75743">
        <ele>1084.3073417689</ele>
        <time>2015-04-23T14:48:40Z</time>
      </trkpt>
      <trkpt lat="44.72909" lon="3.75755">
        <ele>1084.493761788</ele>
        <time>2015-04-23T14:48:45Z</time>
      </trkpt>
      <trkpt lat="44.72898" lon="3.75772">
        <ele>1084.6271985552</ele>
        <time>2015-04-23T14:48:50Z</time>
      </trkpt>
      <trkpt lat="44.7288" lon="3.75796">
        <ele>1084.8556443837</ele>
        <time>2015-04-23T14:48:55Z</time>
      </trkpt>
      <trkpt lat="44.72869" lon="3.75809">
        <ele>1084.8980789349</ele>
        <time>2015-04-23T14:49:00Z</time>
      </trkpt>
      <trkpt lat="44.72849" lon="3.75829">
        <ele>1085.2152475131</ele>
        <time>2015-04-23T14:49:05Z</time>
      </trkpt>
      <trkpt lat="44.72832" lon="3.75845">
        <ele>1085.3686526911</ele>
        <time>2015-04-23T14:49:10Z</time>
      </trkpt>
      <trkpt lat="44.72804" lon="3.75862">
        <ele>1085.8315848073</ele>
        <time>2015-04-23T14:49:15Z</time>
      </trkpt>
      <trkpt lat="44.72782" lon="3.75887">
        <ele>1086.378823396</ele>
        <time>2015-04-23T14:49:20Z</time>
      </trkpt>
      <trkpt lat="44.72762" lon="3.75919">
        <ele>1086.9600137602</ele>
        <time>2015-04-23T14:49:25Z</time>
      </trkpt>
      <trkpt lat="44.72741" lon="3.75943">
        <ele>1087.3266839145</ele>
        <time>2015-04-23T14:49:30Z</time>
      </trkpt>
      <trkpt lat="44.72714" lon="3.75967">
        <ele>1087.7536394906</ele>
        <time>2015-04-23T14:49:35Z</time>
      </trkpt>
      <trkpt lat="44.72697" lon="3.75982">
        <ele>1088.0774408393</ele>
        <time>2015-04-23T14:49:40Z</time>
      </trkpt>
      <trkpt lat="44.72691" lon="3.75997">
        <ele>1088.5216651058</ele>
        <time>2015-04-23T14:49:45Z</time>
      </trkpt>
      <trkpt lat="44.72687" lon="3.76004">
        <ele>1088.5216651058</ele>
        <time>2015-04-23T14:49:50Z</time>
      </trkpt>
      <trkpt lat="44.72682" lon="3.76012">
        <ele>1089.3508037919</ele>
        <time>2015-04-23T14:49:55Z</time>
      </trkpt>
      <trkpt lat="44.72678" lon="3.76021">
        <ele>1089.3508037919</ele>
        <time>2015-04-23T14:50:00Z</time>
      </trkpt>
      <trkpt lat="44.72674" lon="3.76029">
        <ele>1090.145959292</ele>
        <time>2015-04-23T14:50:05Z</time>
      </trkpt>
      <trkpt lat="44.72669" lon="3.76036">
        <ele>1090.145959292</ele>
        <time>2015-04-23T14:50:10Z</time>
      </trkpt>
      <trkpt lat="44.72665" lon="3.76045">
        <ele>1090.8505889267</ele>
        <time>2015-04-23T14:50:15Z</time>
      </trkpt>
      <trkpt lat="44.72662" lon="3.76052">
        <ele>1090.8505889267</ele>
        <time>2015-04-23T14:50:20Z</time>
      </trkpt>
      <trkpt lat="44.72657" lon="3.76058">
        <ele>1091.4125903487</ele>
        <time>2015-04-23T14:50:25Z</time>
      </trkpt>
      <trkpt lat="44.72649" lon="3.76068">
        <ele>1091.7985330935</ele>
        <time>2015-04-23T14:50:30Z</time>
      </trkpt>
      <trkpt lat="44.72626" lon="3.76089">
        <ele>1092.2229582347</ele>
        <time>2015-04-23T14:50:35Z</time>
      </trkpt>
      <trkpt lat="44.72609" lon="3.7609">
        <ele>1092.6107592689</ele>
        <time>2015-04-23T14:50:40Z</time>
      </trkpt>
      <trkpt lat="44.72581" lon="3.76096">
        <ele>1093.7283256651</ele>
        <time>2015-04-23T14:50:45Z</time>
      </trkpt>
      <trkpt lat="44.72563" lon="3.76105">
        <ele>1094.525575775</ele>
        <time>2015-04-23T14:50:50Z</time>
      </trkpt>
      <trkpt lat="44.72545" lon="3.76106">
        <ele>1095.1257409168</ele>
        <time>2015-04-23T14:50:55Z</time>
      </trkpt>
      <trkpt lat="44.72522" lon="3.76108">
        <ele>1095.5427064555</ele>
        <time>2015-04-23T14:51:00Z</time>
      </trkpt>
      <trkpt lat="44.72497" lon="3.76115">
        <ele>1096.0060499098</ele>
        <time>2015-04-23T14:51:05Z</time>
      </trkpt>
      <trkpt lat="44.7247" lon="3.76121">
        <ele>1096.1807613827</ele>
        <time>2015-04-23T14:51:10Z</time>
      </trkpt>
      <trkpt lat="44.72454" lon="3.76129">
        <ele>1096.2472552144</ele>
        <time>2015-04-23T14:51:15Z</time>
      </trkpt>
      <trkpt lat="44.72447" lon="3.76133">
        <ele>1096.2472552144</ele>
        <time>2015-04-23T14:51:20Z</time>
      </trkpt>
      <trkpt lat="44.72444" lon="3.76138">
        <ele>1095.7965740052</ele>
        <time>2015-04-23T14:51:25Z</time>
      </trkpt>
      <trkpt lat="44.72438" lon="3.76143">
        <ele>1095.7965740052</ele>
        <time>2015-04-23T14:51:30Z</time>
      </trkpt>
      <trkpt lat="44.7243" lon="3.76148">
        <ele>1095.0133027749</ele>
        <time>2015-04-23T14:51:35Z</time>
      </trkpt>
      <trkpt lat="44.72425" lon="3.76151">
        <ele>1095.0133027749</ele>
        <time>2015-04-23T14:51:40Z</time>
      </trkpt>
      <trkpt lat="44.72418" lon="3.76156">
        <ele>1093.9973524363</ele>
        <time>2015-04-23T14:51:45Z</time>
      </trkpt>
      <trkpt lat="44.72411" lon="3.7616">
        <ele>1093.9973524363</ele>
        <time>2015-04-23T14:51:50Z</time>
      </trkpt>
      <trkpt lat="44.72404" lon="3.76164">
        <ele>1092.5393111234</ele>
        <time>2015-04-23T14:51:55Z</time>
      </trkpt>
      <trkpt lat="44.72398" lon="3.76166">
        <ele>1092.5393111234</ele>
        <time>2015-04-23T14:52:00Z</time>
      </trkpt>
      <trkpt lat="44.72393" lon="3.76166">
        <ele>1091.138109216</ele>
        <time>2015-04-23T14:52:05Z</time>
      </trkpt>
      <trkpt lat="44.72388" lon="3.76166">
        <ele>1091.138109216</ele>
        <time>2015-04-23T14:52:10Z</time>
      </trkpt>
      <trkpt lat="44.72384" lon="3.7617">
        <ele>1089.1173594645</ele>
        <time>2015-04-23T14:52:15Z</time>
      </trkpt>
      <trkpt lat="44.72378" lon="3.76175">
        <ele>1089.1173594645</ele>
        <time>2015-04-23T14:52:20Z</time>
      </trkpt>
      <trkpt lat="44.72372" lon="3.76179">
        <ele>1087.5525686047</ele>
        <time>2015-04-23T14:52:25Z</time>
      </trkpt>
      <trkpt lat="44.72368" lon="3.76182">
        <ele>1087.5525686047</ele>
        <time>2015-04-23T14:52:30Z</time>
      </trkpt>
      <trkpt lat="44.72362" lon="3.76185">
        <ele>1086.2860126354</ele>
        <time>2015-04-23T14:52:35Z</time>
      </trkpt>
      <trkpt lat="44.72354" lon="3.76188">
        <ele>1086.2860126354</ele>
        <time>2015-04-23T14:52:40Z</time>
      </trkpt>
      <trkpt lat="44.72346" lon="3.76191">
        <ele>1084.7815484187</ele>
        <time>2015-04-23T14:52:45Z</time>
      </trkpt>
      <trkpt lat="44.7234" lon="3.76192">
        <ele>1084.7815484187</ele>
        <time>2015-04-23T14:52:50Z</time>
      </trkpt>
      <trkpt lat="44.72331" lon="3.76196">
        <ele>1083.3356169025</ele>
        <time>2015-04-23T14:52:55Z</time>
      </trkpt>
      <trkpt lat="44.72322" lon="3.762">
        <ele>1081.9488188894</ele>
        <time>2015-04-23T14:53:00Z</time>
      </trkpt>
      <trkpt lat="44.72314" lon="3.76204">
        <ele>1080.5638045633</ele>
        <time>2015-04-23T14:53:05Z</time>
      </trkpt>
      <trkpt lat="44.72305" lon="3.76208">
        <ele>1079.1561510724</ele>
        <time>2015-04-23T14:53:10Z</time>
      </trkpt>
      <trkpt lat="44.72297" lon="3.76213">
        <ele>1079.1561510724</ele>
        <time>2015-04-23T14:53:15Z</time>
      </trkpt>
      <trkpt lat="44.72289" lon="3.76218">
        <ele>1077.8617064933</ele>
        <time>2015-04-23T14:53:20Z</time>
      </trkpt>
      <trkpt lat="44.72281" lon="3.76222">
        <ele>1077.8617064933</ele>
        <time>2015-04-23T14:53:25Z</time>
      </trkpt>
      <trkpt lat="44.72272" lon="3.76224">
        <ele>1076.7626751937</ele>
        <time>2015-04-23T14:53:30Z</time>
      </trkpt>
      <trkpt lat="44.72264" lon="3.76225">
        <ele>1076.7626751937</ele>
        <time>2015-04-23T14:53:35Z</time>
      </trkpt>
      <trkpt lat="44.72257" lon="3.76227">
        <ele>1075.6463354832</ele>
        <time>2015-04-23T14:53:40Z</time>
      </trkpt>
      <trkpt lat="44.7225" lon="3.76229">
        <ele>1075.6463354832</ele>
        <time>2015-04-23T14:53:45Z</time>
      </trkpt>
      <trkpt lat="44.72241" lon="3.76228">
        <ele>1074.978433727</ele>
        <time>2015-04-23T14:53:50Z</time>
      </trkpt>
      <trkpt lat="44.72233" lon="3.76228">
        <ele>1074.978433727</ele>
        <time>2015-04-23T14:53:55Z</time>
      </trkpt>
      <trkpt lat="44.72224" lon="3.76229">
        <ele>1074.7135605592</ele>
        <time>2015-04-23T14:54:00Z</time>
      </trkpt>
      <trkpt lat="44.7222" lon="3.7623">
        <ele>1074.7135605592</ele>
        <time>2015-04-23T14:54:05Z</time>
      </trkpt>
      <trkpt lat="44.7222" lon="3.76229">
        <ele>1074.7135605592</ele>
        <time>2015-04-23T14:54:10Z</time>
      </trkpt>
      <trkpt lat="44.7222" lon="3.7623">
        <ele>1074.7135605592</ele>
        <time>2015-04-23T14:54:15Z</time>
      </trkpt>
      <trkpt lat="44.7222" lon="3.7623">
        <ele>1074.7135605592</ele>
        <time>2015-04-23T14:54:20Z</time>
      </trkpt>
      <trkpt lat="44.72218" lon="3.76231">
        <ele>1074.7135605592</ele>
        <time>2015-04-23T14:54:25Z</time>
      </trkpt>
      <trkpt lat="44.7221" lon="3.76234">
        <ele>1074.8083977774</ele>
        <time>2015-04-23T14:54:30Z</time>
      </trkpt>
      <trkpt lat="44.72203" lon="3.76239">
        <ele>1074.8083977774</ele>
        <time>2015-04-23T14:54:35Z</time>
      </trkpt>
      <trkpt lat="44.72194" lon="3.76245">
        <ele>1074.9622919735</ele>
        <time>2015-04-23T14:54:40Z</time>
      </trkpt>
      <trkpt lat="44.72187" lon="3.76249">
        <ele>1074.9622919735</ele>
        <time>2015-04-23T14:54:45Z</time>
      </trkpt>
      <trkpt lat="44.72183" lon="3.76255">
        <ele>1074.9828761563</ele>
        <time>2015-04-23T14:54:50Z</time>
      </trkpt>
      <trkpt lat="44.72178" lon="3.76263">
        <ele>1074.9828761563</ele>
        <time>2015-04-23T14:54:55Z</time>
      </trkpt>
      <trkpt lat="44.72174" lon="3.76272">
        <ele>1074.8363075481</ele>
        <time>2015-04-23T14:55:00Z</time>
      </trkpt>
      <trkpt lat="44.72171" lon="3.7628">
        <ele>1074.8363075481</ele>
        <time>2015-04-23T14:55:05Z</time>
      </trkpt>
      <trkpt lat="44.72167" lon="3.76288">
        <ele>1074.7077811349</ele>
        <time>2015-04-23T14:55:10Z</time>
      </trkpt>
      <trkpt lat="44.72162" lon="3.76297">
        <ele>1074.7077811349</ele>
        <time>2015-04-23T14:55:15Z</time>
      </trkpt>
      <trkpt lat="44.72157" lon="3.76304">
        <ele>1074.8408162953</ele>
        <time>2015-04-23T14:55:20Z</time>
      </trkpt>
      <trkpt lat="44.72151" lon="3.76311">
        <ele>1074.8408162953</ele>
        <time>2015-04-23T14:55:25Z</time>
      </trkpt>
      <trkpt lat="44.72146" lon="3.76319">
        <ele>1075.359363675</ele>
        <time>2015-04-23T14:55:30Z</time>
      </trkpt>
      <trkpt lat="44.7214" lon="3.76325">
        <ele>1075.359363675</ele>
        <time>2015-04-23T14:55:35Z</time>
      </trkpt>
      <trkpt lat="44.72135" lon="3.76332">
        <ele>1075.8583268649</ele>
        <time>2015-04-23T14:55:40Z</time>
      </trkpt>
      <trkpt lat="44.72134" lon="3.76338">
        <ele>1075.8583268649</ele>
        <time>2015-04-23T14:55:45Z</time>
      </trkpt>
      <trkpt lat="44.72133" lon="3.76349">
        <ele>1076.7405726549</ele>
        <time>2015-04-23T14:55:50Z</time>
      </trkpt>
      <trkpt lat="44.7213" lon="3.7636">
        <ele>1076.7405726549</ele>
        <time>2015-04-23T14:55:55Z</time>
      </trkpt>
      <trkpt lat="44.72122" lon="3.76374">
        <ele>1077.7297588627</ele>
        <time>2015-04-23T14:56:00Z</time>
      </trkpt>
      <trkpt lat="44.72118" lon="3.76383">
        <ele>1077.7297588627</ele>
        <time>2015-04-23T14:56:05Z</time>
      </trkpt>
      <trkpt lat="44.72118" lon="3.76394">
        <ele>1078.3245261601</ele>
        <time>2015-04-23T14:56:10Z</time>
      </trkpt>
      <trkpt lat="44.7212" lon="3.76402">
        <ele>1078.3245261601</ele>
        <time>2015-04-23T14:56:15Z</time>
      </trkpt>
      <trkpt lat="44.72122" lon="3.76409">
        <ele>1078.2631883539</ele>
        <time>2015-04-23T14:56:20Z</time>
      </trkpt>
      <trkpt lat="44.72122" lon="3.76417">
        <ele>1078.2631883539</ele>
        <time>2015-04-23T14:56:25Z</time>
      </trkpt>
      <trkpt lat="44.72121" lon="3.76426">
        <ele>1078.7318140268</ele>
        <time>2015-04-23T14:56:30Z</time>
      </trkpt>
      <trkpt lat="44.7212" lon="3.76435">
        <ele>1078.7318140268</ele>
        <time>2015-04-23T14:56:35Z</time>
      </trkpt>
      <trkpt lat="44.72119" lon="3.76444">
        <ele>1079.0552868413</ele>
        <time>2015-04-23T14:56:40Z</time>
      </trkpt>
      <trkpt lat="44.72118" lon="3.76453">
        <ele>1079.0552868413</ele>
        <time>2015-04-23T14:56:45Z</time>
      </trkpt>
      <trkpt lat="44.72118" lon="3.76464">
        <ele>1080.0207841246</ele>
        <time>2015-04-23T14:56:50Z</time>
      </trkpt>
      <trkpt lat="44.72119" lon="3.76473">
        <ele>1080.0207841246</ele>
        <time>2015-04-23T14:56:55Z</time>
      </trkpt>
      <trkpt lat="44.72119" lon="3.76482">
        <ele>1080.3094867853</ele>
        <time>2015-04-23T14:57:00Z</time>
      </trkpt>
      <trkpt lat="44.72122" lon="3.76489">
        <ele>1080.3094867853</ele>
        <time>2015-04-23T14:57:05Z</time>
      </trkpt>
      <trkpt lat="44.72124" lon="3.76494">
        <ele>1079.2489887156</ele>
        <time>2015-04-23T14:57:10Z</time>
      </trkpt>
      <trkpt lat="44.72125" lon="3.765">
        <ele>1079.2489887156</ele>
        <time>2015-04-23T14:57:15Z</time>
      </trkpt>
      <trkpt lat="44.72125" lon="3.76509">
        <ele>1077.8773544596</ele>
        <time>2015-04-23T14:57:20Z</time>
      </trkpt>
      <trkpt lat="44.72127" lon="3.76518">
        <ele>1077.8773544596</ele>
        <time>2015-04-23T14:57:25Z</time>
      </trkpt>
      <trkpt lat="44.72128" lon="3.76533">
        <ele>1078.2957566398</ele>
        <time>2015-04-23T14:57:30Z</time>
      </trkpt>
      <trkpt lat="44.72128" lon="3.76546">
        <ele>1078.2811925689</ele>
        <time>2015-04-23T14:57:35Z</time>
      </trkpt>
      <trkpt lat="44.72129" lon="3.76554">
        <ele>1078.2811925689</ele>
        <time>2015-04-23T14:57:40Z</time>
      </trkpt>
      <trkpt lat="44.72131" lon="3.76564">
        <ele>1077.3892261279</ele>
        <time>2015-04-23T14:57:45Z</time>
      </trkpt>
      <trkpt lat="44.72132" lon="3.76573">
        <ele>1077.3892261279</ele>
        <time>2015-04-23T14:57:50Z</time>
      </trkpt>
      <trkpt lat="44.72133" lon="3.7658">
        <ele>1076.5507688308</ele>
        <time>2015-04-23T14:57:55Z</time>
      </trkpt>
      <trkpt lat="44.72132" lon="3.76586">
        <ele>1076.5507688308</ele>
        <time>2015-04-23T14:58:00Z</time>
      </trkpt>
      <trkpt lat="44.72133" lon="3.76594">
        <ele>1074.2647745572</ele>
        <time>2015-04-23T14:58:05Z</time>
      </trkpt>
      <trkpt lat="44.72135" lon="3.76605">
        <ele>1074.2647745572</ele>
        <time>2015-04-23T14:58:10Z</time>
      </trkpt>
      <trkpt lat="44.72137" lon="3.76609">
        <ele>1072.3293727298</ele>
        <time>2015-04-23T14:58:15Z</time>
      </trkpt>
      <trkpt lat="44.72144" lon="3.76624">
        <ele>1070.8387900507</ele>
        <time>2015-04-23T14:58:20Z</time>
      </trkpt>
      <trkpt lat="44.72154" lon="3.76643">
        <ele>1070.0664006723</ele>
        <time>2015-04-23T14:58:25Z</time>
      </trkpt>
      <trkpt lat="44.72165" lon="3.76698">
        <ele>1069.7878807207</ele>
        <time>2015-04-23T14:58:30Z</time>
      </trkpt>
      <trkpt lat="44.72178" lon="3.7674">
        <ele>1070.0245408108</ele>
        <time>2015-04-23T14:58:35Z</time>
      </trkpt>
      <trkpt lat="44.72191" lon="3.76792">
        <ele>1070.5640688064</ele>
        <time>2015-04-23T14:58:40Z</time>
      </trkpt>
      <trkpt lat="44.72197" lon="3.76838">
        <ele>1071.3673936006</ele>
        <time>2015-04-23T14:58:45Z</time>
      </trkpt>
      <trkpt lat="44.72201" lon="3.76868">
        <ele>1073.5360353698</ele>
        <time>2015-04-23T14:58:50Z</time>
      </trkpt>
      <trkpt lat="44.72205" lon="3.7688">
        <ele>1075.9683302131</ele>
        <time>2015-04-23T14:58:55Z</time>
      </trkpt>
      <trkpt lat="44.72209" lon="3.76888">
        <ele>1075.9683302131</ele>
        <time>2015-04-23T14:59:00Z</time>
      </trkpt>
      <trkpt lat="44.72213" lon="3.76897">
        <ele>1078.5651284291</ele>
        <time>2015-04-23T14:59:05Z</time>
      </trkpt>
      <trkpt lat="44.72218" lon="3.76905">
        <ele>1078.5651284291</ele>
        <time>2015-04-23T14:59:10Z</time>
      </trkpt>
      <trkpt lat="44.72223" lon="3.76913">
        <ele>1081.2629595226</ele>
        <time>2015-04-23T14:59:15Z</time>
      </trkpt>
      <trkpt lat="44.72227" lon="3.76921">
        <ele>1081.2629595226</ele>
        <time>2015-04-23T14:59:20Z</time>
      </trkpt>
      <trkpt lat="44.72231" lon="3.7693">
        <ele>1083.988377389</ele>
        <time>2015-04-23T14:59:25Z</time>
      </trkpt>
      <trkpt lat="44.72235" lon="3.76938">
        <ele>1083.988377389</ele>
        <time>2015-04-23T14:59:30Z</time>
      </trkpt>
      <trkpt lat="44.72239" lon="3.76946">
        <ele>1086.0248294032</ele>
        <time>2015-04-23T14:59:35Z</time>
      </trkpt>
      <trkpt lat="44.72242" lon="3.76954">
        <ele>1086.0248294032</ele>
        <time>2015-04-23T14:59:40Z</time>
      </trkpt>
      <trkpt lat="44.72247" lon="3.76958">
        <ele>1087.6903815555</ele>
        <time>2015-04-23T14:59:45Z</time>
      </trkpt>
      <trkpt lat="44.72251" lon="3.76968">
        <ele>1087.6903815555</ele>
        <time>2015-04-23T14:59:50Z</time>
      </trkpt>
      <trkpt lat="44.72255" lon="3.76976">
        <ele>1089.2808809637</ele>
        <time>2015-04-23T14:59:55Z</time>
      </trkpt>
      <trkpt lat="44.72256" lon="3.7698">
        <ele>1089.2808809637</ele>
        <time>2015-04-23T15:00:00Z</time>
      </trkpt>
      <trkpt lat="44.72259" lon="3.76985">
        <ele>1089.2808809637</ele>
        <time>2015-04-23T15:00:05Z</time>
      </trkpt>
      <trkpt lat="44.72263" lon="3.76994">
        <ele>1090.249333053</ele>
        <time>2015-04-23T15:00:10Z</time>
      </trkpt>
      <trkpt lat="44.72267" lon="3.77003">
        <ele>1090.249333053</ele>
        <time>2015-04-23T15:00:15Z</time>
      </trkpt>
      <trkpt lat="44.72272" lon="3.7701">
        <ele>1090.6095884014</ele>
        <time>2015-04-23T15:00:20Z</time>
      </trkpt>
      <trkpt lat="44.72277" lon="3.77019">
        <ele>1090.6095884014</ele>
        <time>2015-04-23T15:00:25Z</time>
      </trkpt>
      <trkpt lat="44.72282" lon="3.77029">
        <ele>1091.0968608433</ele>
        <time>2015-04-23T15:00:30Z</time>
      </trkpt>
      <trkpt lat="44.72285" lon="3.77039">
        <ele>1091.0968608433</ele>
        <time>2015-04-23T15:00:35Z</time>
      </trkpt>
      <trkpt lat="44.72288" lon="3.77051">
        <ele>1091.7724383829</ele>
        <time>2015-04-23T15:00:40Z</time>
      </trkpt>
      <trkpt lat="44.72293" lon="3.7706">
        <ele>1091.7724383829</ele>
        <time>2015-04-23T15:00:45Z</time>
      </trkpt>
      <trkpt lat="44.72298" lon="3.7707">
        <ele>1093.0529708588</ele>
        <time>2015-04-23T15:00:50Z</time>
      </trkpt>
      <trkpt lat="44.72302" lon="3.77081">
        <ele>1093.0529708588</ele>
        <time>2015-04-23T15:00:55Z</time>
      </trkpt>
      <trkpt lat="44.72308" lon="3.77089">
        <ele>1094.2853159895</ele>
        <time>2015-04-23T15:01:00Z</time>
      </trkpt>
      <trkpt lat="44.72313" lon="3.77097">
        <ele>1094.2853159895</ele>
        <time>2015-04-23T15:01:05Z</time>
      </trkpt>
      <trkpt lat="44.72318" lon="3.77106">
        <ele>1095.5562914042</ele>
        <time>2015-04-23T15:01:10Z</time>
      </trkpt>
      <trkpt lat="44.72321" lon="3.77117">
        <ele>1095.5562914042</ele>
        <time>2015-04-23T15:01:15Z</time>
      </trkpt>
      <trkpt lat="44.72325" lon="3.77127">
        <ele>1096.8166409993</ele>
        <time>2015-04-23T15:01:20Z</time>
      </trkpt>
      <trkpt lat="44.72329" lon="3.77139">
        <ele>1096.8166409993</ele>
        <time>2015-04-23T15:01:25Z</time>
      </trkpt>
      <trkpt lat="44.72332" lon="3.77149">
        <ele>1097.9344030958</ele>
        <time>2015-04-23T15:01:30Z</time>
      </trkpt>
      <trkpt lat="44.72336" lon="3.77159">
        <ele>1097.9344030958</ele>
        <time>2015-04-23T15:01:35Z</time>
      </trkpt>
      <trkpt lat="44.72339" lon="3.7717">
        <ele>1098.8598782169</ele>
        <time>2015-04-23T15:01:40Z</time>
      </trkpt>
      <trkpt lat="44.72345" lon="3.77175">
        <ele>1098.8598782169</ele>
        <time>2015-04-23T15:01:45Z</time>
      </trkpt>
      <trkpt lat="44.72351" lon="3.77184">
        <ele>1098.6685888899</ele>
        <time>2015-04-23T15:01:50Z</time>
      </trkpt>
      <trkpt lat="44.72353" lon="3.77195">
        <ele>1098.6685888899</ele>
        <time>2015-04-23T15:01:55Z</time>
      </trkpt>
      <trkpt lat="44.72352" lon="3.77208">
        <ele>1098.6112298497</ele>
        <time>2015-04-23T15:02:00Z</time>
      </trkpt>
      <trkpt lat="44.72351" lon="3.77219">
        <ele>1098.6112298497</ele>
        <time>2015-04-23T15:02:05Z</time>
      </trkpt>
      <trkpt lat="44.7235" lon="3.77229">
        <ele>1098.0593625658</ele>
        <time>2015-04-23T15:02:10Z</time>
      </trkpt>
      <trkpt lat="44.72351" lon="3.77238">
        <ele>1098.0593625658</ele>
        <time>2015-04-23T15:02:15Z</time>
      </trkpt>
      <trkpt lat="44.72353" lon="3.77248">
        <ele>1097.0518628574</ele>
        <time>2015-04-23T15:02:20Z</time>
      </trkpt>
      <trkpt lat="44.72356" lon="3.77256">
        <ele>1097.0518628574</ele>
        <time>2015-04-23T15:02:25Z</time>
      </trkpt>
      <trkpt lat="44.72358" lon="3.77265">
        <ele>1096.0151993214</ele>
        <time>2015-04-23T15:02:30Z</time>
      </trkpt>
      <trkpt lat="44.72363" lon="3.77272">
        <ele>1096.0151993214</ele>
        <time>2015-04-23T15:02:35Z</time>
      </trkpt>
      <trkpt lat="44.72366" lon="3.7728">
        <ele>1094.9267269596</ele>
        <time>2015-04-23T15:02:40Z</time>
      </trkpt>
      <trkpt lat="44.72368" lon="3.77287">
        <ele>1094.9267269596</ele>
        <time>2015-04-23T15:02:45Z</time>
      </trkpt>
      <trkpt lat="44.72372" lon="3.77292">
        <ele>1093.6071261676</ele>
        <time>2015-04-23T15:02:50Z</time>
      </trkpt>
      <trkpt lat="44.72376" lon="3.77298">
        <ele>1093.6071261676</ele>
        <time>2015-04-23T15:02:55Z</time>
      </trkpt>
      <trkpt lat="44.72378" lon="3.77306">
        <ele>1091.962976077</ele>
        <time>2015-04-23T15:03:00Z</time>
      </trkpt>
      <trkpt lat="44.72382" lon="3.77314">
        <ele>1091.962976077</ele>
        <time>2015-04-23T15:03:05Z</time>
      </trkpt>
      <trkpt lat="44.72384" lon="3.77324">
        <ele>1090.067156187</ele>
        <time>2015-04-23T15:03:10Z</time>
      </trkpt>
      <trkpt lat="44.72385" lon="3.77332">
        <ele>1090.067156187</ele>
        <time>2015-04-23T15:03:15Z</time>
      </trkpt>
      <trkpt lat="44.72388" lon="3.77338">
        <ele>1087.7573073991</ele>
        <time>2015-04-23T15:03:20Z</time>
      </trkpt>
      <trkpt lat="44.7239" lon="3.77345">
        <ele>1087.7573073991</ele>
        <time>2015-04-23T15:03:25Z</time>
      </trkpt>
      <trkpt lat="44.72389" lon="3.77354">
        <ele>1085.4749830084</ele>
        <time>2015-04-23T15:03:30Z</time>
      </trkpt>
      <trkpt lat="44.7239" lon="3.77365">
        <ele>1085.4749830084</ele>
        <time>2015-04-23T15:03:35Z</time>
      </trkpt>
      <trkpt lat="44.72393" lon="3.77375">
        <ele>1085.7043774961</ele>
        <time>2015-04-23T15:03:40Z</time>
      </trkpt>
      <trkpt lat="44.72394" lon="3.77384">
        <ele>1085.7043774961</ele>
        <time>2015-04-23T15:03:45Z</time>
      </trkpt>
      <trkpt lat="44.72395" lon="3.77393">
        <ele>1084.9612351604</ele>
        <time>2015-04-23T15:03:50Z</time>
      </trkpt>
      <trkpt lat="44.72398" lon="3.77404">
        <ele>1084.9612351604</ele>
        <time>2015-04-23T15:03:55Z</time>
      </trkpt>
      <trkpt lat="44.72398" lon="3.77419">
        <ele>1083.6082799124</ele>
        <time>2015-04-23T15:04:00Z</time>
      </trkpt>
      <trkpt lat="44.724" lon="3.7743">
        <ele>1083.6082799124</ele>
        <time>2015-04-23T15:04:05Z</time>
      </trkpt>
      <trkpt lat="44.72403" lon="3.77442">
        <ele>1082.2570379412</ele>
        <time>2015-04-23T15:04:10Z</time>
      </trkpt>
      <trkpt lat="44.72405" lon="3.77454">
        <ele>1080.6525948412</ele>
        <time>2015-04-23T15:04:15Z</time>
      </trkpt>
      <trkpt lat="44.72407" lon="3.77467">
        <ele>1079.4240524121</ele>
        <time>2015-04-23T15:04:20Z</time>
      </trkpt>
      <trkpt lat="44.72411" lon="3.7748">
        <ele>1077.9714383715</ele>
        <time>2015-04-23T15:04:25Z</time>
      </trkpt>
      <trkpt lat="44.72414" lon="3.77491">
        <ele>1077.9714383715</ele>
        <time>2015-04-23T15:04:30Z</time>
      </trkpt>
      <trkpt lat="44.72416" lon="3.77503">
        <ele>1076.8922713001</ele>
        <time>2015-04-23T15:04:35Z</time>
      </trkpt>
      <trkpt lat="44.72418" lon="3.77515">
        <ele>1076.8922713001</ele>
        <time>2015-04-23T15:04:40Z</time>
      </trkpt>
      <trkpt lat="44.72421" lon="3.77526">
        <ele>1075.8023006223</ele>
        <time>2015-04-23T15:04:45Z</time>
      </trkpt>
      <trkpt lat="44.72421" lon="3.77537">
        <ele>1075.8023006223</ele>
        <time>2015-04-23T15:04:50Z</time>
      </trkpt>
      <trkpt lat="44.72418" lon="3.77551">
        <ele>1074.5904126797</ele>
        <time>2015-04-23T15:04:55Z</time>
      </trkpt>
      <trkpt lat="44.72416" lon="3.77568">
        <ele>1073.326819533</ele>
        <time>2015-04-23T15:05:00Z</time>
      </trkpt>
      <trkpt lat="44.72417" lon="3.77588">
        <ele>1072.2639512596</ele>
        <time>2015-04-23T15:05:05Z</time>
      </trkpt>
      <trkpt lat="44.72419" lon="3.77599">
        <ele>1072.2639512596</ele>
        <time>2015-04-23T15:05:10Z</time>
      </trkpt>
      <trkpt lat="44.72423" lon="3.7761">
        <ele>1071.6782504593</ele>
        <time>2015-04-23T15:05:15Z</time>
      </trkpt>
      <trkpt lat="44.72426" lon="3.77619">
        <ele>1071.6782504593</ele>
        <time>2015-04-23T15:05:20Z</time>
      </trkpt>
      <trkpt lat="44.72429" lon="3.77629">
        <ele>1071.2335445324</ele>
        <time>2015-04-23T15:05:25Z</time>
      </trkpt>
      <trkpt lat="44.72433" lon="3.77638">
        <ele>1071.2335445324</ele>
        <time>2015-04-23T15:05:30Z</time>
      </trkpt>
      <trkpt lat="44.72437" lon="3.77647">
        <ele>1070.4737378022</ele>
        <time>2015-04-23T15:05:35Z</time>
      </trkpt>
      <trkpt lat="44.7244" lon="3.77656">
        <ele>1070.4737378022</ele>
        <time>2015-04-23T15:05:40Z</time>
      </trkpt>
      <trkpt lat="44.72445" lon="3.77665">
        <ele>1069.7119819484</ele>
        <time>2015-04-23T15:05:45Z</time>
      </trkpt>
      <trkpt lat="44.7245" lon="3.77672">
        <ele>1069.7119819484</ele>
        <time>2015-04-23T15:05:50Z</time>
      </trkpt>
      <trkpt lat="44.72454" lon="3.7768">
        <ele>1069.0798037642</ele>
        <time>2015-04-23T15:05:55Z</time>
      </trkpt>
      <trkpt lat="44.72459" lon="3.77688">
        <ele>1069.0798037642</ele>
        <time>2015-04-23T15:06:00Z</time>
      </trkpt>
      <trkpt lat="44.72465" lon="3.77699">
        <ele>1068.3239149569</ele>
        <time>2015-04-23T15:06:05Z</time>
      </trkpt>
      <trkpt lat="44.72474" lon="3.77714">
        <ele>1067.5269276871</ele>
        <time>2015-04-23T15:06:10Z</time>
      </trkpt>
      <trkpt lat="44.72487" lon="3.77713">
        <ele>1066.8230509371</ele>
        <time>2015-04-23T15:06:15Z</time>
      </trkpt>
      <trkpt lat="44.72493" lon="3.77709">
        <ele>1066.8230509371</ele>
        <time>2015-04-23T15:06:20Z</time>
      </trkpt>
      <trkpt lat="44.72498" lon="3.7771">
        <ele>1065.9615932433</ele>
        <time>2015-04-23T15:06:25Z</time>
      </trkpt>
      <trkpt lat="44.72504" lon="3.77717">
        <ele>1065.9615932433</ele>
        <time>2015-04-23T15:06:30Z</time>
      </trkpt>
      <trkpt lat="44.72509" lon="3.77726">
        <ele>1065.3447218897</ele>
        <time>2015-04-23T15:06:35Z</time>
      </trkpt>
      <trkpt lat="44.72512" lon="3.77735">
        <ele>1065.3447218897</ele>
        <time>2015-04-23T15:06:40Z</time>
      </trkpt>
      <trkpt lat="44.72517" lon="3.7775">
        <ele>1064.8831348538</ele>
        <time>2015-04-23T15:06:45Z</time>
      </trkpt>
      <trkpt lat="44.7252" lon="3.7777">
        <ele>1064.6520969213</ele>
        <time>2015-04-23T15:06:50Z</time>
      </trkpt>
      <trkpt lat="44.72521" lon="3.7778">
        <ele>1064.6520969213</ele>
        <time>2015-04-23T15:06:55Z</time>
      </trkpt>
      <trkpt lat="44.72522" lon="3.77791">
        <ele>1064.4468114411</ele>
        <time>2015-04-23T15:07:00Z</time>
      </trkpt>
      <trkpt lat="44.72525" lon="3.77804">
        <ele>1064.3656080973</ele>
        <time>2015-04-23T15:07:05Z</time>
      </trkpt>
      <trkpt lat="44.72534" lon="3.77819">
        <ele>1064.3838956433</ele>
        <time>2015-04-23T15:07:10Z</time>
      </trkpt>
      <trkpt lat="44.72543" lon="3.77832">
        <ele>1064.3920905081</ele>
        <time>2015-04-23T15:07:15Z</time>
      </trkpt>
      <trkpt lat="44.72554" lon="3.77842">
        <ele>1064.1877639454</ele>
        <time>2015-04-23T15:07:20Z</time>
      </trkpt>
      <trkpt lat="44.72564" lon="3.77848">
        <ele>1064.0162486346</ele>
        <time>2015-04-23T15:07:25Z</time>
      </trkpt>
      <trkpt lat="44.72569" lon="3.77853">
        <ele>1064.0162486346</ele>
        <time>2015-04-23T15:07:30Z</time>
      </trkpt>
      <trkpt lat="44.72575" lon="3.7786">
        <ele>1063.9462089124</ele>
        <time>2015-04-23T15:07:35Z</time>
      </trkpt>
      <trkpt lat="44.72581" lon="3.77866">
        <ele>1063.9462089124</ele>
        <time>2015-04-23T15:07:40Z</time>
      </trkpt>
      <trkpt lat="44.72588" lon="3.77872">
        <ele>1064.1418325655</ele>
        <time>2015-04-23T15:07:45Z</time>
      </trkpt>
      <trkpt lat="44.72594" lon="3.77879">
        <ele>1064.1418325655</ele>
        <time>2015-04-23T15:07:50Z</time>
      </trkpt>
      <trkpt lat="44.726" lon="3.77886">
        <ele>1064.2068589597</ele>
        <time>2015-04-23T15:07:55Z</time>
      </trkpt>
      <trkpt lat="44.72607" lon="3.77891">
        <ele>1064.2068589597</ele>
        <time>2015-04-23T15:08:00Z</time>
      </trkpt>
      <trkpt lat="44.72613" lon="3.77895">
        <ele>1064.0338892835</ele>
        <time>2015-04-23T15:08:05Z</time>
      </trkpt>
      <trkpt lat="44.72619" lon="3.77902">
        <ele>1064.0338892835</ele>
        <time>2015-04-23T15:08:10Z</time>
      </trkpt>
      <trkpt lat="44.72625" lon="3.77906">
        <ele>1064.0140518907</ele>
        <time>2015-04-23T15:08:15Z</time>
      </trkpt>
      <trkpt lat="44.72631" lon="3.77913">
        <ele>1064.0140518907</ele>
        <time>2015-04-23T15:08:20Z</time>
      </trkpt>
      <trkpt lat="44.72637" lon="3.77918">
        <ele>1064.2355000028</ele>
        <time>2015-04-23T15:08:25Z</time>
      </trkpt>
      <trkpt lat="44.72644" lon="3.77922">
        <ele>1064.2355000028</ele>
        <time>2015-04-23T15:08:30Z</time>
      </trkpt>
      <trkpt lat="44.7265" lon="3.77927">
        <ele>1064.6207151982</ele>
        <time>2015-04-23T15:08:35Z</time>
      </trkpt>
      <trkpt lat="44.72657" lon="3.7793">
        <ele>1064.6207151982</ele>
        <time>2015-04-23T15:08:40Z</time>
      </trkpt>
      <trkpt lat="44.72664" lon="3.77934">
        <ele>1065.1118343476</ele>
        <time>2015-04-23T15:08:45Z</time>
      </trkpt>
      <trkpt lat="44.72671" lon="3.77939">
        <ele>1065.1118343476</ele>
        <time>2015-04-23T15:08:50Z</time>
      </trkpt>
      <trkpt lat="44.72678" lon="3.77942">
        <ele>1065.179395988</ele>
        <time>2015-04-23T15:08:55Z</time>
      </trkpt>
      <trkpt lat="44.72685" lon="3.77949">
        <ele>1065.179395988</ele>
        <time>2015-04-23T15:09:00Z</time>
      </trkpt>
      <trkpt lat="44.72691" lon="3.77955">
        <ele>1065.4436978217</ele>
        <time>2015-04-23T15:09:05Z</time>
      </trkpt>
      <trkpt lat="44.72697" lon="3.77963">
        <ele>1065.4436978217</ele>
        <time>2015-04-23T15:09:10Z</time>
      </trkpt>
      <trkpt lat="44.72703" lon="3.77971">
        <ele>1065.7295672926</ele>
        <time>2015-04-23T15:09:15Z</time>
      </trkpt>
      <trkpt lat="44.72709" lon="3.77978">
        <ele>1065.7295672926</ele>
        <time>2015-04-23T15:09:20Z</time>
      </trkpt>
      <trkpt lat="44.72715" lon="3.77986">
        <ele>1066.1484819066</ele>
        <time>2015-04-23T15:09:25Z</time>
      </trkpt>
      <trkpt lat="44.72721" lon="3.77994">
        <ele>1066.1484819066</ele>
        <time>2015-04-23T15:09:30Z</time>
      </trkpt>
      <trkpt lat="44.72728" lon="3.78001">
        <ele>1066.4287032938</ele>
        <time>2015-04-23T15:09:35Z</time>
      </trkpt>
      <trkpt lat="44.72734" lon="3.78009">
        <ele>1066.4287032938</ele>
        <time>2015-04-23T15:09:40Z</time>
      </trkpt>
      <trkpt lat="44.72739" lon="3.78018">
        <ele>1066.7368059468</ele>
        <time>2015-04-23T15:09:45Z</time>
      </trkpt>
      <trkpt lat="44.72745" lon="3.78024">
        <ele>1066.7368059468</ele>
        <time>2015-04-23T15:09:50Z</time>
      </trkpt>
      <trkpt lat="44.72751" lon="3.78031">
        <ele>1067.4000271699</ele>
        <time>2015-04-23T15:09:55Z</time>
      </trkpt>
      <trkpt lat="44.72757" lon="3.7804">
        <ele>1067.4000271699</ele>
        <time>2015-04-23T15:10:00Z</time>
      </trkpt>
      <trkpt lat="44.72761" lon="3.78047">
        <ele>1068.1441733548</ele>
        <time>2015-04-23T15:10:05Z</time>
      </trkpt>
      <trkpt lat="44.72765" lon="3.78056">
        <ele>1068.1441733548</ele>
        <time>2015-04-23T15:10:10Z</time>
      </trkpt>
      <trkpt lat="44.72769" lon="3.78065">
        <ele>1068.9023638909</ele>
        <time>2015-04-23T15:10:15Z</time>
      </trkpt>
      <trkpt lat="44.72773" lon="3.78073">
        <ele>1068.9023638909</ele>
        <time>2015-04-23T15:10:20Z</time>
      </trkpt>
      <trkpt lat="44.72777" lon="3.78082">
        <ele>1069.5838279901</ele>
        <time>2015-04-23T15:10:25Z</time>
      </trkpt>
      <trkpt lat="44.7278" lon="3.7809">
        <ele>1069.5838279901</ele>
        <time>2015-04-23T15:10:30Z</time>
      </trkpt>
      <trkpt lat="44.72784" lon="3.78099">
        <ele>1070.2632638491</ele>
        <time>2015-04-23T15:10:35Z</time>
      </trkpt>
      <trkpt lat="44.72788" lon="3.78108">
        <ele>1070.2632638491</ele>
        <time>2015-04-23T15:10:40Z</time>
      </trkpt>
      <trkpt lat="44.72793" lon="3.78117">
        <ele>1070.9955449869</ele>
        <time>2015-04-23T15:10:45Z</time>
      </trkpt>
      <trkpt lat="44.72799" lon="3.78125">
        <ele>1070.9955449869</ele>
        <time>2015-04-23T15:10:50Z</time>
      </trkpt>
      <trkpt lat="44.72804" lon="3.78133">
        <ele>1071.6296818525</ele>
        <time>2015-04-23T15:10:55Z</time>
      </trkpt>
      <trkpt lat="44.72809" lon="3.78138">
        <ele>1071.6296818525</ele>
        <time>2015-04-23T15:11:00Z</time>
      </trkpt>
      <trkpt lat="44.72815" lon="3.78144">
        <ele>1071.9973040285</ele>
        <time>2015-04-23T15:11:05Z</time>
      </trkpt>
      <trkpt lat="44.72821" lon="3.7815">
        <ele>1071.9973040285</ele>
        <time>2015-04-23T15:11:10Z</time>
      </trkpt>
      <trkpt lat="44.72828" lon="3.78156">
        <ele>1072.2314554517</ele>
        <time>2015-04-23T15:11:15Z</time>
      </trkpt>
      <trkpt lat="44.72834" lon="3.78162">
        <ele>1072.2314554517</ele>
        <time>2015-04-23T15:11:20Z</time>
      </trkpt>
      <trkpt lat="44.72839" lon="3.78169">
        <ele>1072.5279131613</ele>
        <time>2015-04-23T15:11:25Z</time>
      </trkpt>
      <trkpt lat="44.72844" lon="3.78176">
        <ele>1072.5279131613</ele>
        <time>2015-04-23T15:11:30Z</time>
      </trkpt>
      <trkpt lat="44.72849" lon="3.78183">
        <ele>1072.6932842321</ele>
        <time>2015-04-23T15:11:35Z</time>
      </trkpt>
      <trkpt lat="44.72854" lon="3.78191">
        <ele>1072.6932842321</ele>
        <time>2015-04-23T15:11:40Z</time>
      </trkpt>
      <trkpt lat="44.72859" lon="3.78199">
        <ele>1072.8802795115</ele>
        <time>2015-04-23T15:11:45Z</time>
      </trkpt>
      <trkpt lat="44.72864" lon="3.78208">
        <ele>1072.8802795115</ele>
        <time>2015-04-23T15:11:50Z</time>
      </trkpt>
      <trkpt lat="44.72869" lon="3.78217">
        <ele>1073.1007028748</ele>
        <time>2015-04-23T15:11:55Z</time>
      </trkpt>
      <trkpt lat="44.72874" lon="3.78226">
        <ele>1073.1007028748</ele>
        <time>2015-04-23T15:12:00Z</time>
      </trkpt>
      <trkpt lat="44.72878" lon="3.78234">
        <ele>1073.1204775903</ele>
        <time>2015-04-23T15:12:05Z</time>
      </trkpt>
      <trkpt lat="44.72884" lon="3.78242">
        <ele>1073.1204775903</ele>
        <time>2015-04-23T15:12:10Z</time>
      </trkpt>
      <trkpt lat="44.72889" lon="3.7825">
        <ele>1073.0548068527</ele>
        <time>2015-04-23T15:12:15Z</time>
      </trkpt>
      <trkpt lat="44.72894" lon="3.7826">
        <ele>1073.0548068527</ele>
        <time>2015-04-23T15:12:20Z</time>
      </trkpt>
      <trkpt lat="44.72898" lon="3.78269">
        <ele>1072.9530890607</ele>
        <time>2015-04-23T15:12:25Z</time>
      </trkpt>
      <trkpt lat="44.72902" lon="3.78278">
        <ele>1072.9530890607</ele>
        <time>2015-04-23T15:12:30Z</time>
      </trkpt>
      <trkpt lat="44.72906" lon="3.78288">
        <ele>1072.6883200079</ele>
        <time>2015-04-23T15:12:35Z</time>
      </trkpt>
      <trkpt lat="44.7291" lon="3.78297">
        <ele>1072.6883200079</ele>
        <time>2015-04-23T15:12:40Z</time>
      </trkpt>
      <trkpt lat="44.72914" lon="3.78307">
        <ele>1072.4892030448</ele>
        <time>2015-04-23T15:12:45Z</time>
      </trkpt>
      <trkpt lat="44.72918" lon="3.78317">
        <ele>1072.4892030448</ele>
        <time>2015-04-23T15:12:50Z</time>
      </trkpt>
      <trkpt lat="44.72922" lon="3.78326">
        <ele>1072.3369278577</ele>
        <time>2015-04-23T15:12:55Z</time>
      </trkpt>
      <trkpt lat="44.72926" lon="3.78335">
        <ele>1072.3369278577</ele>
        <time>2015-04-23T15:13:00Z</time>
      </trkpt>
      <trkpt lat="44.72931" lon="3.78343">
        <ele>1072.1419227979</ele>
        <time>2015-04-23T15:13:05Z</time>
      </trkpt>
      <trkpt lat="44.72936" lon="3.78351">
        <ele>1072.1419227979</ele>
        <time>2015-04-23T15:13:10Z</time>
      </trkpt>
      <trkpt lat="44.72941" lon="3.78358">
        <ele>1071.74929916</ele>
        <time>2015-04-23T15:13:15Z</time>
      </trkpt>
      <trkpt lat="44.72946" lon="3.78367">
        <ele>1071.74929916</ele>
        <time>2015-04-23T15:13:20Z</time>
      </trkpt>
      <trkpt lat="44.72951" lon="3.78376">
        <ele>1071.3620012522</ele>
        <time>2015-04-23T15:13:25Z</time>
      </trkpt>
      <trkpt lat="44.72957" lon="3.78392">
        <ele>1070.8798564595</ele>
        <time>2015-04-23T15:13:30Z</time>
      </trkpt>
      <trkpt lat="44.72962" lon="3.78416">
        <ele>1070.5706180645</ele>
        <time>2015-04-23T15:13:35Z</time>
      </trkpt>
      <trkpt lat="44.72964" lon="3.78434">
        <ele>1070.2495699375</ele>
        <time>2015-04-23T15:13:40Z</time>
      </trkpt>
      <trkpt lat="44.72965" lon="3.78444">
        <ele>1070.2495699375</ele>
        <time>2015-04-23T15:13:45Z</time>
      </trkpt>
      <trkpt lat="44.72966" lon="3.78455">
        <ele>1070.0770676467</ele>
        <time>2015-04-23T15:13:50Z</time>
      </trkpt>
      <trkpt lat="44.72966" lon="3.78465">
        <ele>1070.0770676467</ele>
        <time>2015-04-23T15:13:55Z</time>
      </trkpt>
      <trkpt lat="44.72967" lon="3.78474">
        <ele>1069.8698247148</ele>
        <time>2015-04-23T15:14:00Z</time>
      </trkpt>
      <trkpt lat="44.72967" lon="3.78483">
        <ele>1069.8698247148</ele>
        <time>2015-04-23T15:14:05Z</time>
      </trkpt>
      <trkpt lat="44.72967" lon="3.78493">
        <ele>1069.3716559698</ele>
        <time>2015-04-23T15:14:10Z</time>
      </trkpt>
      <trkpt lat="44.72966" lon="3.78502">
        <ele>1069.3716559698</ele>
        <time>2015-04-23T15:14:15Z</time>
      </trkpt>
      <trkpt lat="44.72967" lon="3.78511">
        <ele>1068.7927590134</ele>
        <time>2015-04-23T15:14:20Z</time>
      </trkpt>
      <trkpt lat="44.72968" lon="3.78518">
        <ele>1068.7927590134</ele>
        <time>2015-04-23T15:14:25Z</time>
      </trkpt>
      <trkpt lat="44.7297" lon="3.78527">
        <ele>1067.9822486062</ele>
        <time>2015-04-23T15:14:30Z</time>
      </trkpt>
      <trkpt lat="44.72975" lon="3.78526">
        <ele>1067.9822486062</ele>
        <time>2015-04-23T15:14:35Z</time>
      </trkpt>
      <trkpt lat="44.72979" lon="3.78521">
        <ele>1067.0315442043</ele>
        <time>2015-04-23T15:14:40Z</time>
      </trkpt>
      <trkpt lat="44.72984" lon="3.78515">
        <ele>1067.0315442043</ele>
        <time>2015-04-23T15:14:45Z</time>
      </trkpt>
      <trkpt lat="44.72989" lon="3.78509">
        <ele>1066.6309977954</ele>
        <time>2015-04-23T15:14:50Z</time>
      </trkpt>
      <trkpt lat="44.72994" lon="3.78503">
        <ele>1066.6309977954</ele>
        <time>2015-04-23T15:14:55Z</time>
      </trkpt>
      <trkpt lat="44.72999" lon="3.78497">
        <ele>1065.6317087541</ele>
        <time>2015-04-23T15:15:00Z</time>
      </trkpt>
      <trkpt lat="44.73004" lon="3.78491">
        <ele>1065.6317087541</ele>
        <time>2015-04-23T15:15:05Z</time>
      </trkpt>
      <trkpt lat="44.7301" lon="3.78486">
        <ele>1064.6425196069</ele>
        <time>2015-04-23T15:15:10Z</time>
      </trkpt>
      <trkpt lat="44.73017" lon="3.78482">
        <ele>1064.6425196069</ele>
        <time>2015-04-23T15:15:15Z</time>
      </trkpt>
      <trkpt lat="44.73024" lon="3.78478">
        <ele>1063.564578758</ele>
        <time>2015-04-23T15:15:20Z</time>
      </trkpt>
      <trkpt lat="44.73031" lon="3.78478">
        <ele>1063.564578758</ele>
        <time>2015-04-23T15:15:25Z</time>
      </trkpt>
      <trkpt lat="44.73039" lon="3.78474">
        <ele>1062.8397222431</ele>
        <time>2015-04-23T15:15:30Z</time>
      </trkpt>
      <trkpt lat="44.73046" lon="3.78467">
        <ele>1062.8397222431</ele>
        <time>2015-04-23T15:15:35Z</time>
      </trkpt>
      <trkpt lat="44.73051" lon="3.78459">
        <ele>1061.7954649895</ele>
        <time>2015-04-23T15:15:40Z</time>
      </trkpt>
      <trkpt lat="44.73056" lon="3.78452">
        <ele>1061.7954649895</ele>
        <time>2015-04-23T15:15:45Z</time>
      </trkpt>
      <trkpt lat="44.73063" lon="3.78446">
        <ele>1060.6886515461</ele>
        <time>2015-04-23T15:15:50Z</time>
      </trkpt>
      <trkpt lat="44.7307" lon="3.78443">
        <ele>1060.6886515461</ele>
        <time>2015-04-23T15:15:55Z</time>
      </trkpt>
      <trkpt lat="44.73074" lon="3.7844">
        <ele>1059.3250508244</ele>
        <time>2015-04-23T15:16:00Z</time>
      </trkpt>
      <trkpt lat="44.73079" lon="3.78439">
        <ele>1059.3250508244</ele>
        <time>2015-04-23T15:16:05Z</time>
      </trkpt>
      <trkpt lat="44.73086" lon="3.78437">
        <ele>1057.8135870997</ele>
        <time>2015-04-23T15:16:10Z</time>
      </trkpt>
      <trkpt lat="44.73093" lon="3.78435">
        <ele>1057.8135870997</ele>
        <time>2015-04-23T15:16:15Z</time>
      </trkpt>
      <trkpt lat="44.73094" lon="3.78435">
        <ele>1057.8135870997</ele>
        <time>2015-04-23T15:16:20Z</time>
      </trkpt>
      <trkpt lat="44.731" lon="3.78435">
        <ele>1055.5061568899</ele>
        <time>2015-04-23T15:16:25Z</time>
      </trkpt>
      <trkpt lat="44.73109" lon="3.78436">
        <ele>1053.3175946652</ele>
        <time>2015-04-23T15:16:30Z</time>
      </trkpt>
      <trkpt lat="44.73118" lon="3.78438">
        <ele>1051.014282974</ele>
        <time>2015-04-23T15:16:35Z</time>
      </trkpt>
      <trkpt lat="44.73129" lon="3.7844">
        <ele>1049.2014299816</ele>
        <time>2015-04-23T15:16:40Z</time>
      </trkpt>
      <trkpt lat="44.73139" lon="3.78441">
        <ele>1048.0203878869</ele>
        <time>2015-04-23T15:16:45Z</time>
      </trkpt>
      <trkpt lat="44.73147" lon="3.78443">
        <ele>1048.0203878869</ele>
        <time>2015-04-23T15:16:50Z</time>
      </trkpt>
      <trkpt lat="44.73155" lon="3.78445">
        <ele>1047.1679150132</ele>
        <time>2015-04-23T15:16:55Z</time>
      </trkpt>
      <trkpt lat="44.73163" lon="3.78448">
        <ele>1047.1679150132</ele>
        <time>2015-04-23T15:17:00Z</time>
      </trkpt>
      <trkpt lat="44.73169" lon="3.7845">
        <ele>1046.6646520533</ele>
        <time>2015-04-23T15:17:05Z</time>
      </trkpt>
      <trkpt lat="44.73176" lon="3.78452">
        <ele>1046.6646520533</ele>
        <time>2015-04-23T15:17:10Z</time>
      </trkpt>
      <trkpt lat="44.73181" lon="3.78451">
        <ele>1045.4478059927</ele>
        <time>2015-04-23T15:17:15Z</time>
      </trkpt>
      <trkpt lat="44.7318" lon="3.78449">
        <ele>1045.4478059927</ele>
        <time>2015-04-23T15:17:20Z</time>
      </trkpt>
      <trkpt lat="44.73181" lon="3.78448">
        <ele>1045.4478059927</ele>
        <time>2015-04-23T15:17:25Z</time>
      </trkpt>
      <trkpt lat="44.73182" lon="3.78448">
        <ele>1045.4478059927</ele>
        <time>2015-04-23T15:17:30Z</time>
      </trkpt>
      <trkpt lat="44.73182" lon="3.78448">
        <ele>1045.4478059927</ele>
        <time>2015-04-23T15:17:35Z</time>
      </trkpt>
      <trkpt lat="44.73182" lon="3.78448">
        <ele>1045.4478059927</ele>
        <time>2015-04-23T15:17:40Z</time>
      </trkpt>
      <trkpt lat="44.73182" lon="3.78448">
        <ele>1045.4478059927</ele>
        <time>2015-04-23T15:17:45Z</time>
      </trkpt>
      <trkpt lat="44.73182" lon="3.78448">
        <ele>1045.4478059927</ele>
        <time>2015-04-23T15:17:50Z</time>
      </trkpt>
      <trkpt lat="44.73182" lon="3.78448">
        <ele>1045.4478059927</ele>
        <time>2015-04-23T15:17:55Z</time>
      </trkpt>
      <trkpt lat="44.73182" lon="3.78448">
        <ele>1045.4478059927</ele>
        <time>2015-04-23T15:18:00Z</time>
      </trkpt>
      <trkpt lat="44.73182" lon="3.78447">
        <ele>1045.4478059927</ele>
        <time>2015-04-23T15:18:05Z</time>
      </trkpt>
      <trkpt lat="44.73181" lon="3.78449">
        <ele>1045.4478059927</ele>
        <time>2015-04-23T15:18:10Z</time>
      </trkpt>
      <trkpt lat="44.73182" lon="3.78444">
        <ele>1045.4478059927</ele>
        <time>2015-04-23T15:18:15Z</time>
      </trkpt>
      <trkpt lat="44.73181" lon="3.78434">
        <ele>1044.0044899427</ele>
        <time>2015-04-23T15:18:20Z</time>
      </trkpt>
      <trkpt lat="44.73181" lon="3.78424">
        <ele>1044.0044899427</ele>
        <time>2015-04-23T15:18:25Z</time>
      </trkpt>
      <trkpt lat="44.73181" lon="3.78415">
        <ele>1042.4983469456</ele>
        <time>2015-04-23T15:18:30Z</time>
      </trkpt>
      <trkpt lat="44.73182" lon="3.78406">
        <ele>1042.4983469456</ele>
        <time>2015-04-23T15:18:35Z</time>
      </trkpt>
      <trkpt lat="44.73181" lon="3.78397">
        <ele>1040.9657865812</ele>
        <time>2015-04-23T15:18:40Z</time>
      </trkpt>
      <trkpt lat="44.73181" lon="3.78387">
        <ele>1040.9657865812</ele>
        <time>2015-04-23T15:18:45Z</time>
      </trkpt>
      <trkpt lat="44.73181" lon="3.78378">
        <ele>1039.6422732942</ele>
        <time>2015-04-23T15:18:50Z</time>
      </trkpt>
      <trkpt lat="44.73179" lon="3.7837">
        <ele>1039.6422732942</ele>
        <time>2015-04-23T15:18:55Z</time>
      </trkpt>
      <trkpt lat="44.73177" lon="3.7836">
        <ele>1038.1688423809</ele>
        <time>2015-04-23T15:19:00Z</time>
      </trkpt>
      <trkpt lat="44.73176" lon="3.78351">
        <ele>1038.1688423809</ele>
        <time>2015-04-23T15:19:05Z</time>
      </trkpt>
      <trkpt lat="44.73176" lon="3.7834">
        <ele>1036.9193629159</ele>
        <time>2015-04-23T15:19:10Z</time>
      </trkpt>
      <trkpt lat="44.73176" lon="3.7833">
        <ele>1036.9193629159</ele>
        <time>2015-04-23T15:19:15Z</time>
      </trkpt>
      <trkpt lat="44.73177" lon="3.7832">
        <ele>1035.9224673521</ele>
        <time>2015-04-23T15:19:20Z</time>
      </trkpt>
      <trkpt lat="44.73179" lon="3.78309">
        <ele>1035.9224673521</ele>
        <time>2015-04-23T15:19:25Z</time>
      </trkpt>
      <trkpt lat="44.73181" lon="3.78299">
        <ele>1034.9156565206</ele>
        <time>2015-04-23T15:19:30Z</time>
      </trkpt>
      <trkpt lat="44.73185" lon="3.78291">
        <ele>1034.9156565206</ele>
        <time>2015-04-23T15:19:35Z</time>
      </trkpt>
      <trkpt lat="44.73189" lon="3.78283">
        <ele>1034.0303370371</ele>
        <time>2015-04-23T15:19:40Z</time>
      </trkpt>
      <trkpt lat="44.73193" lon="3.78276">
        <ele>1034.0303370371</ele>
        <time>2015-04-23T15:19:45Z</time>
      </trkpt>
      <trkpt lat="44.73195" lon="3.78271">
        <ele>1033.5031213829</ele>
        <time>2015-04-23T15:19:50Z</time>
      </trkpt>
      <trkpt lat="44.73197" lon="3.78263">
        <ele>1033.5031213829</ele>
        <time>2015-04-23T15:19:55Z</time>
      </trkpt>
      <trkpt lat="44.73197" lon="3.78254">
        <ele>1032.5001403522</ele>
        <time>2015-04-23T15:20:00Z</time>
      </trkpt>
      <trkpt lat="44.73197" lon="3.78244">
        <ele>1032.5001403522</ele>
        <time>2015-04-23T15:20:05Z</time>
      </trkpt>
      <trkpt lat="44.73198" lon="3.78234">
        <ele>1031.8064371311</ele>
        <time>2015-04-23T15:20:10Z</time>
      </trkpt>
      <trkpt lat="44.732" lon="3.78224">
        <ele>1031.8064371311</ele>
        <time>2015-04-23T15:20:15Z</time>
      </trkpt>
      <trkpt lat="44.73202" lon="3.78214">
        <ele>1031.6728800684</ele>
        <time>2015-04-23T15:20:20Z</time>
      </trkpt>
      <trkpt lat="44.73203" lon="3.78204">
        <ele>1031.6728800684</ele>
        <time>2015-04-23T15:20:25Z</time>
      </trkpt>
      <trkpt lat="44.73203" lon="3.78193">
        <ele>1031.6817734005</ele>
        <time>2015-04-23T15:20:30Z</time>
      </trkpt>
      <trkpt lat="44.73202" lon="3.78183">
        <ele>1031.6817734005</ele>
        <time>2015-04-23T15:20:35Z</time>
      </trkpt>
      <trkpt lat="44.73202" lon="3.78173">
        <ele>1031.7771060559</ele>
        <time>2015-04-23T15:20:40Z</time>
      </trkpt>
      <trkpt lat="44.732" lon="3.78163">
        <ele>1031.7771060559</ele>
        <time>2015-04-23T15:20:45Z</time>
      </trkpt>
      <trkpt lat="44.73199" lon="3.78154">
        <ele>1031.8922830997</ele>
        <time>2015-04-23T15:20:50Z</time>
      </trkpt>
      <trkpt lat="44.73201" lon="3.78145">
        <ele>1031.8922830997</ele>
        <time>2015-04-23T15:20:55Z</time>
      </trkpt>
      <trkpt lat="44.73204" lon="3.78137">
        <ele>1032.4843130456</ele>
        <time>2015-04-23T15:21:00Z</time>
      </trkpt>
      <trkpt lat="44.73208" lon="3.78129">
        <ele>1032.4843130456</ele>
        <time>2015-04-23T15:21:05Z</time>
      </trkpt>
      <trkpt lat="44.73212" lon="3.78121">
        <ele>1033.5573524133</ele>
        <time>2015-04-23T15:21:10Z</time>
      </trkpt>
      <trkpt lat="44.73218" lon="3.78117">
        <ele>1033.5573524133</ele>
        <time>2015-04-23T15:21:15Z</time>
      </trkpt>
      <trkpt lat="44.73224" lon="3.78118">
        <ele>1034.6671517941</ele>
        <time>2015-04-23T15:21:20Z</time>
      </trkpt>
      <trkpt lat="44.7323" lon="3.78121">
        <ele>1034.6671517941</ele>
        <time>2015-04-23T15:21:25Z</time>
      </trkpt>
      <trkpt lat="44.73233" lon="3.78118">
        <ele>1035.73345667</ele>
        <time>2015-04-23T15:21:30Z</time>
      </trkpt>
      <trkpt lat="44.73233" lon="3.78118">
        <ele>1035.73345667</ele>
        <time>2015-04-23T15:21:35Z</time>
      </trkpt>
      <trkpt lat="44.73238" lon="3.78114">
        <ele>1035.73345667</ele>
        <time>2015-04-23T15:21:40Z</time>
      </trkpt>
      <trkpt lat="44.73245" lon="3.78115">
        <ele>1035.5147504513</ele>
        <time>2015-04-23T15:21:45Z</time>
      </trkpt>
      <trkpt lat="44.7325" lon="3.78121">
        <ele>1035.5147504513</ele>
        <time>2015-04-23T15:21:50Z</time>
      </trkpt>
      <trkpt lat="44.73249" lon="3.78127">
        <ele>1035.8186339469</ele>
        <time>2015-04-23T15:21:55Z</time>
      </trkpt>
      <trkpt lat="44.73248" lon="3.78127">
        <ele>1035.8186339469</ele>
        <time>2015-04-23T15:22:00Z</time>
      </trkpt>
      <trkpt lat="44.73247" lon="3.78128">
        <ele>1035.8186339469</ele>
        <time>2015-04-23T15:22:05Z</time>
      </trkpt>
      <trkpt lat="44.73247" lon="3.78128">
        <ele>1035.8186339469</ele>
        <time>2015-04-23T15:22:10Z</time>
      </trkpt>
      <trkpt lat="44.73247" lon="3.78127">
        <ele>1035.8186339469</ele>
        <time>2015-04-23T15:22:15Z</time>
      </trkpt>
      <trkpt lat="44.73248" lon="3.78127">
        <ele>1035.8186339469</ele>
        <time>2015-04-23T15:22:20Z</time>
      </trkpt>
      <trkpt lat="44.73248" lon="3.78126">
        <ele>1035.8186339469</ele>
        <time>2015-04-23T15:22:25Z</time>
      </trkpt>
      <trkpt lat="44.73248" lon="3.78126">
        <ele>1035.8186339469</ele>
        <time>2015-04-23T15:22:30Z</time>
      </trkpt>
      <trkpt lat="44.73248" lon="3.78126">
        <ele>1035.8186339469</ele>
        <time>2015-04-23T15:22:35Z</time>
      </trkpt>
      <trkpt lat="44.73248" lon="3.78128">
        <ele>1035.8186339469</ele>
        <time>2015-04-23T15:22:40Z</time>
      </trkpt>
      <trkpt lat="44.73248" lon="3.78129">
        <ele>1035.8186339469</ele>
        <time>2015-04-23T15:22:45Z</time>
      </trkpt>
      <trkpt lat="44.73248" lon="3.78129">
        <ele>1035.8186339469</ele>
        <time>2015-04-23T15:22:50Z</time>
      </trkpt>
      <trkpt lat="44.73248" lon="3.78129">
        <ele>1035.8186339469</ele>
        <time>2015-04-23T15:22:55Z</time>
      </trkpt>
      <trkpt lat="44.73249" lon="3.7813">
        <ele>1035.8186339469</ele>
        <time>2015-04-23T15:23:00Z</time>
      </trkpt>
      <trkpt lat="44.73248" lon="3.78131">
        <ele>1035.8186339469</ele>
        <time>2015-04-23T15:23:05Z</time>
      </trkpt>
      <trkpt lat="44.73249" lon="3.78134">
        <ele>1036.6468092979</ele>
        <time>2015-04-23T15:23:10Z</time>
      </trkpt>
    </trkseg>
  </trk>
</gpx>